<?xml version="1.0" encoding="UTF-8" standalone="no" ?>
<gpx xmlns="http://www.topografix.com/GPX/1/1" xmlns:xsi="http://www.w3.org/2001/XMLSchema-instance" xsi:schemaLocation="http://www.topografix.com/GPX/1/1 http://www.topografix.com/GPX/1/1/gpx.xsd" version="1.1" creator="VisuGPX - https://www.visugpx.com">
  <metadata>
    <name>Tarare Lyon en VTT</name>
    <desc><![CDATA[Tarare Lyon via Oingt Lozanne
attention portage à l'entrée de la Foret de Brou.]]></desc>
  </metadata>
  <trk>
    <name><![CDATA[Tarare Lyon en VTT_1]]></name>
    <trkseg>
      <trkpt lat="45.89378" lon="4.43765">
        <ele>365.9189453125</ele>
        <time>2009-09-10T05:18:53Z</time>
      </trkpt>
      <trkpt lat="45.89388" lon="4.43768">
        <ele>291.8974609375</ele>
        <time>2009-09-10T05:18:54Z</time>
      </trkpt>
      <trkpt lat="45.8942" lon="4.43782">
        <ele>293.82006835938</ele>
        <time>2009-09-10T05:19:01Z</time>
      </trkpt>
      <trkpt lat="45.89454" lon="4.43788">
        <ele>295.26196289062</ele>
        <time>2009-09-10T05:19:08Z</time>
      </trkpt>
      <trkpt lat="45.89475" lon="4.43791">
        <ele>296.22351074219</ele>
        <time>2009-09-10T05:19:14Z</time>
      </trkpt>
      <trkpt lat="45.89482" lon="4.43776">
        <ele>296.22351074219</ele>
        <time>2009-09-10T05:19:18Z</time>
      </trkpt>
      <trkpt lat="45.89484" lon="4.43772">
        <ele>296.7041015625</ele>
        <time>2009-09-10T05:19:19Z</time>
      </trkpt>
      <trkpt lat="45.89498" lon="4.43775">
        <ele>296.7041015625</ele>
        <time>2009-09-10T05:19:23Z</time>
      </trkpt>
      <trkpt lat="45.89526" lon="4.43789">
        <ele>298.14611816406</ele>
        <time>2009-09-10T05:19:30Z</time>
      </trkpt>
      <trkpt lat="45.89544" lon="4.4378">
        <ele>299.10729980469</ele>
        <time>2009-09-10T05:19:34Z</time>
      </trkpt>
      <trkpt lat="45.89545" lon="4.43775">
        <ele>299.10729980469</ele>
        <time>2009-09-10T05:19:35Z</time>
      </trkpt>
      <trkpt lat="45.89565" lon="4.43729">
        <ele>300.06872558594</ele>
        <time>2009-09-10T05:19:44Z</time>
      </trkpt>
      <trkpt lat="45.89582" lon="4.43703">
        <ele>301.51062011719</ele>
        <time>2009-09-10T05:19:50Z</time>
      </trkpt>
      <trkpt lat="45.89588" lon="4.43694">
        <ele>301.51062011719</ele>
        <time>2009-09-10T05:19:52Z</time>
      </trkpt>
      <trkpt lat="45.89598" lon="4.43677">
        <ele>301.99133300781</ele>
        <time>2009-09-10T05:19:56Z</time>
      </trkpt>
      <trkpt lat="45.89616" lon="4.43693">
        <ele>303.43322753906</ele>
        <time>2009-09-10T05:20:00Z</time>
      </trkpt>
      <trkpt lat="45.89625" lon="4.43705">
        <ele>305.35595703125</ele>
        <time>2009-09-10T05:20:05Z</time>
      </trkpt>
      <trkpt lat="45.89629" lon="4.43709">
        <ele>306.7978515625</ele>
        <time>2009-09-10T05:20:07Z</time>
      </trkpt>
      <trkpt lat="45.89635" lon="4.43716">
        <ele>308.72045898438</ele>
        <time>2009-09-10T05:20:12Z</time>
      </trkpt>
      <trkpt lat="45.89645" lon="4.43724">
        <ele>310.64306640625</ele>
        <time>2009-09-10T05:20:19Z</time>
      </trkpt>
      <trkpt lat="45.89657" lon="4.43737">
        <ele>313.52722167969</ele>
        <time>2009-09-10T05:20:27Z</time>
      </trkpt>
      <trkpt lat="45.89667" lon="4.43749">
        <ele>316.41101074219</ele>
        <time>2009-09-10T05:20:35Z</time>
      </trkpt>
      <trkpt lat="45.8967" lon="4.43754">
        <ele>316.89172363281</ele>
        <time>2009-09-10T05:20:38Z</time>
      </trkpt>
      <trkpt lat="45.89677" lon="4.43762">
        <ele>318.33361816406</ele>
        <time>2009-09-10T05:20:44Z</time>
      </trkpt>
      <trkpt lat="45.89685" lon="4.43771">
        <ele>320.25634765625</ele>
        <time>2009-09-10T05:20:50Z</time>
      </trkpt>
      <trkpt lat="45.89694" lon="4.43781">
        <ele>323.14038085938</ele>
        <time>2009-09-10T05:20:57Z</time>
      </trkpt>
      <trkpt lat="45.89699" lon="4.43785">
        <ele>324.1015625</ele>
        <time>2009-09-10T05:21:00Z</time>
      </trkpt>
      <trkpt lat="45.89703" lon="4.43788">
        <ele>324.58227539062</ele>
        <time>2009-09-10T05:21:03Z</time>
      </trkpt>
      <trkpt lat="45.89712" lon="4.43802">
        <ele>327.46618652344</ele>
        <time>2009-09-10T05:21:12Z</time>
      </trkpt>
      <trkpt lat="45.89724" lon="4.43814">
        <ele>330.83093261719</ele>
        <time>2009-09-10T05:21:21Z</time>
      </trkpt>
      <trkpt lat="45.89729" lon="4.4382">
        <ele>332.27282714844</ele>
        <time>2009-09-10T05:21:25Z</time>
      </trkpt>
      <trkpt lat="45.89732" lon="4.43824">
        <ele>333.23413085938</ele>
        <time>2009-09-10T05:21:28Z</time>
      </trkpt>
      <trkpt lat="45.89724" lon="4.43843">
        <ele>335.15673828125</ele>
        <time>2009-09-10T05:21:37Z</time>
      </trkpt>
      <trkpt lat="45.89723" lon="4.43855">
        <ele>337.07946777344</ele>
        <time>2009-09-10T05:21:44Z</time>
      </trkpt>
      <trkpt lat="45.8972" lon="4.43868">
        <ele>338.04077148438</ele>
        <time>2009-09-10T05:21:50Z</time>
      </trkpt>
      <trkpt lat="45.89717" lon="4.43881">
        <ele>339.96337890625</ele>
        <time>2009-09-10T05:21:56Z</time>
      </trkpt>
      <trkpt lat="45.8971" lon="4.43903">
        <ele>342.84729003906</ele>
        <time>2009-09-10T05:22:06Z</time>
      </trkpt>
      <trkpt lat="45.89716" lon="4.43915">
        <ele>345.25061035156</ele>
        <time>2009-09-10T05:22:12Z</time>
      </trkpt>
      <trkpt lat="45.89728" lon="4.4392">
        <ele>346.69262695312</ele>
        <time>2009-09-10T05:22:20Z</time>
      </trkpt>
      <trkpt lat="45.89739" lon="4.43912">
        <ele>348.615234375</ele>
        <time>2009-09-10T05:22:28Z</time>
      </trkpt>
      <trkpt lat="45.8974" lon="4.43911">
        <ele>348.615234375</ele>
        <time>2009-09-10T05:22:29Z</time>
      </trkpt>
      <trkpt lat="45.89752" lon="4.439">
        <ele>350.53784179688</ele>
        <time>2009-09-10T05:22:37Z</time>
      </trkpt>
      <trkpt lat="45.89762" lon="4.43893">
        <ele>351.97985839844</ele>
        <time>2009-09-10T05:22:44Z</time>
      </trkpt>
      <trkpt lat="45.89773" lon="4.4389">
        <ele>353.90258789062</ele>
        <time>2009-09-10T05:22:51Z</time>
      </trkpt>
      <trkpt lat="45.89785" lon="4.43896">
        <ele>355.8251953125</ele>
        <time>2009-09-10T05:22:59Z</time>
      </trkpt>
      <trkpt lat="45.89797" lon="4.43901">
        <ele>358.22839355469</ele>
        <time>2009-09-10T05:23:07Z</time>
      </trkpt>
      <trkpt lat="45.89804" lon="4.43901">
        <ele>359.18969726562</ele>
        <time>2009-09-10T05:23:12Z</time>
      </trkpt>
      <trkpt lat="45.89815" lon="4.43893">
        <ele>361.59313964844</ele>
        <time>2009-09-10T05:23:20Z</time>
      </trkpt>
      <trkpt lat="45.89826" lon="4.43886">
        <ele>363.03503417969</ele>
        <time>2009-09-10T05:23:28Z</time>
      </trkpt>
      <trkpt lat="45.89837" lon="4.43878">
        <ele>364.95764160156</ele>
        <time>2009-09-10T05:23:36Z</time>
      </trkpt>
      <trkpt lat="45.89849" lon="4.4387">
        <ele>367.36096191406</ele>
        <time>2009-09-10T05:23:45Z</time>
      </trkpt>
      <trkpt lat="45.8986" lon="4.43871">
        <ele>368.80297851562</ele>
        <time>2009-09-10T05:23:51Z</time>
      </trkpt>
      <trkpt lat="45.8987" lon="4.43875">
        <ele>370.24487304688</ele>
        <time>2009-09-10T05:23:58Z</time>
      </trkpt>
      <trkpt lat="45.89878" lon="4.43872">
        <ele>370.7255859375</ele>
        <time>2009-09-10T05:24:03Z</time>
      </trkpt>
      <trkpt lat="45.89883" lon="4.4386">
        <ele>370.7255859375</ele>
        <time>2009-09-10T05:24:08Z</time>
      </trkpt>
      <trkpt lat="45.89883" lon="4.43859">
        <ele>370.7255859375</ele>
        <time>2009-09-10T05:24:09Z</time>
      </trkpt>
      <trkpt lat="45.89884" lon="4.43862">
        <ele>370.7255859375</ele>
        <time>2009-09-10T05:24:13Z</time>
      </trkpt>
      <trkpt lat="45.8988" lon="4.43865">
        <ele>371.20629882812</ele>
        <time>2009-09-10T05:24:16Z</time>
      </trkpt>
      <trkpt lat="45.89874" lon="4.43874">
        <ele>371.68688964844</ele>
        <time>2009-09-10T05:24:22Z</time>
      </trkpt>
      <trkpt lat="45.89873" lon="4.43876">
        <ele>371.68688964844</ele>
        <time>2009-09-10T05:24:23Z</time>
      </trkpt>
      <trkpt lat="45.89872" lon="4.43883">
        <ele>372.64819335938</ele>
        <time>2009-09-10T05:24:27Z</time>
      </trkpt>
      <trkpt lat="45.89869" lon="4.4389">
        <ele>373.12890625</ele>
        <time>2009-09-10T05:24:31Z</time>
      </trkpt>
      <trkpt lat="45.8986" lon="4.43902">
        <ele>374.57080078125</ele>
        <time>2009-09-10T05:24:38Z</time>
      </trkpt>
      <trkpt lat="45.89849" lon="4.43921">
        <ele>375.53210449219</ele>
        <time>2009-09-10T05:24:45Z</time>
      </trkpt>
      <trkpt lat="45.8984" lon="4.4394">
        <ele>376.49353027344</ele>
        <time>2009-09-10T05:24:51Z</time>
      </trkpt>
      <trkpt lat="45.89826" lon="4.43965">
        <ele>377.93542480469</ele>
        <time>2009-09-10T05:24:58Z</time>
      </trkpt>
      <trkpt lat="45.89815" lon="4.43988">
        <ele>379.37744140625</ele>
        <time>2009-09-10T05:25:04Z</time>
      </trkpt>
      <trkpt lat="45.89799" lon="4.44016">
        <ele>381.30004882812</ele>
        <time>2009-09-10T05:25:12Z</time>
      </trkpt>
      <trkpt lat="45.89787" lon="4.44037">
        <ele>383.22265625</ele>
        <time>2009-09-10T05:25:18Z</time>
      </trkpt>
      <trkpt lat="45.89771" lon="4.44064">
        <ele>384.66479492188</ele>
        <time>2009-09-10T05:25:26Z</time>
      </trkpt>
      <trkpt lat="45.89757" lon="4.44088">
        <ele>386.10668945312</ele>
        <time>2009-09-10T05:25:33Z</time>
      </trkpt>
      <trkpt lat="45.89745" lon="4.44122">
        <ele>388.029296875</ele>
        <time>2009-09-10T05:25:42Z</time>
      </trkpt>
      <trkpt lat="45.89741" lon="4.44158">
        <ele>389.95190429688</ele>
        <time>2009-09-10T05:25:51Z</time>
      </trkpt>
      <trkpt lat="45.89744" lon="4.44188">
        <ele>391.39379882812</ele>
        <time>2009-09-10T05:25:58Z</time>
      </trkpt>
      <trkpt lat="45.89756" lon="4.44216">
        <ele>392.8359375</ele>
        <time>2009-09-10T05:26:06Z</time>
      </trkpt>
      <trkpt lat="45.89769" lon="4.44228">
        <ele>394.75854492188</ele>
        <time>2009-09-10T05:26:12Z</time>
      </trkpt>
      <trkpt lat="45.89778" lon="4.44236">
        <ele>395.71984863281</ele>
        <time>2009-09-10T05:26:17Z</time>
      </trkpt>
      <trkpt lat="45.89786" lon="4.44244">
        <ele>396.68115234375</ele>
        <time>2009-09-10T05:26:22Z</time>
      </trkpt>
      <trkpt lat="45.89796" lon="4.44256">
        <ele>400.0458984375</ele>
        <time>2009-09-10T05:26:30Z</time>
      </trkpt>
      <trkpt lat="45.89802" lon="4.44268">
        <ele>401.96850585938</ele>
        <time>2009-09-10T05:26:37Z</time>
      </trkpt>
      <trkpt lat="45.89806" lon="4.44281">
        <ele>405.3330078125</ele>
        <time>2009-09-10T05:26:44Z</time>
      </trkpt>
      <trkpt lat="45.89806" lon="4.44283">
        <ele>405.81372070312</ele>
        <time>2009-09-10T05:26:45Z</time>
      </trkpt>
      <trkpt lat="45.89808" lon="4.44299">
        <ele>407.25561523438</ele>
        <time>2009-09-10T05:26:52Z</time>
      </trkpt>
      <trkpt lat="45.8981" lon="4.44315">
        <ele>408.69763183594</ele>
        <time>2009-09-10T05:26:59Z</time>
      </trkpt>
      <trkpt lat="45.8981" lon="4.44332">
        <ele>410.1396484375</ele>
        <time>2009-09-10T05:27:06Z</time>
      </trkpt>
      <trkpt lat="45.89809" lon="4.44337">
        <ele>411.10095214844</ele>
        <time>2009-09-10T05:27:08Z</time>
      </trkpt>
      <trkpt lat="45.89805" lon="4.44349">
        <ele>412.54284667969</ele>
        <time>2009-09-10T05:27:15Z</time>
      </trkpt>
      <trkpt lat="45.89799" lon="4.44359">
        <ele>413.98486328125</ele>
        <time>2009-09-10T05:27:21Z</time>
      </trkpt>
      <trkpt lat="45.89789" lon="4.44373">
        <ele>415.42687988281</ele>
        <time>2009-09-10T05:27:27Z</time>
      </trkpt>
      <trkpt lat="45.89779" lon="4.44386">
        <ele>417.349609375</ele>
        <time>2009-09-10T05:27:34Z</time>
      </trkpt>
      <trkpt lat="45.89775" lon="4.44403">
        <ele>418.79150390625</ele>
        <time>2009-09-10T05:27:41Z</time>
      </trkpt>
      <trkpt lat="45.89766" lon="4.4442">
        <ele>421.19482421875</ele>
        <time>2009-09-10T05:27:48Z</time>
      </trkpt>
      <trkpt lat="45.89759" lon="4.44434">
        <ele>422.63671875</ele>
        <time>2009-09-10T05:27:55Z</time>
      </trkpt>
      <trkpt lat="45.8975" lon="4.44455">
        <ele>426.00134277344</ele>
        <time>2009-09-10T05:28:05Z</time>
      </trkpt>
      <trkpt lat="45.89743" lon="4.44467">
        <ele>427.92395019531</ele>
        <time>2009-09-10T05:28:11Z</time>
      </trkpt>
      <trkpt lat="45.89736" lon="4.44484">
        <ele>429.84655761719</ele>
        <time>2009-09-10T05:28:19Z</time>
      </trkpt>
      <trkpt lat="45.89742" lon="4.44493">
        <ele>431.28857421875</ele>
        <time>2009-09-10T05:28:24Z</time>
      </trkpt>
      <trkpt lat="45.89743" lon="4.44492">
        <ele>431.28857421875</ele>
        <time>2009-09-10T05:28:25Z</time>
      </trkpt>
      <trkpt lat="45.89761" lon="4.44479">
        <ele>433.21130371094</ele>
        <time>2009-09-10T05:28:35Z</time>
      </trkpt>
      <trkpt lat="45.89777" lon="4.44465">
        <ele>435.13391113281</ele>
        <time>2009-09-10T05:28:44Z</time>
      </trkpt>
      <trkpt lat="45.89786" lon="4.44458">
        <ele>436.09521484375</ele>
        <time>2009-09-10T05:28:50Z</time>
      </trkpt>
      <trkpt lat="45.89798" lon="4.44448">
        <ele>437.05651855469</ele>
        <time>2009-09-10T05:28:57Z</time>
      </trkpt>
      <trkpt lat="45.89811" lon="4.44438">
        <ele>438.01782226562</ele>
        <time>2009-09-10T05:29:03Z</time>
      </trkpt>
      <trkpt lat="45.89827" lon="4.44424">
        <ele>438.97912597656</ele>
        <time>2009-09-10T05:29:11Z</time>
      </trkpt>
      <trkpt lat="45.89843" lon="4.44411">
        <ele>439.9404296875</ele>
        <time>2009-09-10T05:29:19Z</time>
      </trkpt>
      <trkpt lat="45.89855" lon="4.44402">
        <ele>440.90185546875</ele>
        <time>2009-09-10T05:29:25Z</time>
      </trkpt>
      <trkpt lat="45.89861" lon="4.44398">
        <ele>441.38244628906</ele>
        <time>2009-09-10T05:29:28Z</time>
      </trkpt>
      <trkpt lat="45.8987" lon="4.44384">
        <ele>444.7470703125</ele>
        <time>2009-09-10T05:29:35Z</time>
      </trkpt>
      <trkpt lat="45.8987" lon="4.44379">
        <ele>445.22766113281</ele>
        <time>2009-09-10T05:29:37Z</time>
      </trkpt>
      <trkpt lat="45.89877" lon="4.44363">
        <ele>447.15026855469</ele>
        <time>2009-09-10T05:29:44Z</time>
      </trkpt>
      <trkpt lat="45.89877" lon="4.44353">
        <ele>448.11181640625</ele>
        <time>2009-09-10T05:29:48Z</time>
      </trkpt>
      <trkpt lat="45.89879" lon="4.44334">
        <ele>450.03442382812</ele>
        <time>2009-09-10T05:29:56Z</time>
      </trkpt>
      <trkpt lat="45.8988" lon="4.44312">
        <ele>452.91821289062</ele>
        <time>2009-09-10T05:30:05Z</time>
      </trkpt>
      <trkpt lat="45.89883" lon="4.443">
        <ele>454.36022949219</ele>
        <time>2009-09-10T05:30:11Z</time>
      </trkpt>
      <trkpt lat="45.89886" lon="4.44304">
        <ele>454.36022949219</ele>
        <time>2009-09-10T05:30:15Z</time>
      </trkpt>
      <trkpt lat="45.89891" lon="4.44318">
        <ele>456.28295898438</ele>
        <time>2009-09-10T05:30:21Z</time>
      </trkpt>
      <trkpt lat="45.89893" lon="4.44313">
        <ele>456.28295898438</ele>
        <time>2009-09-10T05:30:25Z</time>
      </trkpt>
      <trkpt lat="45.89887" lon="4.44289">
        <ele>455.32153320312</ele>
        <time>2009-09-10T05:30:29Z</time>
      </trkpt>
      <trkpt lat="45.89895" lon="4.44274">
        <ele>455.32153320312</ele>
        <time>2009-09-10T05:30:32Z</time>
      </trkpt>
      <trkpt lat="45.89903" lon="4.44262">
        <ele>456.28295898438</ele>
        <time>2009-09-10T05:30:36Z</time>
      </trkpt>
      <trkpt lat="45.89904" lon="4.44258">
        <ele>456.76354980469</ele>
        <time>2009-09-10T05:30:37Z</time>
      </trkpt>
      <trkpt lat="45.8992" lon="4.44233">
        <ele>458.68615722656</ele>
        <time>2009-09-10T05:30:46Z</time>
      </trkpt>
      <trkpt lat="45.89935" lon="4.44219">
        <ele>459.16687011719</ele>
        <time>2009-09-10T05:30:53Z</time>
      </trkpt>
      <trkpt lat="45.89944" lon="4.44215">
        <ele>459.64758300781</ele>
        <time>2009-09-10T05:30:57Z</time>
      </trkpt>
      <trkpt lat="45.89952" lon="4.44214">
        <ele>460.12817382812</ele>
        <time>2009-09-10T05:31:02Z</time>
      </trkpt>
      <trkpt lat="45.89956" lon="4.44218">
        <ele>460.60876464844</ele>
        <time>2009-09-10T05:31:04Z</time>
      </trkpt>
      <trkpt lat="45.8997" lon="4.44231">
        <ele>462.05078125</ele>
        <time>2009-09-10T05:31:11Z</time>
      </trkpt>
      <trkpt lat="45.89985" lon="4.44249">
        <ele>463.97338867188</ele>
        <time>2009-09-10T05:31:19Z</time>
      </trkpt>
      <trkpt lat="45.89983" lon="4.44263">
        <ele>465.89611816406</ele>
        <time>2009-09-10T05:31:24Z</time>
      </trkpt>
      <trkpt lat="45.89977" lon="4.44269">
        <ele>467.33813476562</ele>
        <time>2009-09-10T05:31:28Z</time>
      </trkpt>
      <trkpt lat="45.89956" lon="4.44263">
        <ele>469.74133300781</ele>
        <time>2009-09-10T05:31:38Z</time>
      </trkpt>
      <trkpt lat="45.89942" lon="4.44267">
        <ele>470.70263671875</ele>
        <time>2009-09-10T05:31:44Z</time>
      </trkpt>
      <trkpt lat="45.89934" lon="4.44283">
        <ele>471.66394042969</ele>
        <time>2009-09-10T05:31:50Z</time>
      </trkpt>
      <trkpt lat="45.89933" lon="4.443">
        <ele>472.62536621094</ele>
        <time>2009-09-10T05:31:56Z</time>
      </trkpt>
      <trkpt lat="45.89933" lon="4.44316">
        <ele>474.06726074219</ele>
        <time>2009-09-10T05:32:02Z</time>
      </trkpt>
      <trkpt lat="45.89936" lon="4.44331">
        <ele>475.50927734375</ele>
        <time>2009-09-10T05:32:08Z</time>
      </trkpt>
      <trkpt lat="45.89944" lon="4.44346">
        <ele>477.91247558594</ele>
        <time>2009-09-10T05:32:16Z</time>
      </trkpt>
      <trkpt lat="45.89951" lon="4.44355">
        <ele>479.83508300781</ele>
        <time>2009-09-10T05:32:23Z</time>
      </trkpt>
      <trkpt lat="45.89952" lon="4.44357">
        <ele>480.31591796875</ele>
        <time>2009-09-10T05:32:24Z</time>
      </trkpt>
      <trkpt lat="45.89955" lon="4.44361">
        <ele>480.79663085938</ele>
        <time>2009-09-10T05:32:27Z</time>
      </trkpt>
      <trkpt lat="45.89963" lon="4.44379">
        <ele>483.68041992188</ele>
        <time>2009-09-10T05:32:37Z</time>
      </trkpt>
      <trkpt lat="45.89964" lon="4.44381">
        <ele>483.68041992188</ele>
        <time>2009-09-10T05:32:38Z</time>
      </trkpt>
      <trkpt lat="45.89967" lon="4.44385">
        <ele>484.1611328125</ele>
        <time>2009-09-10T05:32:41Z</time>
      </trkpt>
      <trkpt lat="45.89975" lon="4.44403">
        <ele>486.564453125</ele>
        <time>2009-09-10T05:32:51Z</time>
      </trkpt>
      <trkpt lat="45.89981" lon="4.44416">
        <ele>489.44836425781</ele>
        <time>2009-09-10T05:32:59Z</time>
      </trkpt>
      <trkpt lat="45.89981" lon="4.44418">
        <ele>489.92907714844</ele>
        <time>2009-09-10T05:33:00Z</time>
      </trkpt>
      <trkpt lat="45.89986" lon="4.44432">
        <ele>491.85168457031</ele>
        <time>2009-09-10T05:33:08Z</time>
      </trkpt>
      <trkpt lat="45.89993" lon="4.44445">
        <ele>492.81298828125</ele>
        <time>2009-09-10T05:33:16Z</time>
      </trkpt>
      <trkpt lat="45.89997" lon="4.44458">
        <ele>495.69689941406</ele>
        <time>2009-09-10T05:33:23Z</time>
      </trkpt>
      <trkpt lat="45.90001" lon="4.44465">
        <ele>497.13891601562</ele>
        <time>2009-09-10T05:33:28Z</time>
      </trkpt>
      <trkpt lat="45.90006" lon="4.44481">
        <ele>499.54223632812</ele>
        <time>2009-09-10T05:33:38Z</time>
      </trkpt>
      <trkpt lat="45.90011" lon="4.44491">
        <ele>501.46484375</ele>
        <time>2009-09-10T05:33:45Z</time>
      </trkpt>
      <trkpt lat="45.90011" lon="4.44497">
        <ele>502.90673828125</ele>
        <time>2009-09-10T05:33:49Z</time>
      </trkpt>
      <trkpt lat="45.90015" lon="4.44506">
        <ele>504.34887695312</ele>
        <time>2009-09-10T05:33:56Z</time>
      </trkpt>
      <trkpt lat="45.90017" lon="4.44522">
        <ele>506.75207519531</ele>
        <time>2009-09-10T05:34:06Z</time>
      </trkpt>
      <trkpt lat="45.90019" lon="4.44526">
        <ele>508.19409179688</ele>
        <time>2009-09-10T05:34:09Z</time>
      </trkpt>
      <trkpt lat="45.9002" lon="4.44532">
        <ele>509.63610839844</ele>
        <time>2009-09-10T05:34:13Z</time>
      </trkpt>
      <trkpt lat="45.90023" lon="4.44544">
        <ele>511.55871582031</ele>
        <time>2009-09-10T05:34:21Z</time>
      </trkpt>
      <trkpt lat="45.90026" lon="4.44558">
        <ele>514.44262695312</ele>
        <time>2009-09-10T05:34:30Z</time>
      </trkpt>
      <trkpt lat="45.90026" lon="4.4456">
        <ele>514.92333984375</ele>
        <time>2009-09-10T05:34:31Z</time>
      </trkpt>
      <trkpt lat="45.9003" lon="4.44572">
        <ele>516.84594726562</ele>
        <time>2009-09-10T05:34:39Z</time>
      </trkpt>
      <trkpt lat="45.90034" lon="4.44584">
        <ele>519.24926757812</ele>
        <time>2009-09-10T05:34:47Z</time>
      </trkpt>
      <trkpt lat="45.90036" lon="4.4459">
        <ele>520.69128417969</ele>
        <time>2009-09-10T05:34:51Z</time>
      </trkpt>
      <trkpt lat="45.90039" lon="4.44595">
        <ele>521.65258789062</ele>
        <time>2009-09-10T05:34:55Z</time>
      </trkpt>
      <trkpt lat="45.90045" lon="4.44606">
        <ele>523.5751953125</ele>
        <time>2009-09-10T05:35:03Z</time>
      </trkpt>
      <trkpt lat="45.90046" lon="4.44607">
        <ele>524.05578613281</ele>
        <time>2009-09-10T05:35:04Z</time>
      </trkpt>
      <trkpt lat="45.90051" lon="4.44622">
        <ele>525.97839355469</ele>
        <time>2009-09-10T05:35:13Z</time>
      </trkpt>
      <trkpt lat="45.90056" lon="4.44634">
        <ele>527.90100097656</ele>
        <time>2009-09-10T05:35:21Z</time>
      </trkpt>
      <trkpt lat="45.90062" lon="4.44651">
        <ele>530.78515625</ele>
        <time>2009-09-10T05:35:32Z</time>
      </trkpt>
      <trkpt lat="45.90067" lon="4.44665">
        <ele>533.6689453125</ele>
        <time>2009-09-10T05:35:41Z</time>
      </trkpt>
      <trkpt lat="45.90067" lon="4.44671">
        <ele>534.63037109375</ele>
        <time>2009-09-10T05:35:44Z</time>
      </trkpt>
      <trkpt lat="45.90071" lon="4.4468">
        <ele>536.07238769531</ele>
        <time>2009-09-10T05:35:50Z</time>
      </trkpt>
      <trkpt lat="45.90073" lon="4.44685">
        <ele>536.55310058594</ele>
        <time>2009-09-10T05:35:53Z</time>
      </trkpt>
      <trkpt lat="45.90071" lon="4.44688">
        <ele>537.03369140625</ele>
        <time>2009-09-10T05:35:57Z</time>
      </trkpt>
      <trkpt lat="45.90069" lon="4.4469">
        <ele>537.99499511719</ele>
        <time>2009-09-10T05:36:00Z</time>
      </trkpt>
      <trkpt lat="45.90075" lon="4.44694">
        <ele>538.47570800781</ele>
        <time>2009-09-10T05:36:05Z</time>
      </trkpt>
      <trkpt lat="45.90079" lon="4.44702">
        <ele>538.95629882812</ele>
        <time>2009-09-10T05:36:10Z</time>
      </trkpt>
      <trkpt lat="45.90086" lon="4.44718">
        <ele>541.35949707031</ele>
        <time>2009-09-10T05:36:20Z</time>
      </trkpt>
      <trkpt lat="45.90092" lon="4.44729">
        <ele>542.32092285156</ele>
        <time>2009-09-10T05:36:27Z</time>
      </trkpt>
      <trkpt lat="45.90092" lon="4.44731">
        <ele>542.80151367188</ele>
        <time>2009-09-10T05:36:28Z</time>
      </trkpt>
      <trkpt lat="45.90099" lon="4.44741">
        <ele>544.24365234375</ele>
        <time>2009-09-10T05:36:36Z</time>
      </trkpt>
      <trkpt lat="45.901" lon="4.44744">
        <ele>544.72424316406</ele>
        <time>2009-09-10T05:36:38Z</time>
      </trkpt>
      <trkpt lat="45.90107" lon="4.44757">
        <ele>545.20483398438</ele>
        <time>2009-09-10T05:36:47Z</time>
      </trkpt>
      <trkpt lat="45.90112" lon="4.44767">
        <ele>546.64685058594</ele>
        <time>2009-09-10T05:36:54Z</time>
      </trkpt>
      <trkpt lat="45.90119" lon="4.44781">
        <ele>548.5693359375</ele>
        <time>2009-09-10T05:37:04Z</time>
      </trkpt>
      <trkpt lat="45.90126" lon="4.44791">
        <ele>550.4921875</ele>
        <time>2009-09-10T05:37:12Z</time>
      </trkpt>
      <trkpt lat="45.90134" lon="4.44803">
        <ele>551.93408203125</ele>
        <time>2009-09-10T05:37:21Z</time>
      </trkpt>
      <trkpt lat="45.90141" lon="4.44813">
        <ele>553.85668945312</ele>
        <time>2009-09-10T05:37:29Z</time>
      </trkpt>
      <trkpt lat="45.90149" lon="4.44824">
        <ele>556.26000976562</ele>
        <time>2009-09-10T05:37:38Z</time>
      </trkpt>
      <trkpt lat="45.90158" lon="4.44835">
        <ele>558.66333007812</ele>
        <time>2009-09-10T05:37:48Z</time>
      </trkpt>
      <trkpt lat="45.90166" lon="4.44843">
        <ele>560.10522460938</ele>
        <time>2009-09-10T05:37:56Z</time>
      </trkpt>
      <trkpt lat="45.90174" lon="4.44851">
        <ele>562.50854492188</ele>
        <time>2009-09-10T05:38:05Z</time>
      </trkpt>
      <trkpt lat="45.9018" lon="4.44856">
        <ele>562.9892578125</ele>
        <time>2009-09-10T05:38:10Z</time>
      </trkpt>
      <trkpt lat="45.90188" lon="4.44864">
        <ele>564.91186523438</ele>
        <time>2009-09-10T05:38:17Z</time>
      </trkpt>
      <trkpt lat="45.90196" lon="4.4487">
        <ele>566.83447265625</ele>
        <time>2009-09-10T05:38:25Z</time>
      </trkpt>
      <trkpt lat="45.90205" lon="4.44877">
        <ele>568.75708007812</ele>
        <time>2009-09-10T05:38:33Z</time>
      </trkpt>
      <trkpt lat="45.90214" lon="4.44886">
        <ele>570.6796875</ele>
        <time>2009-09-10T05:38:41Z</time>
      </trkpt>
      <trkpt lat="45.90223" lon="4.44894">
        <ele>573.08325195312</ele>
        <time>2009-09-10T05:38:50Z</time>
      </trkpt>
      <trkpt lat="45.9023" lon="4.449">
        <ele>575.005859375</ele>
        <time>2009-09-10T05:38:57Z</time>
      </trkpt>
      <trkpt lat="45.90239" lon="4.44907">
        <ele>576.44775390625</ele>
        <time>2009-09-10T05:39:05Z</time>
      </trkpt>
      <trkpt lat="45.90248" lon="4.44915">
        <ele>578.85107421875</ele>
        <time>2009-09-10T05:39:13Z</time>
      </trkpt>
      <trkpt lat="45.90251" lon="4.44918">
        <ele>579.81225585938</ele>
        <time>2009-09-10T05:39:16Z</time>
      </trkpt>
      <trkpt lat="45.90255" lon="4.44922">
        <ele>581.25439453125</ele>
        <time>2009-09-10T05:39:20Z</time>
      </trkpt>
      <trkpt lat="45.90262" lon="4.4493">
        <ele>583.1767578125</ele>
        <time>2009-09-10T05:39:27Z</time>
      </trkpt>
      <trkpt lat="45.90269" lon="4.44935">
        <ele>584.61889648438</ele>
        <time>2009-09-10T05:39:34Z</time>
      </trkpt>
      <trkpt lat="45.90273" lon="4.4494">
        <ele>586.06079101562</ele>
        <time>2009-09-10T05:39:39Z</time>
      </trkpt>
      <trkpt lat="45.90283" lon="4.44947">
        <ele>588.94506835938</ele>
        <time>2009-09-10T05:39:50Z</time>
      </trkpt>
      <trkpt lat="45.90292" lon="4.44956">
        <ele>591.82885742188</ele>
        <time>2009-09-10T05:39:58Z</time>
      </trkpt>
      <trkpt lat="45.90294" lon="4.44958">
        <ele>591.82885742188</ele>
        <time>2009-09-10T05:39:59Z</time>
      </trkpt>
      <trkpt lat="45.90303" lon="4.44968">
        <ele>594.71264648438</ele>
        <time>2009-09-10T05:40:08Z</time>
      </trkpt>
      <trkpt lat="45.90311" lon="4.44976">
        <ele>597.11596679688</ele>
        <time>2009-09-10T05:40:17Z</time>
      </trkpt>
      <trkpt lat="45.90316" lon="4.44981">
        <ele>598.55786132812</ele>
        <time>2009-09-10T05:40:23Z</time>
      </trkpt>
      <trkpt lat="45.90323" lon="4.44986">
        <ele>600</ele>
        <time>2009-09-10T05:40:31Z</time>
      </trkpt>
      <trkpt lat="45.90331" lon="4.44992">
        <ele>602.40307617188</ele>
        <time>2009-09-10T05:40:39Z</time>
      </trkpt>
      <trkpt lat="45.90335" lon="4.44996">
        <ele>603.84521484375</ele>
        <time>2009-09-10T05:40:45Z</time>
      </trkpt>
      <trkpt lat="45.90342" lon="4.45001">
        <ele>604.806640625</ele>
        <time>2009-09-10T05:40:51Z</time>
      </trkpt>
      <trkpt lat="45.90343" lon="4.45002">
        <ele>604.806640625</ele>
        <time>2009-09-10T05:40:52Z</time>
      </trkpt>
      <trkpt lat="45.90348" lon="4.45004">
        <ele>607.2099609375</ele>
        <time>2009-09-10T05:40:56Z</time>
      </trkpt>
      <trkpt lat="45.90353" lon="4.45008">
        <ele>607.69067382812</ele>
        <time>2009-09-10T05:41:00Z</time>
      </trkpt>
      <trkpt lat="45.90362" lon="4.45015">
        <ele>609.61328125</ele>
        <time>2009-09-10T05:41:09Z</time>
      </trkpt>
      <trkpt lat="45.90368" lon="4.45019">
        <ele>611.53588867188</ele>
        <time>2009-09-10T05:41:16Z</time>
      </trkpt>
      <trkpt lat="45.90372" lon="4.45022">
        <ele>612.0166015625</ele>
        <time>2009-09-10T05:41:19Z</time>
      </trkpt>
      <trkpt lat="45.90376" lon="4.45025">
        <ele>612.97778320312</ele>
        <time>2009-09-10T05:41:24Z</time>
      </trkpt>
      <trkpt lat="45.90385" lon="4.45027">
        <ele>615.86181640625</ele>
        <time>2009-09-10T05:41:32Z</time>
      </trkpt>
      <trkpt lat="45.90389" lon="4.45032">
        <ele>616.82299804688</ele>
        <time>2009-09-10T05:41:38Z</time>
      </trkpt>
      <trkpt lat="45.90396" lon="4.45035">
        <ele>618.74560546875</ele>
        <time>2009-09-10T05:41:43Z</time>
      </trkpt>
      <trkpt lat="45.90407" lon="4.45041">
        <ele>620.66845703125</ele>
        <time>2009-09-10T05:41:50Z</time>
      </trkpt>
      <trkpt lat="45.90409" lon="4.45041">
        <ele>621.14916992188</ele>
        <time>2009-09-10T05:41:52Z</time>
      </trkpt>
      <trkpt lat="45.90417" lon="4.45045">
        <ele>623.07177734375</ele>
        <time>2009-09-10T05:41:57Z</time>
      </trkpt>
      <trkpt lat="45.90425" lon="4.4505">
        <ele>624.99438476562</ele>
        <time>2009-09-10T05:42:03Z</time>
      </trkpt>
      <trkpt lat="45.90426" lon="4.45051">
        <ele>624.99438476562</ele>
        <time>2009-09-10T05:42:04Z</time>
      </trkpt>
      <trkpt lat="45.9043" lon="4.45052">
        <ele>626.43627929688</ele>
        <time>2009-09-10T05:42:07Z</time>
      </trkpt>
      <trkpt lat="45.9044" lon="4.45056">
        <ele>628.83959960938</ele>
        <time>2009-09-10T05:42:15Z</time>
      </trkpt>
      <trkpt lat="45.90448" lon="4.4506">
        <ele>629.80078125</ele>
        <time>2009-09-10T05:42:22Z</time>
      </trkpt>
      <trkpt lat="45.90455" lon="4.45063">
        <ele>631.24291992188</ele>
        <time>2009-09-10T05:42:28Z</time>
      </trkpt>
      <trkpt lat="45.90463" lon="4.45066">
        <ele>633.16528320312</ele>
        <time>2009-09-10T05:42:34Z</time>
      </trkpt>
      <trkpt lat="45.90472" lon="4.45068">
        <ele>635.08813476562</ele>
        <time>2009-09-10T05:42:41Z</time>
      </trkpt>
      <trkpt lat="45.90482" lon="4.45071">
        <ele>637.0107421875</ele>
        <time>2009-09-10T05:42:51Z</time>
      </trkpt>
      <trkpt lat="45.90491" lon="4.45075">
        <ele>638.93359375</ele>
        <time>2009-09-10T05:42:58Z</time>
      </trkpt>
      <trkpt lat="45.90501" lon="4.45079">
        <ele>640.37548828125</ele>
        <time>2009-09-10T05:43:05Z</time>
      </trkpt>
      <trkpt lat="45.90512" lon="4.45082">
        <ele>642.29809570312</ele>
        <time>2009-09-10T05:43:15Z</time>
      </trkpt>
      <trkpt lat="45.9052" lon="4.45087">
        <ele>643.73999023438</ele>
        <time>2009-09-10T05:43:23Z</time>
      </trkpt>
      <trkpt lat="45.90532" lon="4.45092">
        <ele>645.18188476562</ele>
        <time>2009-09-10T05:43:32Z</time>
      </trkpt>
      <trkpt lat="45.90542" lon="4.45097">
        <ele>647.1044921875</ele>
        <time>2009-09-10T05:43:40Z</time>
      </trkpt>
      <trkpt lat="45.90554" lon="4.45105">
        <ele>649.02709960938</ele>
        <time>2009-09-10T05:43:49Z</time>
      </trkpt>
      <trkpt lat="45.90555" lon="4.45106">
        <ele>649.5078125</ele>
        <time>2009-09-10T05:43:50Z</time>
      </trkpt>
      <trkpt lat="45.90561" lon="4.45109">
        <ele>649.98852539062</ele>
        <time>2009-09-10T05:43:54Z</time>
      </trkpt>
      <trkpt lat="45.90567" lon="4.45112">
        <ele>650.46923828125</ele>
        <time>2009-09-10T05:43:59Z</time>
      </trkpt>
      <trkpt lat="45.90581" lon="4.45114">
        <ele>649.5078125</ele>
        <time>2009-09-10T05:44:06Z</time>
      </trkpt>
      <trkpt lat="45.90603" lon="4.45112">
        <ele>648.54638671875</ele>
        <time>2009-09-10T05:44:13Z</time>
      </trkpt>
      <trkpt lat="45.90629" lon="4.45109">
        <ele>646.6240234375</ele>
        <time>2009-09-10T05:44:19Z</time>
      </trkpt>
      <trkpt lat="45.90648" lon="4.45107">
        <ele>646.14331054688</ele>
        <time>2009-09-10T05:44:24Z</time>
      </trkpt>
      <trkpt lat="45.90667" lon="4.45111">
        <ele>645.66259765625</ele>
        <time>2009-09-10T05:44:30Z</time>
      </trkpt>
      <trkpt lat="45.90689" lon="4.4512">
        <ele>645.18188476562</ele>
        <time>2009-09-10T05:44:36Z</time>
      </trkpt>
      <trkpt lat="45.9071" lon="4.4513">
        <ele>645.66259765625</ele>
        <time>2009-09-10T05:44:43Z</time>
      </trkpt>
      <trkpt lat="45.90731" lon="4.45146">
        <ele>646.14331054688</ele>
        <time>2009-09-10T05:44:51Z</time>
      </trkpt>
      <trkpt lat="45.90746" lon="4.45162">
        <ele>646.6240234375</ele>
        <time>2009-09-10T05:44:58Z</time>
      </trkpt>
      <trkpt lat="45.90759" lon="4.45176">
        <ele>646.6240234375</ele>
        <time>2009-09-10T05:45:04Z</time>
      </trkpt>
      <trkpt lat="45.90769" lon="4.45188">
        <ele>647.58520507812</ele>
        <time>2009-09-10T05:45:09Z</time>
      </trkpt>
      <trkpt lat="45.90783" lon="4.45207">
        <ele>646.6240234375</ele>
        <time>2009-09-10T05:45:15Z</time>
      </trkpt>
      <trkpt lat="45.90793" lon="4.45224">
        <ele>646.14331054688</ele>
        <time>2009-09-10T05:45:19Z</time>
      </trkpt>
      <trkpt lat="45.90815" lon="4.45253">
        <ele>646.14331054688</ele>
        <time>2009-09-10T05:45:26Z</time>
      </trkpt>
      <trkpt lat="45.90828" lon="4.4528">
        <ele>646.14331054688</ele>
        <time>2009-09-10T05:45:32Z</time>
      </trkpt>
      <trkpt lat="45.90838" lon="4.45307">
        <ele>646.6240234375</ele>
        <time>2009-09-10T05:45:38Z</time>
      </trkpt>
      <trkpt lat="45.90846" lon="4.45328">
        <ele>647.1044921875</ele>
        <time>2009-09-10T05:45:43Z</time>
      </trkpt>
      <trkpt lat="45.90854" lon="4.45351">
        <ele>647.1044921875</ele>
        <time>2009-09-10T05:45:49Z</time>
      </trkpt>
      <trkpt lat="45.90855" lon="4.45374">
        <ele>646.14331054688</ele>
        <time>2009-09-10T05:45:53Z</time>
      </trkpt>
      <trkpt lat="45.90856" lon="4.4541">
        <ele>643.73999023438</ele>
        <time>2009-09-10T05:45:57Z</time>
      </trkpt>
      <trkpt lat="45.90866" lon="4.45489">
        <ele>641.8173828125</ele>
        <time>2009-09-10T05:46:05Z</time>
      </trkpt>
      <trkpt lat="45.90876" lon="4.4553">
        <ele>642.77880859375</ele>
        <time>2009-09-10T05:46:11Z</time>
      </trkpt>
      <trkpt lat="45.90888" lon="4.45574">
        <ele>643.73999023438</ele>
        <time>2009-09-10T05:46:19Z</time>
      </trkpt>
      <trkpt lat="45.90903" lon="4.45625">
        <ele>643.73999023438</ele>
        <time>2009-09-10T05:46:28Z</time>
      </trkpt>
      <trkpt lat="45.90909" lon="4.45642">
        <ele>643.73999023438</ele>
        <time>2009-09-10T05:46:33Z</time>
      </trkpt>
      <trkpt lat="45.90908" lon="4.45646">
        <ele>649.02709960938</ele>
        <time>2009-09-10T05:51:34Z</time>
      </trkpt>
      <trkpt lat="45.90909" lon="4.45647">
        <ele>649.02709960938</ele>
        <time>2009-09-10T05:51:35Z</time>
      </trkpt>
      <trkpt lat="45.90914" lon="4.45656">
        <ele>649.5078125</ele>
        <time>2009-09-10T05:51:39Z</time>
      </trkpt>
      <trkpt lat="45.90928" lon="4.45682">
        <ele>649.5078125</ele>
        <time>2009-09-10T05:51:46Z</time>
      </trkpt>
      <trkpt lat="45.90932" lon="4.45697">
        <ele>648.06591796875</ele>
        <time>2009-09-10T05:51:49Z</time>
      </trkpt>
      <trkpt lat="45.90925" lon="4.45729">
        <ele>646.14331054688</ele>
        <time>2009-09-10T05:51:54Z</time>
      </trkpt>
      <trkpt lat="45.90923" lon="4.45736">
        <ele>645.66259765625</ele>
        <time>2009-09-10T05:51:55Z</time>
      </trkpt>
      <trkpt lat="45.90921" lon="4.45744">
        <ele>645.18188476562</ele>
        <time>2009-09-10T05:51:56Z</time>
      </trkpt>
      <trkpt lat="45.90914" lon="4.45766">
        <ele>642.77880859375</ele>
        <time>2009-09-10T05:51:59Z</time>
      </trkpt>
      <trkpt lat="45.90905" lon="4.45795">
        <ele>639.4140625</ele>
        <time>2009-09-10T05:52:03Z</time>
      </trkpt>
      <trkpt lat="45.909" lon="4.45811">
        <ele>638.45288085938</ele>
        <time>2009-09-10T05:52:05Z</time>
      </trkpt>
      <trkpt lat="45.90882" lon="4.45853">
        <ele>635.08813476562</ele>
        <time>2009-09-10T05:52:10Z</time>
      </trkpt>
      <trkpt lat="45.90875" lon="4.45871">
        <ele>633.64599609375</ele>
        <time>2009-09-10T05:52:12Z</time>
      </trkpt>
      <trkpt lat="45.90867" lon="4.45886">
        <ele>632.68481445312</ele>
        <time>2009-09-10T05:52:14Z</time>
      </trkpt>
      <trkpt lat="45.90862" lon="4.45893">
        <ele>632.2041015625</ele>
        <time>2009-09-10T05:52:15Z</time>
      </trkpt>
      <trkpt lat="45.90844" lon="4.45942">
        <ele>628.83959960938</ele>
        <time>2009-09-10T05:52:20Z</time>
      </trkpt>
      <trkpt lat="45.90836" lon="4.45981">
        <ele>626.9169921875</ele>
        <time>2009-09-10T05:52:24Z</time>
      </trkpt>
      <trkpt lat="45.90834" lon="4.45996">
        <ele>625.47485351562</ele>
        <time>2009-09-10T05:52:26Z</time>
      </trkpt>
      <trkpt lat="45.90836" lon="4.46007">
        <ele>624.03295898438</ele>
        <time>2009-09-10T05:52:29Z</time>
      </trkpt>
      <trkpt lat="45.90843" lon="4.46021">
        <ele>622.1103515625</ele>
        <time>2009-09-10T05:52:33Z</time>
      </trkpt>
      <trkpt lat="45.90858" lon="4.46024">
        <ele>619.70703125</ele>
        <time>2009-09-10T05:52:37Z</time>
      </trkpt>
      <trkpt lat="45.90888" lon="4.46009">
        <ele>616.34228515625</ele>
        <time>2009-09-10T05:52:43Z</time>
      </trkpt>
      <trkpt lat="45.90899" lon="4.45998">
        <ele>615.86181640625</ele>
        <time>2009-09-10T05:52:45Z</time>
      </trkpt>
      <trkpt lat="45.90922" lon="4.45985">
        <ele>612.97778320312</ele>
        <time>2009-09-10T05:52:49Z</time>
      </trkpt>
      <trkpt lat="45.90929" lon="4.45985">
        <ele>612.97778320312</ele>
        <time>2009-09-10T05:52:50Z</time>
      </trkpt>
      <trkpt lat="45.90937" lon="4.45986">
        <ele>612.4970703125</ele>
        <time>2009-09-10T05:52:51Z</time>
      </trkpt>
      <trkpt lat="45.90972" lon="4.4601">
        <ele>611.53588867188</ele>
        <time>2009-09-10T05:52:57Z</time>
      </trkpt>
      <trkpt lat="45.91003" lon="4.46033">
        <ele>609.61328125</ele>
        <time>2009-09-10T05:53:02Z</time>
      </trkpt>
      <trkpt lat="45.91035" lon="4.46045">
        <ele>606.72924804688</ele>
        <time>2009-09-10T05:53:06Z</time>
      </trkpt>
      <trkpt lat="45.91062" lon="4.46052">
        <ele>603.84521484375</ele>
        <time>2009-09-10T05:53:09Z</time>
      </trkpt>
      <trkpt lat="45.91083" lon="4.46071">
        <ele>600</ele>
        <time>2009-09-10T05:53:13Z</time>
      </trkpt>
      <trkpt lat="45.91091" lon="4.46071">
        <ele>600</ele>
        <time>2009-09-10T05:53:16Z</time>
      </trkpt>
      <trkpt lat="45.91093" lon="4.46068">
        <ele>600</ele>
        <time>2009-09-10T05:53:17Z</time>
      </trkpt>
      <trkpt lat="45.91097" lon="4.46055">
        <ele>601.44189453125</ele>
        <time>2009-09-10T05:53:22Z</time>
      </trkpt>
      <trkpt lat="45.91107" lon="4.46043">
        <ele>602.40307617188</ele>
        <time>2009-09-10T05:53:27Z</time>
      </trkpt>
      <trkpt lat="45.91129" lon="4.46023">
        <ele>602.8837890625</ele>
        <time>2009-09-10T05:53:36Z</time>
      </trkpt>
      <trkpt lat="45.91148" lon="4.45994">
        <ele>604.326171875</ele>
        <time>2009-09-10T05:53:45Z</time>
      </trkpt>
      <trkpt lat="45.9116" lon="4.45965">
        <ele>604.806640625</ele>
        <time>2009-09-10T05:53:53Z</time>
      </trkpt>
      <trkpt lat="45.91172" lon="4.45932">
        <ele>606.72924804688</ele>
        <time>2009-09-10T05:54:02Z</time>
      </trkpt>
      <trkpt lat="45.91176" lon="4.45912">
        <ele>607.69067382812</ele>
        <time>2009-09-10T05:54:08Z</time>
      </trkpt>
      <trkpt lat="45.9118" lon="4.45898">
        <ele>608.65185546875</ele>
        <time>2009-09-10T05:54:13Z</time>
      </trkpt>
      <trkpt lat="45.91188" lon="4.45905">
        <ele>606.72924804688</ele>
        <time>2009-09-10T05:54:18Z</time>
      </trkpt>
      <trkpt lat="45.91202" lon="4.45936">
        <ele>604.806640625</ele>
        <time>2009-09-10T05:54:23Z</time>
      </trkpt>
      <trkpt lat="45.91225" lon="4.45986">
        <ele>602.8837890625</ele>
        <time>2009-09-10T05:54:29Z</time>
      </trkpt>
      <trkpt lat="45.91249" lon="4.46038">
        <ele>600.96118164062</ele>
        <time>2009-09-10T05:54:36Z</time>
      </trkpt>
      <trkpt lat="45.91248" lon="4.4604">
        <ele>600.48071289062</ele>
        <time>2009-09-10T05:54:37Z</time>
      </trkpt>
      <trkpt lat="45.91249" lon="4.4604">
        <ele>601.44189453125</ele>
        <time>2009-09-10T05:54:41Z</time>
      </trkpt>
      <trkpt lat="45.91253" lon="4.46049">
        <ele>601.44189453125</ele>
        <time>2009-09-10T05:54:45Z</time>
      </trkpt>
      <trkpt lat="45.9126" lon="4.46084">
        <ele>601.44189453125</ele>
        <time>2009-09-10T05:54:54Z</time>
      </trkpt>
      <trkpt lat="45.9127" lon="4.4613">
        <ele>601.44189453125</ele>
        <time>2009-09-10T05:55:04Z</time>
      </trkpt>
      <trkpt lat="45.91281" lon="4.46174">
        <ele>602.40307617188</ele>
        <time>2009-09-10T05:55:13Z</time>
      </trkpt>
      <trkpt lat="45.9129" lon="4.46205">
        <ele>600.96118164062</ele>
        <time>2009-09-10T05:55:19Z</time>
      </trkpt>
      <trkpt lat="45.91292" lon="4.46213">
        <ele>600.96118164062</ele>
        <time>2009-09-10T05:55:20Z</time>
      </trkpt>
      <trkpt lat="45.91304" lon="4.46246">
        <ele>599.03857421875</ele>
        <time>2009-09-10T05:55:24Z</time>
      </trkpt>
      <trkpt lat="45.91309" lon="4.46263">
        <ele>597.11596679688</ele>
        <time>2009-09-10T05:55:26Z</time>
      </trkpt>
      <trkpt lat="45.91325" lon="4.46301">
        <ele>593.27075195312</ele>
        <time>2009-09-10T05:55:31Z</time>
      </trkpt>
      <trkpt lat="45.91327" lon="4.4631">
        <ele>592.79028320312</ele>
        <time>2009-09-10T05:55:32Z</time>
      </trkpt>
      <trkpt lat="45.91328" lon="4.46339">
        <ele>590.38696289062</ele>
        <time>2009-09-10T05:55:35Z</time>
      </trkpt>
      <trkpt lat="45.9133" lon="4.4639">
        <ele>585.099609375</ele>
        <time>2009-09-10T05:55:40Z</time>
      </trkpt>
      <trkpt lat="45.91331" lon="4.4642">
        <ele>580.77368164062</ele>
        <time>2009-09-10T05:55:43Z</time>
      </trkpt>
      <trkpt lat="45.91333" lon="4.46464">
        <ele>576.92846679688</ele>
        <time>2009-09-10T05:55:47Z</time>
      </trkpt>
      <trkpt lat="45.91334" lon="4.46502">
        <ele>573.08325195312</ele>
        <time>2009-09-10T05:55:50Z</time>
      </trkpt>
      <trkpt lat="45.91335" lon="4.46525">
        <ele>572.12182617188</ele>
        <time>2009-09-10T05:55:52Z</time>
      </trkpt>
      <trkpt lat="45.91333" lon="4.4657">
        <ele>570.19897460938</ele>
        <time>2009-09-10T05:55:56Z</time>
      </trkpt>
      <trkpt lat="45.91325" lon="4.46622">
        <ele>567.79565429688</ele>
        <time>2009-09-10T05:56:01Z</time>
      </trkpt>
      <trkpt lat="45.91312" lon="4.46687">
        <ele>567.79565429688</ele>
        <time>2009-09-10T05:56:08Z</time>
      </trkpt>
      <trkpt lat="45.91309" lon="4.46706">
        <ele>568.2763671875</ele>
        <time>2009-09-10T05:56:12Z</time>
      </trkpt>
      <trkpt lat="45.91308" lon="4.4672">
        <ele>569.71850585938</ele>
        <time>2009-09-10T05:56:18Z</time>
      </trkpt>
      <trkpt lat="45.91307" lon="4.46732">
        <ele>570.19897460938</ele>
        <time>2009-09-10T05:56:26Z</time>
      </trkpt>
      <trkpt lat="45.91306" lon="4.46735">
        <ele>570.6796875</ele>
        <time>2009-09-10T05:56:29Z</time>
      </trkpt>
      <trkpt lat="45.91306" lon="4.46727">
        <ele>571.16040039062</ele>
        <time>2009-09-10T05:57:20Z</time>
      </trkpt>
      <trkpt lat="45.91293" lon="4.46742">
        <ele>571.16040039062</ele>
        <time>2009-09-10T05:57:25Z</time>
      </trkpt>
      <trkpt lat="45.91284" lon="4.46751">
        <ele>570.6796875</ele>
        <time>2009-09-10T05:57:28Z</time>
      </trkpt>
      <trkpt lat="45.91256" lon="4.46779">
        <ele>567.79565429688</ele>
        <time>2009-09-10T05:57:35Z</time>
      </trkpt>
      <trkpt lat="45.91248" lon="4.46789">
        <ele>566.83447265625</ele>
        <time>2009-09-10T05:57:37Z</time>
      </trkpt>
      <trkpt lat="45.91231" lon="4.46815">
        <ele>562.9892578125</ele>
        <time>2009-09-10T05:57:42Z</time>
      </trkpt>
      <trkpt lat="45.91228" lon="4.46821">
        <ele>562.02807617188</ele>
        <time>2009-09-10T05:57:43Z</time>
      </trkpt>
      <trkpt lat="45.91218" lon="4.46848">
        <ele>559.14404296875</ele>
        <time>2009-09-10T05:57:47Z</time>
      </trkpt>
      <trkpt lat="45.91205" lon="4.46889">
        <ele>555.29858398438</ele>
        <time>2009-09-10T05:57:53Z</time>
      </trkpt>
      <trkpt lat="45.91196" lon="4.46915">
        <ele>553.85668945312</ele>
        <time>2009-09-10T05:57:57Z</time>
      </trkpt>
      <trkpt lat="45.91188" lon="4.4694">
        <ele>550.01147460938</ele>
        <time>2009-09-10T05:58:01Z</time>
      </trkpt>
      <trkpt lat="45.91187" lon="4.46943">
        <ele>549.53076171875</ele>
        <time>2009-09-10T05:58:03Z</time>
      </trkpt>
      <trkpt lat="45.91189" lon="4.46943">
        <ele>550.01147460938</ele>
        <time>2009-09-10T05:58:15Z</time>
      </trkpt>
      <trkpt lat="45.91189" lon="4.46947">
        <ele>549.53076171875</ele>
        <time>2009-09-10T05:58:23Z</time>
      </trkpt>
      <trkpt lat="45.9118" lon="4.4697">
        <ele>547.60815429688</ele>
        <time>2009-09-10T05:58:28Z</time>
      </trkpt>
      <trkpt lat="45.91174" lon="4.46987">
        <ele>544.24365234375</ele>
        <time>2009-09-10T05:58:31Z</time>
      </trkpt>
      <trkpt lat="45.91172" lon="4.46993">
        <ele>543.28210449219</ele>
        <time>2009-09-10T05:58:32Z</time>
      </trkpt>
      <trkpt lat="45.91167" lon="4.47019">
        <ele>540.39831542969</ele>
        <time>2009-09-10T05:58:36Z</time>
      </trkpt>
      <trkpt lat="45.91159" lon="4.47049">
        <ele>537.03369140625</ele>
        <time>2009-09-10T05:58:40Z</time>
      </trkpt>
      <trkpt lat="45.91157" lon="4.47064">
        <ele>536.07238769531</ele>
        <time>2009-09-10T05:58:42Z</time>
      </trkpt>
      <trkpt lat="45.91152" lon="4.47086">
        <ele>533.6689453125</ele>
        <time>2009-09-10T05:58:45Z</time>
      </trkpt>
      <trkpt lat="45.91151" lon="4.47116">
        <ele>531.26574707031</ele>
        <time>2009-09-10T05:58:49Z</time>
      </trkpt>
      <trkpt lat="45.91152" lon="4.47126">
        <ele>530.30444335938</ele>
        <time>2009-09-10T05:58:50Z</time>
      </trkpt>
      <trkpt lat="45.91156" lon="4.47146">
        <ele>530.30444335938</ele>
        <time>2009-09-10T05:58:52Z</time>
      </trkpt>
      <trkpt lat="45.91167" lon="4.47174">
        <ele>528.3818359375</ele>
        <time>2009-09-10T05:58:55Z</time>
      </trkpt>
      <trkpt lat="45.91185" lon="4.47215">
        <ele>525.49780273438</ele>
        <time>2009-09-10T05:58:59Z</time>
      </trkpt>
      <trkpt lat="45.91191" lon="4.47235">
        <ele>524.05578613281</ele>
        <time>2009-09-10T05:59:01Z</time>
      </trkpt>
      <trkpt lat="45.9119" lon="4.47265">
        <ele>521.17199707031</ele>
        <time>2009-09-10T05:59:05Z</time>
      </trkpt>
      <trkpt lat="45.91186" lon="4.47271">
        <ele>521.17199707031</ele>
        <time>2009-09-10T05:59:06Z</time>
      </trkpt>
      <trkpt lat="45.91159" lon="4.47315">
        <ele>519.24926757812</ele>
        <time>2009-09-10T05:59:12Z</time>
      </trkpt>
      <trkpt lat="45.91144" lon="4.47341">
        <ele>517.80725097656</ele>
        <time>2009-09-10T05:59:15Z</time>
      </trkpt>
      <trkpt lat="45.91132" lon="4.47386">
        <ele>514.92333984375</ele>
        <time>2009-09-10T05:59:19Z</time>
      </trkpt>
      <trkpt lat="45.91127" lon="4.4744">
        <ele>510.11669921875</ele>
        <time>2009-09-10T05:59:23Z</time>
      </trkpt>
      <trkpt lat="45.91126" lon="4.47482">
        <ele>506.75207519531</ele>
        <time>2009-09-10T05:59:26Z</time>
      </trkpt>
      <trkpt lat="45.91127" lon="4.47495">
        <ele>505.79089355469</ele>
        <time>2009-09-10T05:59:27Z</time>
      </trkpt>
      <trkpt lat="45.91138" lon="4.47533">
        <ele>503.38745117188</ele>
        <time>2009-09-10T05:59:31Z</time>
      </trkpt>
      <trkpt lat="45.9115" lon="4.47546">
        <ele>504.82946777344</ele>
        <time>2009-09-10T05:59:34Z</time>
      </trkpt>
      <trkpt lat="45.91156" lon="4.47549">
        <ele>505.79089355469</ele>
        <time>2009-09-10T05:59:36Z</time>
      </trkpt>
      <trkpt lat="45.91173" lon="4.47555">
        <ele>508.67468261719</ele>
        <time>2009-09-10T05:59:43Z</time>
      </trkpt>
      <trkpt lat="45.91185" lon="4.47556">
        <ele>510.59729003906</ele>
        <time>2009-09-10T05:59:49Z</time>
      </trkpt>
      <trkpt lat="45.91206" lon="4.47557">
        <ele>513.00073242188</ele>
        <time>2009-09-10T05:59:58Z</time>
      </trkpt>
      <trkpt lat="45.91223" lon="4.47557">
        <ele>514.44262695312</ele>
        <time>2009-09-10T06:00:06Z</time>
      </trkpt>
      <trkpt lat="45.91234" lon="4.47559">
        <ele>514.44262695312</ele>
        <time>2009-09-10T06:00:10Z</time>
      </trkpt>
      <trkpt lat="45.9124" lon="4.47572">
        <ele>513.96203613281</ele>
        <time>2009-09-10T06:00:14Z</time>
      </trkpt>
      <trkpt lat="45.91238" lon="4.47597">
        <ele>512.03942871094</ele>
        <time>2009-09-10T06:00:18Z</time>
      </trkpt>
      <trkpt lat="45.9124" lon="4.4765">
        <ele>509.63610839844</ele>
        <time>2009-09-10T06:00:24Z</time>
      </trkpt>
      <trkpt lat="45.9124" lon="4.477">
        <ele>505.79089355469</ele>
        <time>2009-09-10T06:00:30Z</time>
      </trkpt>
      <trkpt lat="45.9124" lon="4.47727">
        <ele>503.8681640625</ele>
        <time>2009-09-10T06:00:34Z</time>
      </trkpt>
      <trkpt lat="45.91241" lon="4.47756">
        <ele>500.02294921875</ele>
        <time>2009-09-10T06:00:38Z</time>
      </trkpt>
      <trkpt lat="45.91247" lon="4.47798">
        <ele>496.177734375</ele>
        <time>2009-09-10T06:00:43Z</time>
      </trkpt>
      <trkpt lat="45.9125" lon="4.47814">
        <ele>495.21618652344</ele>
        <time>2009-09-10T06:00:45Z</time>
      </trkpt>
      <trkpt lat="45.91254" lon="4.47837">
        <ele>492.81298828125</ele>
        <time>2009-09-10T06:00:48Z</time>
      </trkpt>
      <trkpt lat="45.91261" lon="4.47872">
        <ele>489.44836425781</ele>
        <time>2009-09-10T06:00:53Z</time>
      </trkpt>
      <trkpt lat="45.91263" lon="4.47886">
        <ele>487.52563476562</ele>
        <time>2009-09-10T06:00:55Z</time>
      </trkpt>
      <trkpt lat="45.91264" lon="4.47899">
        <ele>486.564453125</ele>
        <time>2009-09-10T06:00:57Z</time>
      </trkpt>
      <trkpt lat="45.91265" lon="4.47908">
        <ele>485.60302734375</ele>
        <time>2009-09-10T06:01:00Z</time>
      </trkpt>
      <trkpt lat="45.91271" lon="4.47909">
        <ele>485.12243652344</ele>
        <time>2009-09-10T06:01:04Z</time>
      </trkpt>
      <trkpt lat="45.91274" lon="4.47909">
        <ele>485.12243652344</ele>
        <time>2009-09-10T06:01:05Z</time>
      </trkpt>
      <trkpt lat="45.91285" lon="4.47912">
        <ele>483.68041992188</ele>
        <time>2009-09-10T06:01:09Z</time>
      </trkpt>
      <trkpt lat="45.9129" lon="4.47916">
        <ele>482.23852539062</ele>
        <time>2009-09-10T06:01:12Z</time>
      </trkpt>
      <trkpt lat="45.9129" lon="4.47916">
        <ele>482.23852539062</ele>
        <time>2009-09-10T06:01:18Z</time>
      </trkpt>
      <trkpt lat="45.91293" lon="4.47923">
        <ele>480.31591796875</ele>
        <time>2009-09-10T06:01:28Z</time>
      </trkpt>
      <trkpt lat="45.91297" lon="4.4793">
        <ele>478.87390136719</ele>
        <time>2009-09-10T06:01:31Z</time>
      </trkpt>
      <trkpt lat="45.91301" lon="4.47933">
        <ele>477.43188476562</ele>
        <time>2009-09-10T06:01:33Z</time>
      </trkpt>
      <trkpt lat="45.91311" lon="4.47947">
        <ele>473.10607910156</ele>
        <time>2009-09-10T06:01:38Z</time>
      </trkpt>
      <trkpt lat="45.91315" lon="4.47957">
        <ele>471.66394042969</ele>
        <time>2009-09-10T06:01:41Z</time>
      </trkpt>
      <trkpt lat="45.91318" lon="4.47963">
        <ele>468.29931640625</ele>
        <time>2009-09-10T06:01:43Z</time>
      </trkpt>
      <trkpt lat="45.91327" lon="4.47975">
        <ele>465.89611816406</ele>
        <time>2009-09-10T06:01:48Z</time>
      </trkpt>
      <trkpt lat="45.91333" lon="4.47985">
        <ele>462.53137207031</ele>
        <time>2009-09-10T06:01:52Z</time>
      </trkpt>
      <trkpt lat="45.91334" lon="4.47987">
        <ele>462.53137207031</ele>
        <time>2009-09-10T06:01:53Z</time>
      </trkpt>
      <trkpt lat="45.91342" lon="4.48001">
        <ele>459.16687011719</ele>
        <time>2009-09-10T06:01:57Z</time>
      </trkpt>
      <trkpt lat="45.91344" lon="4.48004">
        <ele>458.68615722656</ele>
        <time>2009-09-10T06:01:58Z</time>
      </trkpt>
      <trkpt lat="45.91353" lon="4.48025">
        <ele>455.32153320312</ele>
        <time>2009-09-10T06:02:03Z</time>
      </trkpt>
      <trkpt lat="45.91358" lon="4.48039">
        <ele>451.95703125</ele>
        <time>2009-09-10T06:02:06Z</time>
      </trkpt>
      <trkpt lat="45.91365" lon="4.48048">
        <ele>449.07299804688</ele>
        <time>2009-09-10T06:02:09Z</time>
      </trkpt>
      <trkpt lat="45.9137" lon="4.4805">
        <ele>447.63098144531</ele>
        <time>2009-09-10T06:02:12Z</time>
      </trkpt>
      <trkpt lat="45.91378" lon="4.48068">
        <ele>445.22766113281</ele>
        <time>2009-09-10T06:02:17Z</time>
      </trkpt>
      <trkpt lat="45.91379" lon="4.48072">
        <ele>444.7470703125</ele>
        <time>2009-09-10T06:02:18Z</time>
      </trkpt>
      <trkpt lat="45.91384" lon="4.4809">
        <ele>441.38244628906</ele>
        <time>2009-09-10T06:02:22Z</time>
      </trkpt>
      <trkpt lat="45.91385" lon="4.48095">
        <ele>441.38244628906</ele>
        <time>2009-09-10T06:02:23Z</time>
      </trkpt>
      <trkpt lat="45.91388" lon="4.48111">
        <ele>438.49853515625</ele>
        <time>2009-09-10T06:02:26Z</time>
      </trkpt>
      <trkpt lat="45.91392" lon="4.48128">
        <ele>434.6533203125</ele>
        <time>2009-09-10T06:02:30Z</time>
      </trkpt>
      <trkpt lat="45.91391" lon="4.48158">
        <ele>430.80798339844</ele>
        <time>2009-09-10T06:02:36Z</time>
      </trkpt>
      <trkpt lat="45.91388" lon="4.48171">
        <ele>429.36596679688</ele>
        <time>2009-09-10T06:02:39Z</time>
      </trkpt>
      <trkpt lat="45.91386" lon="4.48183">
        <ele>427.92395019531</ele>
        <time>2009-09-10T06:02:43Z</time>
      </trkpt>
      <trkpt lat="45.91385" lon="4.482">
        <ele>425.04016113281</ele>
        <time>2009-09-10T06:02:48Z</time>
      </trkpt>
      <trkpt lat="45.91384" lon="4.48222">
        <ele>422.63671875</ele>
        <time>2009-09-10T06:02:53Z</time>
      </trkpt>
      <trkpt lat="45.91381" lon="4.4824">
        <ele>419.75280761719</ele>
        <time>2009-09-10T06:02:57Z</time>
      </trkpt>
      <trkpt lat="45.91376" lon="4.4826">
        <ele>417.349609375</ele>
        <time>2009-09-10T06:03:01Z</time>
      </trkpt>
      <trkpt lat="45.91375" lon="4.48265">
        <ele>416.86889648438</ele>
        <time>2009-09-10T06:03:02Z</time>
      </trkpt>
      <trkpt lat="45.91371" lon="4.48281">
        <ele>414.94616699219</ele>
        <time>2009-09-10T06:03:05Z</time>
      </trkpt>
      <trkpt lat="45.91368" lon="4.48298">
        <ele>413.50427246094</ele>
        <time>2009-09-10T06:03:08Z</time>
      </trkpt>
      <trkpt lat="45.91361" lon="4.48322">
        <ele>410.62023925781</ele>
        <time>2009-09-10T06:03:12Z</time>
      </trkpt>
      <trkpt lat="45.91345" lon="4.48362">
        <ele>406.77490234375</ele>
        <time>2009-09-10T06:03:18Z</time>
      </trkpt>
      <trkpt lat="45.91341" lon="4.48374">
        <ele>405.3330078125</ele>
        <time>2009-09-10T06:03:20Z</time>
      </trkpt>
      <trkpt lat="45.91331" lon="4.4841">
        <ele>401.96850585938</ele>
        <time>2009-09-10T06:03:25Z</time>
      </trkpt>
      <trkpt lat="45.91329" lon="4.48417">
        <ele>401.96850585938</ele>
        <time>2009-09-10T06:03:26Z</time>
      </trkpt>
      <trkpt lat="45.91327" lon="4.48432">
        <ele>400.52648925781</ele>
        <time>2009-09-10T06:03:29Z</time>
      </trkpt>
      <trkpt lat="45.91325" lon="4.48442">
        <ele>399.56506347656</ele>
        <time>2009-09-10T06:03:31Z</time>
      </trkpt>
      <trkpt lat="45.91322" lon="4.48466">
        <ele>396.68115234375</ele>
        <time>2009-09-10T06:03:36Z</time>
      </trkpt>
      <trkpt lat="45.91328" lon="4.48488">
        <ele>393.31652832031</ele>
        <time>2009-09-10T06:03:40Z</time>
      </trkpt>
      <trkpt lat="45.91335" lon="4.48503">
        <ele>389.95190429688</ele>
        <time>2009-09-10T06:03:43Z</time>
      </trkpt>
      <trkpt lat="45.91339" lon="4.48512">
        <ele>388.99060058594</ele>
        <time>2009-09-10T06:03:45Z</time>
      </trkpt>
      <trkpt lat="45.91345" lon="4.48526">
        <ele>387.54858398438</ele>
        <time>2009-09-10T06:03:48Z</time>
      </trkpt>
      <trkpt lat="45.91351" lon="4.48546">
        <ele>384.18408203125</ele>
        <time>2009-09-10T06:03:52Z</time>
      </trkpt>
      <trkpt lat="45.91353" lon="4.4855">
        <ele>383.22265625</ele>
        <time>2009-09-10T06:03:53Z</time>
      </trkpt>
      <trkpt lat="45.91358" lon="4.48572">
        <ele>378.41613769531</ele>
        <time>2009-09-10T06:03:59Z</time>
      </trkpt>
      <trkpt lat="45.91361" lon="4.48595">
        <ele>375.53210449219</ele>
        <time>2009-09-10T06:04:04Z</time>
      </trkpt>
      <trkpt lat="45.91362" lon="4.486">
        <ele>375.05151367188</ele>
        <time>2009-09-10T06:04:05Z</time>
      </trkpt>
      <trkpt lat="45.91363" lon="4.48611">
        <ele>373.60949707031</ele>
        <time>2009-09-10T06:04:07Z</time>
      </trkpt>
      <trkpt lat="45.91366" lon="4.48643">
        <ele>370.24487304688</ele>
        <time>2009-09-10T06:04:12Z</time>
      </trkpt>
      <trkpt lat="45.91367" lon="4.48663">
        <ele>366.88024902344</ele>
        <time>2009-09-10T06:04:15Z</time>
      </trkpt>
      <trkpt lat="45.9137" lon="4.48684">
        <ele>364.95764160156</ele>
        <time>2009-09-10T06:04:18Z</time>
      </trkpt>
      <trkpt lat="45.9137" lon="4.48691">
        <ele>363.99633789062</ele>
        <time>2009-09-10T06:04:19Z</time>
      </trkpt>
      <trkpt lat="45.91379" lon="4.48715">
        <ele>359.67041015625</ele>
        <time>2009-09-10T06:04:23Z</time>
      </trkpt>
      <trkpt lat="45.91392" lon="4.48746">
        <ele>356.30578613281</ele>
        <time>2009-09-10T06:04:28Z</time>
      </trkpt>
      <trkpt lat="45.91402" lon="4.48767">
        <ele>352.46057128906</ele>
        <time>2009-09-10T06:04:31Z</time>
      </trkpt>
      <trkpt lat="45.91405" lon="4.48774">
        <ele>352.94116210938</ele>
        <time>2009-09-10T06:04:32Z</time>
      </trkpt>
      <trkpt lat="45.91426" lon="4.4882">
        <ele>350.05725097656</ele>
        <time>2009-09-10T06:04:38Z</time>
      </trkpt>
      <trkpt lat="45.9143" lon="4.48828">
        <ele>350.05725097656</ele>
        <time>2009-09-10T06:04:39Z</time>
      </trkpt>
      <trkpt lat="45.91444" lon="4.48861">
        <ele>349.09582519531</ele>
        <time>2009-09-10T06:04:43Z</time>
      </trkpt>
      <trkpt lat="45.9145" lon="4.48877">
        <ele>347.65393066406</ele>
        <time>2009-09-10T06:04:47Z</time>
      </trkpt>
      <trkpt lat="45.91451" lon="4.48883">
        <ele>347.17321777344</ele>
        <time>2009-09-10T06:04:51Z</time>
      </trkpt>
      <trkpt lat="45.91451" lon="4.4888">
        <ele>346.69262695312</ele>
        <time>2009-09-10T06:04:53Z</time>
      </trkpt>
      <trkpt lat="45.91449" lon="4.48868">
        <ele>348.13464355469</ele>
        <time>2009-09-10T06:04:59Z</time>
      </trkpt>
      <trkpt lat="45.91452" lon="4.48863">
        <ele>348.615234375</ele>
        <time>2009-09-10T06:05:01Z</time>
      </trkpt>
      <trkpt lat="45.91454" lon="4.48861">
        <ele>348.615234375</ele>
        <time>2009-09-10T06:05:07Z</time>
      </trkpt>
      <trkpt lat="45.91455" lon="4.48858">
        <ele>348.13464355469</ele>
        <time>2009-09-10T06:05:20Z</time>
      </trkpt>
      <trkpt lat="45.91467" lon="4.48846">
        <ele>347.17321777344</ele>
        <time>2009-09-10T06:05:25Z</time>
      </trkpt>
      <trkpt lat="45.9147" lon="4.48842">
        <ele>346.69262695312</ele>
        <time>2009-09-10T06:05:26Z</time>
      </trkpt>
      <trkpt lat="45.91485" lon="4.48823">
        <ele>344.28942871094</ele>
        <time>2009-09-10T06:05:30Z</time>
      </trkpt>
      <trkpt lat="45.91494" lon="4.48798">
        <ele>342.84729003906</ele>
        <time>2009-09-10T06:05:34Z</time>
      </trkpt>
      <trkpt lat="45.91489" lon="4.48774">
        <ele>341.4052734375</ele>
        <time>2009-09-10T06:05:37Z</time>
      </trkpt>
      <trkpt lat="45.91485" lon="4.48766">
        <ele>340.92468261719</ele>
        <time>2009-09-10T06:05:38Z</time>
      </trkpt>
      <trkpt lat="45.91467" lon="4.48737">
        <ele>339.96337890625</ele>
        <time>2009-09-10T06:05:42Z</time>
      </trkpt>
      <trkpt lat="45.91461" lon="4.48709">
        <ele>339.00207519531</ele>
        <time>2009-09-10T06:05:46Z</time>
      </trkpt>
      <trkpt lat="45.9147" lon="4.48708">
        <ele>338.521484375</ele>
        <time>2009-09-10T06:05:48Z</time>
      </trkpt>
      <trkpt lat="45.91473" lon="4.4871">
        <ele>338.04077148438</ele>
        <time>2009-09-10T06:05:49Z</time>
      </trkpt>
      <trkpt lat="45.91486" lon="4.48722">
        <ele>337.07946777344</ele>
        <time>2009-09-10T06:05:52Z</time>
      </trkpt>
      <trkpt lat="45.91504" lon="4.48744">
        <ele>335.63732910156</ele>
        <time>2009-09-10T06:05:56Z</time>
      </trkpt>
      <trkpt lat="45.91534" lon="4.4877">
        <ele>332.27282714844</ele>
        <time>2009-09-10T06:06:00Z</time>
      </trkpt>
      <trkpt lat="45.91557" lon="4.48786">
        <ele>329.38891601562</ele>
        <time>2009-09-10T06:06:03Z</time>
      </trkpt>
      <trkpt lat="45.91571" lon="4.48801">
        <ele>326.98559570312</ele>
        <time>2009-09-10T06:06:05Z</time>
      </trkpt>
      <trkpt lat="45.91596" lon="4.48837">
        <ele>322.17895507812</ele>
        <time>2009-09-10T06:06:09Z</time>
      </trkpt>
      <trkpt lat="45.91602" lon="4.48846">
        <ele>321.2177734375</ele>
        <time>2009-09-10T06:06:10Z</time>
      </trkpt>
      <trkpt lat="45.91634" lon="4.4888">
        <ele>315.93041992188</ele>
        <time>2009-09-10T06:06:14Z</time>
      </trkpt>
      <trkpt lat="45.91665" lon="4.48904">
        <ele>312.56579589844</ele>
        <time>2009-09-10T06:06:17Z</time>
      </trkpt>
      <trkpt lat="45.91674" lon="4.48911">
        <ele>312.08520507812</ele>
        <time>2009-09-10T06:06:18Z</time>
      </trkpt>
      <trkpt lat="45.91683" lon="4.48917">
        <ele>311.12377929688</ele>
        <time>2009-09-10T06:06:19Z</time>
      </trkpt>
      <trkpt lat="45.91702" lon="4.48933">
        <ele>310.64306640625</ele>
        <time>2009-09-10T06:06:21Z</time>
      </trkpt>
      <trkpt lat="45.91721" lon="4.48951">
        <ele>311.6044921875</ele>
        <time>2009-09-10T06:06:25Z</time>
      </trkpt>
      <trkpt lat="45.91723" lon="4.48955">
        <ele>311.6044921875</ele>
        <time>2009-09-10T06:06:26Z</time>
      </trkpt>
      <trkpt lat="45.91728" lon="4.48959">
        <ele>312.56579589844</ele>
        <time>2009-09-10T06:06:30Z</time>
      </trkpt>
      <trkpt lat="45.9174" lon="4.48961">
        <ele>314.0078125</ele>
        <time>2009-09-10T06:06:39Z</time>
      </trkpt>
      <trkpt lat="45.91751" lon="4.48965">
        <ele>314.96911621094</ele>
        <time>2009-09-10T06:06:45Z</time>
      </trkpt>
      <trkpt lat="45.91753" lon="4.48967">
        <ele>315.93041992188</ele>
        <time>2009-09-10T06:06:47Z</time>
      </trkpt>
      <trkpt lat="45.91757" lon="4.48961">
        <ele>316.41101074219</ele>
        <time>2009-09-10T06:06:52Z</time>
      </trkpt>
      <trkpt lat="45.91764" lon="4.48955">
        <ele>315.93041992188</ele>
        <time>2009-09-10T06:06:56Z</time>
      </trkpt>
      <trkpt lat="45.91781" lon="4.48929">
        <ele>316.89172363281</ele>
        <time>2009-09-10T06:07:05Z</time>
      </trkpt>
      <trkpt lat="45.91788" lon="4.48915">
        <ele>316.89172363281</ele>
        <time>2009-09-10T06:07:09Z</time>
      </trkpt>
      <trkpt lat="45.91801" lon="4.48913">
        <ele>318.33361816406</ele>
        <time>2009-09-10T06:07:14Z</time>
      </trkpt>
      <trkpt lat="45.91812" lon="4.4891">
        <ele>318.33361816406</ele>
        <time>2009-09-10T06:07:19Z</time>
      </trkpt>
      <trkpt lat="45.91816" lon="4.48904">
        <ele>319.29504394531</ele>
        <time>2009-09-10T06:07:24Z</time>
      </trkpt>
      <trkpt lat="45.9182" lon="4.48897">
        <ele>319.77563476562</ele>
        <time>2009-09-10T06:07:29Z</time>
      </trkpt>
      <trkpt lat="45.91823" lon="4.48892">
        <ele>321.2177734375</ele>
        <time>2009-09-10T06:07:35Z</time>
      </trkpt>
      <trkpt lat="45.91823" lon="4.48888">
        <ele>321.69836425781</ele>
        <time>2009-09-10T06:07:41Z</time>
      </trkpt>
      <trkpt lat="45.91824" lon="4.48882">
        <ele>323.14038085938</ele>
        <time>2009-09-10T06:07:48Z</time>
      </trkpt>
      <trkpt lat="45.91826" lon="4.48876">
        <ele>325.06298828125</ele>
        <time>2009-09-10T06:07:55Z</time>
      </trkpt>
      <trkpt lat="45.91827" lon="4.48871">
        <ele>326.5048828125</ele>
        <time>2009-09-10T06:08:02Z</time>
      </trkpt>
      <trkpt lat="45.9183" lon="4.48865">
        <ele>328.42761230469</ele>
        <time>2009-09-10T06:08:09Z</time>
      </trkpt>
      <trkpt lat="45.91831" lon="4.48864">
        <ele>327.94677734375</ele>
        <time>2009-09-10T06:08:10Z</time>
      </trkpt>
      <trkpt lat="45.91837" lon="4.48863">
        <ele>329.86950683594</ele>
        <time>2009-09-10T06:08:18Z</time>
      </trkpt>
      <trkpt lat="45.9184" lon="4.48861">
        <ele>331.3115234375</ele>
        <time>2009-09-10T06:08:24Z</time>
      </trkpt>
      <trkpt lat="45.91844" lon="4.48857">
        <ele>332.75354003906</ele>
        <time>2009-09-10T06:08:32Z</time>
      </trkpt>
      <trkpt lat="45.91846" lon="4.48853">
        <ele>333.23413085938</ele>
        <time>2009-09-10T06:08:39Z</time>
      </trkpt>
      <trkpt lat="45.91851" lon="4.48851">
        <ele>334.19543457031</ele>
        <time>2009-09-10T06:08:46Z</time>
      </trkpt>
      <trkpt lat="45.91857" lon="4.48851">
        <ele>335.63732910156</ele>
        <time>2009-09-10T06:08:54Z</time>
      </trkpt>
      <trkpt lat="45.91862" lon="4.48849">
        <ele>336.1181640625</ele>
        <time>2009-09-10T06:09:04Z</time>
      </trkpt>
      <trkpt lat="45.91872" lon="4.48844">
        <ele>339.00207519531</ele>
        <time>2009-09-10T06:09:11Z</time>
      </trkpt>
      <trkpt lat="45.91877" lon="4.4884">
        <ele>339.00207519531</ele>
        <time>2009-09-10T06:09:16Z</time>
      </trkpt>
      <trkpt lat="45.91877" lon="4.48839">
        <ele>339.48266601562</ele>
        <time>2009-09-10T06:09:22Z</time>
      </trkpt>
      <trkpt lat="45.91877" lon="4.48839">
        <ele>339.48266601562</ele>
        <time>2009-09-10T06:09:25Z</time>
      </trkpt>
      <trkpt lat="45.91876" lon="4.48839">
        <ele>339.96337890625</ele>
        <time>2009-09-10T06:09:26Z</time>
      </trkpt>
      <trkpt lat="45.91876" lon="4.48839">
        <ele>339.96337890625</ele>
        <time>2009-09-10T06:09:27Z</time>
      </trkpt>
      <trkpt lat="45.91877" lon="4.48835">
        <ele>341.4052734375</ele>
        <time>2009-09-10T06:09:42Z</time>
      </trkpt>
      <trkpt lat="45.91879" lon="4.48833">
        <ele>341.4052734375</ele>
        <time>2009-09-10T06:09:47Z</time>
      </trkpt>
      <trkpt lat="45.9188" lon="4.48829">
        <ele>342.36669921875</ele>
        <time>2009-09-10T06:09:53Z</time>
      </trkpt>
      <trkpt lat="45.91882" lon="4.48822">
        <ele>342.84729003906</ele>
        <time>2009-09-10T06:10:00Z</time>
      </trkpt>
      <trkpt lat="45.91883" lon="4.48819">
        <ele>343.80859375</ele>
        <time>2009-09-10T06:10:06Z</time>
      </trkpt>
      <trkpt lat="45.91883" lon="4.48818">
        <ele>343.80859375</ele>
        <time>2009-09-10T06:10:21Z</time>
      </trkpt>
      <trkpt lat="45.91885" lon="4.48816">
        <ele>344.77001953125</ele>
        <time>2009-09-10T06:10:30Z</time>
      </trkpt>
      <trkpt lat="45.91896" lon="4.48807">
        <ele>346.69262695312</ele>
        <time>2009-09-10T06:10:37Z</time>
      </trkpt>
      <trkpt lat="45.91907" lon="4.48802">
        <ele>349.09582519531</ele>
        <time>2009-09-10T06:10:43Z</time>
      </trkpt>
      <trkpt lat="45.91918" lon="4.48796">
        <ele>351.01843261719</ele>
        <time>2009-09-10T06:10:50Z</time>
      </trkpt>
      <trkpt lat="45.91928" lon="4.48799">
        <ele>352.46057128906</ele>
        <time>2009-09-10T06:10:56Z</time>
      </trkpt>
      <trkpt lat="45.91941" lon="4.48804">
        <ele>355.34448242188</ele>
        <time>2009-09-10T06:11:05Z</time>
      </trkpt>
      <trkpt lat="45.91944" lon="4.48803">
        <ele>355.8251953125</ele>
        <time>2009-09-10T06:11:07Z</time>
      </trkpt>
      <trkpt lat="45.91955" lon="4.48798">
        <ele>358.22839355469</ele>
        <time>2009-09-10T06:11:16Z</time>
      </trkpt>
      <trkpt lat="45.91962" lon="4.48797">
        <ele>359.18969726562</ele>
        <time>2009-09-10T06:11:21Z</time>
      </trkpt>
      <trkpt lat="45.91967" lon="4.48791">
        <ele>360.15112304688</ele>
        <time>2009-09-10T06:11:25Z</time>
      </trkpt>
      <trkpt lat="45.91976" lon="4.48778">
        <ele>363.03503417969</ele>
        <time>2009-09-10T06:11:33Z</time>
      </trkpt>
      <trkpt lat="45.91983" lon="4.48764">
        <ele>364.95764160156</ele>
        <time>2009-09-10T06:11:41Z</time>
      </trkpt>
      <trkpt lat="45.91991" lon="4.48752">
        <ele>366.39953613281</ele>
        <time>2009-09-10T06:11:49Z</time>
      </trkpt>
      <trkpt lat="45.91999" lon="4.48738">
        <ele>368.322265625</ele>
        <time>2009-09-10T06:11:58Z</time>
      </trkpt>
      <trkpt lat="45.92006" lon="4.48728">
        <ele>369.28369140625</ele>
        <time>2009-09-10T06:12:05Z</time>
      </trkpt>
      <trkpt lat="45.92012" lon="4.48717">
        <ele>370.24487304688</ele>
        <time>2009-09-10T06:12:13Z</time>
      </trkpt>
      <trkpt lat="45.92019" lon="4.48705">
        <ele>371.68688964844</ele>
        <time>2009-09-10T06:12:21Z</time>
      </trkpt>
      <trkpt lat="45.92027" lon="4.48692">
        <ele>373.12890625</ele>
        <time>2009-09-10T06:12:29Z</time>
      </trkpt>
      <trkpt lat="45.92038" lon="4.48676">
        <ele>376.01281738281</ele>
        <time>2009-09-10T06:12:39Z</time>
      </trkpt>
      <trkpt lat="45.92043" lon="4.48669">
        <ele>376.97424316406</ele>
        <time>2009-09-10T06:12:44Z</time>
      </trkpt>
      <trkpt lat="45.92053" lon="4.48656">
        <ele>379.37744140625</ele>
        <time>2009-09-10T06:12:54Z</time>
      </trkpt>
      <trkpt lat="45.92063" lon="4.48648">
        <ele>381.30004882812</ele>
        <time>2009-09-10T06:13:02Z</time>
      </trkpt>
      <trkpt lat="45.92079" lon="4.48635">
        <ele>383.70324707031</ele>
        <time>2009-09-10T06:13:14Z</time>
      </trkpt>
      <trkpt lat="45.92088" lon="4.48629">
        <ele>386.10668945312</ele>
        <time>2009-09-10T06:13:21Z</time>
      </trkpt>
      <trkpt lat="45.92097" lon="4.48621">
        <ele>387.54858398438</ele>
        <time>2009-09-10T06:13:30Z</time>
      </trkpt>
      <trkpt lat="45.92098" lon="4.48621">
        <ele>388.029296875</ele>
        <time>2009-09-10T06:13:35Z</time>
      </trkpt>
      <trkpt lat="45.92099" lon="4.48621">
        <ele>388.51000976562</ele>
        <time>2009-09-10T06:14:02Z</time>
      </trkpt>
      <trkpt lat="45.921" lon="4.48618">
        <ele>388.029296875</ele>
        <time>2009-09-10T06:14:16Z</time>
      </trkpt>
      <trkpt lat="45.92102" lon="4.48619">
        <ele>389.47119140625</ele>
        <time>2009-09-10T06:14:23Z</time>
      </trkpt>
      <trkpt lat="45.92108" lon="4.48614">
        <ele>390.91320800781</ele>
        <time>2009-09-10T06:14:31Z</time>
      </trkpt>
      <trkpt lat="45.9211" lon="4.48614">
        <ele>391.39379882812</ele>
        <time>2009-09-10T06:14:37Z</time>
      </trkpt>
      <trkpt lat="45.92113" lon="4.48613">
        <ele>391.87451171875</ele>
        <time>2009-09-10T06:14:42Z</time>
      </trkpt>
      <trkpt lat="45.92115" lon="4.48612">
        <ele>392.8359375</ele>
        <time>2009-09-10T06:14:47Z</time>
      </trkpt>
      <trkpt lat="45.9212" lon="4.48612">
        <ele>393.31652832031</ele>
        <time>2009-09-10T06:14:55Z</time>
      </trkpt>
      <trkpt lat="45.92124" lon="4.48611">
        <ele>394.27795410156</ele>
        <time>2009-09-10T06:15:03Z</time>
      </trkpt>
      <trkpt lat="45.92129" lon="4.48609">
        <ele>395.71984863281</ele>
        <time>2009-09-10T06:15:11Z</time>
      </trkpt>
      <trkpt lat="45.92133" lon="4.48608">
        <ele>397.64245605469</ele>
        <time>2009-09-10T06:15:19Z</time>
      </trkpt>
      <trkpt lat="45.92137" lon="4.48607">
        <ele>398.12316894531</ele>
        <time>2009-09-10T06:15:27Z</time>
      </trkpt>
      <trkpt lat="45.92139" lon="4.48607">
        <ele>399.56506347656</ele>
        <time>2009-09-10T06:15:33Z</time>
      </trkpt>
      <trkpt lat="45.92144" lon="4.48605">
        <ele>400.52648925781</ele>
        <time>2009-09-10T06:15:41Z</time>
      </trkpt>
      <trkpt lat="45.92149" lon="4.48604">
        <ele>401.48779296875</ele>
        <time>2009-09-10T06:15:50Z</time>
      </trkpt>
      <trkpt lat="45.92154" lon="4.48603">
        <ele>402.9296875</ele>
        <time>2009-09-10T06:15:58Z</time>
      </trkpt>
      <trkpt lat="45.9216" lon="4.48602">
        <ele>403.89111328125</ele>
        <time>2009-09-10T06:16:06Z</time>
      </trkpt>
      <trkpt lat="45.92168" lon="4.486">
        <ele>405.3330078125</ele>
        <time>2009-09-10T06:16:17Z</time>
      </trkpt>
      <trkpt lat="45.92173" lon="4.486">
        <ele>406.77490234375</ele>
        <time>2009-09-10T06:16:25Z</time>
      </trkpt>
      <trkpt lat="45.92177" lon="4.48599">
        <ele>407.25561523438</ele>
        <time>2009-09-10T06:16:32Z</time>
      </trkpt>
      <trkpt lat="45.92183" lon="4.48599">
        <ele>409.17834472656</ele>
        <time>2009-09-10T06:16:43Z</time>
      </trkpt>
      <trkpt lat="45.92187" lon="4.48598">
        <ele>410.1396484375</ele>
        <time>2009-09-10T06:16:51Z</time>
      </trkpt>
      <trkpt lat="45.92191" lon="4.48597">
        <ele>410.62023925781</ele>
        <time>2009-09-10T06:16:58Z</time>
      </trkpt>
      <trkpt lat="45.92196" lon="4.48595">
        <ele>412.54284667969</ele>
        <time>2009-09-10T06:17:07Z</time>
      </trkpt>
      <trkpt lat="45.92199" lon="4.48593">
        <ele>413.02355957031</ele>
        <time>2009-09-10T06:17:15Z</time>
      </trkpt>
      <trkpt lat="45.92199" lon="4.48593">
        <ele>413.02355957031</ele>
        <time>2009-09-10T06:17:25Z</time>
      </trkpt>
      <trkpt lat="45.92212" lon="4.48588">
        <ele>415.42687988281</ele>
        <time>2009-09-10T06:17:34Z</time>
      </trkpt>
      <trkpt lat="45.92225" lon="4.48582">
        <ele>416.86889648438</ele>
        <time>2009-09-10T06:17:43Z</time>
      </trkpt>
      <trkpt lat="45.9224" lon="4.48574">
        <ele>417.349609375</ele>
        <time>2009-09-10T06:17:51Z</time>
      </trkpt>
      <trkpt lat="45.92253" lon="4.48567">
        <ele>417.83020019531</ele>
        <time>2009-09-10T06:17:58Z</time>
      </trkpt>
      <trkpt lat="45.92267" lon="4.48559">
        <ele>418.79150390625</ele>
        <time>2009-09-10T06:18:05Z</time>
      </trkpt>
      <trkpt lat="45.92285" lon="4.4855">
        <ele>419.75280761719</ele>
        <time>2009-09-10T06:18:14Z</time>
      </trkpt>
      <trkpt lat="45.92305" lon="4.48537">
        <ele>420.71411132812</ele>
        <time>2009-09-10T06:18:25Z</time>
      </trkpt>
      <trkpt lat="45.92323" lon="4.48526">
        <ele>422.15600585938</ele>
        <time>2009-09-10T06:18:35Z</time>
      </trkpt>
      <trkpt lat="45.92336" lon="4.48517">
        <ele>423.59802246094</ele>
        <time>2009-09-10T06:18:43Z</time>
      </trkpt>
      <trkpt lat="45.92349" lon="4.48507">
        <ele>425.52075195312</ele>
        <time>2009-09-10T06:18:51Z</time>
      </trkpt>
      <trkpt lat="45.92368" lon="4.4849">
        <ele>426.96276855469</ele>
        <time>2009-09-10T06:19:03Z</time>
      </trkpt>
      <trkpt lat="45.92379" lon="4.48478">
        <ele>428.88537597656</ele>
        <time>2009-09-10T06:19:11Z</time>
      </trkpt>
      <trkpt lat="45.92389" lon="4.48468">
        <ele>430.32727050781</ele>
        <time>2009-09-10T06:19:18Z</time>
      </trkpt>
      <trkpt lat="45.92406" lon="4.48451">
        <ele>431.76916503906</ele>
        <time>2009-09-10T06:19:29Z</time>
      </trkpt>
      <trkpt lat="45.92419" lon="4.48441">
        <ele>432.25</ele>
        <time>2009-09-10T06:19:37Z</time>
      </trkpt>
      <trkpt lat="45.92436" lon="4.4843">
        <ele>434.17260742188</ele>
        <time>2009-09-10T06:19:47Z</time>
      </trkpt>
      <trkpt lat="45.92456" lon="4.4842">
        <ele>436.09521484375</ele>
        <time>2009-09-10T06:19:57Z</time>
      </trkpt>
      <trkpt lat="45.92472" lon="4.48414">
        <ele>436.09521484375</ele>
        <time>2009-09-10T06:20:04Z</time>
      </trkpt>
      <trkpt lat="45.92492" lon="4.48408">
        <ele>436.57592773438</ele>
        <time>2009-09-10T06:20:12Z</time>
      </trkpt>
      <trkpt lat="45.92516" lon="4.48404">
        <ele>437.05651855469</ele>
        <time>2009-09-10T06:20:20Z</time>
      </trkpt>
      <trkpt lat="45.92548" lon="4.48404">
        <ele>437.05651855469</ele>
        <time>2009-09-10T06:20:30Z</time>
      </trkpt>
      <trkpt lat="45.92574" lon="4.48406">
        <ele>437.05651855469</ele>
        <time>2009-09-10T06:20:38Z</time>
      </trkpt>
      <trkpt lat="45.92599" lon="4.48407">
        <ele>437.05651855469</ele>
        <time>2009-09-10T06:20:46Z</time>
      </trkpt>
      <trkpt lat="45.92621" lon="4.48409">
        <ele>438.49853515625</ele>
        <time>2009-09-10T06:20:53Z</time>
      </trkpt>
      <trkpt lat="45.92647" lon="4.48411">
        <ele>439.45971679688</ele>
        <time>2009-09-10T06:21:02Z</time>
      </trkpt>
      <trkpt lat="45.92669" lon="4.48409">
        <ele>438.49853515625</ele>
        <time>2009-09-10T06:21:09Z</time>
      </trkpt>
      <trkpt lat="45.92683" lon="4.48409">
        <ele>440.42126464844</ele>
        <time>2009-09-10T06:21:14Z</time>
      </trkpt>
      <trkpt lat="45.9271" lon="4.48413">
        <ele>440.42126464844</ele>
        <time>2009-09-10T06:21:23Z</time>
      </trkpt>
      <trkpt lat="45.92729" lon="4.48407">
        <ele>440.42126464844</ele>
        <time>2009-09-10T06:21:28Z</time>
      </trkpt>
      <trkpt lat="45.92761" lon="4.48393">
        <ele>440.90185546875</ele>
        <time>2009-09-10T06:21:37Z</time>
      </trkpt>
      <trkpt lat="45.92786" lon="4.48385">
        <ele>441.38244628906</ele>
        <time>2009-09-10T06:21:44Z</time>
      </trkpt>
      <trkpt lat="45.92818" lon="4.48379">
        <ele>442.82446289062</ele>
        <time>2009-09-10T06:21:53Z</time>
      </trkpt>
      <trkpt lat="45.92836" lon="4.48375">
        <ele>443.78576660156</ele>
        <time>2009-09-10T06:21:59Z</time>
      </trkpt>
      <trkpt lat="45.9285" lon="4.48373">
        <ele>444.26647949219</ele>
        <time>2009-09-10T06:22:06Z</time>
      </trkpt>
      <trkpt lat="45.92861" lon="4.48373">
        <ele>444.26647949219</ele>
        <time>2009-09-10T06:22:13Z</time>
      </trkpt>
      <trkpt lat="45.9286" lon="4.48373">
        <ele>443.78576660156</ele>
        <time>2009-09-10T06:22:20Z</time>
      </trkpt>
      <trkpt lat="45.9286" lon="4.48374">
        <ele>444.26647949219</ele>
        <time>2009-09-10T06:22:39Z</time>
      </trkpt>
      <trkpt lat="45.92859" lon="4.48374">
        <ele>443.78576660156</ele>
        <time>2009-09-10T06:22:59Z</time>
      </trkpt>
      <trkpt lat="45.9285" lon="4.48373">
        <ele>444.7470703125</ele>
        <time>2009-09-10T06:23:05Z</time>
      </trkpt>
      <trkpt lat="45.92843" lon="4.48378">
        <ele>444.7470703125</ele>
        <time>2009-09-10T06:23:10Z</time>
      </trkpt>
      <trkpt lat="45.92849" lon="4.48381">
        <ele>444.26647949219</ele>
        <time>2009-09-10T06:23:13Z</time>
      </trkpt>
      <trkpt lat="45.92863" lon="4.48385">
        <ele>444.7470703125</ele>
        <time>2009-09-10T06:23:17Z</time>
      </trkpt>
      <trkpt lat="45.92884" lon="4.48376">
        <ele>443.30505371094</ele>
        <time>2009-09-10T06:23:22Z</time>
      </trkpt>
      <trkpt lat="45.92921" lon="4.48353">
        <ele>441.38244628906</ele>
        <time>2009-09-10T06:23:30Z</time>
      </trkpt>
      <trkpt lat="45.92942" lon="4.48338">
        <ele>439.9404296875</ele>
        <time>2009-09-10T06:23:35Z</time>
      </trkpt>
      <trkpt lat="45.92972" lon="4.48324">
        <ele>438.49853515625</ele>
        <time>2009-09-10T06:23:41Z</time>
      </trkpt>
      <trkpt lat="45.93008" lon="4.48305">
        <ele>436.09521484375</ele>
        <time>2009-09-10T06:23:47Z</time>
      </trkpt>
      <trkpt lat="45.93021" lon="4.483">
        <ele>435.61450195312</ele>
        <time>2009-09-10T06:23:49Z</time>
      </trkpt>
      <trkpt lat="45.93053" lon="4.48286">
        <ele>433.69189453125</ele>
        <time>2009-09-10T06:23:55Z</time>
      </trkpt>
      <trkpt lat="45.9309" lon="4.48276">
        <ele>431.76916503906</ele>
        <time>2009-09-10T06:24:01Z</time>
      </trkpt>
      <trkpt lat="45.93103" lon="4.48273">
        <ele>431.28857421875</ele>
        <time>2009-09-10T06:24:03Z</time>
      </trkpt>
      <trkpt lat="45.93146" lon="4.48251">
        <ele>429.36596679688</ele>
        <time>2009-09-10T06:24:09Z</time>
      </trkpt>
      <trkpt lat="45.93161" lon="4.4824">
        <ele>428.40466308594</ele>
        <time>2009-09-10T06:24:11Z</time>
      </trkpt>
      <trkpt lat="45.93181" lon="4.48227">
        <ele>426.96276855469</ele>
        <time>2009-09-10T06:24:14Z</time>
      </trkpt>
      <trkpt lat="45.93203" lon="4.4821">
        <ele>426.00134277344</ele>
        <time>2009-09-10T06:24:17Z</time>
      </trkpt>
      <trkpt lat="45.93233" lon="4.48205">
        <ele>424.07873535156</ele>
        <time>2009-09-10T06:24:21Z</time>
      </trkpt>
      <trkpt lat="45.93245" lon="4.48218">
        <ele>423.11743164062</ele>
        <time>2009-09-10T06:24:23Z</time>
      </trkpt>
      <trkpt lat="45.93262" lon="4.48238">
        <ele>422.15600585938</ele>
        <time>2009-09-10T06:24:26Z</time>
      </trkpt>
      <trkpt lat="45.93293" lon="4.48248">
        <ele>420.71411132812</ele>
        <time>2009-09-10T06:24:30Z</time>
      </trkpt>
      <trkpt lat="45.93316" lon="4.4824">
        <ele>419.27221679688</ele>
        <time>2009-09-10T06:24:33Z</time>
      </trkpt>
      <trkpt lat="45.93361" lon="4.48209">
        <ele>416.86889648438</ele>
        <time>2009-09-10T06:24:39Z</time>
      </trkpt>
      <trkpt lat="45.93423" lon="4.48163">
        <ele>413.50427246094</ele>
        <time>2009-09-10T06:24:47Z</time>
      </trkpt>
      <trkpt lat="45.93462" lon="4.48129">
        <ele>411.10095214844</ele>
        <time>2009-09-10T06:24:52Z</time>
      </trkpt>
      <trkpt lat="45.93484" lon="4.48119">
        <ele>409.17834472656</ele>
        <time>2009-09-10T06:24:55Z</time>
      </trkpt>
      <trkpt lat="45.93505" lon="4.4812">
        <ele>408.21704101562</ele>
        <time>2009-09-10T06:24:58Z</time>
      </trkpt>
      <trkpt lat="45.93511" lon="4.48117">
        <ele>408.21704101562</ele>
        <time>2009-09-10T06:24:59Z</time>
      </trkpt>
      <trkpt lat="45.93533" lon="4.48103">
        <ele>406.29431152344</ele>
        <time>2009-09-10T06:25:04Z</time>
      </trkpt>
      <trkpt lat="45.93538" lon="4.481">
        <ele>405.81372070312</ele>
        <time>2009-09-10T06:25:07Z</time>
      </trkpt>
      <trkpt lat="45.93537" lon="4.481">
        <ele>405.81372070312</ele>
        <time>2009-09-10T06:25:33Z</time>
      </trkpt>
      <trkpt lat="45.93536" lon="4.481">
        <ele>405.3330078125</ele>
        <time>2009-09-10T06:25:57Z</time>
      </trkpt>
      <trkpt lat="45.93527" lon="4.48109">
        <ele>405.3330078125</ele>
        <time>2009-09-10T06:26:02Z</time>
      </trkpt>
      <trkpt lat="45.93513" lon="4.4812">
        <ele>406.77490234375</ele>
        <time>2009-09-10T06:26:07Z</time>
      </trkpt>
      <trkpt lat="45.935" lon="4.48126">
        <ele>408.21704101562</ele>
        <time>2009-09-10T06:26:12Z</time>
      </trkpt>
      <trkpt lat="45.93481" lon="4.48125">
        <ele>408.69763183594</ele>
        <time>2009-09-10T06:26:20Z</time>
      </trkpt>
      <trkpt lat="45.93468" lon="4.48129">
        <ele>408.21704101562</ele>
        <time>2009-09-10T06:26:26Z</time>
      </trkpt>
      <trkpt lat="45.93459" lon="4.48138">
        <ele>408.69763183594</ele>
        <time>2009-09-10T06:26:32Z</time>
      </trkpt>
      <trkpt lat="45.93454" lon="4.48143">
        <ele>409.17834472656</ele>
        <time>2009-09-10T06:26:38Z</time>
      </trkpt>
      <trkpt lat="45.93452" lon="4.48145">
        <ele>408.69763183594</ele>
        <time>2009-09-10T06:26:44Z</time>
      </trkpt>
      <trkpt lat="45.93443" lon="4.4815">
        <ele>409.17834472656</ele>
        <time>2009-09-10T06:26:49Z</time>
      </trkpt>
      <trkpt lat="45.93419" lon="4.48171">
        <ele>411.10095214844</ele>
        <time>2009-09-10T06:26:57Z</time>
      </trkpt>
      <trkpt lat="45.93402" lon="4.48183">
        <ele>411.10095214844</ele>
        <time>2009-09-10T06:27:03Z</time>
      </trkpt>
      <trkpt lat="45.93389" lon="4.48191">
        <ele>412.06225585938</ele>
        <time>2009-09-10T06:27:09Z</time>
      </trkpt>
      <trkpt lat="45.93377" lon="4.482">
        <ele>412.54284667969</ele>
        <time>2009-09-10T06:27:15Z</time>
      </trkpt>
      <trkpt lat="45.93363" lon="4.48209">
        <ele>413.98486328125</ele>
        <time>2009-09-10T06:27:23Z</time>
      </trkpt>
      <trkpt lat="45.93356" lon="4.48213">
        <ele>413.98486328125</ele>
        <time>2009-09-10T06:27:27Z</time>
      </trkpt>
      <trkpt lat="45.93348" lon="4.48221">
        <ele>414.46545410156</ele>
        <time>2009-09-10T06:27:32Z</time>
      </trkpt>
      <trkpt lat="45.93342" lon="4.48225">
        <ele>415.42687988281</ele>
        <time>2009-09-10T06:27:34Z</time>
      </trkpt>
      <trkpt lat="45.9332" lon="4.48241">
        <ele>416.86889648438</ele>
        <time>2009-09-10T06:27:42Z</time>
      </trkpt>
      <trkpt lat="45.93299" lon="4.48253">
        <ele>417.349609375</ele>
        <time>2009-09-10T06:27:49Z</time>
      </trkpt>
      <trkpt lat="45.93283" lon="4.48254">
        <ele>418.79150390625</ele>
        <time>2009-09-10T06:27:55Z</time>
      </trkpt>
      <trkpt lat="45.93271" lon="4.48249">
        <ele>419.75280761719</ele>
        <time>2009-09-10T06:28:02Z</time>
      </trkpt>
      <trkpt lat="45.93262" lon="4.4824">
        <ele>419.75280761719</ele>
        <time>2009-09-10T06:28:09Z</time>
      </trkpt>
      <trkpt lat="45.93258" lon="4.48235">
        <ele>420.2333984375</ele>
        <time>2009-09-10T06:28:13Z</time>
      </trkpt>
      <trkpt lat="45.9325" lon="4.48226">
        <ele>421.19482421875</ele>
        <time>2009-09-10T06:28:19Z</time>
      </trkpt>
      <trkpt lat="45.93241" lon="4.48219">
        <ele>421.19482421875</ele>
        <time>2009-09-10T06:28:24Z</time>
      </trkpt>
      <trkpt lat="45.93225" lon="4.48208">
        <ele>422.15600585938</ele>
        <time>2009-09-10T06:28:30Z</time>
      </trkpt>
      <trkpt lat="45.93217" lon="4.48206">
        <ele>422.63671875</ele>
        <time>2009-09-10T06:28:33Z</time>
      </trkpt>
      <trkpt lat="45.93202" lon="4.48216">
        <ele>423.59802246094</ele>
        <time>2009-09-10T06:28:41Z</time>
      </trkpt>
      <trkpt lat="45.93191" lon="4.48223">
        <ele>425.04016113281</ele>
        <time>2009-09-10T06:28:46Z</time>
      </trkpt>
      <trkpt lat="45.93176" lon="4.48231">
        <ele>426.00134277344</ele>
        <time>2009-09-10T06:28:52Z</time>
      </trkpt>
      <trkpt lat="45.93159" lon="4.4824">
        <ele>426.96276855469</ele>
        <time>2009-09-10T06:28:58Z</time>
      </trkpt>
      <trkpt lat="45.9314" lon="4.48255">
        <ele>427.92395019531</ele>
        <time>2009-09-10T06:29:04Z</time>
      </trkpt>
      <trkpt lat="45.93126" lon="4.48264">
        <ele>428.88537597656</ele>
        <time>2009-09-10T06:29:09Z</time>
      </trkpt>
      <trkpt lat="45.93109" lon="4.48272">
        <ele>429.84655761719</ele>
        <time>2009-09-10T06:29:15Z</time>
      </trkpt>
      <trkpt lat="45.93088" lon="4.48279">
        <ele>430.80798339844</ele>
        <time>2009-09-10T06:29:22Z</time>
      </trkpt>
      <trkpt lat="45.93076" lon="4.48282">
        <ele>431.76916503906</ele>
        <time>2009-09-10T06:29:27Z</time>
      </trkpt>
      <trkpt lat="45.93076" lon="4.4829">
        <ele>431.28857421875</ele>
        <time>2009-09-10T06:29:32Z</time>
      </trkpt>
      <trkpt lat="45.93091" lon="4.48288">
        <ele>429.36596679688</ele>
        <time>2009-09-10T06:29:37Z</time>
      </trkpt>
      <trkpt lat="45.93109" lon="4.48279">
        <ele>426.96276855469</ele>
        <time>2009-09-10T06:29:43Z</time>
      </trkpt>
      <trkpt lat="45.9313" lon="4.48275">
        <ele>424.07873535156</ele>
        <time>2009-09-10T06:29:48Z</time>
      </trkpt>
      <trkpt lat="45.9316" lon="4.48259">
        <ele>421.19482421875</ele>
        <time>2009-09-10T06:29:54Z</time>
      </trkpt>
      <trkpt lat="45.93171" lon="4.48253">
        <ele>420.71411132812</ele>
        <time>2009-09-10T06:29:56Z</time>
      </trkpt>
      <trkpt lat="45.9319" lon="4.48243">
        <ele>419.75280761719</ele>
        <time>2009-09-10T06:30:00Z</time>
      </trkpt>
      <trkpt lat="45.93202" lon="4.48234">
        <ele>418.31079101562</ele>
        <time>2009-09-10T06:30:03Z</time>
      </trkpt>
      <trkpt lat="45.93213" lon="4.48226">
        <ele>416.86889648438</ele>
        <time>2009-09-10T06:30:06Z</time>
      </trkpt>
      <trkpt lat="45.93233" lon="4.4823">
        <ele>415.90747070312</ele>
        <time>2009-09-10T06:30:11Z</time>
      </trkpt>
      <trkpt lat="45.93249" lon="4.48251">
        <ele>414.94616699219</ele>
        <time>2009-09-10T06:30:15Z</time>
      </trkpt>
      <trkpt lat="45.93255" lon="4.48263">
        <ele>413.98486328125</ele>
        <time>2009-09-10T06:30:17Z</time>
      </trkpt>
      <trkpt lat="45.93262" lon="4.48297">
        <ele>410.1396484375</ele>
        <time>2009-09-10T06:30:22Z</time>
      </trkpt>
      <trkpt lat="45.93266" lon="4.48319">
        <ele>408.21704101562</ele>
        <time>2009-09-10T06:30:26Z</time>
      </trkpt>
      <trkpt lat="45.93274" lon="4.48334">
        <ele>405.3330078125</ele>
        <time>2009-09-10T06:30:30Z</time>
      </trkpt>
      <trkpt lat="45.93279" lon="4.48336">
        <ele>404.85229492188</ele>
        <time>2009-09-10T06:30:32Z</time>
      </trkpt>
      <trkpt lat="45.93296" lon="4.48335">
        <ele>402.44909667969</ele>
        <time>2009-09-10T06:30:36Z</time>
      </trkpt>
      <trkpt lat="45.93312" lon="4.48334">
        <ele>400.0458984375</ele>
        <time>2009-09-10T06:30:40Z</time>
      </trkpt>
      <trkpt lat="45.93327" lon="4.4833">
        <ele>398.12316894531</ele>
        <time>2009-09-10T06:30:45Z</time>
      </trkpt>
      <trkpt lat="45.93344" lon="4.48328">
        <ele>394.27795410156</ele>
        <time>2009-09-10T06:30:50Z</time>
      </trkpt>
      <trkpt lat="45.93347" lon="4.48327">
        <ele>394.27795410156</ele>
        <time>2009-09-10T06:30:51Z</time>
      </trkpt>
      <trkpt lat="45.93361" lon="4.48319">
        <ele>390.91320800781</ele>
        <time>2009-09-10T06:30:55Z</time>
      </trkpt>
      <trkpt lat="45.9337" lon="4.48311">
        <ele>388.99060058594</ele>
        <time>2009-09-10T06:30:59Z</time>
      </trkpt>
      <trkpt lat="45.93381" lon="4.48305">
        <ele>388.029296875</ele>
        <time>2009-09-10T06:31:03Z</time>
      </trkpt>
      <trkpt lat="45.93393" lon="4.48297">
        <ele>386.10668945312</ele>
        <time>2009-09-10T06:31:07Z</time>
      </trkpt>
      <trkpt lat="45.93407" lon="4.4829">
        <ele>383.70324707031</ele>
        <time>2009-09-10T06:31:11Z</time>
      </trkpt>
      <trkpt lat="45.93427" lon="4.48277">
        <ele>380.81945800781</ele>
        <time>2009-09-10T06:31:16Z</time>
      </trkpt>
      <trkpt lat="45.93438" lon="4.4827">
        <ele>377.93542480469</ele>
        <time>2009-09-10T06:31:19Z</time>
      </trkpt>
      <trkpt lat="45.93462" lon="4.48259">
        <ele>376.97424316406</ele>
        <time>2009-09-10T06:31:25Z</time>
      </trkpt>
      <trkpt lat="45.9347" lon="4.48252">
        <ele>375.53210449219</ele>
        <time>2009-09-10T06:31:27Z</time>
      </trkpt>
      <trkpt lat="45.93478" lon="4.48245">
        <ele>374.57080078125</ele>
        <time>2009-09-10T06:31:29Z</time>
      </trkpt>
      <trkpt lat="45.93495" lon="4.48233">
        <ele>371.20629882812</ele>
        <time>2009-09-10T06:31:34Z</time>
      </trkpt>
      <trkpt lat="45.93501" lon="4.48234">
        <ele>369.76428222656</ele>
        <time>2009-09-10T06:31:38Z</time>
      </trkpt>
      <trkpt lat="45.93502" lon="4.48237">
        <ele>369.76428222656</ele>
        <time>2009-09-10T06:31:44Z</time>
      </trkpt>
      <trkpt lat="45.93503" lon="4.48236">
        <ele>369.76428222656</ele>
        <time>2009-09-10T06:32:05Z</time>
      </trkpt>
      <trkpt lat="45.93504" lon="4.48236">
        <ele>369.28369140625</ele>
        <time>2009-09-10T06:32:07Z</time>
      </trkpt>
      <trkpt lat="45.93508" lon="4.48239">
        <ele>369.76428222656</ele>
        <time>2009-09-10T06:32:10Z</time>
      </trkpt>
      <trkpt lat="45.93512" lon="4.4825">
        <ele>369.28369140625</ele>
        <time>2009-09-10T06:32:14Z</time>
      </trkpt>
      <trkpt lat="45.9352" lon="4.48276">
        <ele>368.80297851562</ele>
        <time>2009-09-10T06:32:23Z</time>
      </trkpt>
      <trkpt lat="45.93525" lon="4.4828">
        <ele>368.322265625</ele>
        <time>2009-09-10T06:32:26Z</time>
      </trkpt>
      <trkpt lat="45.93531" lon="4.48273">
        <ele>368.80297851562</ele>
        <time>2009-09-10T06:32:32Z</time>
      </trkpt>
      <trkpt lat="45.93537" lon="4.48252">
        <ele>369.28369140625</ele>
        <time>2009-09-10T06:32:39Z</time>
      </trkpt>
      <trkpt lat="45.93539" lon="4.48247">
        <ele>369.28369140625</ele>
        <time>2009-09-10T06:32:41Z</time>
      </trkpt>
      <trkpt lat="45.93542" lon="4.48244">
        <ele>369.28369140625</ele>
        <time>2009-09-10T06:32:46Z</time>
      </trkpt>
      <trkpt lat="45.93542" lon="4.48244">
        <ele>368.80297851562</ele>
        <time>2009-09-10T06:32:52Z</time>
      </trkpt>
      <trkpt lat="45.93545" lon="4.48251">
        <ele>368.80297851562</ele>
        <time>2009-09-10T06:32:58Z</time>
      </trkpt>
      <trkpt lat="45.93546" lon="4.48256">
        <ele>370.24487304688</ele>
        <time>2009-09-10T06:33:06Z</time>
      </trkpt>
      <trkpt lat="45.93546" lon="4.48262">
        <ele>371.20629882812</ele>
        <time>2009-09-10T06:33:12Z</time>
      </trkpt>
      <trkpt lat="45.93546" lon="4.48266">
        <ele>372.64819335938</ele>
        <time>2009-09-10T06:33:18Z</time>
      </trkpt>
      <trkpt lat="45.93547" lon="4.48272">
        <ele>374.57080078125</ele>
        <time>2009-09-10T06:33:26Z</time>
      </trkpt>
      <trkpt lat="45.93546" lon="4.48281">
        <ele>375.05151367188</ele>
        <time>2009-09-10T06:33:33Z</time>
      </trkpt>
      <trkpt lat="45.93546" lon="4.48284">
        <ele>375.53210449219</ele>
        <time>2009-09-10T06:33:38Z</time>
      </trkpt>
      <trkpt lat="45.93545" lon="4.48289">
        <ele>376.97424316406</ele>
        <time>2009-09-10T06:33:44Z</time>
      </trkpt>
      <trkpt lat="45.9354" lon="4.48297">
        <ele>377.45483398438</ele>
        <time>2009-09-10T06:33:52Z</time>
      </trkpt>
      <trkpt lat="45.93536" lon="4.48301">
        <ele>377.45483398438</ele>
        <time>2009-09-10T06:33:57Z</time>
      </trkpt>
      <trkpt lat="45.93532" lon="4.48309">
        <ele>377.45483398438</ele>
        <time>2009-09-10T06:34:05Z</time>
      </trkpt>
      <trkpt lat="45.93532" lon="4.4831">
        <ele>377.45483398438</ele>
        <time>2009-09-10T06:34:19Z</time>
      </trkpt>
      <trkpt lat="45.93527" lon="4.48319">
        <ele>377.93542480469</ele>
        <time>2009-09-10T06:34:24Z</time>
      </trkpt>
      <trkpt lat="45.93521" lon="4.48327">
        <ele>378.89685058594</ele>
        <time>2009-09-10T06:34:29Z</time>
      </trkpt>
      <trkpt lat="45.93516" lon="4.48339">
        <ele>382.26135253906</ele>
        <time>2009-09-10T06:34:35Z</time>
      </trkpt>
      <trkpt lat="45.93515" lon="4.48341">
        <ele>382.26135253906</ele>
        <time>2009-09-10T06:34:36Z</time>
      </trkpt>
      <trkpt lat="45.93511" lon="4.48352">
        <ele>384.18408203125</ele>
        <time>2009-09-10T06:34:41Z</time>
      </trkpt>
      <trkpt lat="45.9351" lon="4.48355">
        <ele>385.14538574219</ele>
        <time>2009-09-10T06:34:49Z</time>
      </trkpt>
      <trkpt lat="45.9351" lon="4.48357">
        <ele>385.6259765625</ele>
        <time>2009-09-10T06:34:55Z</time>
      </trkpt>
      <trkpt lat="45.93507" lon="4.48363">
        <ele>387.06799316406</ele>
        <time>2009-09-10T06:35:05Z</time>
      </trkpt>
      <trkpt lat="45.93505" lon="4.48369">
        <ele>388.99060058594</ele>
        <time>2009-09-10T06:35:13Z</time>
      </trkpt>
      <trkpt lat="45.93504" lon="4.48374">
        <ele>389.95190429688</ele>
        <time>2009-09-10T06:35:21Z</time>
      </trkpt>
      <trkpt lat="45.93503" lon="4.48378">
        <ele>390.91320800781</ele>
        <time>2009-09-10T06:35:27Z</time>
      </trkpt>
      <trkpt lat="45.93501" lon="4.4838">
        <ele>391.87451171875</ele>
        <time>2009-09-10T06:35:32Z</time>
      </trkpt>
      <trkpt lat="45.935" lon="4.48383">
        <ele>393.31652832031</ele>
        <time>2009-09-10T06:35:39Z</time>
      </trkpt>
      <trkpt lat="45.93499" lon="4.48387">
        <ele>393.79724121094</ele>
        <time>2009-09-10T06:35:51Z</time>
      </trkpt>
      <trkpt lat="45.93497" lon="4.48396">
        <ele>396.20056152344</ele>
        <time>2009-09-10T06:35:59Z</time>
      </trkpt>
      <trkpt lat="45.93496" lon="4.48403">
        <ele>398.12316894531</ele>
        <time>2009-09-10T06:36:06Z</time>
      </trkpt>
      <trkpt lat="45.93494" lon="4.48411">
        <ele>398.60375976562</ele>
        <time>2009-09-10T06:36:14Z</time>
      </trkpt>
      <trkpt lat="45.93493" lon="4.48417">
        <ele>399.56506347656</ele>
        <time>2009-09-10T06:36:23Z</time>
      </trkpt>
      <trkpt lat="45.93485" lon="4.48427">
        <ele>399.56506347656</ele>
        <time>2009-09-10T06:37:23Z</time>
      </trkpt>
      <trkpt lat="45.93488" lon="4.48427">
        <ele>401.00708007812</ele>
        <time>2009-09-10T06:37:45Z</time>
      </trkpt>
      <trkpt lat="45.93486" lon="4.48434">
        <ele>402.44909667969</ele>
        <time>2009-09-10T06:37:53Z</time>
      </trkpt>
      <trkpt lat="45.93483" lon="4.48441">
        <ele>403.89111328125</ele>
        <time>2009-09-10T06:38:01Z</time>
      </trkpt>
      <trkpt lat="45.93481" lon="4.48447">
        <ele>404.85229492188</ele>
        <time>2009-09-10T06:38:09Z</time>
      </trkpt>
      <trkpt lat="45.93481" lon="4.48453">
        <ele>406.29431152344</ele>
        <time>2009-09-10T06:38:16Z</time>
      </trkpt>
      <trkpt lat="45.93481" lon="4.48455">
        <ele>406.77490234375</ele>
        <time>2009-09-10T06:38:22Z</time>
      </trkpt>
      <trkpt lat="45.93481" lon="4.48461">
        <ele>407.736328125</ele>
        <time>2009-09-10T06:38:30Z</time>
      </trkpt>
      <trkpt lat="45.9348" lon="4.48467">
        <ele>408.69763183594</ele>
        <time>2009-09-10T06:38:38Z</time>
      </trkpt>
      <trkpt lat="45.93479" lon="4.48472">
        <ele>409.17834472656</ele>
        <time>2009-09-10T06:38:46Z</time>
      </trkpt>
      <trkpt lat="45.93477" lon="4.48474">
        <ele>409.65905761719</ele>
        <time>2009-09-10T06:38:53Z</time>
      </trkpt>
      <trkpt lat="45.93476" lon="4.48475">
        <ele>410.62023925781</ele>
        <time>2009-09-10T06:39:02Z</time>
      </trkpt>
      <trkpt lat="45.93475" lon="4.4848">
        <ele>411.10095214844</ele>
        <time>2009-09-10T06:39:09Z</time>
      </trkpt>
      <trkpt lat="45.93474" lon="4.48484">
        <ele>412.06225585938</ele>
        <time>2009-09-10T06:39:15Z</time>
      </trkpt>
      <trkpt lat="45.93475" lon="4.48486">
        <ele>413.50427246094</ele>
        <time>2009-09-10T06:39:22Z</time>
      </trkpt>
      <trkpt lat="45.9348" lon="4.48484">
        <ele>414.94616699219</ele>
        <time>2009-09-10T06:39:31Z</time>
      </trkpt>
      <trkpt lat="45.93481" lon="4.48483">
        <ele>415.42687988281</ele>
        <time>2009-09-10T06:39:39Z</time>
      </trkpt>
      <trkpt lat="45.93484" lon="4.4848">
        <ele>416.86889648438</ele>
        <time>2009-09-10T06:39:47Z</time>
      </trkpt>
      <trkpt lat="45.93487" lon="4.48478">
        <ele>417.83020019531</ele>
        <time>2009-09-10T06:39:53Z</time>
      </trkpt>
      <trkpt lat="45.93491" lon="4.48477">
        <ele>418.31079101562</ele>
        <time>2009-09-10T06:40:01Z</time>
      </trkpt>
      <trkpt lat="45.93495" lon="4.48474">
        <ele>419.27221679688</ele>
        <time>2009-09-10T06:40:09Z</time>
      </trkpt>
      <trkpt lat="45.93501" lon="4.48471">
        <ele>421.19482421875</ele>
        <time>2009-09-10T06:40:17Z</time>
      </trkpt>
      <trkpt lat="45.93508" lon="4.48469">
        <ele>422.63671875</ele>
        <time>2009-09-10T06:40:26Z</time>
      </trkpt>
      <trkpt lat="45.93513" lon="4.48467">
        <ele>424.07873535156</ele>
        <time>2009-09-10T06:40:33Z</time>
      </trkpt>
      <trkpt lat="45.93517" lon="4.48467">
        <ele>425.04016113281</ele>
        <time>2009-09-10T06:40:41Z</time>
      </trkpt>
      <trkpt lat="45.93519" lon="4.48468">
        <ele>426.00134277344</ele>
        <time>2009-09-10T06:40:52Z</time>
      </trkpt>
      <trkpt lat="45.93523" lon="4.48465">
        <ele>426.96276855469</ele>
        <time>2009-09-10T06:41:00Z</time>
      </trkpt>
      <trkpt lat="45.93526" lon="4.48463">
        <ele>428.40466308594</ele>
        <time>2009-09-10T06:41:06Z</time>
      </trkpt>
      <trkpt lat="45.93526" lon="4.48462">
        <ele>428.40466308594</ele>
        <time>2009-09-10T06:41:14Z</time>
      </trkpt>
      <trkpt lat="45.9353" lon="4.48459">
        <ele>429.36596679688</ele>
        <time>2009-09-10T06:41:21Z</time>
      </trkpt>
      <trkpt lat="45.93533" lon="4.48458">
        <ele>429.84655761719</ele>
        <time>2009-09-10T06:41:26Z</time>
      </trkpt>
      <trkpt lat="45.93536" lon="4.48457">
        <ele>431.76916503906</ele>
        <time>2009-09-10T06:41:33Z</time>
      </trkpt>
      <trkpt lat="45.93544" lon="4.48456">
        <ele>433.21130371094</ele>
        <time>2009-09-10T06:41:43Z</time>
      </trkpt>
      <trkpt lat="45.93549" lon="4.48455">
        <ele>434.6533203125</ele>
        <time>2009-09-10T06:41:51Z</time>
      </trkpt>
      <trkpt lat="45.93556" lon="4.48454">
        <ele>436.57592773438</ele>
        <time>2009-09-10T06:42:01Z</time>
      </trkpt>
      <trkpt lat="45.93561" lon="4.48452">
        <ele>438.49853515625</ele>
        <time>2009-09-10T06:42:10Z</time>
      </trkpt>
      <trkpt lat="45.93563" lon="4.48452">
        <ele>438.97912597656</ele>
        <time>2009-09-10T06:42:21Z</time>
      </trkpt>
      <trkpt lat="45.93568" lon="4.4845">
        <ele>439.9404296875</ele>
        <time>2009-09-10T06:42:29Z</time>
      </trkpt>
      <trkpt lat="45.9357" lon="4.48449">
        <ele>440.42126464844</ele>
        <time>2009-09-10T06:42:36Z</time>
      </trkpt>
      <trkpt lat="45.9357" lon="4.48449">
        <ele>440.42126464844</ele>
        <time>2009-09-10T06:42:45Z</time>
      </trkpt>
      <trkpt lat="45.93578" lon="4.48447">
        <ele>442.34387207031</ele>
        <time>2009-09-10T06:42:54Z</time>
      </trkpt>
      <trkpt lat="45.93586" lon="4.48444">
        <ele>444.26647949219</ele>
        <time>2009-09-10T06:43:06Z</time>
      </trkpt>
      <trkpt lat="45.93588" lon="4.48444">
        <ele>444.7470703125</ele>
        <time>2009-09-10T06:43:14Z</time>
      </trkpt>
      <trkpt lat="45.93591" lon="4.48445">
        <ele>446.18908691406</ele>
        <time>2009-09-10T06:43:23Z</time>
      </trkpt>
      <trkpt lat="45.93596" lon="4.48447">
        <ele>447.63098144531</ele>
        <time>2009-09-10T06:43:32Z</time>
      </trkpt>
      <trkpt lat="45.93601" lon="4.48447">
        <ele>449.5537109375</ele>
        <time>2009-09-10T06:43:41Z</time>
      </trkpt>
      <trkpt lat="45.93605" lon="4.48449">
        <ele>451.95703125</ele>
        <time>2009-09-10T06:43:50Z</time>
      </trkpt>
      <trkpt lat="45.93609" lon="4.48453">
        <ele>452.91821289062</ele>
        <time>2009-09-10T06:43:58Z</time>
      </trkpt>
      <trkpt lat="45.9361" lon="4.48453">
        <ele>452.91821289062</ele>
        <time>2009-09-10T06:44:04Z</time>
      </trkpt>
      <trkpt lat="45.93612" lon="4.48453">
        <ele>452.91821289062</ele>
        <time>2009-09-10T06:44:16Z</time>
      </trkpt>
      <trkpt lat="45.93613" lon="4.48452">
        <ele>452.91821289062</ele>
        <time>2009-09-10T06:44:19Z</time>
      </trkpt>
      <trkpt lat="45.93618" lon="4.48449">
        <ele>453.39892578125</ele>
        <time>2009-09-10T06:44:23Z</time>
      </trkpt>
      <trkpt lat="45.93628" lon="4.48447">
        <ele>454.36022949219</ele>
        <time>2009-09-10T06:44:30Z</time>
      </trkpt>
      <trkpt lat="45.93637" lon="4.48442">
        <ele>454.36022949219</ele>
        <time>2009-09-10T06:44:37Z</time>
      </trkpt>
      <trkpt lat="45.93639" lon="4.48438">
        <ele>454.8408203125</ele>
        <time>2009-09-10T06:44:44Z</time>
      </trkpt>
      <trkpt lat="45.93639" lon="4.48438">
        <ele>454.36022949219</ele>
        <time>2009-09-10T06:44:45Z</time>
      </trkpt>
      <trkpt lat="45.93631" lon="4.48446">
        <ele>454.36022949219</ele>
        <time>2009-09-10T06:44:52Z</time>
      </trkpt>
      <trkpt lat="45.9363" lon="4.48446">
        <ele>454.36022949219</ele>
        <time>2009-09-10T06:44:53Z</time>
      </trkpt>
      <trkpt lat="45.93623" lon="4.48451">
        <ele>454.36022949219</ele>
        <time>2009-09-10T06:44:59Z</time>
      </trkpt>
      <trkpt lat="45.93622" lon="4.48452">
        <ele>454.36022949219</ele>
        <time>2009-09-10T06:45:00Z</time>
      </trkpt>
      <trkpt lat="45.93627" lon="4.48453">
        <ele>454.8408203125</ele>
        <time>2009-09-10T06:45:04Z</time>
      </trkpt>
      <trkpt lat="45.9364" lon="4.48453">
        <ele>456.28295898438</ele>
        <time>2009-09-10T06:45:12Z</time>
      </trkpt>
      <trkpt lat="45.93652" lon="4.48451">
        <ele>459.64758300781</ele>
        <time>2009-09-10T06:45:20Z</time>
      </trkpt>
      <trkpt lat="45.93663" lon="4.48448">
        <ele>462.05078125</ele>
        <time>2009-09-10T06:45:29Z</time>
      </trkpt>
      <trkpt lat="45.93673" lon="4.48445">
        <ele>463.49279785156</ele>
        <time>2009-09-10T06:45:37Z</time>
      </trkpt>
      <trkpt lat="45.93678" lon="4.48444">
        <ele>463.97338867188</ele>
        <time>2009-09-10T06:45:41Z</time>
      </trkpt>
      <trkpt lat="45.93688" lon="4.48444">
        <ele>466.37670898438</ele>
        <time>2009-09-10T06:45:49Z</time>
      </trkpt>
      <trkpt lat="45.9369" lon="4.48444">
        <ele>466.857421875</ele>
        <time>2009-09-10T06:45:57Z</time>
      </trkpt>
      <trkpt lat="45.93696" lon="4.48443">
        <ele>469.2607421875</ele>
        <time>2009-09-10T06:46:06Z</time>
      </trkpt>
      <trkpt lat="45.937" lon="4.48443">
        <ele>471.18334960938</ele>
        <time>2009-09-10T06:46:13Z</time>
      </trkpt>
      <trkpt lat="45.93704" lon="4.48441">
        <ele>471.66394042969</ele>
        <time>2009-09-10T06:46:20Z</time>
      </trkpt>
      <trkpt lat="45.93707" lon="4.48441">
        <ele>472.14465332031</ele>
        <time>2009-09-10T06:46:25Z</time>
      </trkpt>
      <trkpt lat="45.93712" lon="4.48441">
        <ele>474.54797363281</ele>
        <time>2009-09-10T06:46:34Z</time>
      </trkpt>
      <trkpt lat="45.93716" lon="4.48441">
        <ele>475.50927734375</ele>
        <time>2009-09-10T06:46:41Z</time>
      </trkpt>
      <trkpt lat="45.93722" lon="4.4844">
        <ele>477.43188476562</ele>
        <time>2009-09-10T06:46:50Z</time>
      </trkpt>
      <trkpt lat="45.93726" lon="4.48439">
        <ele>478.39318847656</ele>
        <time>2009-09-10T06:46:56Z</time>
      </trkpt>
      <trkpt lat="45.93729" lon="4.48439">
        <ele>478.87390136719</ele>
        <time>2009-09-10T06:47:04Z</time>
      </trkpt>
      <trkpt lat="45.93732" lon="4.48439">
        <ele>480.31591796875</ele>
        <time>2009-09-10T06:47:11Z</time>
      </trkpt>
      <trkpt lat="45.93734" lon="4.4844">
        <ele>480.79663085938</ele>
        <time>2009-09-10T06:47:18Z</time>
      </trkpt>
      <trkpt lat="45.93739" lon="4.48439">
        <ele>482.71923828125</ele>
        <time>2009-09-10T06:47:27Z</time>
      </trkpt>
      <trkpt lat="45.93744" lon="4.4844">
        <ele>483.68041992188</ele>
        <time>2009-09-10T06:47:36Z</time>
      </trkpt>
      <trkpt lat="45.93749" lon="4.48439">
        <ele>485.60302734375</ele>
        <time>2009-09-10T06:47:46Z</time>
      </trkpt>
      <trkpt lat="45.93753" lon="4.4844">
        <ele>487.04504394531</ele>
        <time>2009-09-10T06:47:54Z</time>
      </trkpt>
      <trkpt lat="45.93757" lon="4.48439">
        <ele>488.48718261719</ele>
        <time>2009-09-10T06:48:01Z</time>
      </trkpt>
      <trkpt lat="45.93761" lon="4.4844">
        <ele>489.92907714844</ele>
        <time>2009-09-10T06:48:09Z</time>
      </trkpt>
      <trkpt lat="45.93767" lon="4.48441">
        <ele>491.37097167969</ele>
        <time>2009-09-10T06:48:19Z</time>
      </trkpt>
      <trkpt lat="45.9377" lon="4.48443">
        <ele>491.85168457031</ele>
        <time>2009-09-10T06:48:27Z</time>
      </trkpt>
      <trkpt lat="45.93774" lon="4.48444">
        <ele>492.81298828125</ele>
        <time>2009-09-10T06:48:48Z</time>
      </trkpt>
      <trkpt lat="45.93779" lon="4.48446">
        <ele>494.73559570312</ele>
        <time>2009-09-10T06:48:56Z</time>
      </trkpt>
      <trkpt lat="45.93781" lon="4.48446">
        <ele>495.21618652344</ele>
        <time>2009-09-10T06:49:04Z</time>
      </trkpt>
      <trkpt lat="45.93782" lon="4.48447">
        <ele>495.21618652344</ele>
        <time>2009-09-10T06:49:10Z</time>
      </trkpt>
      <trkpt lat="45.93792" lon="4.48449">
        <ele>497.61962890625</ele>
        <time>2009-09-10T06:49:18Z</time>
      </trkpt>
      <trkpt lat="45.93807" lon="4.4845">
        <ele>500.50354003906</ele>
        <time>2009-09-10T06:49:27Z</time>
      </trkpt>
      <trkpt lat="45.93818" lon="4.48451">
        <ele>501.94555664062</ele>
        <time>2009-09-10T06:49:35Z</time>
      </trkpt>
      <trkpt lat="45.93829" lon="4.48454">
        <ele>503.8681640625</ele>
        <time>2009-09-10T06:49:43Z</time>
      </trkpt>
      <trkpt lat="45.9384" lon="4.48459">
        <ele>506.271484375</ele>
        <time>2009-09-10T06:49:51Z</time>
      </trkpt>
      <trkpt lat="45.93845" lon="4.48462">
        <ele>507.71350097656</ele>
        <time>2009-09-10T06:49:55Z</time>
      </trkpt>
      <trkpt lat="45.93853" lon="4.48472">
        <ele>510.11669921875</ele>
        <time>2009-09-10T06:50:03Z</time>
      </trkpt>
      <trkpt lat="45.93854" lon="4.48472">
        <ele>509.63610839844</ele>
        <time>2009-09-10T06:50:11Z</time>
      </trkpt>
      <trkpt lat="45.93856" lon="4.48475">
        <ele>511.07800292969</ele>
        <time>2009-09-10T06:50:35Z</time>
      </trkpt>
      <trkpt lat="45.93857" lon="4.48479">
        <ele>511.55871582031</ele>
        <time>2009-09-10T06:50:43Z</time>
      </trkpt>
      <trkpt lat="45.93859" lon="4.48485">
        <ele>512.52001953125</ele>
        <time>2009-09-10T06:50:51Z</time>
      </trkpt>
      <trkpt lat="45.9386" lon="4.48489">
        <ele>513.96203613281</ele>
        <time>2009-09-10T06:50:57Z</time>
      </trkpt>
      <trkpt lat="45.9386" lon="4.48493">
        <ele>514.92333984375</ele>
        <time>2009-09-10T06:51:02Z</time>
      </trkpt>
      <trkpt lat="45.93861" lon="4.48496">
        <ele>514.92333984375</ele>
        <time>2009-09-10T06:51:12Z</time>
      </trkpt>
      <trkpt lat="45.93862" lon="4.485">
        <ele>516.365234375</ele>
        <time>2009-09-10T06:51:24Z</time>
      </trkpt>
      <trkpt lat="45.93864" lon="4.48504">
        <ele>516.365234375</ele>
        <time>2009-09-10T06:51:32Z</time>
      </trkpt>
      <trkpt lat="45.93866" lon="4.48507">
        <ele>518.28784179688</ele>
        <time>2009-09-10T06:51:43Z</time>
      </trkpt>
      <trkpt lat="45.93869" lon="4.48514">
        <ele>519.72985839844</ele>
        <time>2009-09-10T06:51:53Z</time>
      </trkpt>
      <trkpt lat="45.93873" lon="4.48521">
        <ele>521.17199707031</ele>
        <time>2009-09-10T06:52:03Z</time>
      </trkpt>
      <trkpt lat="45.93875" lon="4.48525">
        <ele>522.13317871094</ele>
        <time>2009-09-10T06:52:10Z</time>
      </trkpt>
      <trkpt lat="45.93878" lon="4.48529">
        <ele>523.09460449219</ele>
        <time>2009-09-10T06:52:17Z</time>
      </trkpt>
      <trkpt lat="45.9388" lon="4.48533">
        <ele>524.53649902344</ele>
        <time>2009-09-10T06:52:25Z</time>
      </trkpt>
      <trkpt lat="45.93881" lon="4.48535">
        <ele>525.01721191406</ele>
        <time>2009-09-10T06:52:35Z</time>
      </trkpt>
      <trkpt lat="45.93884" lon="4.48538">
        <ele>525.97839355469</ele>
        <time>2009-09-10T06:52:57Z</time>
      </trkpt>
      <trkpt lat="45.93887" lon="4.48544">
        <ele>526.45910644531</ele>
        <time>2009-09-10T06:53:05Z</time>
      </trkpt>
      <trkpt lat="45.93889" lon="4.4855">
        <ele>528.3818359375</ele>
        <time>2009-09-10T06:53:12Z</time>
      </trkpt>
      <trkpt lat="45.93892" lon="4.48557">
        <ele>529.34313964844</ele>
        <time>2009-09-10T06:53:19Z</time>
      </trkpt>
      <trkpt lat="45.93894" lon="4.48561">
        <ele>530.30444335938</ele>
        <time>2009-09-10T06:53:27Z</time>
      </trkpt>
      <trkpt lat="45.93896" lon="4.48568">
        <ele>531.74633789062</ele>
        <time>2009-09-10T06:53:35Z</time>
      </trkpt>
      <trkpt lat="45.93897" lon="4.4857">
        <ele>532.22705078125</ele>
        <time>2009-09-10T06:53:42Z</time>
      </trkpt>
      <trkpt lat="45.93899" lon="4.48574">
        <ele>532.70776367188</ele>
        <time>2009-09-10T06:53:51Z</time>
      </trkpt>
      <trkpt lat="45.93902" lon="4.48582">
        <ele>534.63037109375</ele>
        <time>2009-09-10T06:54:02Z</time>
      </trkpt>
      <trkpt lat="45.93902" lon="4.48583">
        <ele>534.63037109375</ele>
        <time>2009-09-10T06:54:06Z</time>
      </trkpt>
      <trkpt lat="45.93904" lon="4.48588">
        <ele>536.07238769531</ele>
        <time>2009-09-10T06:54:12Z</time>
      </trkpt>
      <trkpt lat="45.93907" lon="4.48595">
        <ele>537.51428222656</ele>
        <time>2009-09-10T06:54:22Z</time>
      </trkpt>
      <trkpt lat="45.9391" lon="4.48603">
        <ele>538.47570800781</ele>
        <time>2009-09-10T06:54:32Z</time>
      </trkpt>
      <trkpt lat="45.93913" lon="4.48609">
        <ele>540.39831542969</ele>
        <time>2009-09-10T06:54:42Z</time>
      </trkpt>
      <trkpt lat="45.93916" lon="4.48613">
        <ele>541.35949707031</ele>
        <time>2009-09-10T06:54:48Z</time>
      </trkpt>
      <trkpt lat="45.93919" lon="4.4862">
        <ele>542.80151367188</ele>
        <time>2009-09-10T06:54:58Z</time>
      </trkpt>
      <trkpt lat="45.93922" lon="4.48627">
        <ele>544.72424316406</ele>
        <time>2009-09-10T06:55:07Z</time>
      </trkpt>
      <trkpt lat="45.93924" lon="4.48633">
        <ele>546.16625976562</ele>
        <time>2009-09-10T06:55:15Z</time>
      </trkpt>
      <trkpt lat="45.93926" lon="4.48637">
        <ele>546.64685058594</ele>
        <time>2009-09-10T06:55:25Z</time>
      </trkpt>
      <trkpt lat="45.93928" lon="4.48643">
        <ele>547.12744140625</ele>
        <time>2009-09-10T06:55:38Z</time>
      </trkpt>
      <trkpt lat="45.93932" lon="4.48651">
        <ele>548.5693359375</ele>
        <time>2009-09-10T06:55:47Z</time>
      </trkpt>
      <trkpt lat="45.93934" lon="4.48658">
        <ele>550.01147460938</ele>
        <time>2009-09-10T06:55:55Z</time>
      </trkpt>
      <trkpt lat="45.93938" lon="4.48666">
        <ele>551.93408203125</ele>
        <time>2009-09-10T06:56:05Z</time>
      </trkpt>
      <trkpt lat="45.93941" lon="4.48672">
        <ele>553.3759765625</ele>
        <time>2009-09-10T06:56:15Z</time>
      </trkpt>
      <trkpt lat="45.93944" lon="4.48677">
        <ele>554.33740234375</ele>
        <time>2009-09-10T06:56:22Z</time>
      </trkpt>
      <trkpt lat="45.93948" lon="4.48685">
        <ele>555.779296875</ele>
        <time>2009-09-10T06:56:31Z</time>
      </trkpt>
      <trkpt lat="45.93951" lon="4.48693">
        <ele>557.22143554688</ele>
        <time>2009-09-10T06:56:41Z</time>
      </trkpt>
      <trkpt lat="45.93954" lon="4.48699">
        <ele>558.66333007812</ele>
        <time>2009-09-10T06:56:49Z</time>
      </trkpt>
      <trkpt lat="45.93956" lon="4.48705">
        <ele>559.62475585938</ele>
        <time>2009-09-10T06:56:57Z</time>
      </trkpt>
      <trkpt lat="45.93958" lon="4.48707">
        <ele>560.10522460938</ele>
        <time>2009-09-10T06:57:05Z</time>
      </trkpt>
      <trkpt lat="45.9396" lon="4.48711">
        <ele>561.06665039062</ele>
        <time>2009-09-10T06:57:20Z</time>
      </trkpt>
      <trkpt lat="45.93964" lon="4.48717">
        <ele>562.02807617188</ele>
        <time>2009-09-10T06:57:29Z</time>
      </trkpt>
      <trkpt lat="45.93968" lon="4.48722">
        <ele>563.95043945312</ele>
        <time>2009-09-10T06:57:37Z</time>
      </trkpt>
      <trkpt lat="45.93973" lon="4.48724">
        <ele>564.43115234375</ele>
        <time>2009-09-10T06:57:45Z</time>
      </trkpt>
      <trkpt lat="45.93974" lon="4.48724">
        <ele>564.43115234375</ele>
        <time>2009-09-10T06:57:51Z</time>
      </trkpt>
      <trkpt lat="45.93972" lon="4.48727">
        <ele>565.392578125</ele>
        <time>2009-09-10T06:58:02Z</time>
      </trkpt>
      <trkpt lat="45.93972" lon="4.48728">
        <ele>565.87329101562</ele>
        <time>2009-09-10T06:58:18Z</time>
      </trkpt>
      <trkpt lat="45.93967" lon="4.48742">
        <ele>567.31518554688</ele>
        <time>2009-09-10T06:58:26Z</time>
      </trkpt>
      <trkpt lat="45.93963" lon="4.48755">
        <ele>569.23779296875</ele>
        <time>2009-09-10T06:58:34Z</time>
      </trkpt>
      <trkpt lat="45.93959" lon="4.48768">
        <ele>571.64086914062</ele>
        <time>2009-09-10T06:58:42Z</time>
      </trkpt>
      <trkpt lat="45.93958" lon="4.48784">
        <ele>572.6025390625</ele>
        <time>2009-09-10T06:58:50Z</time>
      </trkpt>
      <trkpt lat="45.93963" lon="4.48796">
        <ele>573.56396484375</ele>
        <time>2009-09-10T06:58:57Z</time>
      </trkpt>
      <trkpt lat="45.93971" lon="4.48804">
        <ele>574.52514648438</ele>
        <time>2009-09-10T06:59:05Z</time>
      </trkpt>
      <trkpt lat="45.9398" lon="4.48807">
        <ele>576.44775390625</ele>
        <time>2009-09-10T06:59:13Z</time>
      </trkpt>
      <trkpt lat="45.93982" lon="4.48808">
        <ele>576.44775390625</ele>
        <time>2009-09-10T06:59:15Z</time>
      </trkpt>
      <trkpt lat="45.93986" lon="4.48804">
        <ele>577.4091796875</ele>
        <time>2009-09-10T06:59:21Z</time>
      </trkpt>
      <trkpt lat="45.93986" lon="4.48804">
        <ele>576.92846679688</ele>
        <time>2009-09-10T06:59:22Z</time>
      </trkpt>
      <trkpt lat="45.93988" lon="4.48806">
        <ele>581.25439453125</ele>
        <time>2009-09-10T07:07:44Z</time>
      </trkpt>
      <trkpt lat="45.93988" lon="4.48806">
        <ele>581.25439453125</ele>
        <time>2009-09-10T07:07:45Z</time>
      </trkpt>
      <trkpt lat="45.93988" lon="4.48807">
        <ele>581.25439453125</ele>
        <time>2009-09-10T07:07:46Z</time>
      </trkpt>
      <trkpt lat="45.93988" lon="4.48807">
        <ele>581.25439453125</ele>
        <time>2009-09-10T07:07:47Z</time>
      </trkpt>
      <trkpt lat="45.93994" lon="4.48812">
        <ele>581.73486328125</ele>
        <time>2009-09-10T07:07:52Z</time>
      </trkpt>
      <trkpt lat="45.93996" lon="4.48813">
        <ele>582.21557617188</ele>
        <time>2009-09-10T07:07:53Z</time>
      </trkpt>
      <trkpt lat="45.94003" lon="4.48819">
        <ele>583.1767578125</ele>
        <time>2009-09-10T07:08:00Z</time>
      </trkpt>
      <trkpt lat="45.94009" lon="4.48822">
        <ele>584.13818359375</ele>
        <time>2009-09-10T07:08:05Z</time>
      </trkpt>
      <trkpt lat="45.94017" lon="4.48831">
        <ele>585.580078125</ele>
        <time>2009-09-10T07:08:14Z</time>
      </trkpt>
      <trkpt lat="45.94024" lon="4.48838">
        <ele>587.50268554688</ele>
        <time>2009-09-10T07:08:22Z</time>
      </trkpt>
      <trkpt lat="45.94032" lon="4.48846">
        <ele>589.42553710938</ele>
        <time>2009-09-10T07:08:30Z</time>
      </trkpt>
      <trkpt lat="45.94037" lon="4.48854">
        <ele>590.38696289062</ele>
        <time>2009-09-10T07:08:36Z</time>
      </trkpt>
      <trkpt lat="45.94043" lon="4.48862">
        <ele>592.3095703125</ele>
        <time>2009-09-10T07:08:42Z</time>
      </trkpt>
      <trkpt lat="45.94048" lon="4.48871">
        <ele>592.79028320312</ele>
        <time>2009-09-10T07:08:47Z</time>
      </trkpt>
      <trkpt lat="45.94056" lon="4.48884">
        <ele>593.75146484375</ele>
        <time>2009-09-10T07:08:54Z</time>
      </trkpt>
      <trkpt lat="45.94068" lon="4.48901">
        <ele>595.193359375</ele>
        <time>2009-09-10T07:09:03Z</time>
      </trkpt>
      <trkpt lat="45.94076" lon="4.48911">
        <ele>595.67407226562</ele>
        <time>2009-09-10T07:09:09Z</time>
      </trkpt>
      <trkpt lat="45.94084" lon="4.48916">
        <ele>596.15478515625</ele>
        <time>2009-09-10T07:09:14Z</time>
      </trkpt>
      <trkpt lat="45.94088" lon="4.48919">
        <ele>596.15478515625</ele>
        <time>2009-09-10T07:09:18Z</time>
      </trkpt>
      <trkpt lat="45.94091" lon="4.48924">
        <ele>596.15478515625</ele>
        <time>2009-09-10T07:09:21Z</time>
      </trkpt>
      <trkpt lat="45.94097" lon="4.48931">
        <ele>597.5966796875</ele>
        <time>2009-09-10T07:09:28Z</time>
      </trkpt>
      <trkpt lat="45.94107" lon="4.48942">
        <ele>598.55786132812</ele>
        <time>2009-09-10T07:09:34Z</time>
      </trkpt>
      <trkpt lat="45.94116" lon="4.48955">
        <ele>600.48071289062</ele>
        <time>2009-09-10T07:09:42Z</time>
      </trkpt>
      <trkpt lat="45.9412" lon="4.48967">
        <ele>601.44189453125</ele>
        <time>2009-09-10T07:09:48Z</time>
      </trkpt>
      <trkpt lat="45.94124" lon="4.48981">
        <ele>602.8837890625</ele>
        <time>2009-09-10T07:09:54Z</time>
      </trkpt>
      <trkpt lat="45.94125" lon="4.4899">
        <ele>602.8837890625</ele>
        <time>2009-09-10T07:09:57Z</time>
      </trkpt>
      <trkpt lat="45.94127" lon="4.48999">
        <ele>603.84521484375</ele>
        <time>2009-09-10T07:10:01Z</time>
      </trkpt>
      <trkpt lat="45.94127" lon="4.49018">
        <ele>604.806640625</ele>
        <time>2009-09-10T07:10:08Z</time>
      </trkpt>
      <trkpt lat="45.94127" lon="4.4903">
        <ele>605.28735351562</ele>
        <time>2009-09-10T07:10:12Z</time>
      </trkpt>
      <trkpt lat="45.94128" lon="4.49052">
        <ele>605.28735351562</ele>
        <time>2009-09-10T07:10:17Z</time>
      </trkpt>
      <trkpt lat="45.94118" lon="4.49082">
        <ele>605.28735351562</ele>
        <time>2009-09-10T07:10:23Z</time>
      </trkpt>
      <trkpt lat="45.94116" lon="4.49087">
        <ele>604.326171875</ele>
        <time>2009-09-10T07:10:24Z</time>
      </trkpt>
      <trkpt lat="45.94098" lon="4.49117">
        <ele>604.806640625</ele>
        <time>2009-09-10T07:10:29Z</time>
      </trkpt>
      <trkpt lat="45.94073" lon="4.49156">
        <ele>604.806640625</ele>
        <time>2009-09-10T07:10:36Z</time>
      </trkpt>
      <trkpt lat="45.94061" lon="4.49186">
        <ele>605.28735351562</ele>
        <time>2009-09-10T07:10:42Z</time>
      </trkpt>
      <trkpt lat="45.9406" lon="4.49201">
        <ele>606.24853515625</ele>
        <time>2009-09-10T07:10:47Z</time>
      </trkpt>
      <trkpt lat="45.94056" lon="4.49214">
        <ele>606.24853515625</ele>
        <time>2009-09-10T07:10:53Z</time>
      </trkpt>
      <trkpt lat="45.94056" lon="4.49216">
        <ele>606.24853515625</ele>
        <time>2009-09-10T07:10:56Z</time>
      </trkpt>
      <trkpt lat="45.94062" lon="4.49205">
        <ele>608.65185546875</ele>
        <time>2009-09-10T07:11:03Z</time>
      </trkpt>
      <trkpt lat="45.94064" lon="4.49201">
        <ele>609.13256835938</ele>
        <time>2009-09-10T07:11:05Z</time>
      </trkpt>
      <trkpt lat="45.94073" lon="4.49189">
        <ele>610.57446289062</ele>
        <time>2009-09-10T07:11:13Z</time>
      </trkpt>
      <trkpt lat="45.94081" lon="4.49178">
        <ele>612.0166015625</ele>
        <time>2009-09-10T07:11:20Z</time>
      </trkpt>
      <trkpt lat="45.94088" lon="4.49168">
        <ele>612.97778320312</ele>
        <time>2009-09-10T07:11:27Z</time>
      </trkpt>
      <trkpt lat="45.94094" lon="4.4916">
        <ele>613.45849609375</ele>
        <time>2009-09-10T07:11:33Z</time>
      </trkpt>
      <trkpt lat="45.94104" lon="4.49151">
        <ele>615.86181640625</ele>
        <time>2009-09-10T07:11:40Z</time>
      </trkpt>
      <trkpt lat="45.94114" lon="4.49141">
        <ele>616.82299804688</ele>
        <time>2009-09-10T07:11:48Z</time>
      </trkpt>
      <trkpt lat="45.94128" lon="4.49131">
        <ele>618.26489257812</ele>
        <time>2009-09-10T07:11:57Z</time>
      </trkpt>
      <trkpt lat="45.94137" lon="4.49123">
        <ele>620.18774414062</ele>
        <time>2009-09-10T07:12:04Z</time>
      </trkpt>
      <trkpt lat="45.94148" lon="4.49113">
        <ele>621.14916992188</ele>
        <time>2009-09-10T07:12:12Z</time>
      </trkpt>
      <trkpt lat="45.94156" lon="4.49105">
        <ele>623.07177734375</ele>
        <time>2009-09-10T07:12:19Z</time>
      </trkpt>
      <trkpt lat="45.94164" lon="4.49096">
        <ele>624.513671875</ele>
        <time>2009-09-10T07:12:26Z</time>
      </trkpt>
      <trkpt lat="45.94172" lon="4.49085">
        <ele>626.43627929688</ele>
        <time>2009-09-10T07:12:34Z</time>
      </trkpt>
      <trkpt lat="45.94178" lon="4.49075">
        <ele>627.87817382812</ele>
        <time>2009-09-10T07:12:42Z</time>
      </trkpt>
      <trkpt lat="45.94181" lon="4.49065">
        <ele>630.76220703125</ele>
        <time>2009-09-10T07:12:49Z</time>
      </trkpt>
      <trkpt lat="45.94184" lon="4.49057">
        <ele>632.68481445312</ele>
        <time>2009-09-10T07:12:56Z</time>
      </trkpt>
      <trkpt lat="45.94184" lon="4.49045">
        <ele>633.64599609375</ele>
        <time>2009-09-10T07:13:04Z</time>
      </trkpt>
      <trkpt lat="45.94185" lon="4.49041">
        <ele>634.12670898438</ele>
        <time>2009-09-10T07:13:06Z</time>
      </trkpt>
      <trkpt lat="45.94189" lon="4.49021">
        <ele>637.0107421875</ele>
        <time>2009-09-10T07:13:16Z</time>
      </trkpt>
      <trkpt lat="45.94194" lon="4.49011">
        <ele>638.93359375</ele>
        <time>2009-09-10T07:13:23Z</time>
      </trkpt>
      <trkpt lat="45.94196" lon="4.49008">
        <ele>639.4140625</ele>
        <time>2009-09-10T07:13:25Z</time>
      </trkpt>
      <trkpt lat="45.94205" lon="4.48996">
        <ele>641.33666992188</ele>
        <time>2009-09-10T07:13:34Z</time>
      </trkpt>
      <trkpt lat="45.94212" lon="4.4899">
        <ele>643.73999023438</ele>
        <time>2009-09-10T07:13:40Z</time>
      </trkpt>
      <trkpt lat="45.94218" lon="4.48986">
        <ele>645.18188476562</ele>
        <time>2009-09-10T07:13:46Z</time>
      </trkpt>
      <trkpt lat="45.94231" lon="4.48976">
        <ele>647.58520507812</ele>
        <time>2009-09-10T07:13:57Z</time>
      </trkpt>
      <trkpt lat="45.9424" lon="4.4897">
        <ele>648.06591796875</ele>
        <time>2009-09-10T07:14:05Z</time>
      </trkpt>
      <trkpt lat="45.94245" lon="4.48969">
        <ele>648.54638671875</ele>
        <time>2009-09-10T07:14:09Z</time>
      </trkpt>
      <trkpt lat="45.94247" lon="4.48967">
        <ele>648.54638671875</ele>
        <time>2009-09-10T07:14:11Z</time>
      </trkpt>
      <trkpt lat="45.94259" lon="4.48967">
        <ele>649.02709960938</ele>
        <time>2009-09-10T07:14:20Z</time>
      </trkpt>
      <trkpt lat="45.94267" lon="4.48969">
        <ele>649.98852539062</ele>
        <time>2009-09-10T07:14:27Z</time>
      </trkpt>
      <trkpt lat="45.9428" lon="4.48969">
        <ele>648.54638671875</ele>
        <time>2009-09-10T07:14:33Z</time>
      </trkpt>
      <trkpt lat="45.94297" lon="4.48979">
        <ele>647.1044921875</ele>
        <time>2009-09-10T07:14:38Z</time>
      </trkpt>
      <trkpt lat="45.94302" lon="4.48983">
        <ele>646.14331054688</ele>
        <time>2009-09-10T07:14:39Z</time>
      </trkpt>
      <trkpt lat="45.94323" lon="4.48999">
        <ele>645.18188476562</ele>
        <time>2009-09-10T07:14:43Z</time>
      </trkpt>
      <trkpt lat="45.94344" lon="4.49033">
        <ele>643.25927734375</ele>
        <time>2009-09-10T07:14:49Z</time>
      </trkpt>
      <trkpt lat="45.94358" lon="4.49066">
        <ele>641.33666992188</ele>
        <time>2009-09-10T07:14:54Z</time>
      </trkpt>
      <trkpt lat="45.94377" lon="4.49102">
        <ele>637.49145507812</ele>
        <time>2009-09-10T07:14:59Z</time>
      </trkpt>
      <trkpt lat="45.94394" lon="4.49139">
        <ele>636.04956054688</ele>
        <time>2009-09-10T07:15:03Z</time>
      </trkpt>
      <trkpt lat="45.9441" lon="4.49154">
        <ele>635.56860351562</ele>
        <time>2009-09-10T07:15:06Z</time>
      </trkpt>
      <trkpt lat="45.9443" lon="4.49149">
        <ele>637.0107421875</ele>
        <time>2009-09-10T07:15:10Z</time>
      </trkpt>
      <trkpt lat="45.94432" lon="4.49146">
        <ele>637.0107421875</ele>
        <time>2009-09-10T07:15:11Z</time>
      </trkpt>
      <trkpt lat="45.94457" lon="4.49126">
        <ele>637.49145507812</ele>
        <time>2009-09-10T07:15:20Z</time>
      </trkpt>
      <trkpt lat="45.9448" lon="4.4911">
        <ele>639.4140625</ele>
        <time>2009-09-10T07:15:30Z</time>
      </trkpt>
      <trkpt lat="45.94496" lon="4.49103">
        <ele>640.37548828125</ele>
        <time>2009-09-10T07:15:37Z</time>
      </trkpt>
      <trkpt lat="45.94513" lon="4.49095">
        <ele>642.29809570312</ele>
        <time>2009-09-10T07:15:45Z</time>
      </trkpt>
      <trkpt lat="45.94529" lon="4.49088">
        <ele>642.77880859375</ele>
        <time>2009-09-10T07:15:54Z</time>
      </trkpt>
      <trkpt lat="45.94542" lon="4.49084">
        <ele>643.73999023438</ele>
        <time>2009-09-10T07:16:01Z</time>
      </trkpt>
      <trkpt lat="45.94553" lon="4.49084">
        <ele>644.701171875</ele>
        <time>2009-09-10T07:16:07Z</time>
      </trkpt>
      <trkpt lat="45.94566" lon="4.49086">
        <ele>646.6240234375</ele>
        <time>2009-09-10T07:16:14Z</time>
      </trkpt>
      <trkpt lat="45.94581" lon="4.49085">
        <ele>647.58520507812</ele>
        <time>2009-09-10T07:16:22Z</time>
      </trkpt>
      <trkpt lat="45.94595" lon="4.4908">
        <ele>647.58520507812</ele>
        <time>2009-09-10T07:16:28Z</time>
      </trkpt>
      <trkpt lat="45.94613" lon="4.4908">
        <ele>643.73999023438</ele>
        <time>2009-09-10T07:16:33Z</time>
      </trkpt>
      <trkpt lat="45.94617" lon="4.49081">
        <ele>643.73999023438</ele>
        <time>2009-09-10T07:16:34Z</time>
      </trkpt>
      <trkpt lat="45.94631" lon="4.49088">
        <ele>642.77880859375</ele>
        <time>2009-09-10T07:16:38Z</time>
      </trkpt>
      <trkpt lat="45.94641" lon="4.49091">
        <ele>639.89477539062</ele>
        <time>2009-09-10T07:16:40Z</time>
      </trkpt>
      <trkpt lat="45.94656" lon="4.49093">
        <ele>638.93359375</ele>
        <time>2009-09-10T07:16:42Z</time>
      </trkpt>
      <trkpt lat="45.94691" lon="4.49093">
        <ele>639.89477539062</ele>
        <time>2009-09-10T07:16:47Z</time>
      </trkpt>
      <trkpt lat="45.94701" lon="4.49091">
        <ele>639.89477539062</ele>
        <time>2009-09-10T07:16:49Z</time>
      </trkpt>
      <trkpt lat="45.9471" lon="4.49087">
        <ele>639.89477539062</ele>
        <time>2009-09-10T07:16:51Z</time>
      </trkpt>
      <trkpt lat="45.94728" lon="4.49065">
        <ele>637.97216796875</ele>
        <time>2009-09-10T07:16:57Z</time>
      </trkpt>
      <trkpt lat="45.94732" lon="4.4906">
        <ele>637.49145507812</ele>
        <time>2009-09-10T07:16:58Z</time>
      </trkpt>
      <trkpt lat="45.94754" lon="4.49032">
        <ele>637.0107421875</ele>
        <time>2009-09-10T07:17:04Z</time>
      </trkpt>
      <trkpt lat="45.94765" lon="4.49017">
        <ele>636.5302734375</ele>
        <time>2009-09-10T07:17:07Z</time>
      </trkpt>
      <trkpt lat="45.94786" lon="4.49005">
        <ele>635.56860351562</ele>
        <time>2009-09-10T07:17:11Z</time>
      </trkpt>
      <trkpt lat="45.94798" lon="4.49004">
        <ele>634.607421875</ele>
        <time>2009-09-10T07:17:13Z</time>
      </trkpt>
      <trkpt lat="45.94809" lon="4.49007">
        <ele>634.607421875</ele>
        <time>2009-09-10T07:17:15Z</time>
      </trkpt>
      <trkpt lat="45.94832" lon="4.49019">
        <ele>633.16528320312</ele>
        <time>2009-09-10T07:17:20Z</time>
      </trkpt>
      <trkpt lat="45.94843" lon="4.49025">
        <ele>632.2041015625</ele>
        <time>2009-09-10T07:17:22Z</time>
      </trkpt>
      <trkpt lat="45.94867" lon="4.49052">
        <ele>629.80078125</ele>
        <time>2009-09-10T07:17:27Z</time>
      </trkpt>
      <trkpt lat="45.94872" lon="4.4907">
        <ele>628.83959960938</ele>
        <time>2009-09-10T07:17:29Z</time>
      </trkpt>
      <trkpt lat="45.94882" lon="4.4911">
        <ele>626.9169921875</ele>
        <time>2009-09-10T07:17:34Z</time>
      </trkpt>
      <trkpt lat="45.94884" lon="4.49137">
        <ele>622.59106445312</ele>
        <time>2009-09-10T07:17:39Z</time>
      </trkpt>
      <trkpt lat="45.94883" lon="4.49152">
        <ele>620.66845703125</ele>
        <time>2009-09-10T07:17:42Z</time>
      </trkpt>
      <trkpt lat="45.9488" lon="4.49178">
        <ele>616.82299804688</ele>
        <time>2009-09-10T07:17:46Z</time>
      </trkpt>
      <trkpt lat="45.94879" lon="4.49186">
        <ele>616.82299804688</ele>
        <time>2009-09-10T07:17:47Z</time>
      </trkpt>
      <trkpt lat="45.94874" lon="4.49202">
        <ele>615.86181640625</ele>
        <time>2009-09-10T07:17:49Z</time>
      </trkpt>
      <trkpt lat="45.94869" lon="4.49225">
        <ele>615.38110351562</ele>
        <time>2009-09-10T07:17:52Z</time>
      </trkpt>
      <trkpt lat="45.94863" lon="4.49269">
        <ele>613.93896484375</ele>
        <time>2009-09-10T07:17:57Z</time>
      </trkpt>
      <trkpt lat="45.94862" lon="4.4929">
        <ele>612.97778320312</ele>
        <time>2009-09-10T07:17:59Z</time>
      </trkpt>
      <trkpt lat="45.94866" lon="4.49322">
        <ele>611.53588867188</ele>
        <time>2009-09-10T07:18:02Z</time>
      </trkpt>
      <trkpt lat="45.94881" lon="4.49355">
        <ele>611.53588867188</ele>
        <time>2009-09-10T07:18:06Z</time>
      </trkpt>
      <trkpt lat="45.94885" lon="4.4936">
        <ele>611.53588867188</ele>
        <time>2009-09-10T07:18:07Z</time>
      </trkpt>
      <trkpt lat="45.94901" lon="4.49379">
        <ele>612.97778320312</ele>
        <time>2009-09-10T07:18:11Z</time>
      </trkpt>
      <trkpt lat="45.94918" lon="4.494">
        <ele>613.45849609375</ele>
        <time>2009-09-10T07:18:17Z</time>
      </trkpt>
      <trkpt lat="45.94927" lon="4.4941">
        <ele>613.93896484375</ele>
        <time>2009-09-10T07:18:22Z</time>
      </trkpt>
      <trkpt lat="45.94933" lon="4.49414">
        <ele>613.93896484375</ele>
        <time>2009-09-10T07:18:26Z</time>
      </trkpt>
      <trkpt lat="45.94932" lon="4.49422">
        <ele>613.93896484375</ele>
        <time>2009-09-10T07:18:31Z</time>
      </trkpt>
      <trkpt lat="45.94929" lon="4.4942">
        <ele>613.93896484375</ele>
        <time>2009-09-10T07:18:35Z</time>
      </trkpt>
      <trkpt lat="45.9493" lon="4.49418">
        <ele>613.93896484375</ele>
        <time>2009-09-10T07:18:37Z</time>
      </trkpt>
      <trkpt lat="45.94938" lon="4.49416">
        <ele>613.93896484375</ele>
        <time>2009-09-10T07:18:43Z</time>
      </trkpt>
      <trkpt lat="45.94935" lon="4.49412">
        <ele>613.93896484375</ele>
        <time>2009-09-10T07:18:46Z</time>
      </trkpt>
      <trkpt lat="45.94931" lon="4.4942">
        <ele>613.45849609375</ele>
        <time>2009-09-10T07:18:50Z</time>
      </trkpt>
      <trkpt lat="45.9493" lon="4.49434">
        <ele>613.93896484375</ele>
        <time>2009-09-10T07:18:55Z</time>
      </trkpt>
      <trkpt lat="45.94926" lon="4.49452">
        <ele>613.45849609375</ele>
        <time>2009-09-10T07:19:01Z</time>
      </trkpt>
      <trkpt lat="45.94928" lon="4.49452">
        <ele>613.93896484375</ele>
        <time>2009-09-10T07:19:05Z</time>
      </trkpt>
      <trkpt lat="45.94928" lon="4.4944">
        <ele>613.93896484375</ele>
        <time>2009-09-10T07:19:08Z</time>
      </trkpt>
      <trkpt lat="45.94931" lon="4.49425">
        <ele>613.93896484375</ele>
        <time>2009-09-10T07:19:12Z</time>
      </trkpt>
      <trkpt lat="45.94923" lon="4.49417">
        <ele>614.41967773438</ele>
        <time>2009-09-10T07:19:17Z</time>
      </trkpt>
      <trkpt lat="45.94919" lon="4.49419">
        <ele>614.41967773438</ele>
        <time>2009-09-10T07:19:19Z</time>
      </trkpt>
      <trkpt lat="45.94903" lon="4.49427">
        <ele>616.34228515625</ele>
        <time>2009-09-10T07:19:27Z</time>
      </trkpt>
      <trkpt lat="45.94888" lon="4.4943">
        <ele>617.7841796875</ele>
        <time>2009-09-10T07:19:35Z</time>
      </trkpt>
      <trkpt lat="45.94876" lon="4.49435">
        <ele>619.22631835938</ele>
        <time>2009-09-10T07:19:41Z</time>
      </trkpt>
      <trkpt lat="45.9486" lon="4.49442">
        <ele>621.14916992188</ele>
        <time>2009-09-10T07:19:51Z</time>
      </trkpt>
      <trkpt lat="45.9485" lon="4.49445">
        <ele>621.62963867188</ele>
        <time>2009-09-10T07:19:58Z</time>
      </trkpt>
      <trkpt lat="45.94839" lon="4.49444">
        <ele>623.55249023438</ele>
        <time>2009-09-10T07:20:05Z</time>
      </trkpt>
      <trkpt lat="45.94836" lon="4.49445">
        <ele>624.03295898438</ele>
        <time>2009-09-10T07:20:07Z</time>
      </trkpt>
      <trkpt lat="45.9483" lon="4.4945">
        <ele>625.47485351562</ele>
        <time>2009-09-10T07:20:13Z</time>
      </trkpt>
      <trkpt lat="45.94822" lon="4.49453">
        <ele>627.39770507812</ele>
        <time>2009-09-10T07:20:20Z</time>
      </trkpt>
      <trkpt lat="45.94816" lon="4.49456">
        <ele>628.35888671875</ele>
        <time>2009-09-10T07:20:25Z</time>
      </trkpt>
      <trkpt lat="45.94814" lon="4.49457">
        <ele>628.83959960938</ele>
        <time>2009-09-10T07:20:27Z</time>
      </trkpt>
      <trkpt lat="45.94806" lon="4.4946">
        <ele>629.80078125</ele>
        <time>2009-09-10T07:20:34Z</time>
      </trkpt>
      <trkpt lat="45.94801" lon="4.49463">
        <ele>630.76220703125</ele>
        <time>2009-09-10T07:20:39Z</time>
      </trkpt>
      <trkpt lat="45.94796" lon="4.49466">
        <ele>631.72338867188</ele>
        <time>2009-09-10T07:20:45Z</time>
      </trkpt>
      <trkpt lat="45.94791" lon="4.49471">
        <ele>632.68481445312</ele>
        <time>2009-09-10T07:20:51Z</time>
      </trkpt>
      <trkpt lat="45.94783" lon="4.49475">
        <ele>634.12670898438</ele>
        <time>2009-09-10T07:20:56Z</time>
      </trkpt>
      <trkpt lat="45.94771" lon="4.49484">
        <ele>635.56860351562</ele>
        <time>2009-09-10T07:21:03Z</time>
      </trkpt>
      <trkpt lat="45.94762" lon="4.49491">
        <ele>636.04956054688</ele>
        <time>2009-09-10T07:21:09Z</time>
      </trkpt>
      <trkpt lat="45.94754" lon="4.49497">
        <ele>637.49145507812</ele>
        <time>2009-09-10T07:21:15Z</time>
      </trkpt>
      <trkpt lat="45.94744" lon="4.49506">
        <ele>638.93359375</ele>
        <time>2009-09-10T07:21:22Z</time>
      </trkpt>
      <trkpt lat="45.94737" lon="4.49512">
        <ele>639.89477539062</ele>
        <time>2009-09-10T07:21:27Z</time>
      </trkpt>
      <trkpt lat="45.94731" lon="4.49518">
        <ele>640.85595703125</ele>
        <time>2009-09-10T07:21:33Z</time>
      </trkpt>
      <trkpt lat="45.94722" lon="4.49525">
        <ele>641.33666992188</ele>
        <time>2009-09-10T07:21:39Z</time>
      </trkpt>
      <trkpt lat="45.94719" lon="4.49527">
        <ele>641.33666992188</ele>
        <time>2009-09-10T07:21:41Z</time>
      </trkpt>
      <trkpt lat="45.94715" lon="4.4953">
        <ele>641.8173828125</ele>
        <time>2009-09-10T07:21:46Z</time>
      </trkpt>
      <trkpt lat="45.94706" lon="4.49537">
        <ele>642.77880859375</ele>
        <time>2009-09-10T07:21:53Z</time>
      </trkpt>
      <trkpt lat="45.94696" lon="4.49542">
        <ele>643.73999023438</ele>
        <time>2009-09-10T07:21:59Z</time>
      </trkpt>
      <trkpt lat="45.94681" lon="4.49549">
        <ele>644.701171875</ele>
        <time>2009-09-10T07:22:05Z</time>
      </trkpt>
      <trkpt lat="45.94666" lon="4.49556">
        <ele>646.14331054688</ele>
        <time>2009-09-10T07:22:11Z</time>
      </trkpt>
      <trkpt lat="45.94652" lon="4.49563">
        <ele>647.1044921875</ele>
        <time>2009-09-10T07:22:18Z</time>
      </trkpt>
      <trkpt lat="45.94633" lon="4.4957">
        <ele>647.1044921875</ele>
        <time>2009-09-10T07:22:25Z</time>
      </trkpt>
      <trkpt lat="45.94618" lon="4.49571">
        <ele>648.06591796875</ele>
        <time>2009-09-10T07:22:30Z</time>
      </trkpt>
      <trkpt lat="45.94604" lon="4.49565">
        <ele>647.58520507812</ele>
        <time>2009-09-10T07:22:35Z</time>
      </trkpt>
      <trkpt lat="45.94592" lon="4.49555">
        <ele>649.02709960938</ele>
        <time>2009-09-10T07:22:40Z</time>
      </trkpt>
      <trkpt lat="45.94581" lon="4.49548">
        <ele>648.54638671875</ele>
        <time>2009-09-10T07:22:45Z</time>
      </trkpt>
      <trkpt lat="45.94579" lon="4.49548">
        <ele>649.02709960938</ele>
        <time>2009-09-10T07:22:46Z</time>
      </trkpt>
      <trkpt lat="45.94566" lon="4.4956">
        <ele>648.06591796875</ele>
        <time>2009-09-10T07:22:52Z</time>
      </trkpt>
      <trkpt lat="45.94555" lon="4.49575">
        <ele>648.54638671875</ele>
        <time>2009-09-10T07:22:57Z</time>
      </trkpt>
      <trkpt lat="45.94547" lon="4.4958">
        <ele>648.54638671875</ele>
        <time>2009-09-10T07:23:01Z</time>
      </trkpt>
      <trkpt lat="45.94534" lon="4.49587">
        <ele>650.94970703125</ele>
        <time>2009-09-10T07:23:07Z</time>
      </trkpt>
      <trkpt lat="45.94529" lon="4.49591">
        <ele>651.43041992188</ele>
        <time>2009-09-10T07:23:10Z</time>
      </trkpt>
      <trkpt lat="45.94513" lon="4.49596">
        <ele>652.87255859375</ele>
        <time>2009-09-10T07:23:17Z</time>
      </trkpt>
      <trkpt lat="45.94501" lon="4.49598">
        <ele>653.833984375</ele>
        <time>2009-09-10T07:23:23Z</time>
      </trkpt>
      <trkpt lat="45.94493" lon="4.49599">
        <ele>653.833984375</ele>
        <time>2009-09-10T07:23:28Z</time>
      </trkpt>
      <trkpt lat="45.94477" lon="4.49608">
        <ele>652.39184570312</ele>
        <time>2009-09-10T07:23:34Z</time>
      </trkpt>
      <trkpt lat="45.94463" lon="4.49614">
        <ele>649.5078125</ele>
        <time>2009-09-10T07:23:38Z</time>
      </trkpt>
      <trkpt lat="45.94453" lon="4.49617">
        <ele>647.1044921875</ele>
        <time>2009-09-10T07:23:40Z</time>
      </trkpt>
      <trkpt lat="45.94436" lon="4.49626">
        <ele>643.73999023438</ele>
        <time>2009-09-10T07:23:43Z</time>
      </trkpt>
      <trkpt lat="45.9442" lon="4.49632">
        <ele>641.8173828125</ele>
        <time>2009-09-10T07:23:46Z</time>
      </trkpt>
      <trkpt lat="45.94406" lon="4.49641">
        <ele>639.89477539062</ele>
        <time>2009-09-10T07:23:50Z</time>
      </trkpt>
      <trkpt lat="45.94387" lon="4.49653">
        <ele>636.5302734375</ele>
        <time>2009-09-10T07:23:52Z</time>
      </trkpt>
      <trkpt lat="45.94363" lon="4.49681">
        <ele>632.2041015625</ele>
        <time>2009-09-10T07:23:56Z</time>
      </trkpt>
      <trkpt lat="45.94339" lon="4.49705">
        <ele>628.83959960938</ele>
        <time>2009-09-10T07:24:00Z</time>
      </trkpt>
      <trkpt lat="45.94334" lon="4.49713">
        <ele>628.35888671875</ele>
        <time>2009-09-10T07:24:01Z</time>
      </trkpt>
      <trkpt lat="45.9433" lon="4.4972">
        <ele>627.39770507812</ele>
        <time>2009-09-10T07:24:02Z</time>
      </trkpt>
      <trkpt lat="45.94297" lon="4.49765">
        <ele>624.99438476562</ele>
        <time>2009-09-10T07:24:08Z</time>
      </trkpt>
      <trkpt lat="45.94265" lon="4.49798">
        <ele>624.513671875</ele>
        <time>2009-09-10T07:24:13Z</time>
      </trkpt>
      <trkpt lat="45.94263" lon="4.49811">
        <ele>624.513671875</ele>
        <time>2009-09-10T07:24:17Z</time>
      </trkpt>
      <trkpt lat="45.94261" lon="4.49834">
        <ele>624.99438476562</ele>
        <time>2009-09-10T07:24:23Z</time>
      </trkpt>
      <trkpt lat="45.94254" lon="4.49862">
        <ele>623.55249023438</ele>
        <time>2009-09-10T07:24:28Z</time>
      </trkpt>
      <trkpt lat="45.94252" lon="4.49868">
        <ele>623.55249023438</ele>
        <time>2009-09-10T07:24:29Z</time>
      </trkpt>
      <trkpt lat="45.94243" lon="4.49887">
        <ele>623.55249023438</ele>
        <time>2009-09-10T07:24:32Z</time>
      </trkpt>
      <trkpt lat="45.94235" lon="4.49923">
        <ele>624.03295898438</ele>
        <time>2009-09-10T07:24:38Z</time>
      </trkpt>
      <trkpt lat="45.94233" lon="4.49947">
        <ele>624.99438476562</ele>
        <time>2009-09-10T07:24:43Z</time>
      </trkpt>
      <trkpt lat="45.9423" lon="4.49966">
        <ele>624.03295898438</ele>
        <time>2009-09-10T07:24:47Z</time>
      </trkpt>
      <trkpt lat="45.94226" lon="4.4998">
        <ele>623.07177734375</ele>
        <time>2009-09-10T07:24:49Z</time>
      </trkpt>
      <trkpt lat="45.94221" lon="4.50018">
        <ele>621.14916992188</ele>
        <time>2009-09-10T07:24:54Z</time>
      </trkpt>
      <trkpt lat="45.9422" lon="4.50026">
        <ele>621.62963867188</ele>
        <time>2009-09-10T07:24:55Z</time>
      </trkpt>
      <trkpt lat="45.94212" lon="4.50077">
        <ele>621.14916992188</ele>
        <time>2009-09-10T07:25:01Z</time>
      </trkpt>
      <trkpt lat="45.94209" lon="4.50117">
        <ele>620.66845703125</ele>
        <time>2009-09-10T07:25:06Z</time>
      </trkpt>
      <trkpt lat="45.94207" lon="4.5015">
        <ele>619.22631835938</ele>
        <time>2009-09-10T07:25:10Z</time>
      </trkpt>
      <trkpt lat="45.94206" lon="4.50168">
        <ele>617.7841796875</ele>
        <time>2009-09-10T07:25:12Z</time>
      </trkpt>
      <trkpt lat="45.94205" lon="4.50209">
        <ele>616.34228515625</ele>
        <time>2009-09-10T07:25:16Z</time>
      </trkpt>
      <trkpt lat="45.94203" lon="4.50251">
        <ele>614.41967773438</ele>
        <time>2009-09-10T07:25:20Z</time>
      </trkpt>
      <trkpt lat="45.94193" lon="4.50294">
        <ele>614.41967773438</ele>
        <time>2009-09-10T07:25:25Z</time>
      </trkpt>
      <trkpt lat="45.94183" lon="4.50338">
        <ele>613.93896484375</ele>
        <time>2009-09-10T07:25:31Z</time>
      </trkpt>
      <trkpt lat="45.94168" lon="4.50379">
        <ele>613.93896484375</ele>
        <time>2009-09-10T07:25:38Z</time>
      </trkpt>
      <trkpt lat="45.94164" lon="4.50399">
        <ele>613.45849609375</ele>
        <time>2009-09-10T07:25:41Z</time>
      </trkpt>
      <trkpt lat="45.94157" lon="4.50428">
        <ele>612.97778320312</ele>
        <time>2009-09-10T07:25:45Z</time>
      </trkpt>
      <trkpt lat="45.94149" lon="4.50454">
        <ele>612.97778320312</ele>
        <time>2009-09-10T07:25:49Z</time>
      </trkpt>
      <trkpt lat="45.9413" lon="4.50497">
        <ele>609.13256835938</ele>
        <time>2009-09-10T07:25:55Z</time>
      </trkpt>
      <trkpt lat="45.94113" lon="4.50536">
        <ele>606.72924804688</ele>
        <time>2009-09-10T07:25:59Z</time>
      </trkpt>
      <trkpt lat="45.94094" lon="4.50584">
        <ele>606.24853515625</ele>
        <time>2009-09-10T07:26:04Z</time>
      </trkpt>
      <trkpt lat="45.94085" lon="4.50599">
        <ele>604.806640625</ele>
        <time>2009-09-10T07:26:06Z</time>
      </trkpt>
      <trkpt lat="45.94075" lon="4.50612">
        <ele>603.36450195312</ele>
        <time>2009-09-10T07:26:08Z</time>
      </trkpt>
      <trkpt lat="45.94064" lon="4.50633">
        <ele>602.8837890625</ele>
        <time>2009-09-10T07:26:11Z</time>
      </trkpt>
      <trkpt lat="45.94059" lon="4.50647">
        <ele>600.96118164062</ele>
        <time>2009-09-10T07:26:13Z</time>
      </trkpt>
      <trkpt lat="45.94056" lon="4.50661">
        <ele>600</ele>
        <time>2009-09-10T07:26:15Z</time>
      </trkpt>
      <trkpt lat="45.94053" lon="4.50674">
        <ele>598.07739257812</ele>
        <time>2009-09-10T07:26:17Z</time>
      </trkpt>
      <trkpt lat="45.94048" lon="4.50698">
        <ele>594.71264648438</ele>
        <time>2009-09-10T07:26:21Z</time>
      </trkpt>
      <trkpt lat="45.94048" lon="4.50703">
        <ele>594.23217773438</ele>
        <time>2009-09-10T07:26:22Z</time>
      </trkpt>
      <trkpt lat="45.94046" lon="4.50715">
        <ele>592.79028320312</ele>
        <time>2009-09-10T07:26:24Z</time>
      </trkpt>
      <trkpt lat="45.94043" lon="4.50728">
        <ele>590.86743164062</ele>
        <time>2009-09-10T07:26:26Z</time>
      </trkpt>
      <trkpt lat="45.94037" lon="4.50755">
        <ele>587.02197265625</ele>
        <time>2009-09-10T07:26:31Z</time>
      </trkpt>
      <trkpt lat="45.94034" lon="4.50774">
        <ele>583.65747070312</ele>
        <time>2009-09-10T07:26:35Z</time>
      </trkpt>
      <trkpt lat="45.94032" lon="4.50785">
        <ele>582.21557617188</ele>
        <time>2009-09-10T07:26:37Z</time>
      </trkpt>
      <trkpt lat="45.94027" lon="4.50809">
        <ele>577.8896484375</ele>
        <time>2009-09-10T07:26:41Z</time>
      </trkpt>
      <trkpt lat="45.94022" lon="4.50831">
        <ele>575.96704101562</ele>
        <time>2009-09-10T07:26:44Z</time>
      </trkpt>
      <trkpt lat="45.94019" lon="4.50844">
        <ele>574.04443359375</ele>
        <time>2009-09-10T07:26:46Z</time>
      </trkpt>
      <trkpt lat="45.94016" lon="4.50857">
        <ele>572.12182617188</ele>
        <time>2009-09-10T07:26:48Z</time>
      </trkpt>
      <trkpt lat="45.94014" lon="4.50872">
        <ele>570.6796875</ele>
        <time>2009-09-10T07:26:50Z</time>
      </trkpt>
      <trkpt lat="45.94007" lon="4.50905">
        <ele>565.87329101562</ele>
        <time>2009-09-10T07:26:54Z</time>
      </trkpt>
      <trkpt lat="45.94003" lon="4.50928">
        <ele>562.50854492188</ele>
        <time>2009-09-10T07:26:57Z</time>
      </trkpt>
      <trkpt lat="45.93998" lon="4.50949">
        <ele>559.62475585938</ele>
        <time>2009-09-10T07:27:00Z</time>
      </trkpt>
      <trkpt lat="45.93994" lon="4.50972">
        <ele>556.74072265625</ele>
        <time>2009-09-10T07:27:04Z</time>
      </trkpt>
      <trkpt lat="45.93993" lon="4.50979">
        <ele>555.29858398438</ele>
        <time>2009-09-10T07:27:05Z</time>
      </trkpt>
      <trkpt lat="45.9399" lon="4.50999">
        <ele>552.89526367188</ele>
        <time>2009-09-10T07:27:08Z</time>
      </trkpt>
      <trkpt lat="45.93984" lon="4.51015">
        <ele>551.45336914062</ele>
        <time>2009-09-10T07:27:11Z</time>
      </trkpt>
      <trkpt lat="45.93979" lon="4.51032">
        <ele>548.5693359375</ele>
        <time>2009-09-10T07:27:15Z</time>
      </trkpt>
      <trkpt lat="45.93977" lon="4.51035">
        <ele>548.5693359375</ele>
        <time>2009-09-10T07:27:19Z</time>
      </trkpt>
      <trkpt lat="45.93969" lon="4.51043">
        <ele>546.16625976562</ele>
        <time>2009-09-10T07:27:24Z</time>
      </trkpt>
      <trkpt lat="45.9396" lon="4.51066">
        <ele>542.32092285156</ele>
        <time>2009-09-10T07:27:30Z</time>
      </trkpt>
      <trkpt lat="45.93959" lon="4.51071">
        <ele>541.35949707031</ele>
        <time>2009-09-10T07:27:31Z</time>
      </trkpt>
      <trkpt lat="45.93951" lon="4.51093">
        <ele>538.47570800781</ele>
        <time>2009-09-10T07:27:35Z</time>
      </trkpt>
      <trkpt lat="45.93944" lon="4.51116">
        <ele>534.63037109375</ele>
        <time>2009-09-10T07:27:40Z</time>
      </trkpt>
      <trkpt lat="45.93942" lon="4.51119">
        <ele>534.63037109375</ele>
        <time>2009-09-10T07:27:41Z</time>
      </trkpt>
      <trkpt lat="45.93939" lon="4.51121">
        <ele>534.14965820312</ele>
        <time>2009-09-10T07:27:42Z</time>
      </trkpt>
      <trkpt lat="45.93931" lon="4.51124">
        <ele>532.22705078125</ele>
        <time>2009-09-10T07:27:44Z</time>
      </trkpt>
      <trkpt lat="45.93906" lon="4.51139">
        <ele>527.90100097656</ele>
        <time>2009-09-10T07:27:49Z</time>
      </trkpt>
      <trkpt lat="45.93888" lon="4.51147">
        <ele>526.45910644531</ele>
        <time>2009-09-10T07:27:52Z</time>
      </trkpt>
      <trkpt lat="45.93869" lon="4.51159">
        <ele>525.49780273438</ele>
        <time>2009-09-10T07:27:55Z</time>
      </trkpt>
      <trkpt lat="45.93843" lon="4.51175">
        <ele>522.13317871094</ele>
        <time>2009-09-10T07:28:00Z</time>
      </trkpt>
      <trkpt lat="45.93832" lon="4.51184">
        <ele>521.17199707031</ele>
        <time>2009-09-10T07:28:02Z</time>
      </trkpt>
      <trkpt lat="45.93805" lon="4.51216">
        <ele>518.7685546875</ele>
        <time>2009-09-10T07:28:07Z</time>
      </trkpt>
      <trkpt lat="45.93779" lon="4.51252">
        <ele>515.88464355469</ele>
        <time>2009-09-10T07:28:12Z</time>
      </trkpt>
      <trkpt lat="45.93774" lon="4.5126">
        <ele>515.40405273438</ele>
        <time>2009-09-10T07:28:13Z</time>
      </trkpt>
      <trkpt lat="45.93761" lon="4.51285">
        <ele>513.96203613281</ele>
        <time>2009-09-10T07:28:16Z</time>
      </trkpt>
      <trkpt lat="45.93745" lon="4.51323">
        <ele>512.03942871094</ele>
        <time>2009-09-10T07:28:20Z</time>
      </trkpt>
      <trkpt lat="45.93735" lon="4.51355">
        <ele>511.07800292969</ele>
        <time>2009-09-10T07:28:23Z</time>
      </trkpt>
      <trkpt lat="45.93723" lon="4.51401">
        <ele>508.67468261719</ele>
        <time>2009-09-10T07:28:27Z</time>
      </trkpt>
      <trkpt lat="45.9371" lon="4.51451">
        <ele>504.82946777344</ele>
        <time>2009-09-10T07:28:32Z</time>
      </trkpt>
      <trkpt lat="45.93702" lon="4.51489">
        <ele>502.42614746094</ele>
        <time>2009-09-10T07:28:36Z</time>
      </trkpt>
      <trkpt lat="45.937" lon="4.51522">
        <ele>500.98413085938</ele>
        <time>2009-09-10T07:28:39Z</time>
      </trkpt>
      <trkpt lat="45.93703" lon="4.51572">
        <ele>496.65832519531</ele>
        <time>2009-09-10T07:28:43Z</time>
      </trkpt>
      <trkpt lat="45.93703" lon="4.51585">
        <ele>495.69689941406</ele>
        <time>2009-09-10T07:28:44Z</time>
      </trkpt>
      <trkpt lat="45.93697" lon="4.5163">
        <ele>490.89038085938</ele>
        <time>2009-09-10T07:28:48Z</time>
      </trkpt>
      <trkpt lat="45.93688" lon="4.51663">
        <ele>488.9677734375</ele>
        <time>2009-09-10T07:28:51Z</time>
      </trkpt>
      <trkpt lat="45.93667" lon="4.51737">
        <ele>487.52563476562</ele>
        <time>2009-09-10T07:28:58Z</time>
      </trkpt>
      <trkpt lat="45.93657" lon="4.51797">
        <ele>485.60302734375</ele>
        <time>2009-09-10T07:29:04Z</time>
      </trkpt>
      <trkpt lat="45.93645" lon="4.51862">
        <ele>483.19982910156</ele>
        <time>2009-09-10T07:29:11Z</time>
      </trkpt>
      <trkpt lat="45.93641" lon="4.5189">
        <ele>481.7578125</ele>
        <time>2009-09-10T07:29:14Z</time>
      </trkpt>
      <trkpt lat="45.93638" lon="4.51906">
        <ele>481.27722167969</ele>
        <time>2009-09-10T07:29:16Z</time>
      </trkpt>
      <trkpt lat="45.93629" lon="4.51935">
        <ele>476.95129394531</ele>
        <time>2009-09-10T07:29:20Z</time>
      </trkpt>
      <trkpt lat="45.93627" lon="4.51942">
        <ele>476.95129394531</ele>
        <time>2009-09-10T07:29:21Z</time>
      </trkpt>
      <trkpt lat="45.93618" lon="4.51966">
        <ele>475.02868652344</ele>
        <time>2009-09-10T07:29:24Z</time>
      </trkpt>
      <trkpt lat="45.93615" lon="4.51975">
        <ele>473.58666992188</ele>
        <time>2009-09-10T07:29:25Z</time>
      </trkpt>
      <trkpt lat="45.93604" lon="4.51994">
        <ele>472.14465332031</ele>
        <time>2009-09-10T07:29:28Z</time>
      </trkpt>
      <trkpt lat="45.93592" lon="4.51998">
        <ele>471.18334960938</ele>
        <time>2009-09-10T07:29:31Z</time>
      </trkpt>
      <trkpt lat="45.93589" lon="4.51992">
        <ele>471.66394042969</ele>
        <time>2009-09-10T07:29:35Z</time>
      </trkpt>
      <trkpt lat="45.93594" lon="4.51994">
        <ele>471.66394042969</ele>
        <time>2009-09-10T07:29:38Z</time>
      </trkpt>
      <trkpt lat="45.93595" lon="4.52004">
        <ele>470.70263671875</ele>
        <time>2009-09-10T07:29:42Z</time>
      </trkpt>
      <trkpt lat="45.93596" lon="4.52006">
        <ele>470.70263671875</ele>
        <time>2009-09-10T07:29:43Z</time>
      </trkpt>
      <trkpt lat="45.93605" lon="4.52025">
        <ele>468.29931640625</ele>
        <time>2009-09-10T07:29:49Z</time>
      </trkpt>
      <trkpt lat="45.93621" lon="4.52057">
        <ele>465.41552734375</ele>
        <time>2009-09-10T07:29:56Z</time>
      </trkpt>
      <trkpt lat="45.93634" lon="4.52081">
        <ele>462.05078125</ele>
        <time>2009-09-10T07:30:01Z</time>
      </trkpt>
      <trkpt lat="45.93637" lon="4.52086">
        <ele>461.57019042969</ele>
        <time>2009-09-10T07:30:02Z</time>
      </trkpt>
      <trkpt lat="45.93646" lon="4.521">
        <ele>459.64758300781</ele>
        <time>2009-09-10T07:30:05Z</time>
      </trkpt>
      <trkpt lat="45.93653" lon="4.52114">
        <ele>456.76354980469</ele>
        <time>2009-09-10T07:30:08Z</time>
      </trkpt>
      <trkpt lat="45.93652" lon="4.52132">
        <ele>455.80224609375</ele>
        <time>2009-09-10T07:30:13Z</time>
      </trkpt>
      <trkpt lat="45.93651" lon="4.52144">
        <ele>454.36022949219</ele>
        <time>2009-09-10T07:30:15Z</time>
      </trkpt>
      <trkpt lat="45.9365" lon="4.52169">
        <ele>451.47631835938</ele>
        <time>2009-09-10T07:30:20Z</time>
      </trkpt>
      <trkpt lat="45.93649" lon="4.52184">
        <ele>449.5537109375</ele>
        <time>2009-09-10T07:30:25Z</time>
      </trkpt>
      <trkpt lat="45.93648" lon="4.52206">
        <ele>447.63098144531</ele>
        <time>2009-09-10T07:30:30Z</time>
      </trkpt>
      <trkpt lat="45.9365" lon="4.52223">
        <ele>445.70837402344</ele>
        <time>2009-09-10T07:30:33Z</time>
      </trkpt>
      <trkpt lat="45.93652" lon="4.52241">
        <ele>443.78576660156</ele>
        <time>2009-09-10T07:30:36Z</time>
      </trkpt>
      <trkpt lat="45.93653" lon="4.52247">
        <ele>443.30505371094</ele>
        <time>2009-09-10T07:30:37Z</time>
      </trkpt>
      <trkpt lat="45.93653" lon="4.52261">
        <ele>441.86315917969</ele>
        <time>2009-09-10T07:30:39Z</time>
      </trkpt>
      <trkpt lat="45.93656" lon="4.52273">
        <ele>440.90185546875</ele>
        <time>2009-09-10T07:30:41Z</time>
      </trkpt>
      <trkpt lat="45.93657" lon="4.52278">
        <ele>439.9404296875</ele>
        <time>2009-09-10T07:30:42Z</time>
      </trkpt>
      <trkpt lat="45.93658" lon="4.52301">
        <ele>438.49853515625</ele>
        <time>2009-09-10T07:30:45Z</time>
      </trkpt>
      <trkpt lat="45.9366" lon="4.5232">
        <ele>437.05651855469</ele>
        <time>2009-09-10T07:30:47Z</time>
      </trkpt>
      <trkpt lat="45.93661" lon="4.52362">
        <ele>434.6533203125</ele>
        <time>2009-09-10T07:30:51Z</time>
      </trkpt>
      <trkpt lat="45.9366" lon="4.52438">
        <ele>431.76916503906</ele>
        <time>2009-09-10T07:30:58Z</time>
      </trkpt>
      <trkpt lat="45.93658" lon="4.5251">
        <ele>430.80798339844</ele>
        <time>2009-09-10T07:31:05Z</time>
      </trkpt>
      <trkpt lat="45.93646" lon="4.52561">
        <ele>431.28857421875</ele>
        <time>2009-09-10T07:31:12Z</time>
      </trkpt>
      <trkpt lat="45.93631" lon="4.52607">
        <ele>431.28857421875</ele>
        <time>2009-09-10T07:31:20Z</time>
      </trkpt>
      <trkpt lat="45.93614" lon="4.52665">
        <ele>430.32727050781</ele>
        <time>2009-09-10T07:31:29Z</time>
      </trkpt>
      <trkpt lat="45.93598" lon="4.52718">
        <ele>429.36596679688</ele>
        <time>2009-09-10T07:31:37Z</time>
      </trkpt>
      <trkpt lat="45.93593" lon="4.52732">
        <ele>428.88537597656</ele>
        <time>2009-09-10T07:31:39Z</time>
      </trkpt>
      <trkpt lat="45.9358" lon="4.52798">
        <ele>427.443359375</ele>
        <time>2009-09-10T07:31:47Z</time>
      </trkpt>
      <trkpt lat="45.93568" lon="4.52868">
        <ele>425.52075195312</ele>
        <time>2009-09-10T07:31:54Z</time>
      </trkpt>
      <trkpt lat="45.93557" lon="4.52955">
        <ele>423.59802246094</ele>
        <time>2009-09-10T07:32:02Z</time>
      </trkpt>
      <trkpt lat="45.93542" lon="4.53012">
        <ele>422.15600585938</ele>
        <time>2009-09-10T07:32:08Z</time>
      </trkpt>
      <trkpt lat="45.93521" lon="4.53075">
        <ele>421.67541503906</ele>
        <time>2009-09-10T07:32:15Z</time>
      </trkpt>
      <trkpt lat="45.93505" lon="4.53122">
        <ele>421.19482421875</ele>
        <time>2009-09-10T07:32:21Z</time>
      </trkpt>
      <trkpt lat="45.93489" lon="4.53177">
        <ele>422.15600585938</ele>
        <time>2009-09-10T07:32:29Z</time>
      </trkpt>
      <trkpt lat="45.93476" lon="4.53216">
        <ele>423.59802246094</ele>
        <time>2009-09-10T07:32:36Z</time>
      </trkpt>
      <trkpt lat="45.93464" lon="4.53254">
        <ele>424.55944824219</ele>
        <time>2009-09-10T07:32:44Z</time>
      </trkpt>
      <trkpt lat="45.93451" lon="4.53297">
        <ele>425.04016113281</ele>
        <time>2009-09-10T07:32:53Z</time>
      </trkpt>
      <trkpt lat="45.93435" lon="4.53347">
        <ele>426.48205566406</ele>
        <time>2009-09-10T07:33:03Z</time>
      </trkpt>
      <trkpt lat="45.93422" lon="4.53384">
        <ele>425.52075195312</ele>
        <time>2009-09-10T07:33:10Z</time>
      </trkpt>
      <trkpt lat="45.93411" lon="4.53416">
        <ele>423.59802246094</ele>
        <time>2009-09-10T07:33:14Z</time>
      </trkpt>
      <trkpt lat="45.93403" lon="4.53434">
        <ele>422.63671875</ele>
        <time>2009-09-10T07:33:16Z</time>
      </trkpt>
      <trkpt lat="45.93371" lon="4.53513">
        <ele>420.2333984375</ele>
        <time>2009-09-10T07:33:24Z</time>
      </trkpt>
      <trkpt lat="45.93357" lon="4.53542">
        <ele>418.79150390625</ele>
        <time>2009-09-10T07:33:27Z</time>
      </trkpt>
      <trkpt lat="45.93322" lon="4.53612">
        <ele>415.42687988281</ele>
        <time>2009-09-10T07:33:34Z</time>
      </trkpt>
      <trkpt lat="45.93316" lon="4.53621">
        <ele>414.94616699219</ele>
        <time>2009-09-10T07:33:35Z</time>
      </trkpt>
      <trkpt lat="45.93272" lon="4.53695">
        <ele>413.02355957031</ele>
        <time>2009-09-10T07:33:43Z</time>
      </trkpt>
      <trkpt lat="45.93237" lon="4.53751">
        <ele>412.06225585938</ele>
        <time>2009-09-10T07:33:50Z</time>
      </trkpt>
      <trkpt lat="45.9321" lon="4.53787">
        <ele>411.10095214844</ele>
        <time>2009-09-10T07:33:56Z</time>
      </trkpt>
      <trkpt lat="45.93197" lon="4.53788">
        <ele>410.62023925781</ele>
        <time>2009-09-10T07:34:00Z</time>
      </trkpt>
      <trkpt lat="45.93186" lon="4.53793">
        <ele>411.58166503906</ele>
        <time>2009-09-10T07:34:05Z</time>
      </trkpt>
      <trkpt lat="45.93168" lon="4.53799">
        <ele>412.54284667969</ele>
        <time>2009-09-10T07:34:12Z</time>
      </trkpt>
      <trkpt lat="45.93144" lon="4.53803">
        <ele>413.98486328125</ele>
        <time>2009-09-10T07:34:21Z</time>
      </trkpt>
      <trkpt lat="45.9312" lon="4.53805">
        <ele>413.98486328125</ele>
        <time>2009-09-10T07:34:30Z</time>
      </trkpt>
      <trkpt lat="45.93099" lon="4.5381">
        <ele>414.94616699219</ele>
        <time>2009-09-10T07:34:37Z</time>
      </trkpt>
      <trkpt lat="45.9308" lon="4.53816">
        <ele>415.42687988281</ele>
        <time>2009-09-10T07:34:43Z</time>
      </trkpt>
      <trkpt lat="45.93055" lon="4.53834">
        <ele>414.46545410156</ele>
        <time>2009-09-10T07:34:50Z</time>
      </trkpt>
      <trkpt lat="45.93041" lon="4.53848">
        <ele>414.94616699219</ele>
        <time>2009-09-10T07:34:54Z</time>
      </trkpt>
      <trkpt lat="45.93015" lon="4.53886">
        <ele>415.42687988281</ele>
        <time>2009-09-10T07:35:02Z</time>
      </trkpt>
      <trkpt lat="45.93006" lon="4.53901">
        <ele>415.42687988281</ele>
        <time>2009-09-10T07:35:05Z</time>
      </trkpt>
      <trkpt lat="45.92993" lon="4.53919">
        <ele>414.94616699219</ele>
        <time>2009-09-10T07:35:09Z</time>
      </trkpt>
      <trkpt lat="45.92964" lon="4.53963">
        <ele>414.94616699219</ele>
        <time>2009-09-10T07:35:18Z</time>
      </trkpt>
      <trkpt lat="45.92938" lon="4.54002">
        <ele>413.98486328125</ele>
        <time>2009-09-10T07:35:26Z</time>
      </trkpt>
      <trkpt lat="45.92927" lon="4.54017">
        <ele>413.98486328125</ele>
        <time>2009-09-10T07:35:29Z</time>
      </trkpt>
      <trkpt lat="45.92918" lon="4.54027">
        <ele>413.50427246094</ele>
        <time>2009-09-10T07:35:31Z</time>
      </trkpt>
      <trkpt lat="45.92881" lon="4.54054">
        <ele>412.06225585938</ele>
        <time>2009-09-10T07:35:38Z</time>
      </trkpt>
      <trkpt lat="45.92854" lon="4.54073">
        <ele>410.62023925781</ele>
        <time>2009-09-10T07:35:43Z</time>
      </trkpt>
      <trkpt lat="45.92842" lon="4.54084">
        <ele>409.65905761719</ele>
        <time>2009-09-10T07:35:45Z</time>
      </trkpt>
      <trkpt lat="45.9283" lon="4.54096">
        <ele>408.69763183594</ele>
        <time>2009-09-10T07:35:47Z</time>
      </trkpt>
      <trkpt lat="45.92815" lon="4.54108">
        <ele>407.736328125</ele>
        <time>2009-09-10T07:35:49Z</time>
      </trkpt>
      <trkpt lat="45.9278" lon="4.54131">
        <ele>403.89111328125</ele>
        <time>2009-09-10T07:35:53Z</time>
      </trkpt>
      <trkpt lat="45.92741" lon="4.54153">
        <ele>400.52648925781</ele>
        <time>2009-09-10T07:35:57Z</time>
      </trkpt>
      <trkpt lat="45.9272" lon="4.54164">
        <ele>399.08435058594</ele>
        <time>2009-09-10T07:35:59Z</time>
      </trkpt>
      <trkpt lat="45.92685" lon="4.54198">
        <ele>396.20056152344</ele>
        <time>2009-09-10T07:36:03Z</time>
      </trkpt>
      <trkpt lat="45.92667" lon="4.54224">
        <ele>394.75854492188</ele>
        <time>2009-09-10T07:36:06Z</time>
      </trkpt>
      <trkpt lat="45.92656" lon="4.54238">
        <ele>394.27795410156</ele>
        <time>2009-09-10T07:36:08Z</time>
      </trkpt>
      <trkpt lat="45.92629" lon="4.54271">
        <ele>393.79724121094</ele>
        <time>2009-09-10T07:36:14Z</time>
      </trkpt>
      <trkpt lat="45.92602" lon="4.54311">
        <ele>393.79724121094</ele>
        <time>2009-09-10T07:36:21Z</time>
      </trkpt>
      <trkpt lat="45.92586" lon="4.54348">
        <ele>394.27795410156</ele>
        <time>2009-09-10T07:36:27Z</time>
      </trkpt>
      <trkpt lat="45.92584" lon="4.54354">
        <ele>394.75854492188</ele>
        <time>2009-09-10T07:36:28Z</time>
      </trkpt>
      <trkpt lat="45.92561" lon="4.54386">
        <ele>395.23913574219</ele>
        <time>2009-09-10T07:36:35Z</time>
      </trkpt>
      <trkpt lat="45.92551" lon="4.544">
        <ele>395.23913574219</ele>
        <time>2009-09-10T07:36:38Z</time>
      </trkpt>
      <trkpt lat="45.92542" lon="4.54412">
        <ele>395.23913574219</ele>
        <time>2009-09-10T07:36:41Z</time>
      </trkpt>
      <trkpt lat="45.92532" lon="4.54437">
        <ele>395.71984863281</ele>
        <time>2009-09-10T07:36:46Z</time>
      </trkpt>
      <trkpt lat="45.92513" lon="4.54477">
        <ele>394.27795410156</ele>
        <time>2009-09-10T07:36:53Z</time>
      </trkpt>
      <trkpt lat="45.92491" lon="4.54508">
        <ele>392.35534667969</ele>
        <time>2009-09-10T07:36:58Z</time>
      </trkpt>
      <trkpt lat="45.92451" lon="4.54559">
        <ele>390.4326171875</ele>
        <time>2009-09-10T07:37:06Z</time>
      </trkpt>
      <trkpt lat="45.92425" lon="4.54596">
        <ele>389.95190429688</ele>
        <time>2009-09-10T07:37:12Z</time>
      </trkpt>
      <trkpt lat="45.92403" lon="4.54622">
        <ele>388.029296875</ele>
        <time>2009-09-10T07:37:17Z</time>
      </trkpt>
      <trkpt lat="45.92389" lon="4.54641">
        <ele>387.06799316406</ele>
        <time>2009-09-10T07:37:20Z</time>
      </trkpt>
      <trkpt lat="45.9238" lon="4.54654">
        <ele>385.6259765625</ele>
        <time>2009-09-10T07:37:22Z</time>
      </trkpt>
      <trkpt lat="45.9235" lon="4.54693">
        <ele>382.26135253906</ele>
        <time>2009-09-10T07:37:28Z</time>
      </trkpt>
      <trkpt lat="45.92324" lon="4.54728">
        <ele>378.89685058594</ele>
        <time>2009-09-10T07:37:33Z</time>
      </trkpt>
      <trkpt lat="45.92297" lon="4.54773">
        <ele>376.01281738281</ele>
        <time>2009-09-10T07:37:39Z</time>
      </trkpt>
      <trkpt lat="45.92273" lon="4.5481">
        <ele>372.64819335938</ele>
        <time>2009-09-10T07:37:44Z</time>
      </trkpt>
      <trkpt lat="45.92249" lon="4.5485">
        <ele>369.76428222656</ele>
        <time>2009-09-10T07:37:49Z</time>
      </trkpt>
      <trkpt lat="45.92212" lon="4.5492">
        <ele>367.84155273438</ele>
        <time>2009-09-10T07:37:57Z</time>
      </trkpt>
      <trkpt lat="45.92199" lon="4.54947">
        <ele>366.39953613281</ele>
        <time>2009-09-10T07:38:00Z</time>
      </trkpt>
      <trkpt lat="45.9219" lon="4.54964">
        <ele>365.43835449219</ele>
        <time>2009-09-10T07:38:02Z</time>
      </trkpt>
      <trkpt lat="45.92173" lon="4.55004">
        <ele>362.07373046875</ele>
        <time>2009-09-10T07:38:06Z</time>
      </trkpt>
      <trkpt lat="45.92167" lon="4.55026">
        <ele>358.708984375</ele>
        <time>2009-09-10T07:38:08Z</time>
      </trkpt>
      <trkpt lat="45.92162" lon="4.5506">
        <ele>355.34448242188</ele>
        <time>2009-09-10T07:38:11Z</time>
      </trkpt>
      <trkpt lat="45.92145" lon="4.55104">
        <ele>349.09582519531</ele>
        <time>2009-09-10T07:38:15Z</time>
      </trkpt>
      <trkpt lat="45.92123" lon="4.5514">
        <ele>344.77001953125</ele>
        <time>2009-09-10T07:38:19Z</time>
      </trkpt>
      <trkpt lat="45.92102" lon="4.55171">
        <ele>341.4052734375</ele>
        <time>2009-09-10T07:38:23Z</time>
      </trkpt>
      <trkpt lat="45.92094" lon="4.55185">
        <ele>340.44409179688</ele>
        <time>2009-09-10T07:38:25Z</time>
      </trkpt>
      <trkpt lat="45.92082" lon="4.55227">
        <ele>335.63732910156</ele>
        <time>2009-09-10T07:38:30Z</time>
      </trkpt>
      <trkpt lat="45.92079" lon="4.55246">
        <ele>332.27282714844</ele>
        <time>2009-09-10T07:38:32Z</time>
      </trkpt>
      <trkpt lat="45.92078" lon="4.55255">
        <ele>331.79211425781</ele>
        <time>2009-09-10T07:38:33Z</time>
      </trkpt>
      <trkpt lat="45.92071" lon="4.55301">
        <ele>328.42761230469</ele>
        <time>2009-09-10T07:38:38Z</time>
      </trkpt>
      <trkpt lat="45.9207" lon="4.5531">
        <ele>327.94677734375</ele>
        <time>2009-09-10T07:38:39Z</time>
      </trkpt>
      <trkpt lat="45.92065" lon="4.55352">
        <ele>324.58227539062</ele>
        <time>2009-09-10T07:38:44Z</time>
      </trkpt>
      <trkpt lat="45.92063" lon="4.55388">
        <ele>321.69836425781</ele>
        <time>2009-09-10T07:38:48Z</time>
      </trkpt>
      <trkpt lat="45.92064" lon="4.55415">
        <ele>319.77563476562</ele>
        <time>2009-09-10T07:38:51Z</time>
      </trkpt>
      <trkpt lat="45.92064" lon="4.55424">
        <ele>318.81433105469</ele>
        <time>2009-09-10T07:38:52Z</time>
      </trkpt>
      <trkpt lat="45.92068" lon="4.55439">
        <ele>317.37243652344</ele>
        <time>2009-09-10T07:38:55Z</time>
      </trkpt>
      <trkpt lat="45.92076" lon="4.55446">
        <ele>316.89172363281</ele>
        <time>2009-09-10T07:38:57Z</time>
      </trkpt>
      <trkpt lat="45.92085" lon="4.55451">
        <ele>315.93041992188</ele>
        <time>2009-09-10T07:38:59Z</time>
      </trkpt>
      <trkpt lat="45.92101" lon="4.55463">
        <ele>314.0078125</ele>
        <time>2009-09-10T07:39:02Z</time>
      </trkpt>
      <trkpt lat="45.92119" lon="4.55478">
        <ele>312.08520507812</ele>
        <time>2009-09-10T07:39:05Z</time>
      </trkpt>
      <trkpt lat="45.92145" lon="4.55497">
        <ele>308.23986816406</ele>
        <time>2009-09-10T07:39:09Z</time>
      </trkpt>
      <trkpt lat="45.92152" lon="4.55502">
        <ele>308.72045898438</ele>
        <time>2009-09-10T07:39:10Z</time>
      </trkpt>
      <trkpt lat="45.92178" lon="4.55521">
        <ele>305.83666992188</ele>
        <time>2009-09-10T07:39:14Z</time>
      </trkpt>
      <trkpt lat="45.92213" lon="4.55549">
        <ele>302.95251464844</ele>
        <time>2009-09-10T07:39:19Z</time>
      </trkpt>
      <trkpt lat="45.92235" lon="4.55566">
        <ele>300.54931640625</ele>
        <time>2009-09-10T07:39:22Z</time>
      </trkpt>
      <trkpt lat="45.92272" lon="4.55593">
        <ele>298.62670898438</ele>
        <time>2009-09-10T07:39:27Z</time>
      </trkpt>
      <trkpt lat="45.92308" lon="4.55621">
        <ele>295.74267578125</ele>
        <time>2009-09-10T07:39:32Z</time>
      </trkpt>
      <trkpt lat="45.92323" lon="4.55636">
        <ele>293.33935546875</ele>
        <time>2009-09-10T07:39:36Z</time>
      </trkpt>
      <trkpt lat="45.92328" lon="4.5563">
        <ele>293.33935546875</ele>
        <time>2009-09-10T07:39:38Z</time>
      </trkpt>
      <trkpt lat="45.9235" lon="4.5559">
        <ele>292.85876464844</ele>
        <time>2009-09-10T07:39:46Z</time>
      </trkpt>
      <trkpt lat="45.9238" lon="4.55544">
        <ele>292.85876464844</ele>
        <time>2009-09-10T07:39:55Z</time>
      </trkpt>
      <trkpt lat="45.92408" lon="4.555">
        <ele>294.30078125</ele>
        <time>2009-09-10T07:40:04Z</time>
      </trkpt>
      <trkpt lat="45.92417" lon="4.55483">
        <ele>293.82006835938</ele>
        <time>2009-09-10T07:40:07Z</time>
      </trkpt>
      <trkpt lat="45.92448" lon="4.5544">
        <ele>293.82006835938</ele>
        <time>2009-09-10T07:40:15Z</time>
      </trkpt>
      <trkpt lat="45.92476" lon="4.55409">
        <ele>294.30078125</ele>
        <time>2009-09-10T07:40:22Z</time>
      </trkpt>
      <trkpt lat="45.9249" lon="4.55374">
        <ele>294.78137207031</ele>
        <time>2009-09-10T07:40:27Z</time>
      </trkpt>
      <trkpt lat="45.92501" lon="4.55325">
        <ele>294.30078125</ele>
        <time>2009-09-10T07:40:33Z</time>
      </trkpt>
      <trkpt lat="45.92504" lon="4.55317">
        <ele>294.30078125</ele>
        <time>2009-09-10T07:40:34Z</time>
      </trkpt>
      <trkpt lat="45.92523" lon="4.55283">
        <ele>294.30078125</ele>
        <time>2009-09-10T07:40:40Z</time>
      </trkpt>
      <trkpt lat="45.92547" lon="4.55252">
        <ele>296.7041015625</ele>
        <time>2009-09-10T07:40:48Z</time>
      </trkpt>
      <trkpt lat="45.92571" lon="4.55217">
        <ele>298.14611816406</ele>
        <time>2009-09-10T07:40:57Z</time>
      </trkpt>
      <trkpt lat="45.92589" lon="4.55177">
        <ele>299.10729980469</ele>
        <time>2009-09-10T07:41:06Z</time>
      </trkpt>
      <trkpt lat="45.92606" lon="4.55138">
        <ele>300.54931640625</ele>
        <time>2009-09-10T07:41:15Z</time>
      </trkpt>
      <trkpt lat="45.92612" lon="4.55124">
        <ele>301.51062011719</ele>
        <time>2009-09-10T07:41:20Z</time>
      </trkpt>
      <trkpt lat="45.92622" lon="4.55125">
        <ele>301.02990722656</ele>
        <time>2009-09-10T07:41:25Z</time>
      </trkpt>
      <trkpt lat="45.92638" lon="4.55136">
        <ele>299.10729980469</ele>
        <time>2009-09-10T07:41:29Z</time>
      </trkpt>
      <trkpt lat="45.92665" lon="4.55153">
        <ele>297.18469238281</ele>
        <time>2009-09-10T07:41:34Z</time>
      </trkpt>
      <trkpt lat="45.92684" lon="4.55155">
        <ele>295.74267578125</ele>
        <time>2009-09-10T07:41:38Z</time>
      </trkpt>
      <trkpt lat="45.92714" lon="4.55145">
        <ele>291.8974609375</ele>
        <time>2009-09-10T07:41:43Z</time>
      </trkpt>
      <trkpt lat="45.92726" lon="4.55141">
        <ele>289.494140625</ele>
        <time>2009-09-10T07:41:45Z</time>
      </trkpt>
      <trkpt lat="45.92748" lon="4.55154">
        <ele>285.64880371094</ele>
        <time>2009-09-10T07:41:50Z</time>
      </trkpt>
      <trkpt lat="45.92749" lon="4.55173">
        <ele>283.24560546875</ele>
        <time>2009-09-10T07:41:52Z</time>
      </trkpt>
      <trkpt lat="45.92757" lon="4.55213">
        <ele>279.880859375</ele>
        <time>2009-09-10T07:41:56Z</time>
      </trkpt>
      <trkpt lat="45.92767" lon="4.55214">
        <ele>277.47766113281</ele>
        <time>2009-09-10T07:41:58Z</time>
      </trkpt>
      <trkpt lat="45.92771" lon="4.5521">
        <ele>277.47766113281</ele>
        <time>2009-09-10T07:41:59Z</time>
      </trkpt>
      <trkpt lat="45.92775" lon="4.55203">
        <ele>277.47766113281</ele>
        <time>2009-09-10T07:42:00Z</time>
      </trkpt>
      <trkpt lat="45.92799" lon="4.55156">
        <ele>274.11303710938</ele>
        <time>2009-09-10T07:42:05Z</time>
      </trkpt>
      <trkpt lat="45.92807" lon="4.55136">
        <ele>271.22912597656</ele>
        <time>2009-09-10T07:42:07Z</time>
      </trkpt>
      <trkpt lat="45.92822" lon="4.55115">
        <ele>267.86450195312</ele>
        <time>2009-09-10T07:42:11Z</time>
      </trkpt>
      <trkpt lat="45.92828" lon="4.55122">
        <ele>266.90319824219</ele>
        <time>2009-09-10T07:42:14Z</time>
      </trkpt>
      <trkpt lat="45.9284" lon="4.55144">
        <ele>266.42248535156</ele>
        <time>2009-09-10T07:42:20Z</time>
      </trkpt>
      <trkpt lat="45.92853" lon="4.5516">
        <ele>265.94189453125</ele>
        <time>2009-09-10T07:42:25Z</time>
      </trkpt>
      <trkpt lat="45.92854" lon="4.5516">
        <ele>265.94189453125</ele>
        <time>2009-09-10T07:42:27Z</time>
      </trkpt>
      <trkpt lat="45.92846" lon="4.55149">
        <ele>265.94189453125</ele>
        <time>2009-09-10T07:42:32Z</time>
      </trkpt>
      <trkpt lat="45.92829" lon="4.55126">
        <ele>266.90319824219</ele>
        <time>2009-09-10T07:42:39Z</time>
      </trkpt>
      <trkpt lat="45.92828" lon="4.55118">
        <ele>266.90319824219</ele>
        <time>2009-09-10T07:42:42Z</time>
      </trkpt>
      <trkpt lat="45.92828" lon="4.55113">
        <ele>266.90319824219</ele>
        <time>2009-09-10T07:42:45Z</time>
      </trkpt>
      <trkpt lat="45.92831" lon="4.55103">
        <ele>267.38391113281</ele>
        <time>2009-09-10T07:42:49Z</time>
      </trkpt>
      <trkpt lat="45.92838" lon="4.55096">
        <ele>267.86450195312</ele>
        <time>2009-09-10T07:42:55Z</time>
      </trkpt>
      <trkpt lat="45.92839" lon="4.55095">
        <ele>268.34509277344</ele>
        <time>2009-09-10T07:43:16Z</time>
      </trkpt>
      <trkpt lat="45.92855" lon="4.55085">
        <ele>267.38391113281</ele>
        <time>2009-09-10T07:43:23Z</time>
      </trkpt>
      <trkpt lat="45.92858" lon="4.55083">
        <ele>266.90319824219</ele>
        <time>2009-09-10T07:43:24Z</time>
      </trkpt>
      <trkpt lat="45.92869" lon="4.55091">
        <ele>266.42248535156</ele>
        <time>2009-09-10T07:43:28Z</time>
      </trkpt>
      <trkpt lat="45.92874" lon="4.55105">
        <ele>265.94189453125</ele>
        <time>2009-09-10T07:43:32Z</time>
      </trkpt>
      <trkpt lat="45.92874" lon="4.55105">
        <ele>265.94189453125</ele>
        <time>2009-09-10T07:43:37Z</time>
      </trkpt>
      <trkpt lat="45.92874" lon="4.55102">
        <ele>266.42248535156</ele>
        <time>2009-09-10T07:44:22Z</time>
      </trkpt>
      <trkpt lat="45.92875" lon="4.55103">
        <ele>266.42248535156</ele>
        <time>2009-09-10T07:44:44Z</time>
      </trkpt>
      <trkpt lat="45.92872" lon="4.55114">
        <ele>265.94189453125</ele>
        <time>2009-09-10T07:44:51Z</time>
      </trkpt>
      <trkpt lat="45.92871" lon="4.55117">
        <ele>266.42248535156</ele>
        <time>2009-09-10T07:44:52Z</time>
      </trkpt>
      <trkpt lat="45.92876" lon="4.5513">
        <ele>265.94189453125</ele>
        <time>2009-09-10T07:44:57Z</time>
      </trkpt>
      <trkpt lat="45.92885" lon="4.55155">
        <ele>264.98059082031</ele>
        <time>2009-09-10T07:45:05Z</time>
      </trkpt>
      <trkpt lat="45.92888" lon="4.55164">
        <ele>264.98059082031</ele>
        <time>2009-09-10T07:45:10Z</time>
      </trkpt>
      <trkpt lat="45.92888" lon="4.55163">
        <ele>264.98059082031</ele>
        <time>2009-09-10T07:45:20Z</time>
      </trkpt>
      <trkpt lat="45.92888" lon="4.55162">
        <ele>265.46130371094</ele>
        <time>2009-09-10T07:45:21Z</time>
      </trkpt>
      <trkpt lat="45.92886" lon="4.55155">
        <ele>265.46130371094</ele>
        <time>2009-09-10T07:45:25Z</time>
      </trkpt>
      <trkpt lat="45.92876" lon="4.55133">
        <ele>265.94189453125</ele>
        <time>2009-09-10T07:45:31Z</time>
      </trkpt>
      <trkpt lat="45.92871" lon="4.55127">
        <ele>266.42248535156</ele>
        <time>2009-09-10T07:45:33Z</time>
      </trkpt>
      <trkpt lat="45.92875" lon="4.55115">
        <ele>266.90319824219</ele>
        <time>2009-09-10T07:45:37Z</time>
      </trkpt>
      <trkpt lat="45.92882" lon="4.55116">
        <ele>266.90319824219</ele>
        <time>2009-09-10T07:45:40Z</time>
      </trkpt>
      <trkpt lat="45.92902" lon="4.55126">
        <ele>266.90319824219</ele>
        <time>2009-09-10T07:45:47Z</time>
      </trkpt>
      <trkpt lat="45.92922" lon="4.55134">
        <ele>267.38391113281</ele>
        <time>2009-09-10T07:45:53Z</time>
      </trkpt>
      <trkpt lat="45.92949" lon="4.5515">
        <ele>267.38391113281</ele>
        <time>2009-09-10T07:46:00Z</time>
      </trkpt>
      <trkpt lat="45.92973" lon="4.55168">
        <ele>267.86450195312</ele>
        <time>2009-09-10T07:46:07Z</time>
      </trkpt>
      <trkpt lat="45.92993" lon="4.55161">
        <ele>268.34509277344</ele>
        <time>2009-09-10T07:46:13Z</time>
      </trkpt>
      <trkpt lat="45.93008" lon="4.55165">
        <ele>269.30651855469</ele>
        <time>2009-09-10T07:46:18Z</time>
      </trkpt>
      <trkpt lat="45.93022" lon="4.55179">
        <ele>269.787109375</ele>
        <time>2009-09-10T07:46:23Z</time>
      </trkpt>
      <trkpt lat="45.93045" lon="4.55203">
        <ele>270.26770019531</ele>
        <time>2009-09-10T07:46:30Z</time>
      </trkpt>
      <trkpt lat="45.93064" lon="4.55233">
        <ele>270.26770019531</ele>
        <time>2009-09-10T07:46:37Z</time>
      </trkpt>
      <trkpt lat="45.93087" lon="4.55281">
        <ele>271.70971679688</ele>
        <time>2009-09-10T07:46:48Z</time>
      </trkpt>
      <trkpt lat="45.93093" lon="4.55291">
        <ele>273.15185546875</ele>
        <time>2009-09-10T07:46:52Z</time>
      </trkpt>
      <trkpt lat="45.93109" lon="4.55297">
        <ele>274.11303710938</ele>
        <time>2009-09-10T07:46:59Z</time>
      </trkpt>
      <trkpt lat="45.93121" lon="4.55287">
        <ele>274.11303710938</ele>
        <time>2009-09-10T07:47:03Z</time>
      </trkpt>
      <trkpt lat="45.93148" lon="4.55255">
        <ele>275.55505371094</ele>
        <time>2009-09-10T07:47:12Z</time>
      </trkpt>
      <trkpt lat="45.93174" lon="4.55222">
        <ele>276.03564453125</ele>
        <time>2009-09-10T07:47:21Z</time>
      </trkpt>
      <trkpt lat="45.932" lon="4.55194">
        <ele>277.47766113281</ele>
        <time>2009-09-10T07:47:30Z</time>
      </trkpt>
      <trkpt lat="45.93213" lon="4.55177">
        <ele>277.95825195312</ele>
        <time>2009-09-10T07:47:36Z</time>
      </trkpt>
      <trkpt lat="45.93223" lon="4.55183">
        <ele>278.91967773438</ele>
        <time>2009-09-10T07:47:40Z</time>
      </trkpt>
      <trkpt lat="45.93233" lon="4.552">
        <ele>279.40026855469</ele>
        <time>2009-09-10T07:47:45Z</time>
      </trkpt>
      <trkpt lat="45.93225" lon="4.55223">
        <ele>277.47766113281</ele>
        <time>2009-09-10T07:47:50Z</time>
      </trkpt>
      <trkpt lat="45.93221" lon="4.55229">
        <ele>277.47766113281</ele>
        <time>2009-09-10T07:47:51Z</time>
      </trkpt>
      <trkpt lat="45.93202" lon="4.55261">
        <ele>277.47766113281</ele>
        <time>2009-09-10T07:47:57Z</time>
      </trkpt>
      <trkpt lat="45.93191" lon="4.55277">
        <ele>278.91967773438</ele>
        <time>2009-09-10T07:48:02Z</time>
      </trkpt>
      <trkpt lat="45.93182" lon="4.55293">
        <ele>279.880859375</ele>
        <time>2009-09-10T07:48:08Z</time>
      </trkpt>
      <trkpt lat="45.9317" lon="4.55311">
        <ele>280.84240722656</ele>
        <time>2009-09-10T07:48:15Z</time>
      </trkpt>
      <trkpt lat="45.93156" lon="4.55331">
        <ele>281.80358886719</ele>
        <time>2009-09-10T07:48:24Z</time>
      </trkpt>
      <trkpt lat="45.93145" lon="4.5535">
        <ele>284.20690917969</ele>
        <time>2009-09-10T07:48:33Z</time>
      </trkpt>
      <trkpt lat="45.93143" lon="4.55369">
        <ele>285.16821289062</ele>
        <time>2009-09-10T07:48:40Z</time>
      </trkpt>
      <trkpt lat="45.93141" lon="4.5539">
        <ele>287.57141113281</ele>
        <time>2009-09-10T07:48:48Z</time>
      </trkpt>
      <trkpt lat="45.9314" lon="4.55403">
        <ele>289.01354980469</ele>
        <time>2009-09-10T07:48:54Z</time>
      </trkpt>
      <trkpt lat="45.93134" lon="4.5542">
        <ele>290.45556640625</ele>
        <time>2009-09-10T07:49:01Z</time>
      </trkpt>
      <trkpt lat="45.93126" lon="4.55433">
        <ele>292.37817382812</ele>
        <time>2009-09-10T07:49:07Z</time>
      </trkpt>
      <trkpt lat="45.93121" lon="4.55443">
        <ele>293.33935546875</ele>
        <time>2009-09-10T07:49:12Z</time>
      </trkpt>
      <trkpt lat="45.93114" lon="4.55456">
        <ele>295.26196289062</ele>
        <time>2009-09-10T07:49:19Z</time>
      </trkpt>
      <trkpt lat="45.93108" lon="4.55466">
        <ele>296.7041015625</ele>
        <time>2009-09-10T07:49:24Z</time>
      </trkpt>
      <trkpt lat="45.93099" lon="4.55479">
        <ele>298.14611816406</ele>
        <time>2009-09-10T07:49:31Z</time>
      </trkpt>
      <trkpt lat="45.93088" lon="4.55497">
        <ele>300.06872558594</ele>
        <time>2009-09-10T07:49:40Z</time>
      </trkpt>
      <trkpt lat="45.93078" lon="4.55513">
        <ele>302.47192382812</ele>
        <time>2009-09-10T07:49:48Z</time>
      </trkpt>
      <trkpt lat="45.93074" lon="4.5553">
        <ele>303.91394042969</ele>
        <time>2009-09-10T07:49:55Z</time>
      </trkpt>
      <trkpt lat="45.93074" lon="4.55548">
        <ele>306.31726074219</ele>
        <time>2009-09-10T07:50:02Z</time>
      </trkpt>
      <trkpt lat="45.93073" lon="4.55567">
        <ele>307.27856445312</ele>
        <time>2009-09-10T07:50:09Z</time>
      </trkpt>
      <trkpt lat="45.93071" lon="4.55587">
        <ele>307.75927734375</ele>
        <time>2009-09-10T07:50:16Z</time>
      </trkpt>
      <trkpt lat="45.93071" lon="4.55606">
        <ele>307.75927734375</ele>
        <time>2009-09-10T07:50:21Z</time>
      </trkpt>
      <trkpt lat="45.93064" lon="4.55638">
        <ele>307.27856445312</ele>
        <time>2009-09-10T07:50:27Z</time>
      </trkpt>
      <trkpt lat="45.93059" lon="4.55669">
        <ele>307.75927734375</ele>
        <time>2009-09-10T07:50:34Z</time>
      </trkpt>
      <trkpt lat="45.93053" lon="4.55693">
        <ele>308.23986816406</ele>
        <time>2009-09-10T07:50:40Z</time>
      </trkpt>
      <trkpt lat="45.93042" lon="4.5572">
        <ele>308.72045898438</ele>
        <time>2009-09-10T07:50:47Z</time>
      </trkpt>
      <trkpt lat="45.93032" lon="4.55749">
        <ele>310.16247558594</ele>
        <time>2009-09-10T07:50:55Z</time>
      </trkpt>
      <trkpt lat="45.93019" lon="4.55783">
        <ele>311.12377929688</ele>
        <time>2009-09-10T07:51:04Z</time>
      </trkpt>
      <trkpt lat="45.9301" lon="4.55808">
        <ele>312.56579589844</ele>
        <time>2009-09-10T07:51:11Z</time>
      </trkpt>
      <trkpt lat="45.93001" lon="4.5584">
        <ele>314.0078125</ele>
        <time>2009-09-10T07:51:19Z</time>
      </trkpt>
      <trkpt lat="45.9299" lon="4.55879">
        <ele>316.89172363281</ele>
        <time>2009-09-10T07:51:30Z</time>
      </trkpt>
      <trkpt lat="45.92982" lon="4.55895">
        <ele>317.85302734375</ele>
        <time>2009-09-10T07:51:36Z</time>
      </trkpt>
      <trkpt lat="45.92965" lon="4.5592">
        <ele>316.41101074219</ele>
        <time>2009-09-10T07:51:43Z</time>
      </trkpt>
      <trkpt lat="45.92954" lon="4.55943">
        <ele>316.41101074219</ele>
        <time>2009-09-10T07:51:48Z</time>
      </trkpt>
      <trkpt lat="45.92935" lon="4.55978">
        <ele>314.96911621094</ele>
        <time>2009-09-10T07:51:55Z</time>
      </trkpt>
      <trkpt lat="45.92917" lon="4.56016">
        <ele>313.52722167969</ele>
        <time>2009-09-10T07:52:01Z</time>
      </trkpt>
      <trkpt lat="45.92913" lon="4.56046">
        <ele>313.04650878906</ele>
        <time>2009-09-10T07:52:05Z</time>
      </trkpt>
      <trkpt lat="45.92915" lon="4.56054">
        <ele>312.08520507812</ele>
        <time>2009-09-10T07:52:06Z</time>
      </trkpt>
      <trkpt lat="45.9292" lon="4.5607">
        <ele>311.6044921875</ele>
        <time>2009-09-10T07:52:08Z</time>
      </trkpt>
      <trkpt lat="45.9292" lon="4.561">
        <ele>311.6044921875</ele>
        <time>2009-09-10T07:52:12Z</time>
      </trkpt>
      <trkpt lat="45.92918" lon="4.56106">
        <ele>311.6044921875</ele>
        <time>2009-09-10T07:52:13Z</time>
      </trkpt>
      <trkpt lat="45.92902" lon="4.56136">
        <ele>313.04650878906</ele>
        <time>2009-09-10T07:52:20Z</time>
      </trkpt>
      <trkpt lat="45.92891" lon="4.56151">
        <ele>314.96911621094</ele>
        <time>2009-09-10T07:52:27Z</time>
      </trkpt>
      <trkpt lat="45.92877" lon="4.56175">
        <ele>317.85302734375</ele>
        <time>2009-09-10T07:52:37Z</time>
      </trkpt>
      <trkpt lat="45.92867" lon="4.562">
        <ele>318.81433105469</ele>
        <time>2009-09-10T07:52:45Z</time>
      </trkpt>
      <trkpt lat="45.92855" lon="4.56228">
        <ele>319.29504394531</ele>
        <time>2009-09-10T07:52:52Z</time>
      </trkpt>
      <trkpt lat="45.92841" lon="4.5626">
        <ele>318.81433105469</ele>
        <time>2009-09-10T07:52:59Z</time>
      </trkpt>
      <trkpt lat="45.9282" lon="4.56299">
        <ele>318.33361816406</ele>
        <time>2009-09-10T07:53:07Z</time>
      </trkpt>
      <trkpt lat="45.92807" lon="4.56317">
        <ele>317.85302734375</ele>
        <time>2009-09-10T07:53:11Z</time>
      </trkpt>
      <trkpt lat="45.9278" lon="4.56344">
        <ele>317.85302734375</ele>
        <time>2009-09-10T07:53:18Z</time>
      </trkpt>
      <trkpt lat="45.92763" lon="4.56367">
        <ele>318.33361816406</ele>
        <time>2009-09-10T07:53:24Z</time>
      </trkpt>
      <trkpt lat="45.92765" lon="4.56378">
        <ele>319.29504394531</ele>
        <time>2009-09-10T07:53:28Z</time>
      </trkpt>
      <trkpt lat="45.92767" lon="4.56381">
        <ele>319.77563476562</ele>
        <time>2009-09-10T07:53:30Z</time>
      </trkpt>
      <trkpt lat="45.92771" lon="4.5638">
        <ele>320.25634765625</ele>
        <time>2009-09-10T07:53:35Z</time>
      </trkpt>
      <trkpt lat="45.92764" lon="4.56368">
        <ele>319.29504394531</ele>
        <time>2009-09-10T07:53:39Z</time>
      </trkpt>
      <trkpt lat="45.92757" lon="4.56366">
        <ele>318.33361816406</ele>
        <time>2009-09-10T07:53:42Z</time>
      </trkpt>
      <trkpt lat="45.92751" lon="4.56371">
        <ele>316.89172363281</ele>
        <time>2009-09-10T07:53:44Z</time>
      </trkpt>
      <trkpt lat="45.92729" lon="4.56393">
        <ele>315.93041992188</ele>
        <time>2009-09-10T07:53:51Z</time>
      </trkpt>
      <trkpt lat="45.92714" lon="4.56427">
        <ele>313.04650878906</ele>
        <time>2009-09-10T07:53:57Z</time>
      </trkpt>
      <trkpt lat="45.92715" lon="4.56448">
        <ele>312.56579589844</ele>
        <time>2009-09-10T07:54:00Z</time>
      </trkpt>
      <trkpt lat="45.92719" lon="4.56462">
        <ele>311.6044921875</ele>
        <time>2009-09-10T07:54:02Z</time>
      </trkpt>
      <trkpt lat="45.92726" lon="4.56494">
        <ele>310.16247558594</ele>
        <time>2009-09-10T07:54:07Z</time>
      </trkpt>
      <trkpt lat="45.92727" lon="4.565">
        <ele>308.23986816406</ele>
        <time>2009-09-10T07:54:08Z</time>
      </trkpt>
      <trkpt lat="45.92728" lon="4.56514">
        <ele>306.31726074219</ele>
        <time>2009-09-10T07:54:10Z</time>
      </trkpt>
      <trkpt lat="45.92728" lon="4.56541">
        <ele>303.43322753906</ele>
        <time>2009-09-10T07:54:14Z</time>
      </trkpt>
      <trkpt lat="45.92727" lon="4.56555">
        <ele>301.02990722656</ele>
        <time>2009-09-10T07:54:16Z</time>
      </trkpt>
      <trkpt lat="45.92725" lon="4.56579">
        <ele>298.14611816406</ele>
        <time>2009-09-10T07:54:19Z</time>
      </trkpt>
      <trkpt lat="45.92725" lon="4.56604">
        <ele>296.22351074219</ele>
        <time>2009-09-10T07:54:22Z</time>
      </trkpt>
      <trkpt lat="45.92733" lon="4.56642">
        <ele>293.82006835938</ele>
        <time>2009-09-10T07:54:27Z</time>
      </trkpt>
      <trkpt lat="45.92738" lon="4.56658">
        <ele>294.30078125</ele>
        <time>2009-09-10T07:54:31Z</time>
      </trkpt>
      <trkpt lat="45.92741" lon="4.56665">
        <ele>294.30078125</ele>
        <time>2009-09-10T07:54:33Z</time>
      </trkpt>
      <trkpt lat="45.92742" lon="4.56672">
        <ele>294.78137207031</ele>
        <time>2009-09-10T07:54:39Z</time>
      </trkpt>
      <trkpt lat="45.92746" lon="4.56675">
        <ele>294.78137207031</ele>
        <time>2009-09-10T07:54:47Z</time>
      </trkpt>
      <trkpt lat="45.92748" lon="4.56684">
        <ele>294.78137207031</ele>
        <time>2009-09-10T07:54:57Z</time>
      </trkpt>
      <trkpt lat="45.92744" lon="4.56705">
        <ele>295.26196289062</ele>
        <time>2009-09-10T07:55:04Z</time>
      </trkpt>
      <trkpt lat="45.92737" lon="4.5672">
        <ele>295.74267578125</ele>
        <time>2009-09-10T07:55:11Z</time>
      </trkpt>
      <trkpt lat="45.92727" lon="4.56727">
        <ele>296.22351074219</ele>
        <time>2009-09-10T07:55:18Z</time>
      </trkpt>
      <trkpt lat="45.92718" lon="4.56732">
        <ele>298.14611816406</ele>
        <time>2009-09-10T07:55:25Z</time>
      </trkpt>
      <trkpt lat="45.92707" lon="4.56738">
        <ele>300.54931640625</ele>
        <time>2009-09-10T07:55:34Z</time>
      </trkpt>
      <trkpt lat="45.927" lon="4.56748">
        <ele>301.99133300781</ele>
        <time>2009-09-10T07:55:41Z</time>
      </trkpt>
      <trkpt lat="45.92695" lon="4.56758">
        <ele>305.35595703125</ele>
        <time>2009-09-10T07:55:47Z</time>
      </trkpt>
      <trkpt lat="45.92687" lon="4.56769">
        <ele>307.27856445312</ele>
        <time>2009-09-10T07:55:53Z</time>
      </trkpt>
      <trkpt lat="45.92676" lon="4.56783">
        <ele>310.64306640625</ele>
        <time>2009-09-10T07:56:02Z</time>
      </trkpt>
      <trkpt lat="45.92668" lon="4.56792">
        <ele>313.04650878906</ele>
        <time>2009-09-10T07:56:09Z</time>
      </trkpt>
      <trkpt lat="45.9266" lon="4.56801">
        <ele>315.44982910156</ele>
        <time>2009-09-10T07:56:16Z</time>
      </trkpt>
      <trkpt lat="45.92654" lon="4.56807">
        <ele>317.85302734375</ele>
        <time>2009-09-10T07:56:22Z</time>
      </trkpt>
      <trkpt lat="45.92646" lon="4.56818">
        <ele>320.25634765625</ele>
        <time>2009-09-10T07:56:31Z</time>
      </trkpt>
      <trkpt lat="45.92639" lon="4.5683">
        <ele>322.17895507812</ele>
        <time>2009-09-10T07:56:41Z</time>
      </trkpt>
      <trkpt lat="45.92632" lon="4.56842">
        <ele>325.06298828125</ele>
        <time>2009-09-10T07:56:51Z</time>
      </trkpt>
      <trkpt lat="45.92625" lon="4.56853">
        <ele>327.46618652344</ele>
        <time>2009-09-10T07:57:00Z</time>
      </trkpt>
      <trkpt lat="45.92621" lon="4.56861">
        <ele>328.90832519531</ele>
        <time>2009-09-10T07:57:06Z</time>
      </trkpt>
      <trkpt lat="45.92623" lon="4.56869">
        <ele>329.38891601562</ele>
        <time>2009-09-10T07:57:12Z</time>
      </trkpt>
      <trkpt lat="45.92632" lon="4.56873">
        <ele>329.38891601562</ele>
        <time>2009-09-10T07:57:19Z</time>
      </trkpt>
      <trkpt lat="45.92641" lon="4.56882">
        <ele>329.86950683594</ele>
        <time>2009-09-10T07:57:26Z</time>
      </trkpt>
      <trkpt lat="45.92654" lon="4.56895">
        <ele>330.35021972656</ele>
        <time>2009-09-10T07:57:35Z</time>
      </trkpt>
      <trkpt lat="45.92665" lon="4.56905">
        <ele>330.35021972656</ele>
        <time>2009-09-10T07:57:42Z</time>
      </trkpt>
      <trkpt lat="45.92678" lon="4.56921">
        <ele>330.35021972656</ele>
        <time>2009-09-10T07:57:50Z</time>
      </trkpt>
      <trkpt lat="45.9269" lon="4.56941">
        <ele>331.3115234375</ele>
        <time>2009-09-10T07:57:58Z</time>
      </trkpt>
      <trkpt lat="45.92703" lon="4.56961">
        <ele>331.79211425781</ele>
        <time>2009-09-10T07:58:06Z</time>
      </trkpt>
      <trkpt lat="45.92715" lon="4.56978">
        <ele>332.75354003906</ele>
        <time>2009-09-10T07:58:14Z</time>
      </trkpt>
      <trkpt lat="45.92727" lon="4.56997">
        <ele>333.23413085938</ele>
        <time>2009-09-10T07:58:22Z</time>
      </trkpt>
      <trkpt lat="45.92742" lon="4.57018">
        <ele>335.15673828125</ele>
        <time>2009-09-10T07:58:32Z</time>
      </trkpt>
      <trkpt lat="45.92754" lon="4.57041">
        <ele>336.59887695312</ele>
        <time>2009-09-10T07:58:41Z</time>
      </trkpt>
      <trkpt lat="45.92768" lon="4.57067">
        <ele>337.07946777344</ele>
        <time>2009-09-10T07:58:51Z</time>
      </trkpt>
      <trkpt lat="45.92783" lon="4.57099">
        <ele>337.56005859375</ele>
        <time>2009-09-10T07:59:03Z</time>
      </trkpt>
      <trkpt lat="45.92793" lon="4.57118">
        <ele>339.00207519531</ele>
        <time>2009-09-10T07:59:11Z</time>
      </trkpt>
      <trkpt lat="45.92804" lon="4.57144">
        <ele>339.96337890625</ele>
        <time>2009-09-10T07:59:20Z</time>
      </trkpt>
      <trkpt lat="45.92812" lon="4.5717">
        <ele>340.92468261719</ele>
        <time>2009-09-10T07:59:29Z</time>
      </trkpt>
      <trkpt lat="45.92817" lon="4.57196">
        <ele>342.84729003906</ele>
        <time>2009-09-10T07:59:38Z</time>
      </trkpt>
      <trkpt lat="45.92821" lon="4.57223">
        <ele>343.80859375</ele>
        <time>2009-09-10T07:59:47Z</time>
      </trkpt>
      <trkpt lat="45.92826" lon="4.57246">
        <ele>345.25061035156</ele>
        <time>2009-09-10T07:59:55Z</time>
      </trkpt>
      <trkpt lat="45.92834" lon="4.5727">
        <ele>347.17321777344</ele>
        <time>2009-09-10T08:00:04Z</time>
      </trkpt>
      <trkpt lat="45.92841" lon="4.57289">
        <ele>347.65393066406</ele>
        <time>2009-09-10T08:00:11Z</time>
      </trkpt>
      <trkpt lat="45.92852" lon="4.57315">
        <ele>349.57653808594</ele>
        <time>2009-09-10T08:00:21Z</time>
      </trkpt>
      <trkpt lat="45.92852" lon="4.57316">
        <ele>350.05725097656</ele>
        <time>2009-09-10T08:00:22Z</time>
      </trkpt>
      <trkpt lat="45.92858" lon="4.57315">
        <ele>350.05725097656</ele>
        <time>2009-09-10T08:00:26Z</time>
      </trkpt>
      <trkpt lat="45.9286" lon="4.57311">
        <ele>349.09582519531</ele>
        <time>2009-09-10T08:00:30Z</time>
      </trkpt>
      <trkpt lat="45.92856" lon="4.57321">
        <ele>350.05725097656</ele>
        <time>2009-09-10T08:03:15Z</time>
      </trkpt>
      <trkpt lat="45.92865" lon="4.57341">
        <ele>351.01843261719</ele>
        <time>2009-09-10T08:03:22Z</time>
      </trkpt>
      <trkpt lat="45.92873" lon="4.57355">
        <ele>351.97985839844</ele>
        <time>2009-09-10T08:03:28Z</time>
      </trkpt>
      <trkpt lat="45.92885" lon="4.57376">
        <ele>352.94116210938</ele>
        <time>2009-09-10T08:03:36Z</time>
      </trkpt>
      <trkpt lat="45.92897" lon="4.57395">
        <ele>355.34448242188</ele>
        <time>2009-09-10T08:03:44Z</time>
      </trkpt>
      <trkpt lat="45.92898" lon="4.57397">
        <ele>355.34448242188</ele>
        <time>2009-09-10T08:03:45Z</time>
      </trkpt>
      <trkpt lat="45.92912" lon="4.57416">
        <ele>356.30578613281</ele>
        <time>2009-09-10T08:03:54Z</time>
      </trkpt>
      <trkpt lat="45.92924" lon="4.5743">
        <ele>357.74780273438</ele>
        <time>2009-09-10T08:04:02Z</time>
      </trkpt>
      <trkpt lat="45.92932" lon="4.57447">
        <ele>359.67041015625</ele>
        <time>2009-09-10T08:04:09Z</time>
      </trkpt>
      <trkpt lat="45.92934" lon="4.57468">
        <ele>361.59313964844</ele>
        <time>2009-09-10T08:04:17Z</time>
      </trkpt>
      <trkpt lat="45.92937" lon="4.57483">
        <ele>362.55432128906</ele>
        <time>2009-09-10T08:04:24Z</time>
      </trkpt>
      <trkpt lat="45.92944" lon="4.57498">
        <ele>363.51574707031</ele>
        <time>2009-09-10T08:04:31Z</time>
      </trkpt>
      <trkpt lat="45.92955" lon="4.57515">
        <ele>364.95764160156</ele>
        <time>2009-09-10T08:04:40Z</time>
      </trkpt>
      <trkpt lat="45.92966" lon="4.57528">
        <ele>365.43835449219</ele>
        <time>2009-09-10T08:04:48Z</time>
      </trkpt>
      <trkpt lat="45.92975" lon="4.57545">
        <ele>367.84155273438</ele>
        <time>2009-09-10T08:04:56Z</time>
      </trkpt>
      <trkpt lat="45.92982" lon="4.57567">
        <ele>369.76428222656</ele>
        <time>2009-09-10T08:05:05Z</time>
      </trkpt>
      <trkpt lat="45.9299" lon="4.57588">
        <ele>371.20629882812</ele>
        <time>2009-09-10T08:05:14Z</time>
      </trkpt>
      <trkpt lat="45.92995" lon="4.57607">
        <ele>372.64819335938</ele>
        <time>2009-09-10T08:05:22Z</time>
      </trkpt>
      <trkpt lat="45.93003" lon="4.57631">
        <ele>374.57080078125</ele>
        <time>2009-09-10T08:05:32Z</time>
      </trkpt>
      <trkpt lat="45.93011" lon="4.57653">
        <ele>375.05151367188</ele>
        <time>2009-09-10T08:05:41Z</time>
      </trkpt>
      <trkpt lat="45.93029" lon="4.5768">
        <ele>376.01281738281</ele>
        <time>2009-09-10T08:05:51Z</time>
      </trkpt>
      <trkpt lat="45.93046" lon="4.57706">
        <ele>376.97424316406</ele>
        <time>2009-09-10T08:06:00Z</time>
      </trkpt>
      <trkpt lat="45.93052" lon="4.57724">
        <ele>377.45483398438</ele>
        <time>2009-09-10T08:06:06Z</time>
      </trkpt>
      <trkpt lat="45.93053" lon="4.57753">
        <ele>378.89685058594</ele>
        <time>2009-09-10T08:06:14Z</time>
      </trkpt>
      <trkpt lat="45.93056" lon="4.57771">
        <ele>378.89685058594</ele>
        <time>2009-09-10T08:06:20Z</time>
      </trkpt>
      <trkpt lat="45.93062" lon="4.57787">
        <ele>379.85803222656</ele>
        <time>2009-09-10T08:06:27Z</time>
      </trkpt>
      <trkpt lat="45.93066" lon="4.57788">
        <ele>379.85803222656</ele>
        <time>2009-09-10T08:06:32Z</time>
      </trkpt>
      <trkpt lat="45.93062" lon="4.57777">
        <ele>379.37744140625</ele>
        <time>2009-09-10T08:06:37Z</time>
      </trkpt>
      <trkpt lat="45.9306" lon="4.57767">
        <ele>378.89685058594</ele>
        <time>2009-09-10T08:06:39Z</time>
      </trkpt>
      <trkpt lat="45.93061" lon="4.5774">
        <ele>378.41613769531</ele>
        <time>2009-09-10T08:06:44Z</time>
      </trkpt>
      <trkpt lat="45.93068" lon="4.57735">
        <ele>377.93542480469</ele>
        <time>2009-09-10T08:06:47Z</time>
      </trkpt>
      <trkpt lat="45.93072" lon="4.57738">
        <ele>378.89685058594</ele>
        <time>2009-09-10T08:06:49Z</time>
      </trkpt>
      <trkpt lat="45.93081" lon="4.57759">
        <ele>380.33874511719</ele>
        <time>2009-09-10T08:06:57Z</time>
      </trkpt>
      <trkpt lat="45.93087" lon="4.57774">
        <ele>381.30004882812</ele>
        <time>2009-09-10T08:07:03Z</time>
      </trkpt>
      <trkpt lat="45.93093" lon="4.57783">
        <ele>381.78063964844</ele>
        <time>2009-09-10T08:07:08Z</time>
      </trkpt>
      <trkpt lat="45.93103" lon="4.57781">
        <ele>382.74206542969</ele>
        <time>2009-09-10T08:07:15Z</time>
      </trkpt>
      <trkpt lat="45.93123" lon="4.57781">
        <ele>384.18408203125</ele>
        <time>2009-09-10T08:07:25Z</time>
      </trkpt>
      <trkpt lat="45.9314" lon="4.57783">
        <ele>385.14538574219</ele>
        <time>2009-09-10T08:07:33Z</time>
      </trkpt>
      <trkpt lat="45.93151" lon="4.57784">
        <ele>385.6259765625</ele>
        <time>2009-09-10T08:07:39Z</time>
      </trkpt>
      <trkpt lat="45.93167" lon="4.57781">
        <ele>387.54858398438</ele>
        <time>2009-09-10T08:07:48Z</time>
      </trkpt>
      <trkpt lat="45.93185" lon="4.5778">
        <ele>388.51000976562</ele>
        <time>2009-09-10T08:07:57Z</time>
      </trkpt>
      <trkpt lat="45.93197" lon="4.57782">
        <ele>389.95190429688</ele>
        <time>2009-09-10T08:08:04Z</time>
      </trkpt>
      <trkpt lat="45.93209" lon="4.57784">
        <ele>391.39379882812</ele>
        <time>2009-09-10T08:08:12Z</time>
      </trkpt>
      <trkpt lat="45.93224" lon="4.57789">
        <ele>393.31652832031</ele>
        <time>2009-09-10T08:08:22Z</time>
      </trkpt>
      <trkpt lat="45.93235" lon="4.57792">
        <ele>394.75854492188</ele>
        <time>2009-09-10T08:08:30Z</time>
      </trkpt>
      <trkpt lat="45.93249" lon="4.57797">
        <ele>395.71984863281</ele>
        <time>2009-09-10T08:08:40Z</time>
      </trkpt>
      <trkpt lat="45.93262" lon="4.57801">
        <ele>397.64245605469</ele>
        <time>2009-09-10T08:08:49Z</time>
      </trkpt>
      <trkpt lat="45.93274" lon="4.57806">
        <ele>399.56506347656</ele>
        <time>2009-09-10T08:08:58Z</time>
      </trkpt>
      <trkpt lat="45.93291" lon="4.57811">
        <ele>401.00708007812</ele>
        <time>2009-09-10T08:09:09Z</time>
      </trkpt>
      <trkpt lat="45.93293" lon="4.57812">
        <ele>401.48779296875</ele>
        <time>2009-09-10T08:09:11Z</time>
      </trkpt>
      <trkpt lat="45.93305" lon="4.57817">
        <ele>404.37170410156</ele>
        <time>2009-09-10T08:09:20Z</time>
      </trkpt>
      <trkpt lat="45.93316" lon="4.57824">
        <ele>405.3330078125</ele>
        <time>2009-09-10T08:09:29Z</time>
      </trkpt>
      <trkpt lat="45.93326" lon="4.57831">
        <ele>406.77490234375</ele>
        <time>2009-09-10T08:09:38Z</time>
      </trkpt>
      <trkpt lat="45.93336" lon="4.57838">
        <ele>409.17834472656</ele>
        <time>2009-09-10T08:09:47Z</time>
      </trkpt>
      <trkpt lat="45.93337" lon="4.5784">
        <ele>409.17834472656</ele>
        <time>2009-09-10T08:09:48Z</time>
      </trkpt>
      <trkpt lat="45.93333" lon="4.57849">
        <ele>410.1396484375</ele>
        <time>2009-09-10T08:09:54Z</time>
      </trkpt>
      <trkpt lat="45.93326" lon="4.57859">
        <ele>410.62023925781</ele>
        <time>2009-09-10T08:10:00Z</time>
      </trkpt>
      <trkpt lat="45.93317" lon="4.57873">
        <ele>412.06225585938</ele>
        <time>2009-09-10T08:10:08Z</time>
      </trkpt>
      <trkpt lat="45.93307" lon="4.57891">
        <ele>413.02355957031</ele>
        <time>2009-09-10T08:10:16Z</time>
      </trkpt>
      <trkpt lat="45.93298" lon="4.57907">
        <ele>413.98486328125</ele>
        <time>2009-09-10T08:10:23Z</time>
      </trkpt>
      <trkpt lat="45.93293" lon="4.57931">
        <ele>415.90747070312</ele>
        <time>2009-09-10T08:10:32Z</time>
      </trkpt>
      <trkpt lat="45.93298" lon="4.57956">
        <ele>417.83020019531</ele>
        <time>2009-09-10T08:10:42Z</time>
      </trkpt>
      <trkpt lat="45.93299" lon="4.57971">
        <ele>419.27221679688</ele>
        <time>2009-09-10T08:10:48Z</time>
      </trkpt>
      <trkpt lat="45.93296" lon="4.57993">
        <ele>421.19482421875</ele>
        <time>2009-09-10T08:10:56Z</time>
      </trkpt>
      <trkpt lat="45.93294" lon="4.58005">
        <ele>422.15600585938</ele>
        <time>2009-09-10T08:11:01Z</time>
      </trkpt>
      <trkpt lat="45.93292" lon="4.58021">
        <ele>423.59802246094</ele>
        <time>2009-09-10T08:11:07Z</time>
      </trkpt>
      <trkpt lat="45.93292" lon="4.58044">
        <ele>425.04016113281</ele>
        <time>2009-09-10T08:11:16Z</time>
      </trkpt>
      <trkpt lat="45.93298" lon="4.58058">
        <ele>425.52075195312</ele>
        <time>2009-09-10T08:11:23Z</time>
      </trkpt>
      <trkpt lat="45.93303" lon="4.58078">
        <ele>426.96276855469</ele>
        <time>2009-09-10T08:11:31Z</time>
      </trkpt>
      <trkpt lat="45.93311" lon="4.58105">
        <ele>427.92395019531</ele>
        <time>2009-09-10T08:11:41Z</time>
      </trkpt>
      <trkpt lat="45.93321" lon="4.58139">
        <ele>430.80798339844</ele>
        <time>2009-09-10T08:11:54Z</time>
      </trkpt>
      <trkpt lat="45.93328" lon="4.58169">
        <ele>432.25</ele>
        <time>2009-09-10T08:12:05Z</time>
      </trkpt>
      <trkpt lat="45.93327" lon="4.58185">
        <ele>433.21130371094</ele>
        <time>2009-09-10T08:12:11Z</time>
      </trkpt>
      <trkpt lat="45.93322" lon="4.58206">
        <ele>434.6533203125</ele>
        <time>2009-09-10T08:12:19Z</time>
      </trkpt>
      <trkpt lat="45.93319" lon="4.58227">
        <ele>436.09521484375</ele>
        <time>2009-09-10T08:12:27Z</time>
      </trkpt>
      <trkpt lat="45.93314" lon="4.58248">
        <ele>437.537109375</ele>
        <time>2009-09-10T08:12:35Z</time>
      </trkpt>
      <trkpt lat="45.93307" lon="4.5826">
        <ele>438.97912597656</ele>
        <time>2009-09-10T08:12:41Z</time>
      </trkpt>
      <trkpt lat="45.93305" lon="4.58277">
        <ele>441.38244628906</ele>
        <time>2009-09-10T08:12:48Z</time>
      </trkpt>
      <trkpt lat="45.93303" lon="4.58293">
        <ele>443.30505371094</ele>
        <time>2009-09-10T08:12:55Z</time>
      </trkpt>
      <trkpt lat="45.93301" lon="4.58305">
        <ele>444.7470703125</ele>
        <time>2009-09-10T08:13:02Z</time>
      </trkpt>
      <trkpt lat="45.933" lon="4.58312">
        <ele>446.18908691406</ele>
        <time>2009-09-10T08:13:06Z</time>
      </trkpt>
      <trkpt lat="45.93297" lon="4.58324">
        <ele>447.15026855469</ele>
        <time>2009-09-10T08:13:14Z</time>
      </trkpt>
      <trkpt lat="45.93293" lon="4.58335">
        <ele>448.11181640625</ele>
        <time>2009-09-10T08:13:21Z</time>
      </trkpt>
      <trkpt lat="45.9329" lon="4.58343">
        <ele>449.07299804688</ele>
        <time>2009-09-10T08:13:26Z</time>
      </trkpt>
      <trkpt lat="45.93289" lon="4.58347">
        <ele>450.03442382812</ele>
        <time>2009-09-10T08:13:29Z</time>
      </trkpt>
      <trkpt lat="45.93287" lon="4.58358">
        <ele>451.47631835938</ele>
        <time>2009-09-10T08:13:36Z</time>
      </trkpt>
      <trkpt lat="45.93283" lon="4.5837">
        <ele>452.43762207031</ele>
        <time>2009-09-10T08:13:44Z</time>
      </trkpt>
      <trkpt lat="45.93278" lon="4.5838">
        <ele>453.39892578125</ele>
        <time>2009-09-10T08:13:52Z</time>
      </trkpt>
      <trkpt lat="45.93271" lon="4.58393">
        <ele>456.28295898438</ele>
        <time>2009-09-10T08:14:01Z</time>
      </trkpt>
      <trkpt lat="45.93271" lon="4.584">
        <ele>456.76354980469</ele>
        <time>2009-09-10T08:14:05Z</time>
      </trkpt>
      <trkpt lat="45.93275" lon="4.58404">
        <ele>458.20556640625</ele>
        <time>2009-09-10T08:14:10Z</time>
      </trkpt>
      <trkpt lat="45.93285" lon="4.58406">
        <ele>460.12817382812</ele>
        <time>2009-09-10T08:14:18Z</time>
      </trkpt>
      <trkpt lat="45.93295" lon="4.58407">
        <ele>462.05078125</ele>
        <time>2009-09-10T08:14:27Z</time>
      </trkpt>
      <trkpt lat="45.93306" lon="4.58407">
        <ele>463.97338867188</ele>
        <time>2009-09-10T08:14:37Z</time>
      </trkpt>
      <trkpt lat="45.93315" lon="4.58407">
        <ele>465.89611816406</ele>
        <time>2009-09-10T08:14:45Z</time>
      </trkpt>
      <trkpt lat="45.93325" lon="4.58408">
        <ele>467.81872558594</ele>
        <time>2009-09-10T08:14:53Z</time>
      </trkpt>
      <trkpt lat="45.93331" lon="4.58408">
        <ele>468.78002929688</ele>
        <time>2009-09-10T08:14:58Z</time>
      </trkpt>
      <trkpt lat="45.93342" lon="4.58409">
        <ele>470.22192382812</ele>
        <time>2009-09-10T08:15:07Z</time>
      </trkpt>
      <trkpt lat="45.93351" lon="4.58411">
        <ele>471.66394042969</ele>
        <time>2009-09-10T08:15:14Z</time>
      </trkpt>
      <trkpt lat="45.93352" lon="4.58414">
        <ele>472.14465332031</ele>
        <time>2009-09-10T08:15:16Z</time>
      </trkpt>
      <trkpt lat="45.93349" lon="4.58427">
        <ele>474.06726074219</ele>
        <time>2009-09-10T08:15:23Z</time>
      </trkpt>
      <trkpt lat="45.93345" lon="4.58443">
        <ele>475.98986816406</ele>
        <time>2009-09-10T08:15:32Z</time>
      </trkpt>
      <trkpt lat="45.93346" lon="4.58446">
        <ele>475.98986816406</ele>
        <time>2009-09-10T08:15:34Z</time>
      </trkpt>
      <trkpt lat="45.93356" lon="4.58447">
        <ele>476.47058105469</ele>
        <time>2009-09-10T08:15:41Z</time>
      </trkpt>
      <trkpt lat="45.93374" lon="4.58436">
        <ele>476.95129394531</ele>
        <time>2009-09-10T08:15:49Z</time>
      </trkpt>
      <trkpt lat="45.93394" lon="4.58427">
        <ele>477.43188476562</ele>
        <time>2009-09-10T08:15:57Z</time>
      </trkpt>
      <trkpt lat="45.93422" lon="4.58408">
        <ele>478.87390136719</ele>
        <time>2009-09-10T08:16:09Z</time>
      </trkpt>
      <trkpt lat="45.93441" lon="4.58397">
        <ele>478.87390136719</ele>
        <time>2009-09-10T08:16:17Z</time>
      </trkpt>
      <trkpt lat="45.93462" lon="4.58381">
        <ele>481.27722167969</ele>
        <time>2009-09-10T08:16:27Z</time>
      </trkpt>
      <trkpt lat="45.93481" lon="4.58367">
        <ele>482.23852539062</ele>
        <time>2009-09-10T08:16:36Z</time>
      </trkpt>
      <trkpt lat="45.93497" lon="4.58354">
        <ele>483.68041992188</ele>
        <time>2009-09-10T08:16:44Z</time>
      </trkpt>
      <trkpt lat="45.93519" lon="4.5834">
        <ele>485.12243652344</ele>
        <time>2009-09-10T08:16:54Z</time>
      </trkpt>
      <trkpt lat="45.93536" lon="4.58329">
        <ele>485.12243652344</ele>
        <time>2009-09-10T08:17:02Z</time>
      </trkpt>
      <trkpt lat="45.93559" lon="4.5832">
        <ele>487.52563476562</ele>
        <time>2009-09-10T08:17:12Z</time>
      </trkpt>
      <trkpt lat="45.93581" lon="4.58312">
        <ele>488.48718261719</ele>
        <time>2009-09-10T08:17:21Z</time>
      </trkpt>
      <trkpt lat="45.93602" lon="4.58308">
        <ele>489.44836425781</ele>
        <time>2009-09-10T08:17:29Z</time>
      </trkpt>
      <trkpt lat="45.93624" lon="4.58303">
        <ele>490.89038085938</ele>
        <time>2009-09-10T08:17:37Z</time>
      </trkpt>
      <trkpt lat="45.9364" lon="4.58299">
        <ele>490.40979003906</ele>
        <time>2009-09-10T08:17:43Z</time>
      </trkpt>
      <trkpt lat="45.9366" lon="4.58296">
        <ele>491.37097167969</ele>
        <time>2009-09-10T08:17:50Z</time>
      </trkpt>
      <trkpt lat="45.93685" lon="4.5829">
        <ele>491.85168457031</ele>
        <time>2009-09-10T08:17:59Z</time>
      </trkpt>
      <trkpt lat="45.93704" lon="4.58287">
        <ele>493.29357910156</ele>
        <time>2009-09-10T08:18:06Z</time>
      </trkpt>
      <trkpt lat="45.9373" lon="4.58284">
        <ele>494.73559570312</ele>
        <time>2009-09-10T08:18:16Z</time>
      </trkpt>
      <trkpt lat="45.9375" lon="4.58283">
        <ele>496.177734375</ele>
        <time>2009-09-10T08:18:24Z</time>
      </trkpt>
      <trkpt lat="45.93769" lon="4.58282">
        <ele>497.61962890625</ele>
        <time>2009-09-10T08:18:31Z</time>
      </trkpt>
      <trkpt lat="45.9379" lon="4.58283">
        <ele>499.54223632812</ele>
        <time>2009-09-10T08:18:39Z</time>
      </trkpt>
      <trkpt lat="45.93814" lon="4.58281">
        <ele>501.94555664062</ele>
        <time>2009-09-10T08:18:48Z</time>
      </trkpt>
      <trkpt lat="45.93832" lon="4.58282">
        <ele>503.8681640625</ele>
        <time>2009-09-10T08:18:55Z</time>
      </trkpt>
      <trkpt lat="45.93852" lon="4.58283">
        <ele>504.82946777344</ele>
        <time>2009-09-10T08:19:03Z</time>
      </trkpt>
      <trkpt lat="45.9387" lon="4.58287">
        <ele>505.79089355469</ele>
        <time>2009-09-10T08:19:10Z</time>
      </trkpt>
      <trkpt lat="45.93882" lon="4.5829">
        <ele>505.79089355469</ele>
        <time>2009-09-10T08:19:16Z</time>
      </trkpt>
      <trkpt lat="45.93901" lon="4.58299">
        <ele>505.31018066406</ele>
        <time>2009-09-10T08:19:23Z</time>
      </trkpt>
      <trkpt lat="45.93929" lon="4.58309">
        <ele>505.31018066406</ele>
        <time>2009-09-10T08:19:31Z</time>
      </trkpt>
      <trkpt lat="45.93943" lon="4.58312">
        <ele>505.31018066406</ele>
        <time>2009-09-10T08:19:36Z</time>
      </trkpt>
      <trkpt lat="45.93952" lon="4.58313">
        <ele>505.31018066406</ele>
        <time>2009-09-10T08:19:40Z</time>
      </trkpt>
      <trkpt lat="45.9397" lon="4.58317">
        <ele>505.31018066406</ele>
        <time>2009-09-10T08:19:46Z</time>
      </trkpt>
      <trkpt lat="45.93994" lon="4.58325">
        <ele>506.75207519531</ele>
        <time>2009-09-10T08:19:53Z</time>
      </trkpt>
      <trkpt lat="45.94027" lon="4.58333">
        <ele>507.23278808594</ele>
        <time>2009-09-10T08:20:02Z</time>
      </trkpt>
      <trkpt lat="45.94044" lon="4.58334">
        <ele>507.71350097656</ele>
        <time>2009-09-10T08:20:08Z</time>
      </trkpt>
      <trkpt lat="45.94065" lon="4.58333">
        <ele>508.19409179688</ele>
        <time>2009-09-10T08:20:14Z</time>
      </trkpt>
      <trkpt lat="45.9409" lon="4.58334">
        <ele>508.67468261719</ele>
        <time>2009-09-10T08:20:21Z</time>
      </trkpt>
      <trkpt lat="45.94116" lon="4.58337">
        <ele>508.67468261719</ele>
        <time>2009-09-10T08:20:28Z</time>
      </trkpt>
      <trkpt lat="45.94142" lon="4.58346">
        <ele>509.15539550781</ele>
        <time>2009-09-10T08:20:35Z</time>
      </trkpt>
      <trkpt lat="45.94169" lon="4.5835">
        <ele>510.11669921875</ele>
        <time>2009-09-10T08:20:42Z</time>
      </trkpt>
      <trkpt lat="45.942" lon="4.58348">
        <ele>510.59729003906</ele>
        <time>2009-09-10T08:20:51Z</time>
      </trkpt>
      <trkpt lat="45.94239" lon="4.58349">
        <ele>513.00073242188</ele>
        <time>2009-09-10T08:21:03Z</time>
      </trkpt>
      <trkpt lat="45.94265" lon="4.58347">
        <ele>513.96203613281</ele>
        <time>2009-09-10T08:21:11Z</time>
      </trkpt>
      <trkpt lat="45.94291" lon="4.58345">
        <ele>516.84594726562</ele>
        <time>2009-09-10T08:21:20Z</time>
      </trkpt>
      <trkpt lat="45.94317" lon="4.58345">
        <ele>518.7685546875</ele>
        <time>2009-09-10T08:21:29Z</time>
      </trkpt>
      <trkpt lat="45.94337" lon="4.58348">
        <ele>520.69128417969</ele>
        <time>2009-09-10T08:21:36Z</time>
      </trkpt>
      <trkpt lat="45.94356" lon="4.58351">
        <ele>521.65258789062</ele>
        <time>2009-09-10T08:21:43Z</time>
      </trkpt>
      <trkpt lat="45.94374" lon="4.58358">
        <ele>523.5751953125</ele>
        <time>2009-09-10T08:21:50Z</time>
      </trkpt>
      <trkpt lat="45.94395" lon="4.58365">
        <ele>525.01721191406</ele>
        <time>2009-09-10T08:21:58Z</time>
      </trkpt>
      <trkpt lat="45.94418" lon="4.58371">
        <ele>525.49780273438</ele>
        <time>2009-09-10T08:22:06Z</time>
      </trkpt>
      <trkpt lat="45.94439" lon="4.58368">
        <ele>525.97839355469</ele>
        <time>2009-09-10T08:22:14Z</time>
      </trkpt>
      <trkpt lat="45.94462" lon="4.58361">
        <ele>527.42041015625</ele>
        <time>2009-09-10T08:22:23Z</time>
      </trkpt>
      <trkpt lat="45.94484" lon="4.5835">
        <ele>527.90100097656</ele>
        <time>2009-09-10T08:22:31Z</time>
      </trkpt>
      <trkpt lat="45.94516" lon="4.58333">
        <ele>529.34313964844</ele>
        <time>2009-09-10T08:22:42Z</time>
      </trkpt>
      <trkpt lat="45.94545" lon="4.5832">
        <ele>530.30444335938</ele>
        <time>2009-09-10T08:22:51Z</time>
      </trkpt>
      <trkpt lat="45.94572" lon="4.58308">
        <ele>530.78515625</ele>
        <time>2009-09-10T08:23:00Z</time>
      </trkpt>
      <trkpt lat="45.946" lon="4.58297">
        <ele>532.70776367188</ele>
        <time>2009-09-10T08:23:10Z</time>
      </trkpt>
      <trkpt lat="45.9462" lon="4.58288">
        <ele>534.63037109375</ele>
        <time>2009-09-10T08:23:17Z</time>
      </trkpt>
      <trkpt lat="45.94636" lon="4.58282">
        <ele>535.11096191406</ele>
        <time>2009-09-10T08:23:23Z</time>
      </trkpt>
      <trkpt lat="45.94658" lon="4.58276">
        <ele>536.07238769531</ele>
        <time>2009-09-10T08:23:31Z</time>
      </trkpt>
      <trkpt lat="45.94668" lon="4.58275">
        <ele>536.55310058594</ele>
        <time>2009-09-10T08:23:36Z</time>
      </trkpt>
      <trkpt lat="45.9467" lon="4.58276">
        <ele>537.03369140625</ele>
        <time>2009-09-10T08:23:37Z</time>
      </trkpt>
      <trkpt lat="45.94673" lon="4.58281">
        <ele>536.55310058594</ele>
        <time>2009-09-10T08:23:40Z</time>
      </trkpt>
      <trkpt lat="45.94685" lon="4.58289">
        <ele>535.11096191406</ele>
        <time>2009-09-10T08:23:44Z</time>
      </trkpt>
      <trkpt lat="45.94722" lon="4.58305">
        <ele>532.22705078125</ele>
        <time>2009-09-10T08:23:50Z</time>
      </trkpt>
      <trkpt lat="45.94767" lon="4.58328">
        <ele>531.26574707031</ele>
        <time>2009-09-10T08:23:57Z</time>
      </trkpt>
      <trkpt lat="45.94778" lon="4.58335">
        <ele>530.78515625</ele>
        <time>2009-09-10T08:23:59Z</time>
      </trkpt>
      <trkpt lat="45.94807" lon="4.58351">
        <ele>531.74633789062</ele>
        <time>2009-09-10T08:24:05Z</time>
      </trkpt>
      <trkpt lat="45.94835" lon="4.5836">
        <ele>531.74633789062</ele>
        <time>2009-09-10T08:24:12Z</time>
      </trkpt>
      <trkpt lat="45.94847" lon="4.58364">
        <ele>531.26574707031</ele>
        <time>2009-09-10T08:24:15Z</time>
      </trkpt>
      <trkpt lat="45.94875" lon="4.58365">
        <ele>530.30444335938</ele>
        <time>2009-09-10T08:24:21Z</time>
      </trkpt>
      <trkpt lat="45.94897" lon="4.5837">
        <ele>531.26574707031</ele>
        <time>2009-09-10T08:24:27Z</time>
      </trkpt>
      <trkpt lat="45.949" lon="4.58381">
        <ele>530.78515625</ele>
        <time>2009-09-10T08:24:31Z</time>
      </trkpt>
      <trkpt lat="45.94896" lon="4.58387">
        <ele>531.26574707031</ele>
        <time>2009-09-10T08:24:35Z</time>
      </trkpt>
      <trkpt lat="45.94895" lon="4.58385">
        <ele>531.26574707031</ele>
        <time>2009-09-10T08:24:40Z</time>
      </trkpt>
      <trkpt lat="45.94895" lon="4.58384">
        <ele>531.26574707031</ele>
        <time>2009-09-10T08:24:48Z</time>
      </trkpt>
      <trkpt lat="45.94901" lon="4.58393">
        <ele>530.78515625</ele>
        <time>2009-09-10T08:24:53Z</time>
      </trkpt>
      <trkpt lat="45.94901" lon="4.584">
        <ele>529.82373046875</ele>
        <time>2009-09-10T08:24:55Z</time>
      </trkpt>
      <trkpt lat="45.94903" lon="4.58434">
        <ele>529.34313964844</ele>
        <time>2009-09-10T08:25:02Z</time>
      </trkpt>
      <trkpt lat="45.94905" lon="4.58467">
        <ele>528.86254882812</ele>
        <time>2009-09-10T08:25:08Z</time>
      </trkpt>
      <trkpt lat="45.94909" lon="4.58483">
        <ele>529.34313964844</ele>
        <time>2009-09-10T08:25:11Z</time>
      </trkpt>
      <trkpt lat="45.9493" lon="4.58542">
        <ele>528.86254882812</ele>
        <time>2009-09-10T08:25:22Z</time>
      </trkpt>
      <trkpt lat="45.94943" lon="4.58586">
        <ele>528.3818359375</ele>
        <time>2009-09-10T08:25:30Z</time>
      </trkpt>
      <trkpt lat="45.9495" lon="4.58625">
        <ele>528.86254882812</ele>
        <time>2009-09-10T08:25:37Z</time>
      </trkpt>
      <trkpt lat="45.9495" lon="4.5867">
        <ele>529.34313964844</ele>
        <time>2009-09-10T08:25:45Z</time>
      </trkpt>
      <trkpt lat="45.9495" lon="4.58676">
        <ele>529.34313964844</ele>
        <time>2009-09-10T08:25:46Z</time>
      </trkpt>
      <trkpt lat="45.94947" lon="4.58694">
        <ele>528.86254882812</ele>
        <time>2009-09-10T08:25:49Z</time>
      </trkpt>
      <trkpt lat="45.94942" lon="4.58712">
        <ele>529.34313964844</ele>
        <time>2009-09-10T08:25:52Z</time>
      </trkpt>
      <trkpt lat="45.94931" lon="4.58734">
        <ele>528.86254882812</ele>
        <time>2009-09-10T08:25:56Z</time>
      </trkpt>
      <trkpt lat="45.94921" lon="4.58749">
        <ele>529.34313964844</ele>
        <time>2009-09-10T08:25:59Z</time>
      </trkpt>
      <trkpt lat="45.94891" lon="4.5879">
        <ele>529.34313964844</ele>
        <time>2009-09-10T08:26:09Z</time>
      </trkpt>
      <trkpt lat="45.94875" lon="4.58808">
        <ele>530.78515625</ele>
        <time>2009-09-10T08:26:15Z</time>
      </trkpt>
      <trkpt lat="45.9486" lon="4.58839">
        <ele>532.22705078125</ele>
        <time>2009-09-10T08:26:24Z</time>
      </trkpt>
      <trkpt lat="45.94852" lon="4.58851">
        <ele>532.70776367188</ele>
        <time>2009-09-10T08:26:28Z</time>
      </trkpt>
      <trkpt lat="45.9484" lon="4.58887">
        <ele>534.14965820312</ele>
        <time>2009-09-10T08:26:37Z</time>
      </trkpt>
      <trkpt lat="45.94834" lon="4.58913">
        <ele>534.63037109375</ele>
        <time>2009-09-10T08:26:43Z</time>
      </trkpt>
      <trkpt lat="45.94822" lon="4.58951">
        <ele>535.59155273438</ele>
        <time>2009-09-10T08:26:52Z</time>
      </trkpt>
      <trkpt lat="45.94815" lon="4.58986">
        <ele>536.07238769531</ele>
        <time>2009-09-10T08:26:59Z</time>
      </trkpt>
      <trkpt lat="45.94806" lon="4.59021">
        <ele>536.07238769531</ele>
        <time>2009-09-10T08:27:05Z</time>
      </trkpt>
      <trkpt lat="45.94793" lon="4.59076">
        <ele>536.07238769531</ele>
        <time>2009-09-10T08:27:13Z</time>
      </trkpt>
      <trkpt lat="45.94777" lon="4.5914">
        <ele>536.55310058594</ele>
        <time>2009-09-10T08:27:22Z</time>
      </trkpt>
      <trkpt lat="45.94765" lon="4.59192">
        <ele>536.55310058594</ele>
        <time>2009-09-10T08:27:29Z</time>
      </trkpt>
      <trkpt lat="45.94749" lon="4.5926">
        <ele>536.55310058594</ele>
        <time>2009-09-10T08:27:38Z</time>
      </trkpt>
      <trkpt lat="45.94732" lon="4.5933">
        <ele>537.51428222656</ele>
        <time>2009-09-10T08:27:48Z</time>
      </trkpt>
      <trkpt lat="45.94725" lon="4.59371">
        <ele>538.47570800781</ele>
        <time>2009-09-10T08:27:55Z</time>
      </trkpt>
      <trkpt lat="45.94717" lon="4.59384">
        <ele>538.47570800781</ele>
        <time>2009-09-10T08:27:59Z</time>
      </trkpt>
      <trkpt lat="45.94703" lon="4.59385">
        <ele>537.51428222656</ele>
        <time>2009-09-10T08:28:03Z</time>
      </trkpt>
      <trkpt lat="45.94685" lon="4.59389">
        <ele>537.03369140625</ele>
        <time>2009-09-10T08:28:08Z</time>
      </trkpt>
      <trkpt lat="45.94654" lon="4.59401">
        <ele>536.55310058594</ele>
        <time>2009-09-10T08:28:15Z</time>
      </trkpt>
      <trkpt lat="45.94624" lon="4.59413">
        <ele>536.55310058594</ele>
        <time>2009-09-10T08:28:21Z</time>
      </trkpt>
      <trkpt lat="45.94584" lon="4.59445">
        <ele>535.59155273438</ele>
        <time>2009-09-10T08:28:29Z</time>
      </trkpt>
      <trkpt lat="45.94547" lon="4.59473">
        <ele>533.18835449219</ele>
        <time>2009-09-10T08:28:35Z</time>
      </trkpt>
      <trkpt lat="45.94526" lon="4.5949">
        <ele>531.26574707031</ele>
        <time>2009-09-10T08:28:38Z</time>
      </trkpt>
      <trkpt lat="45.94488" lon="4.59515">
        <ele>529.82373046875</ele>
        <time>2009-09-10T08:28:43Z</time>
      </trkpt>
      <trkpt lat="45.9445" lon="4.59538">
        <ele>529.82373046875</ele>
        <time>2009-09-10T08:28:49Z</time>
      </trkpt>
      <trkpt lat="45.94422" lon="4.59557">
        <ele>530.30444335938</ele>
        <time>2009-09-10T08:28:55Z</time>
      </trkpt>
      <trkpt lat="45.94401" lon="4.59579">
        <ele>532.22705078125</ele>
        <time>2009-09-10T08:29:02Z</time>
      </trkpt>
      <trkpt lat="45.94382" lon="4.59603">
        <ele>533.18835449219</ele>
        <time>2009-09-10T08:29:09Z</time>
      </trkpt>
      <trkpt lat="45.94359" lon="4.59629">
        <ele>533.18835449219</ele>
        <time>2009-09-10T08:29:17Z</time>
      </trkpt>
      <trkpt lat="45.94341" lon="4.59658">
        <ele>533.6689453125</ele>
        <time>2009-09-10T08:29:24Z</time>
      </trkpt>
      <trkpt lat="45.94321" lon="4.59704">
        <ele>533.18835449219</ele>
        <time>2009-09-10T08:29:33Z</time>
      </trkpt>
      <trkpt lat="45.94315" lon="4.5972">
        <ele>533.6689453125</ele>
        <time>2009-09-10T08:29:36Z</time>
      </trkpt>
      <trkpt lat="45.94304" lon="4.59758">
        <ele>533.6689453125</ele>
        <time>2009-09-10T08:29:43Z</time>
      </trkpt>
      <trkpt lat="45.94297" lon="4.5978">
        <ele>535.11096191406</ele>
        <time>2009-09-10T08:29:48Z</time>
      </trkpt>
      <trkpt lat="45.94287" lon="4.59811">
        <ele>535.59155273438</ele>
        <time>2009-09-10T08:29:55Z</time>
      </trkpt>
      <trkpt lat="45.94281" lon="4.59825">
        <ele>535.11096191406</ele>
        <time>2009-09-10T08:29:58Z</time>
      </trkpt>
      <trkpt lat="45.94257" lon="4.59861">
        <ele>532.70776367188</ele>
        <time>2009-09-10T08:30:05Z</time>
      </trkpt>
      <trkpt lat="45.94241" lon="4.59883">
        <ele>531.26574707031</ele>
        <time>2009-09-10T08:30:09Z</time>
      </trkpt>
      <trkpt lat="45.94223" lon="4.5992">
        <ele>528.86254882812</ele>
        <time>2009-09-10T08:30:14Z</time>
      </trkpt>
      <trkpt lat="45.94216" lon="4.59935">
        <ele>527.90100097656</ele>
        <time>2009-09-10T08:30:16Z</time>
      </trkpt>
      <trkpt lat="45.94202" lon="4.59955">
        <ele>526.93981933594</ele>
        <time>2009-09-10T08:30:19Z</time>
      </trkpt>
      <trkpt lat="45.94187" lon="4.59991">
        <ele>523.09460449219</ele>
        <time>2009-09-10T08:30:24Z</time>
      </trkpt>
      <trkpt lat="45.94174" lon="4.60007">
        <ele>520.69128417969</ele>
        <time>2009-09-10T08:30:27Z</time>
      </trkpt>
      <trkpt lat="45.94144" lon="4.60031">
        <ele>516.365234375</ele>
        <time>2009-09-10T08:30:31Z</time>
      </trkpt>
      <trkpt lat="45.94116" lon="4.60057">
        <ele>513.00073242188</ele>
        <time>2009-09-10T08:30:34Z</time>
      </trkpt>
      <trkpt lat="45.94065" lon="4.60093">
        <ele>511.07800292969</ele>
        <time>2009-09-10T08:30:39Z</time>
      </trkpt>
      <trkpt lat="45.9403" lon="4.60123">
        <ele>510.11669921875</ele>
        <time>2009-09-10T08:30:43Z</time>
      </trkpt>
      <trkpt lat="45.93992" lon="4.60141">
        <ele>510.59729003906</ele>
        <time>2009-09-10T08:30:48Z</time>
      </trkpt>
      <trkpt lat="45.93959" lon="4.60151">
        <ele>512.03942871094</ele>
        <time>2009-09-10T08:30:55Z</time>
      </trkpt>
      <trkpt lat="45.93935" lon="4.60162">
        <ele>513.00073242188</ele>
        <time>2009-09-10T08:31:01Z</time>
      </trkpt>
      <trkpt lat="45.93913" lon="4.60175">
        <ele>513.00073242188</ele>
        <time>2009-09-10T08:31:07Z</time>
      </trkpt>
      <trkpt lat="45.93884" lon="4.60189">
        <ele>513.00073242188</ele>
        <time>2009-09-10T08:31:14Z</time>
      </trkpt>
      <trkpt lat="45.93861" lon="4.60198">
        <ele>513.4814453125</ele>
        <time>2009-09-10T08:31:19Z</time>
      </trkpt>
      <trkpt lat="45.93845" lon="4.60207">
        <ele>513.96203613281</ele>
        <time>2009-09-10T08:31:23Z</time>
      </trkpt>
      <trkpt lat="45.93814" lon="4.60217">
        <ele>514.44262695312</ele>
        <time>2009-09-10T08:31:31Z</time>
      </trkpt>
      <trkpt lat="45.93785" lon="4.60225">
        <ele>515.88464355469</ele>
        <time>2009-09-10T08:31:39Z</time>
      </trkpt>
      <trkpt lat="45.9376" lon="4.6023">
        <ele>516.365234375</ele>
        <time>2009-09-10T08:31:47Z</time>
      </trkpt>
      <trkpt lat="45.93736" lon="4.60238">
        <ele>517.80725097656</ele>
        <time>2009-09-10T08:31:55Z</time>
      </trkpt>
      <trkpt lat="45.93712" lon="4.60248">
        <ele>518.7685546875</ele>
        <time>2009-09-10T08:32:04Z</time>
      </trkpt>
      <trkpt lat="45.93694" lon="4.60252">
        <ele>519.24926757812</ele>
        <time>2009-09-10T08:32:10Z</time>
      </trkpt>
      <trkpt lat="45.93666" lon="4.60253">
        <ele>520.21057128906</ele>
        <time>2009-09-10T08:32:19Z</time>
      </trkpt>
      <trkpt lat="45.93645" lon="4.60255">
        <ele>521.17199707031</ele>
        <time>2009-09-10T08:32:26Z</time>
      </trkpt>
      <trkpt lat="45.93616" lon="4.60256">
        <ele>521.17199707031</ele>
        <time>2009-09-10T08:32:34Z</time>
      </trkpt>
      <trkpt lat="45.93588" lon="4.60263">
        <ele>521.17199707031</ele>
        <time>2009-09-10T08:32:41Z</time>
      </trkpt>
      <trkpt lat="45.93554" lon="4.60264">
        <ele>521.65258789062</ele>
        <time>2009-09-10T08:32:49Z</time>
      </trkpt>
      <trkpt lat="45.93514" lon="4.60265">
        <ele>521.65258789062</ele>
        <time>2009-09-10T08:32:58Z</time>
      </trkpt>
      <trkpt lat="45.935" lon="4.60265">
        <ele>521.65258789062</ele>
        <time>2009-09-10T08:33:01Z</time>
      </trkpt>
      <trkpt lat="45.93483" lon="4.60268">
        <ele>521.65258789062</ele>
        <time>2009-09-10T08:33:05Z</time>
      </trkpt>
      <trkpt lat="45.93463" lon="4.60271">
        <ele>521.17199707031</ele>
        <time>2009-09-10T08:33:09Z</time>
      </trkpt>
      <trkpt lat="45.93418" lon="4.60287">
        <ele>520.21057128906</ele>
        <time>2009-09-10T08:33:18Z</time>
      </trkpt>
      <trkpt lat="45.93384" lon="4.60298">
        <ele>519.24926757812</ele>
        <time>2009-09-10T08:33:25Z</time>
      </trkpt>
      <trkpt lat="45.93359" lon="4.60306">
        <ele>520.21057128906</ele>
        <time>2009-09-10T08:33:30Z</time>
      </trkpt>
      <trkpt lat="45.9333" lon="4.60314">
        <ele>520.21057128906</ele>
        <time>2009-09-10T08:33:36Z</time>
      </trkpt>
      <trkpt lat="45.93301" lon="4.60325">
        <ele>521.17199707031</ele>
        <time>2009-09-10T08:33:43Z</time>
      </trkpt>
      <trkpt lat="45.9327" lon="4.60335">
        <ele>524.05578613281</ele>
        <time>2009-09-10T08:33:52Z</time>
      </trkpt>
      <trkpt lat="45.93245" lon="4.60343">
        <ele>525.97839355469</ele>
        <time>2009-09-10T08:33:59Z</time>
      </trkpt>
      <trkpt lat="45.93224" lon="4.60352">
        <ele>527.42041015625</ele>
        <time>2009-09-10T08:34:05Z</time>
      </trkpt>
      <trkpt lat="45.93204" lon="4.60369">
        <ele>527.42041015625</ele>
        <time>2009-09-10T08:34:12Z</time>
      </trkpt>
      <trkpt lat="45.93188" lon="4.60388">
        <ele>526.45910644531</ele>
        <time>2009-09-10T08:34:18Z</time>
      </trkpt>
      <trkpt lat="45.93188" lon="4.60391">
        <ele>525.97839355469</ele>
        <time>2009-09-10T08:34:21Z</time>
      </trkpt>
      <trkpt lat="45.93196" lon="4.60383">
        <ele>526.45910644531</ele>
        <time>2009-09-10T08:34:26Z</time>
      </trkpt>
      <trkpt lat="45.93198" lon="4.60381">
        <ele>526.45910644531</ele>
        <time>2009-09-10T08:34:27Z</time>
      </trkpt>
      <trkpt lat="45.93212" lon="4.60367">
        <ele>527.42041015625</ele>
        <time>2009-09-10T08:34:34Z</time>
      </trkpt>
      <trkpt lat="45.93213" lon="4.60358">
        <ele>527.42041015625</ele>
        <time>2009-09-10T08:34:38Z</time>
      </trkpt>
      <trkpt lat="45.93205" lon="4.60359">
        <ele>527.90100097656</ele>
        <time>2009-09-10T08:34:41Z</time>
      </trkpt>
      <trkpt lat="45.93182" lon="4.60366">
        <ele>527.90100097656</ele>
        <time>2009-09-10T08:34:49Z</time>
      </trkpt>
      <trkpt lat="45.93158" lon="4.60372">
        <ele>527.90100097656</ele>
        <time>2009-09-10T08:34:56Z</time>
      </trkpt>
      <trkpt lat="45.93136" lon="4.60382">
        <ele>527.90100097656</ele>
        <time>2009-09-10T08:35:03Z</time>
      </trkpt>
      <trkpt lat="45.93124" lon="4.60386">
        <ele>527.42041015625</ele>
        <time>2009-09-10T08:35:08Z</time>
      </trkpt>
      <trkpt lat="45.93106" lon="4.60393">
        <ele>526.45910644531</ele>
        <time>2009-09-10T08:35:16Z</time>
      </trkpt>
      <trkpt lat="45.93094" lon="4.60398">
        <ele>525.49780273438</ele>
        <time>2009-09-10T08:35:22Z</time>
      </trkpt>
      <trkpt lat="45.93092" lon="4.60397">
        <ele>525.49780273438</ele>
        <time>2009-09-10T08:35:27Z</time>
      </trkpt>
      <trkpt lat="45.93092" lon="4.60397">
        <ele>525.49780273438</ele>
        <time>2009-09-10T08:35:55Z</time>
      </trkpt>
      <trkpt lat="45.93086" lon="4.60393">
        <ele>523.5751953125</ele>
        <time>2009-09-10T08:36:02Z</time>
      </trkpt>
      <trkpt lat="45.93082" lon="4.60393">
        <ele>523.09460449219</ele>
        <time>2009-09-10T08:36:08Z</time>
      </trkpt>
      <trkpt lat="45.93076" lon="4.60392">
        <ele>522.13317871094</ele>
        <time>2009-09-10T08:36:24Z</time>
      </trkpt>
      <trkpt lat="45.93063" lon="4.6039">
        <ele>519.24926757812</ele>
        <time>2009-09-10T08:36:29Z</time>
      </trkpt>
      <trkpt lat="45.93053" lon="4.60389">
        <ele>515.40405273438</ele>
        <time>2009-09-10T08:36:33Z</time>
      </trkpt>
      <trkpt lat="45.93042" lon="4.60385">
        <ele>513.4814453125</ele>
        <time>2009-09-10T08:36:38Z</time>
      </trkpt>
      <trkpt lat="45.93036" lon="4.60385">
        <ele>510.11669921875</ele>
        <time>2009-09-10T08:36:41Z</time>
      </trkpt>
      <trkpt lat="45.93032" lon="4.60384">
        <ele>509.15539550781</ele>
        <time>2009-09-10T08:36:43Z</time>
      </trkpt>
      <trkpt lat="45.93023" lon="4.60383">
        <ele>505.31018066406</ele>
        <time>2009-09-10T08:36:47Z</time>
      </trkpt>
      <trkpt lat="45.93018" lon="4.60387">
        <ele>503.8681640625</ele>
        <time>2009-09-10T08:36:50Z</time>
      </trkpt>
      <trkpt lat="45.93008" lon="4.60393">
        <ele>498.58093261719</ele>
        <time>2009-09-10T08:36:56Z</time>
      </trkpt>
      <trkpt lat="45.93" lon="4.60396">
        <ele>495.21618652344</ele>
        <time>2009-09-10T08:36:59Z</time>
      </trkpt>
      <trkpt lat="45.92994" lon="4.60404">
        <ele>493.29357910156</ele>
        <time>2009-09-10T08:37:02Z</time>
      </trkpt>
      <trkpt lat="45.92991" lon="4.60415">
        <ele>492.33239746094</ele>
        <time>2009-09-10T08:37:04Z</time>
      </trkpt>
      <trkpt lat="45.92988" lon="4.60447">
        <ele>488.9677734375</ele>
        <time>2009-09-10T08:37:08Z</time>
      </trkpt>
      <trkpt lat="45.92979" lon="4.60464">
        <ele>486.08374023438</ele>
        <time>2009-09-10T08:37:12Z</time>
      </trkpt>
      <trkpt lat="45.92974" lon="4.60461">
        <ele>484.64184570312</ele>
        <time>2009-09-10T08:37:13Z</time>
      </trkpt>
      <trkpt lat="45.9295" lon="4.60443">
        <ele>480.79663085938</ele>
        <time>2009-09-10T08:37:18Z</time>
      </trkpt>
      <trkpt lat="45.92936" lon="4.60433">
        <ele>477.43188476562</ele>
        <time>2009-09-10T08:37:20Z</time>
      </trkpt>
      <trkpt lat="45.92929" lon="4.60428">
        <ele>477.43188476562</ele>
        <time>2009-09-10T08:37:21Z</time>
      </trkpt>
      <trkpt lat="45.92907" lon="4.6041">
        <ele>474.06726074219</ele>
        <time>2009-09-10T08:37:24Z</time>
      </trkpt>
      <trkpt lat="45.92892" lon="4.60397">
        <ele>472.62536621094</ele>
        <time>2009-09-10T08:37:26Z</time>
      </trkpt>
      <trkpt lat="45.92856" lon="4.60365">
        <ele>468.78002929688</ele>
        <time>2009-09-10T08:37:31Z</time>
      </trkpt>
      <trkpt lat="45.92844" lon="4.60355">
        <ele>468.29931640625</ele>
        <time>2009-09-10T08:37:33Z</time>
      </trkpt>
      <trkpt lat="45.92831" lon="4.60336">
        <ele>467.33813476562</ele>
        <time>2009-09-10T08:37:37Z</time>
      </trkpt>
      <trkpt lat="45.92828" lon="4.60332">
        <ele>467.33813476562</ele>
        <time>2009-09-10T08:37:41Z</time>
      </trkpt>
      <trkpt lat="45.92829" lon="4.60333">
        <ele>467.33813476562</ele>
        <time>2009-09-10T08:37:58Z</time>
      </trkpt>
      <trkpt lat="45.92828" lon="4.60333">
        <ele>467.33813476562</ele>
        <time>2009-09-10T08:38:00Z</time>
      </trkpt>
      <trkpt lat="45.92815" lon="4.60333">
        <ele>466.857421875</ele>
        <time>2009-09-10T08:38:06Z</time>
      </trkpt>
      <trkpt lat="45.92803" lon="4.60336">
        <ele>465.41552734375</ele>
        <time>2009-09-10T08:38:09Z</time>
      </trkpt>
      <trkpt lat="45.9278" lon="4.6034">
        <ele>463.97338867188</ele>
        <time>2009-09-10T08:38:15Z</time>
      </trkpt>
      <trkpt lat="45.92767" lon="4.60346">
        <ele>463.01208496094</ele>
        <time>2009-09-10T08:38:21Z</time>
      </trkpt>
      <trkpt lat="45.92756" lon="4.60357">
        <ele>461.57019042969</ele>
        <time>2009-09-10T08:38:27Z</time>
      </trkpt>
      <trkpt lat="45.92747" lon="4.60367">
        <ele>460.60876464844</ele>
        <time>2009-09-10T08:38:32Z</time>
      </trkpt>
      <trkpt lat="45.92744" lon="4.60369">
        <ele>460.12817382812</ele>
        <time>2009-09-10T08:38:33Z</time>
      </trkpt>
      <trkpt lat="45.92729" lon="4.60389">
        <ele>459.16687011719</ele>
        <time>2009-09-10T08:38:37Z</time>
      </trkpt>
      <trkpt lat="45.92703" lon="4.60418">
        <ele>456.76354980469</ele>
        <time>2009-09-10T08:38:42Z</time>
      </trkpt>
      <trkpt lat="45.92671" lon="4.60448">
        <ele>454.36022949219</ele>
        <time>2009-09-10T08:38:47Z</time>
      </trkpt>
      <trkpt lat="45.92657" lon="4.60463">
        <ele>452.91821289062</ele>
        <time>2009-09-10T08:38:49Z</time>
      </trkpt>
      <trkpt lat="45.92637" lon="4.60485">
        <ele>449.5537109375</ele>
        <time>2009-09-10T08:38:52Z</time>
      </trkpt>
      <trkpt lat="45.92631" lon="4.60491">
        <ele>449.5537109375</ele>
        <time>2009-09-10T08:38:53Z</time>
      </trkpt>
      <trkpt lat="45.92625" lon="4.60498">
        <ele>448.11181640625</ele>
        <time>2009-09-10T08:38:54Z</time>
      </trkpt>
      <trkpt lat="45.92611" lon="4.6052">
        <ele>446.18908691406</ele>
        <time>2009-09-10T08:38:57Z</time>
      </trkpt>
      <trkpt lat="45.92606" lon="4.60528">
        <ele>444.7470703125</ele>
        <time>2009-09-10T08:38:59Z</time>
      </trkpt>
      <trkpt lat="45.92585" lon="4.60544">
        <ele>442.34387207031</ele>
        <time>2009-09-10T08:39:05Z</time>
      </trkpt>
      <trkpt lat="45.92569" lon="4.60561">
        <ele>439.9404296875</ele>
        <time>2009-09-10T08:39:09Z</time>
      </trkpt>
      <trkpt lat="45.92564" lon="4.60568">
        <ele>439.45971679688</ele>
        <time>2009-09-10T08:39:10Z</time>
      </trkpt>
      <trkpt lat="45.92546" lon="4.60606">
        <ele>436.57592773438</ele>
        <time>2009-09-10T08:39:14Z</time>
      </trkpt>
      <trkpt lat="45.92521" lon="4.60649">
        <ele>432.73071289062</ele>
        <time>2009-09-10T08:39:18Z</time>
      </trkpt>
      <trkpt lat="45.92499" lon="4.60675">
        <ele>428.88537597656</ele>
        <time>2009-09-10T08:39:21Z</time>
      </trkpt>
      <trkpt lat="45.92493" lon="4.6068">
        <ele>428.40466308594</ele>
        <time>2009-09-10T08:39:22Z</time>
      </trkpt>
      <trkpt lat="45.92479" lon="4.60692">
        <ele>426.48205566406</ele>
        <time>2009-09-10T08:39:25Z</time>
      </trkpt>
      <trkpt lat="45.92476" lon="4.60695">
        <ele>426.48205566406</ele>
        <time>2009-09-10T08:39:26Z</time>
      </trkpt>
      <trkpt lat="45.92458" lon="4.60721">
        <ele>422.15600585938</ele>
        <time>2009-09-10T08:39:32Z</time>
      </trkpt>
      <trkpt lat="45.9245" lon="4.6075">
        <ele>420.2333984375</ele>
        <time>2009-09-10T08:39:37Z</time>
      </trkpt>
      <trkpt lat="45.92449" lon="4.60767">
        <ele>416.86889648438</ele>
        <time>2009-09-10T08:39:40Z</time>
      </trkpt>
      <trkpt lat="45.92448" lon="4.60771">
        <ele>416.86889648438</ele>
        <time>2009-09-10T08:39:41Z</time>
      </trkpt>
      <trkpt lat="45.9244" lon="4.60788">
        <ele>415.42687988281</ele>
        <time>2009-09-10T08:39:46Z</time>
      </trkpt>
      <trkpt lat="45.9244" lon="4.6079">
        <ele>415.42687988281</ele>
        <time>2009-09-10T08:39:50Z</time>
      </trkpt>
      <trkpt lat="45.9244" lon="4.60789">
        <ele>415.90747070312</ele>
        <time>2009-09-10T08:39:52Z</time>
      </trkpt>
      <trkpt lat="45.92444" lon="4.60781">
        <ele>416.38818359375</ele>
        <time>2009-09-10T08:39:56Z</time>
      </trkpt>
      <trkpt lat="45.92446" lon="4.60776">
        <ele>416.38818359375</ele>
        <time>2009-09-10T08:39:58Z</time>
      </trkpt>
      <trkpt lat="45.92458" lon="4.60779">
        <ele>417.349609375</ele>
        <time>2009-09-10T08:40:03Z</time>
      </trkpt>
      <trkpt lat="45.9246" lon="4.60782">
        <ele>417.349609375</ele>
        <time>2009-09-10T08:40:04Z</time>
      </trkpt>
      <trkpt lat="45.92483" lon="4.6081">
        <ele>418.31079101562</ele>
        <time>2009-09-10T08:40:14Z</time>
      </trkpt>
      <trkpt lat="45.92493" lon="4.60836">
        <ele>418.79150390625</ele>
        <time>2009-09-10T08:40:21Z</time>
      </trkpt>
      <trkpt lat="45.92501" lon="4.60872">
        <ele>419.75280761719</ele>
        <time>2009-09-10T08:40:30Z</time>
      </trkpt>
      <trkpt lat="45.92501" lon="4.60907">
        <ele>421.19482421875</ele>
        <time>2009-09-10T08:40:38Z</time>
      </trkpt>
      <trkpt lat="45.92496" lon="4.60951">
        <ele>421.19482421875</ele>
        <time>2009-09-10T08:40:48Z</time>
      </trkpt>
      <trkpt lat="45.92491" lon="4.60979">
        <ele>422.63671875</ele>
        <time>2009-09-10T08:40:55Z</time>
      </trkpt>
      <trkpt lat="45.92489" lon="4.60988">
        <ele>423.11743164062</ele>
        <time>2009-09-10T08:40:59Z</time>
      </trkpt>
      <trkpt lat="45.92485" lon="4.60991">
        <ele>422.63671875</ele>
        <time>2009-09-10T08:41:03Z</time>
      </trkpt>
      <trkpt lat="45.92478" lon="4.60997">
        <ele>423.11743164062</ele>
        <time>2009-09-10T08:41:09Z</time>
      </trkpt>
      <trkpt lat="45.9246" lon="4.61007">
        <ele>424.55944824219</ele>
        <time>2009-09-10T08:41:17Z</time>
      </trkpt>
      <trkpt lat="45.92442" lon="4.61019">
        <ele>425.52075195312</ele>
        <time>2009-09-10T08:41:26Z</time>
      </trkpt>
      <trkpt lat="45.92434" lon="4.6103">
        <ele>426.00134277344</ele>
        <time>2009-09-10T08:41:32Z</time>
      </trkpt>
      <trkpt lat="45.92426" lon="4.61046">
        <ele>427.443359375</ele>
        <time>2009-09-10T08:41:39Z</time>
      </trkpt>
      <trkpt lat="45.92424" lon="4.61053">
        <ele>426.96276855469</ele>
        <time>2009-09-10T08:41:44Z</time>
      </trkpt>
      <trkpt lat="45.92419" lon="4.61063">
        <ele>427.92395019531</ele>
        <time>2009-09-10T08:41:50Z</time>
      </trkpt>
      <trkpt lat="45.9241" lon="4.6108">
        <ele>427.443359375</ele>
        <time>2009-09-10T08:41:56Z</time>
      </trkpt>
      <trkpt lat="45.92401" lon="4.61097">
        <ele>427.443359375</ele>
        <time>2009-09-10T08:42:01Z</time>
      </trkpt>
      <trkpt lat="45.92383" lon="4.61124">
        <ele>425.52075195312</ele>
        <time>2009-09-10T08:42:08Z</time>
      </trkpt>
      <trkpt lat="45.92374" lon="4.61154">
        <ele>424.07873535156</ele>
        <time>2009-09-10T08:42:13Z</time>
      </trkpt>
      <trkpt lat="45.92358" lon="4.61194">
        <ele>421.19482421875</ele>
        <time>2009-09-10T08:42:19Z</time>
      </trkpt>
      <trkpt lat="45.92343" lon="4.61213">
        <ele>420.71411132812</ele>
        <time>2009-09-10T08:42:23Z</time>
      </trkpt>
      <trkpt lat="45.92339" lon="4.61216">
        <ele>421.19482421875</ele>
        <time>2009-09-10T08:42:24Z</time>
      </trkpt>
      <trkpt lat="45.92322" lon="4.61232">
        <ele>420.71411132812</ele>
        <time>2009-09-10T08:42:29Z</time>
      </trkpt>
      <trkpt lat="45.92315" lon="4.61248">
        <ele>420.2333984375</ele>
        <time>2009-09-10T08:42:32Z</time>
      </trkpt>
      <trkpt lat="45.92289" lon="4.61287">
        <ele>417.83020019531</ele>
        <time>2009-09-10T08:42:39Z</time>
      </trkpt>
      <trkpt lat="45.92265" lon="4.61337">
        <ele>415.42687988281</ele>
        <time>2009-09-10T08:42:45Z</time>
      </trkpt>
      <trkpt lat="45.92239" lon="4.61398">
        <ele>413.98486328125</ele>
        <time>2009-09-10T08:42:52Z</time>
      </trkpt>
      <trkpt lat="45.9222" lon="4.61433">
        <ele>413.02355957031</ele>
        <time>2009-09-10T08:42:57Z</time>
      </trkpt>
      <trkpt lat="45.92203" lon="4.61458">
        <ele>411.10095214844</ele>
        <time>2009-09-10T08:43:01Z</time>
      </trkpt>
      <trkpt lat="45.92175" lon="4.61495">
        <ele>410.62023925781</ele>
        <time>2009-09-10T08:43:07Z</time>
      </trkpt>
      <trkpt lat="45.92147" lon="4.6153">
        <ele>409.17834472656</ele>
        <time>2009-09-10T08:43:13Z</time>
      </trkpt>
      <trkpt lat="45.9213" lon="4.61545">
        <ele>407.25561523438</ele>
        <time>2009-09-10T08:43:16Z</time>
      </trkpt>
      <trkpt lat="45.92124" lon="4.61549">
        <ele>406.29431152344</ele>
        <time>2009-09-10T08:43:17Z</time>
      </trkpt>
      <trkpt lat="45.92104" lon="4.61557">
        <ele>402.44909667969</ele>
        <time>2009-09-10T08:43:20Z</time>
      </trkpt>
      <trkpt lat="45.92081" lon="4.61572">
        <ele>400.0458984375</ele>
        <time>2009-09-10T08:43:23Z</time>
      </trkpt>
      <trkpt lat="45.92056" lon="4.61608">
        <ele>397.64245605469</ele>
        <time>2009-09-10T08:43:27Z</time>
      </trkpt>
      <trkpt lat="45.92034" lon="4.61641">
        <ele>396.68115234375</ele>
        <time>2009-09-10T08:43:31Z</time>
      </trkpt>
      <trkpt lat="45.92022" lon="4.61655">
        <ele>395.71984863281</ele>
        <time>2009-09-10T08:43:34Z</time>
      </trkpt>
      <trkpt lat="45.92016" lon="4.61653">
        <ele>395.71984863281</ele>
        <time>2009-09-10T08:43:38Z</time>
      </trkpt>
      <trkpt lat="45.92007" lon="4.61651">
        <ele>396.68115234375</ele>
        <time>2009-09-10T08:43:44Z</time>
      </trkpt>
      <trkpt lat="45.91994" lon="4.61658">
        <ele>394.75854492188</ele>
        <time>2009-09-10T08:43:50Z</time>
      </trkpt>
      <trkpt lat="45.91986" lon="4.61678">
        <ele>393.31652832031</ele>
        <time>2009-09-10T08:43:54Z</time>
      </trkpt>
      <trkpt lat="45.91983" lon="4.61693">
        <ele>391.39379882812</ele>
        <time>2009-09-10T08:43:56Z</time>
      </trkpt>
      <trkpt lat="45.91976" lon="4.61713">
        <ele>389.47119140625</ele>
        <time>2009-09-10T08:43:59Z</time>
      </trkpt>
      <trkpt lat="45.91974" lon="4.61729">
        <ele>387.54858398438</ele>
        <time>2009-09-10T08:44:01Z</time>
      </trkpt>
      <trkpt lat="45.91974" lon="4.61745">
        <ele>385.6259765625</ele>
        <time>2009-09-10T08:44:03Z</time>
      </trkpt>
      <trkpt lat="45.91973" lon="4.61761">
        <ele>383.70324707031</ele>
        <time>2009-09-10T08:44:05Z</time>
      </trkpt>
      <trkpt lat="45.9196" lon="4.61794">
        <ele>379.37744140625</ele>
        <time>2009-09-10T08:44:09Z</time>
      </trkpt>
      <trkpt lat="45.91944" lon="4.6182">
        <ele>377.93542480469</ele>
        <time>2009-09-10T08:44:12Z</time>
      </trkpt>
      <trkpt lat="45.91926" lon="4.61845">
        <ele>374.57080078125</ele>
        <time>2009-09-10T08:44:15Z</time>
      </trkpt>
      <trkpt lat="45.91913" lon="4.6186">
        <ele>373.60949707031</ele>
        <time>2009-09-10T08:44:17Z</time>
      </trkpt>
      <trkpt lat="45.91899" lon="4.61874">
        <ele>372.16748046875</ele>
        <time>2009-09-10T08:44:19Z</time>
      </trkpt>
      <trkpt lat="45.91878" lon="4.61889">
        <ele>370.24487304688</ele>
        <time>2009-09-10T08:44:22Z</time>
      </trkpt>
      <trkpt lat="45.91842" lon="4.61914">
        <ele>368.322265625</ele>
        <time>2009-09-10T08:44:27Z</time>
      </trkpt>
      <trkpt lat="45.91823" lon="4.61928">
        <ele>367.36096191406</ele>
        <time>2009-09-10T08:44:30Z</time>
      </trkpt>
      <trkpt lat="45.91805" lon="4.61937">
        <ele>365.9189453125</ele>
        <time>2009-09-10T08:44:33Z</time>
      </trkpt>
      <trkpt lat="45.91799" lon="4.61941">
        <ele>365.43835449219</ele>
        <time>2009-09-10T08:44:34Z</time>
      </trkpt>
      <trkpt lat="45.91788" lon="4.61949">
        <ele>364.95764160156</ele>
        <time>2009-09-10T08:44:36Z</time>
      </trkpt>
      <trkpt lat="45.91778" lon="4.61955">
        <ele>363.99633789062</ele>
        <time>2009-09-10T08:44:38Z</time>
      </trkpt>
      <trkpt lat="45.91771" lon="4.61958">
        <ele>363.51574707031</ele>
        <time>2009-09-10T08:44:40Z</time>
      </trkpt>
      <trkpt lat="45.91768" lon="4.61977">
        <ele>363.51574707031</ele>
        <time>2009-09-10T08:44:45Z</time>
      </trkpt>
      <trkpt lat="45.91771" lon="4.6198">
        <ele>363.51574707031</ele>
        <time>2009-09-10T08:44:46Z</time>
      </trkpt>
      <trkpt lat="45.91805" lon="4.62009">
        <ele>361.59313964844</ele>
        <time>2009-09-10T08:44:54Z</time>
      </trkpt>
      <trkpt lat="45.91846" lon="4.6205">
        <ele>360.15112304688</ele>
        <time>2009-09-10T08:45:03Z</time>
      </trkpt>
      <trkpt lat="45.91877" lon="4.62088">
        <ele>359.67041015625</ele>
        <time>2009-09-10T08:45:10Z</time>
      </trkpt>
      <trkpt lat="45.91878" lon="4.62107">
        <ele>358.708984375</ele>
        <time>2009-09-10T08:45:13Z</time>
      </trkpt>
      <trkpt lat="45.91868" lon="4.6212">
        <ele>356.78637695312</ele>
        <time>2009-09-10T08:45:15Z</time>
      </trkpt>
      <trkpt lat="45.9184" lon="4.62154">
        <ele>352.46057128906</ele>
        <time>2009-09-10T08:45:19Z</time>
      </trkpt>
      <trkpt lat="45.91801" lon="4.62177">
        <ele>348.615234375</ele>
        <time>2009-09-10T08:45:23Z</time>
      </trkpt>
      <trkpt lat="45.9179" lon="4.62179">
        <ele>347.65393066406</ele>
        <time>2009-09-10T08:45:24Z</time>
      </trkpt>
      <trkpt lat="45.91758" lon="4.62183">
        <ele>346.21203613281</ele>
        <time>2009-09-10T08:45:27Z</time>
      </trkpt>
      <trkpt lat="45.91727" lon="4.62191">
        <ele>345.25061035156</ele>
        <time>2009-09-10T08:45:31Z</time>
      </trkpt>
      <trkpt lat="45.91694" lon="4.62194">
        <ele>343.80859375</ele>
        <time>2009-09-10T08:45:36Z</time>
      </trkpt>
      <trkpt lat="45.91671" lon="4.62192">
        <ele>342.84729003906</ele>
        <time>2009-09-10T08:45:40Z</time>
      </trkpt>
      <trkpt lat="45.91644" lon="4.62192">
        <ele>343.80859375</ele>
        <time>2009-09-10T08:45:45Z</time>
      </trkpt>
      <trkpt lat="45.91629" lon="4.62194">
        <ele>343.80859375</ele>
        <time>2009-09-10T08:45:48Z</time>
      </trkpt>
      <trkpt lat="45.91598" lon="4.6221">
        <ele>343.80859375</ele>
        <time>2009-09-10T08:45:55Z</time>
      </trkpt>
      <trkpt lat="45.91568" lon="4.62232">
        <ele>343.80859375</ele>
        <time>2009-09-10T08:46:03Z</time>
      </trkpt>
      <trkpt lat="45.91545" lon="4.62253">
        <ele>344.28942871094</ele>
        <time>2009-09-10T08:46:10Z</time>
      </trkpt>
      <trkpt lat="45.91517" lon="4.62282">
        <ele>344.28942871094</ele>
        <time>2009-09-10T08:46:18Z</time>
      </trkpt>
      <trkpt lat="45.91512" lon="4.62286">
        <ele>344.28942871094</ele>
        <time>2009-09-10T08:46:19Z</time>
      </trkpt>
      <trkpt lat="45.91484" lon="4.62308">
        <ele>344.28942871094</ele>
        <time>2009-09-10T08:46:26Z</time>
      </trkpt>
      <trkpt lat="45.91457" lon="4.62328">
        <ele>344.77001953125</ele>
        <time>2009-09-10T08:46:33Z</time>
      </trkpt>
      <trkpt lat="45.91457" lon="4.62339">
        <ele>344.28942871094</ele>
        <time>2009-09-10T08:46:37Z</time>
      </trkpt>
      <trkpt lat="45.91469" lon="4.62346">
        <ele>344.28942871094</ele>
        <time>2009-09-10T08:46:41Z</time>
      </trkpt>
      <trkpt lat="45.91488" lon="4.62358">
        <ele>342.84729003906</ele>
        <time>2009-09-10T08:46:46Z</time>
      </trkpt>
      <trkpt lat="45.91492" lon="4.6236">
        <ele>342.36669921875</ele>
        <time>2009-09-10T08:46:47Z</time>
      </trkpt>
      <trkpt lat="45.91518" lon="4.6237">
        <ele>341.88598632812</ele>
        <time>2009-09-10T08:46:52Z</time>
      </trkpt>
      <trkpt lat="45.91533" lon="4.62381">
        <ele>341.4052734375</ele>
        <time>2009-09-10T08:46:55Z</time>
      </trkpt>
      <trkpt lat="45.91551" lon="4.62398">
        <ele>339.48266601562</ele>
        <time>2009-09-10T08:46:59Z</time>
      </trkpt>
      <trkpt lat="45.91565" lon="4.62413">
        <ele>339.00207519531</ele>
        <time>2009-09-10T08:47:02Z</time>
      </trkpt>
      <trkpt lat="45.91581" lon="4.62436">
        <ele>337.07946777344</ele>
        <time>2009-09-10T08:47:06Z</time>
      </trkpt>
      <trkpt lat="45.91584" lon="4.62443">
        <ele>337.56005859375</ele>
        <time>2009-09-10T08:47:07Z</time>
      </trkpt>
      <trkpt lat="45.91603" lon="4.62472">
        <ele>336.59887695312</ele>
        <time>2009-09-10T08:47:13Z</time>
      </trkpt>
      <trkpt lat="45.91607" lon="4.62477">
        <ele>336.1181640625</ele>
        <time>2009-09-10T08:47:14Z</time>
      </trkpt>
      <trkpt lat="45.91634" lon="4.62508">
        <ele>335.63732910156</ele>
        <time>2009-09-10T08:47:20Z</time>
      </trkpt>
      <trkpt lat="45.9166" lon="4.62533">
        <ele>336.59887695312</ele>
        <time>2009-09-10T08:47:25Z</time>
      </trkpt>
      <trkpt lat="45.91664" lon="4.62563">
        <ele>337.56005859375</ele>
        <time>2009-09-10T08:47:31Z</time>
      </trkpt>
      <trkpt lat="45.91661" lon="4.6259">
        <ele>337.07946777344</ele>
        <time>2009-09-10T08:47:36Z</time>
      </trkpt>
      <trkpt lat="45.91655" lon="4.62629">
        <ele>336.1181640625</ele>
        <time>2009-09-10T08:47:42Z</time>
      </trkpt>
      <trkpt lat="45.91653" lon="4.62653">
        <ele>334.19543457031</ele>
        <time>2009-09-10T08:47:47Z</time>
      </trkpt>
      <trkpt lat="45.91649" lon="4.62667">
        <ele>334.19543457031</ele>
        <time>2009-09-10T08:47:51Z</time>
      </trkpt>
      <trkpt lat="45.91645" lon="4.62681">
        <ele>333.71472167969</ele>
        <time>2009-09-10T08:47:55Z</time>
      </trkpt>
      <trkpt lat="45.91642" lon="4.62692">
        <ele>332.75354003906</ele>
        <time>2009-09-10T08:47:58Z</time>
      </trkpt>
      <trkpt lat="45.91637" lon="4.62711">
        <ele>331.79211425781</ele>
        <time>2009-09-10T08:48:03Z</time>
      </trkpt>
      <trkpt lat="45.91636" lon="4.62738">
        <ele>329.86950683594</ele>
        <time>2009-09-10T08:48:08Z</time>
      </trkpt>
      <trkpt lat="45.91633" lon="4.62772">
        <ele>328.42761230469</ele>
        <time>2009-09-10T08:48:13Z</time>
      </trkpt>
      <trkpt lat="45.91635" lon="4.6279">
        <ele>328.42761230469</ele>
        <time>2009-09-10T08:48:16Z</time>
      </trkpt>
      <trkpt lat="45.91636" lon="4.62823">
        <ele>326.5048828125</ele>
        <time>2009-09-10T08:48:21Z</time>
      </trkpt>
      <trkpt lat="45.91641" lon="4.6286">
        <ele>324.1015625</ele>
        <time>2009-09-10T08:48:26Z</time>
      </trkpt>
      <trkpt lat="45.91642" lon="4.62876">
        <ele>324.1015625</ele>
        <time>2009-09-10T08:48:28Z</time>
      </trkpt>
      <trkpt lat="45.9163" lon="4.62886">
        <ele>323.62097167969</ele>
        <time>2009-09-10T08:48:32Z</time>
      </trkpt>
      <trkpt lat="45.91623" lon="4.62885">
        <ele>323.62097167969</ele>
        <time>2009-09-10T08:48:34Z</time>
      </trkpt>
      <trkpt lat="45.91599" lon="4.62889">
        <ele>324.1015625</ele>
        <time>2009-09-10T08:48:40Z</time>
      </trkpt>
      <trkpt lat="45.91578" lon="4.62903">
        <ele>325.54357910156</ele>
        <time>2009-09-10T08:48:46Z</time>
      </trkpt>
      <trkpt lat="45.91552" lon="4.62922">
        <ele>326.5048828125</ele>
        <time>2009-09-10T08:48:55Z</time>
      </trkpt>
      <trkpt lat="45.91524" lon="4.62938">
        <ele>326.98559570312</ele>
        <time>2009-09-10T08:49:04Z</time>
      </trkpt>
      <trkpt lat="45.91505" lon="4.62938">
        <ele>327.46618652344</ele>
        <time>2009-09-10T08:49:10Z</time>
      </trkpt>
      <trkpt lat="45.9148" lon="4.62927">
        <ele>327.94677734375</ele>
        <time>2009-09-10T08:49:19Z</time>
      </trkpt>
      <trkpt lat="45.91461" lon="4.62916">
        <ele>328.90832519531</ele>
        <time>2009-09-10T08:49:26Z</time>
      </trkpt>
      <trkpt lat="45.91439" lon="4.62906">
        <ele>329.86950683594</ele>
        <time>2009-09-10T08:49:34Z</time>
      </trkpt>
      <trkpt lat="45.91413" lon="4.62901">
        <ele>329.86950683594</ele>
        <time>2009-09-10T08:49:43Z</time>
      </trkpt>
      <trkpt lat="45.91391" lon="4.62899">
        <ele>330.83093261719</ele>
        <time>2009-09-10T08:49:50Z</time>
      </trkpt>
      <trkpt lat="45.91376" lon="4.62887">
        <ele>330.35021972656</ele>
        <time>2009-09-10T08:49:55Z</time>
      </trkpt>
      <trkpt lat="45.91356" lon="4.62855">
        <ele>330.83093261719</ele>
        <time>2009-09-10T08:50:03Z</time>
      </trkpt>
      <trkpt lat="45.91338" lon="4.62845">
        <ele>330.83093261719</ele>
        <time>2009-09-10T08:50:08Z</time>
      </trkpt>
      <trkpt lat="45.91309" lon="4.62832">
        <ele>330.83093261719</ele>
        <time>2009-09-10T08:50:16Z</time>
      </trkpt>
      <trkpt lat="45.9129" lon="4.62817">
        <ele>330.35021972656</ele>
        <time>2009-09-10T08:50:22Z</time>
      </trkpt>
      <trkpt lat="45.91282" lon="4.62827">
        <ele>330.35021972656</ele>
        <time>2009-09-10T08:50:26Z</time>
      </trkpt>
      <trkpt lat="45.91282" lon="4.62832">
        <ele>330.35021972656</ele>
        <time>2009-09-10T08:50:27Z</time>
      </trkpt>
      <trkpt lat="45.9128" lon="4.62877">
        <ele>329.38891601562</ele>
        <time>2009-09-10T08:50:34Z</time>
      </trkpt>
      <trkpt lat="45.91281" lon="4.62928">
        <ele>328.90832519531</ele>
        <time>2009-09-10T08:50:41Z</time>
      </trkpt>
      <trkpt lat="45.91282" lon="4.62959">
        <ele>328.42761230469</ele>
        <time>2009-09-10T08:50:45Z</time>
      </trkpt>
      <trkpt lat="45.91291" lon="4.63027">
        <ele>326.02416992188</ele>
        <time>2009-09-10T08:50:53Z</time>
      </trkpt>
      <trkpt lat="45.91297" lon="4.6307">
        <ele>324.1015625</ele>
        <time>2009-09-10T08:50:58Z</time>
      </trkpt>
      <trkpt lat="45.91302" lon="4.63133">
        <ele>321.69836425781</ele>
        <time>2009-09-10T08:51:05Z</time>
      </trkpt>
      <trkpt lat="45.91303" lon="4.63142">
        <ele>321.2177734375</ele>
        <time>2009-09-10T08:51:06Z</time>
      </trkpt>
      <trkpt lat="45.91303" lon="4.63171">
        <ele>319.77563476562</ele>
        <time>2009-09-10T08:51:09Z</time>
      </trkpt>
      <trkpt lat="45.91298" lon="4.63229">
        <ele>316.41101074219</ele>
        <time>2009-09-10T08:51:15Z</time>
      </trkpt>
      <trkpt lat="45.91297" lon="4.63238">
        <ele>316.41101074219</ele>
        <time>2009-09-10T08:51:16Z</time>
      </trkpt>
      <trkpt lat="45.91294" lon="4.63274">
        <ele>314.0078125</ele>
        <time>2009-09-10T08:51:21Z</time>
      </trkpt>
      <trkpt lat="45.91284" lon="4.63318">
        <ele>311.12377929688</ele>
        <time>2009-09-10T08:51:27Z</time>
      </trkpt>
      <trkpt lat="45.91284" lon="4.63351">
        <ele>310.64306640625</ele>
        <time>2009-09-10T08:51:31Z</time>
      </trkpt>
      <trkpt lat="45.91285" lon="4.63359">
        <ele>311.12377929688</ele>
        <time>2009-09-10T08:51:32Z</time>
      </trkpt>
      <trkpt lat="45.91294" lon="4.63403">
        <ele>312.56579589844</ele>
        <time>2009-09-10T08:51:38Z</time>
      </trkpt>
      <trkpt lat="45.91293" lon="4.63422">
        <ele>312.56579589844</ele>
        <time>2009-09-10T08:51:42Z</time>
      </trkpt>
      <trkpt lat="45.91281" lon="4.6345">
        <ele>313.52722167969</ele>
        <time>2009-09-10T08:51:49Z</time>
      </trkpt>
      <trkpt lat="45.9127" lon="4.63474">
        <ele>314.0078125</ele>
        <time>2009-09-10T08:51:56Z</time>
      </trkpt>
      <trkpt lat="45.91264" lon="4.63492">
        <ele>314.96911621094</ele>
        <time>2009-09-10T08:52:02Z</time>
      </trkpt>
      <trkpt lat="45.91259" lon="4.63521">
        <ele>316.89172363281</ele>
        <time>2009-09-10T08:52:11Z</time>
      </trkpt>
      <trkpt lat="45.91256" lon="4.63548">
        <ele>319.77563476562</ele>
        <time>2009-09-10T08:52:20Z</time>
      </trkpt>
      <trkpt lat="45.91254" lon="4.63576">
        <ele>322.65966796875</ele>
        <time>2009-09-10T08:52:29Z</time>
      </trkpt>
      <trkpt lat="45.91254" lon="4.63602">
        <ele>323.14038085938</ele>
        <time>2009-09-10T08:52:37Z</time>
      </trkpt>
      <trkpt lat="45.91251" lon="4.63619">
        <ele>323.14038085938</ele>
        <time>2009-09-10T08:52:44Z</time>
      </trkpt>
      <trkpt lat="45.9124" lon="4.63633">
        <ele>323.62097167969</ele>
        <time>2009-09-10T08:52:49Z</time>
      </trkpt>
      <trkpt lat="45.9122" lon="4.63655">
        <ele>322.65966796875</ele>
        <time>2009-09-10T08:52:56Z</time>
      </trkpt>
      <trkpt lat="45.91205" lon="4.63666">
        <ele>322.65966796875</ele>
        <time>2009-09-10T08:53:01Z</time>
      </trkpt>
      <trkpt lat="45.91183" lon="4.63673">
        <ele>321.2177734375</ele>
        <time>2009-09-10T08:53:07Z</time>
      </trkpt>
      <trkpt lat="45.91155" lon="4.6368">
        <ele>319.77563476562</ele>
        <time>2009-09-10T08:53:13Z</time>
      </trkpt>
      <trkpt lat="45.91117" lon="4.63695">
        <ele>319.77563476562</ele>
        <time>2009-09-10T08:53:20Z</time>
      </trkpt>
      <trkpt lat="45.91093" lon="4.63706">
        <ele>319.29504394531</ele>
        <time>2009-09-10T08:53:25Z</time>
      </trkpt>
      <trkpt lat="45.91065" lon="4.63736">
        <ele>318.81433105469</ele>
        <time>2009-09-10T08:53:32Z</time>
      </trkpt>
      <trkpt lat="45.91038" lon="4.63777">
        <ele>319.29504394531</ele>
        <time>2009-09-10T08:53:40Z</time>
      </trkpt>
      <trkpt lat="45.91026" lon="4.63798">
        <ele>319.29504394531</ele>
        <time>2009-09-10T08:53:44Z</time>
      </trkpt>
      <trkpt lat="45.91005" lon="4.63817">
        <ele>319.29504394531</ele>
        <time>2009-09-10T08:53:49Z</time>
      </trkpt>
      <trkpt lat="45.90983" lon="4.63824">
        <ele>318.81433105469</ele>
        <time>2009-09-10T08:53:53Z</time>
      </trkpt>
      <trkpt lat="45.90934" lon="4.63849">
        <ele>317.85302734375</ele>
        <time>2009-09-10T08:54:02Z</time>
      </trkpt>
      <trkpt lat="45.90912" lon="4.63853">
        <ele>317.85302734375</ele>
        <time>2009-09-10T08:54:06Z</time>
      </trkpt>
      <trkpt lat="45.90895" lon="4.63856">
        <ele>316.89172363281</ele>
        <time>2009-09-10T08:54:09Z</time>
      </trkpt>
      <trkpt lat="45.90873" lon="4.63865">
        <ele>316.89172363281</ele>
        <time>2009-09-10T08:54:13Z</time>
      </trkpt>
      <trkpt lat="45.90854" lon="4.63881">
        <ele>316.41101074219</ele>
        <time>2009-09-10T08:54:17Z</time>
      </trkpt>
      <trkpt lat="45.90835" lon="4.63895">
        <ele>315.93041992188</ele>
        <time>2009-09-10T08:54:21Z</time>
      </trkpt>
      <trkpt lat="45.90819" lon="4.63899">
        <ele>315.93041992188</ele>
        <time>2009-09-10T08:54:24Z</time>
      </trkpt>
      <trkpt lat="45.90797" lon="4.63895">
        <ele>315.44982910156</ele>
        <time>2009-09-10T08:54:28Z</time>
      </trkpt>
      <trkpt lat="45.90775" lon="4.63901">
        <ele>314.0078125</ele>
        <time>2009-09-10T08:54:33Z</time>
      </trkpt>
      <trkpt lat="45.90772" lon="4.63907">
        <ele>314.0078125</ele>
        <time>2009-09-10T08:54:34Z</time>
      </trkpt>
      <trkpt lat="45.90765" lon="4.6392">
        <ele>314.0078125</ele>
        <time>2009-09-10T08:54:38Z</time>
      </trkpt>
      <trkpt lat="45.90765" lon="4.6392">
        <ele>313.04650878906</ele>
        <time>2009-09-10T08:54:39Z</time>
      </trkpt>
      <trkpt lat="45.90771" lon="4.63911">
        <ele>314.0078125</ele>
        <time>2009-09-10T08:54:45Z</time>
      </trkpt>
      <trkpt lat="45.90773" lon="4.63901">
        <ele>314.0078125</ele>
        <time>2009-09-10T08:54:48Z</time>
      </trkpt>
      <trkpt lat="45.9076" lon="4.63882">
        <ele>312.08520507812</ele>
        <time>2009-09-10T08:54:54Z</time>
      </trkpt>
      <trkpt lat="45.90744" lon="4.63876">
        <ele>309.68188476562</ele>
        <time>2009-09-10T08:54:58Z</time>
      </trkpt>
      <trkpt lat="45.90727" lon="4.6387">
        <ele>306.31726074219</ele>
        <time>2009-09-10T08:55:02Z</time>
      </trkpt>
      <trkpt lat="45.90713" lon="4.63863">
        <ele>303.43322753906</ele>
        <time>2009-09-10T08:55:06Z</time>
      </trkpt>
      <trkpt lat="45.90697" lon="4.63855">
        <ele>299.58801269531</ele>
        <time>2009-09-10T08:55:11Z</time>
      </trkpt>
      <trkpt lat="45.90678" lon="4.63854">
        <ele>296.7041015625</ele>
        <time>2009-09-10T08:55:16Z</time>
      </trkpt>
      <trkpt lat="45.90675" lon="4.63855">
        <ele>296.7041015625</ele>
        <time>2009-09-10T08:55:17Z</time>
      </trkpt>
      <trkpt lat="45.9066" lon="4.63861">
        <ele>294.30078125</ele>
        <time>2009-09-10T08:55:21Z</time>
      </trkpt>
      <trkpt lat="45.90649" lon="4.63865">
        <ele>290.45556640625</ele>
        <time>2009-09-10T08:55:24Z</time>
      </trkpt>
      <trkpt lat="45.90632" lon="4.63873">
        <ele>287.57141113281</ele>
        <time>2009-09-10T08:55:28Z</time>
      </trkpt>
      <trkpt lat="45.90609" lon="4.63872">
        <ele>285.16821289062</ele>
        <time>2009-09-10T08:55:33Z</time>
      </trkpt>
      <trkpt lat="45.90603" lon="4.63864">
        <ele>284.68762207031</ele>
        <time>2009-09-10T08:55:35Z</time>
      </trkpt>
      <trkpt lat="45.90592" lon="4.63836">
        <ele>283.24560546875</ele>
        <time>2009-09-10T08:55:41Z</time>
      </trkpt>
      <trkpt lat="45.90589" lon="4.63829">
        <ele>283.72619628906</ele>
        <time>2009-09-10T08:55:43Z</time>
      </trkpt>
      <trkpt lat="45.90581" lon="4.63815">
        <ele>284.20690917969</ele>
        <time>2009-09-10T08:55:49Z</time>
      </trkpt>
      <trkpt lat="45.90573" lon="4.63811">
        <ele>285.16821289062</ele>
        <time>2009-09-10T08:55:54Z</time>
      </trkpt>
      <trkpt lat="45.90563" lon="4.63809">
        <ele>286.12951660156</ele>
        <time>2009-09-10T08:56:00Z</time>
      </trkpt>
      <trkpt lat="45.90556" lon="4.63806">
        <ele>287.0908203125</ele>
        <time>2009-09-10T08:56:05Z</time>
      </trkpt>
      <trkpt lat="45.90547" lon="4.638">
        <ele>289.01354980469</ele>
        <time>2009-09-10T08:56:12Z</time>
      </trkpt>
      <trkpt lat="45.90536" lon="4.6379">
        <ele>289.494140625</ele>
        <time>2009-09-10T08:56:19Z</time>
      </trkpt>
      <trkpt lat="45.90527" lon="4.63779">
        <ele>290.45556640625</ele>
        <time>2009-09-10T08:56:26Z</time>
      </trkpt>
      <trkpt lat="45.90515" lon="4.63769">
        <ele>291.41674804688</ele>
        <time>2009-09-10T08:56:31Z</time>
      </trkpt>
      <trkpt lat="45.90504" lon="4.63761">
        <ele>292.37817382812</ele>
        <time>2009-09-10T08:56:36Z</time>
      </trkpt>
      <trkpt lat="45.9049" lon="4.63749">
        <ele>292.85876464844</ele>
        <time>2009-09-10T08:56:42Z</time>
      </trkpt>
      <trkpt lat="45.90478" lon="4.63736">
        <ele>292.85876464844</ele>
        <time>2009-09-10T08:56:48Z</time>
      </trkpt>
      <trkpt lat="45.90467" lon="4.63722">
        <ele>293.82006835938</ele>
        <time>2009-09-10T08:56:53Z</time>
      </trkpt>
      <trkpt lat="45.90459" lon="4.63713">
        <ele>293.82006835938</ele>
        <time>2009-09-10T08:56:58Z</time>
      </trkpt>
      <trkpt lat="45.90451" lon="4.63708">
        <ele>294.30078125</ele>
        <time>2009-09-10T08:57:02Z</time>
      </trkpt>
      <trkpt lat="45.90435" lon="4.63701">
        <ele>295.26196289062</ele>
        <time>2009-09-10T08:57:08Z</time>
      </trkpt>
      <trkpt lat="45.90422" lon="4.63695">
        <ele>296.7041015625</ele>
        <time>2009-09-10T08:57:14Z</time>
      </trkpt>
      <trkpt lat="45.90413" lon="4.63689">
        <ele>297.66540527344</ele>
        <time>2009-09-10T08:57:19Z</time>
      </trkpt>
      <trkpt lat="45.90402" lon="4.63685">
        <ele>299.10729980469</ele>
        <time>2009-09-10T08:57:24Z</time>
      </trkpt>
      <trkpt lat="45.90392" lon="4.63682">
        <ele>300.54931640625</ele>
        <time>2009-09-10T08:57:28Z</time>
      </trkpt>
      <trkpt lat="45.9038" lon="4.63676">
        <ele>301.02990722656</ele>
        <time>2009-09-10T08:57:32Z</time>
      </trkpt>
      <trkpt lat="45.90369" lon="4.63672">
        <ele>301.99133300781</ele>
        <time>2009-09-10T08:57:37Z</time>
      </trkpt>
      <trkpt lat="45.90359" lon="4.63665">
        <ele>303.43322753906</ele>
        <time>2009-09-10T08:57:41Z</time>
      </trkpt>
      <trkpt lat="45.90351" lon="4.63653">
        <ele>304.87524414062</ele>
        <time>2009-09-10T08:57:46Z</time>
      </trkpt>
      <trkpt lat="45.90343" lon="4.6364">
        <ele>306.31726074219</ele>
        <time>2009-09-10T08:57:51Z</time>
      </trkpt>
      <trkpt lat="45.90334" lon="4.63628">
        <ele>306.7978515625</ele>
        <time>2009-09-10T08:57:55Z</time>
      </trkpt>
      <trkpt lat="45.90318" lon="4.63618">
        <ele>307.75927734375</ele>
        <time>2009-09-10T08:58:01Z</time>
      </trkpt>
      <trkpt lat="45.90305" lon="4.63614">
        <ele>308.23986816406</ele>
        <time>2009-09-10T08:58:06Z</time>
      </trkpt>
      <trkpt lat="45.90294" lon="4.63613">
        <ele>308.72045898438</ele>
        <time>2009-09-10T08:58:10Z</time>
      </trkpt>
      <trkpt lat="45.90268" lon="4.63612">
        <ele>308.23986816406</ele>
        <time>2009-09-10T08:58:19Z</time>
      </trkpt>
      <trkpt lat="45.90247" lon="4.6361">
        <ele>308.72045898438</ele>
        <time>2009-09-10T08:58:26Z</time>
      </trkpt>
      <trkpt lat="45.90231" lon="4.63603">
        <ele>308.72045898438</ele>
        <time>2009-09-10T08:58:33Z</time>
      </trkpt>
      <trkpt lat="45.90228" lon="4.63603">
        <ele>308.72045898438</ele>
        <time>2009-09-10T08:58:36Z</time>
      </trkpt>
      <trkpt lat="45.90229" lon="4.63605">
        <ele>308.23986816406</ele>
        <time>2009-09-10T09:04:50Z</time>
      </trkpt>
      <trkpt lat="45.90224" lon="4.63632">
        <ele>307.75927734375</ele>
        <time>2009-09-10T09:04:56Z</time>
      </trkpt>
      <trkpt lat="45.90212" lon="4.63659">
        <ele>307.27856445312</ele>
        <time>2009-09-10T09:05:03Z</time>
      </trkpt>
      <trkpt lat="45.90191" lon="4.6368">
        <ele>306.7978515625</ele>
        <time>2009-09-10T09:05:11Z</time>
      </trkpt>
      <trkpt lat="45.90168" lon="4.63707">
        <ele>306.7978515625</ele>
        <time>2009-09-10T09:05:19Z</time>
      </trkpt>
      <trkpt lat="45.90145" lon="4.63749">
        <ele>305.83666992188</ele>
        <time>2009-09-10T09:05:28Z</time>
      </trkpt>
      <trkpt lat="45.90137" lon="4.63765">
        <ele>305.83666992188</ele>
        <time>2009-09-10T09:05:31Z</time>
      </trkpt>
      <trkpt lat="45.90129" lon="4.63801">
        <ele>305.35595703125</ele>
        <time>2009-09-10T09:05:37Z</time>
      </trkpt>
      <trkpt lat="45.90134" lon="4.63831">
        <ele>304.39465332031</ele>
        <time>2009-09-10T09:05:42Z</time>
      </trkpt>
      <trkpt lat="45.90147" lon="4.63863">
        <ele>301.99133300781</ele>
        <time>2009-09-10T09:05:48Z</time>
      </trkpt>
      <trkpt lat="45.90165" lon="4.63893">
        <ele>301.51062011719</ele>
        <time>2009-09-10T09:05:53Z</time>
      </trkpt>
      <trkpt lat="45.90168" lon="4.639">
        <ele>301.02990722656</ele>
        <time>2009-09-10T09:05:54Z</time>
      </trkpt>
      <trkpt lat="45.90178" lon="4.63929">
        <ele>299.58801269531</ele>
        <time>2009-09-10T09:05:58Z</time>
      </trkpt>
      <trkpt lat="45.90185" lon="4.63953">
        <ele>298.14611816406</ele>
        <time>2009-09-10T09:06:01Z</time>
      </trkpt>
      <trkpt lat="45.90199" lon="4.63982">
        <ele>296.7041015625</ele>
        <time>2009-09-10T09:06:06Z</time>
      </trkpt>
      <trkpt lat="45.90214" lon="4.6401">
        <ele>293.82006835938</ele>
        <time>2009-09-10T09:06:11Z</time>
      </trkpt>
      <trkpt lat="45.90226" lon="4.64041">
        <ele>291.41674804688</ele>
        <time>2009-09-10T09:06:16Z</time>
      </trkpt>
      <trkpt lat="45.90236" lon="4.64058">
        <ele>289.494140625</ele>
        <time>2009-09-10T09:06:19Z</time>
      </trkpt>
      <trkpt lat="45.90248" lon="4.64075">
        <ele>288.05224609375</ele>
        <time>2009-09-10T09:06:22Z</time>
      </trkpt>
      <trkpt lat="45.9025" lon="4.64081">
        <ele>288.05224609375</ele>
        <time>2009-09-10T09:06:23Z</time>
      </trkpt>
      <trkpt lat="45.90254" lon="4.64114">
        <ele>286.61022949219</ele>
        <time>2009-09-10T09:06:28Z</time>
      </trkpt>
      <trkpt lat="45.90248" lon="4.64155">
        <ele>286.12951660156</ele>
        <time>2009-09-10T09:06:33Z</time>
      </trkpt>
      <trkpt lat="45.90241" lon="4.64195">
        <ele>284.68762207031</ele>
        <time>2009-09-10T09:06:38Z</time>
      </trkpt>
      <trkpt lat="45.90234" lon="4.64238">
        <ele>284.20690917969</ele>
        <time>2009-09-10T09:06:44Z</time>
      </trkpt>
      <trkpt lat="45.90223" lon="4.6428">
        <ele>281.80358886719</ele>
        <time>2009-09-10T09:06:50Z</time>
      </trkpt>
      <trkpt lat="45.90215" lon="4.64305">
        <ele>280.84240722656</ele>
        <time>2009-09-10T09:06:54Z</time>
      </trkpt>
      <trkpt lat="45.90206" lon="4.64332">
        <ele>277.95825195312</ele>
        <time>2009-09-10T09:06:59Z</time>
      </trkpt>
      <trkpt lat="45.90205" lon="4.64336">
        <ele>277.47766113281</ele>
        <time>2009-09-10T09:07:00Z</time>
      </trkpt>
      <trkpt lat="45.90207" lon="4.64362">
        <ele>275.07446289062</ele>
        <time>2009-09-10T09:07:05Z</time>
      </trkpt>
      <trkpt lat="45.9021" lon="4.64376">
        <ele>274.11303710938</ele>
        <time>2009-09-10T09:07:09Z</time>
      </trkpt>
      <trkpt lat="45.90212" lon="4.64388">
        <ele>273.15185546875</ele>
        <time>2009-09-10T09:07:16Z</time>
      </trkpt>
      <trkpt lat="45.90209" lon="4.64394">
        <ele>273.15185546875</ele>
        <time>2009-09-10T09:07:31Z</time>
      </trkpt>
      <trkpt lat="45.9021" lon="4.64398">
        <ele>273.63244628906</ele>
        <time>2009-09-10T09:07:35Z</time>
      </trkpt>
      <trkpt lat="45.90212" lon="4.64409">
        <ele>273.15185546875</ele>
        <time>2009-09-10T09:07:39Z</time>
      </trkpt>
      <trkpt lat="45.90216" lon="4.64418">
        <ele>272.1904296875</ele>
        <time>2009-09-10T09:07:42Z</time>
      </trkpt>
      <trkpt lat="45.90229" lon="4.64433">
        <ele>271.70971679688</ele>
        <time>2009-09-10T09:07:48Z</time>
      </trkpt>
      <trkpt lat="45.90246" lon="4.64451">
        <ele>270.74841308594</ele>
        <time>2009-09-10T09:07:53Z</time>
      </trkpt>
      <trkpt lat="45.90258" lon="4.64467">
        <ele>268.34509277344</ele>
        <time>2009-09-10T09:07:58Z</time>
      </trkpt>
      <trkpt lat="45.9027" lon="4.64496">
        <ele>266.42248535156</ele>
        <time>2009-09-10T09:08:03Z</time>
      </trkpt>
      <trkpt lat="45.90268" lon="4.64522">
        <ele>264.01928710938</ele>
        <time>2009-09-10T09:08:07Z</time>
      </trkpt>
      <trkpt lat="45.90253" lon="4.64565">
        <ele>262.5771484375</ele>
        <time>2009-09-10T09:08:13Z</time>
      </trkpt>
      <trkpt lat="45.90242" lon="4.64596">
        <ele>260.65454101562</ele>
        <time>2009-09-10T09:08:18Z</time>
      </trkpt>
      <trkpt lat="45.9023" lon="4.64624">
        <ele>259.21264648438</ele>
        <time>2009-09-10T09:08:22Z</time>
      </trkpt>
      <trkpt lat="45.90223" lon="4.64639">
        <ele>257.77075195312</ele>
        <time>2009-09-10T09:08:24Z</time>
      </trkpt>
      <trkpt lat="45.9021" lon="4.64677">
        <ele>255.84802246094</ele>
        <time>2009-09-10T09:08:29Z</time>
      </trkpt>
      <trkpt lat="45.90197" lon="4.64701">
        <ele>254.40600585938</ele>
        <time>2009-09-10T09:08:34Z</time>
      </trkpt>
      <trkpt lat="45.90196" lon="4.64701">
        <ele>254.40600585938</ele>
        <time>2009-09-10T09:08:35Z</time>
      </trkpt>
      <trkpt lat="45.90197" lon="4.64693">
        <ele>254.40600585938</ele>
        <time>2009-09-10T09:08:40Z</time>
      </trkpt>
      <trkpt lat="45.90192" lon="4.64688">
        <ele>254.40600585938</ele>
        <time>2009-09-10T09:08:45Z</time>
      </trkpt>
      <trkpt lat="45.90193" lon="4.64696">
        <ele>253.92541503906</ele>
        <time>2009-09-10T09:08:50Z</time>
      </trkpt>
      <trkpt lat="45.90197" lon="4.64699">
        <ele>254.40600585938</ele>
        <time>2009-09-10T09:08:55Z</time>
      </trkpt>
      <trkpt lat="45.90192" lon="4.64714">
        <ele>253.92541503906</ele>
        <time>2009-09-10T09:08:59Z</time>
      </trkpt>
      <trkpt lat="45.90191" lon="4.64737">
        <ele>254.40600585938</ele>
        <time>2009-09-10T09:09:03Z</time>
      </trkpt>
      <trkpt lat="45.90189" lon="4.64742">
        <ele>254.40600585938</ele>
        <time>2009-09-10T09:09:04Z</time>
      </trkpt>
      <trkpt lat="45.90184" lon="4.64796">
        <ele>255.36730957031</ele>
        <time>2009-09-10T09:09:13Z</time>
      </trkpt>
      <trkpt lat="45.90183" lon="4.64809">
        <ele>255.36730957031</ele>
        <time>2009-09-10T09:09:16Z</time>
      </trkpt>
      <trkpt lat="45.90177" lon="4.64807">
        <ele>255.36730957031</ele>
        <time>2009-09-10T09:09:21Z</time>
      </trkpt>
      <trkpt lat="45.90173" lon="4.6479">
        <ele>254.88659667969</ele>
        <time>2009-09-10T09:09:27Z</time>
      </trkpt>
      <trkpt lat="45.90168" lon="4.64782">
        <ele>254.88659667969</ele>
        <time>2009-09-10T09:09:32Z</time>
      </trkpt>
      <trkpt lat="45.90171" lon="4.64791">
        <ele>254.88659667969</ele>
        <time>2009-09-10T09:09:37Z</time>
      </trkpt>
      <trkpt lat="45.90174" lon="4.64802">
        <ele>254.88659667969</ele>
        <time>2009-09-10T09:09:40Z</time>
      </trkpt>
      <trkpt lat="45.90184" lon="4.64806">
        <ele>254.88659667969</ele>
        <time>2009-09-10T09:09:45Z</time>
      </trkpt>
      <trkpt lat="45.90187" lon="4.64797">
        <ele>254.88659667969</ele>
        <time>2009-09-10T09:09:47Z</time>
      </trkpt>
      <trkpt lat="45.90191" lon="4.64753">
        <ele>254.40600585938</ele>
        <time>2009-09-10T09:09:54Z</time>
      </trkpt>
      <trkpt lat="45.90195" lon="4.64725">
        <ele>254.40600585938</ele>
        <time>2009-09-10T09:09:58Z</time>
      </trkpt>
      <trkpt lat="45.90188" lon="4.64698">
        <ele>254.40600585938</ele>
        <time>2009-09-10T09:10:02Z</time>
      </trkpt>
      <trkpt lat="45.90173" lon="4.64688">
        <ele>253.92541503906</ele>
        <time>2009-09-10T09:10:05Z</time>
      </trkpt>
      <trkpt lat="45.90157" lon="4.64688">
        <ele>253.44470214844</ele>
        <time>2009-09-10T09:10:08Z</time>
      </trkpt>
      <trkpt lat="45.90144" lon="4.64691">
        <ele>253.44470214844</ele>
        <time>2009-09-10T09:10:10Z</time>
      </trkpt>
      <trkpt lat="45.90102" lon="4.64703">
        <ele>253.44470214844</ele>
        <time>2009-09-10T09:10:17Z</time>
      </trkpt>
      <trkpt lat="45.90062" lon="4.64713">
        <ele>253.92541503906</ele>
        <time>2009-09-10T09:10:24Z</time>
      </trkpt>
      <trkpt lat="45.9004" lon="4.64717">
        <ele>255.84802246094</ele>
        <time>2009-09-10T09:10:28Z</time>
      </trkpt>
      <trkpt lat="45.90004" lon="4.64703">
        <ele>254.88659667969</ele>
        <time>2009-09-10T09:10:35Z</time>
      </trkpt>
      <trkpt lat="45.89969" lon="4.64679">
        <ele>256.32873535156</ele>
        <time>2009-09-10T09:10:42Z</time>
      </trkpt>
      <trkpt lat="45.89923" lon="4.64657">
        <ele>256.80932617188</ele>
        <time>2009-09-10T09:10:51Z</time>
      </trkpt>
      <trkpt lat="45.89873" lon="4.6464">
        <ele>256.80932617188</ele>
        <time>2009-09-10T09:11:00Z</time>
      </trkpt>
      <trkpt lat="45.89818" lon="4.64628">
        <ele>255.84802246094</ele>
        <time>2009-09-10T09:11:09Z</time>
      </trkpt>
      <trkpt lat="45.89778" lon="4.64622">
        <ele>254.88659667969</ele>
        <time>2009-09-10T09:11:15Z</time>
      </trkpt>
      <trkpt lat="45.89724" lon="4.64613">
        <ele>252.00280761719</ele>
        <time>2009-09-10T09:11:22Z</time>
      </trkpt>
      <trkpt lat="45.89708" lon="4.6461">
        <ele>251.04138183594</ele>
        <time>2009-09-10T09:11:24Z</time>
      </trkpt>
      <trkpt lat="45.89609" lon="4.64588">
        <ele>248.63818359375</ele>
        <time>2009-09-10T09:11:36Z</time>
      </trkpt>
      <trkpt lat="45.8956" lon="4.64586">
        <ele>247.6767578125</ele>
        <time>2009-09-10T09:11:42Z</time>
      </trkpt>
      <trkpt lat="45.89512" lon="4.64577">
        <ele>246.71545410156</ele>
        <time>2009-09-10T09:11:48Z</time>
      </trkpt>
      <trkpt lat="45.89451" lon="4.64561">
        <ele>246.71545410156</ele>
        <time>2009-09-10T09:11:56Z</time>
      </trkpt>
      <trkpt lat="45.89393" lon="4.64555">
        <ele>244.79284667969</ele>
        <time>2009-09-10T09:12:04Z</time>
      </trkpt>
      <trkpt lat="45.89351" lon="4.64542">
        <ele>244.79284667969</ele>
        <time>2009-09-10T09:12:10Z</time>
      </trkpt>
      <trkpt lat="45.89307" lon="4.64526">
        <ele>245.75415039062</ele>
        <time>2009-09-10T09:12:17Z</time>
      </trkpt>
      <trkpt lat="45.89267" lon="4.64517">
        <ele>246.23486328125</ele>
        <time>2009-09-10T09:12:24Z</time>
      </trkpt>
      <trkpt lat="45.8925" lon="4.64517">
        <ele>246.23486328125</ele>
        <time>2009-09-10T09:12:27Z</time>
      </trkpt>
      <trkpt lat="45.89204" lon="4.6453">
        <ele>244.31225585938</ele>
        <time>2009-09-10T09:12:34Z</time>
      </trkpt>
      <trkpt lat="45.89155" lon="4.64539">
        <ele>240.94763183594</ele>
        <time>2009-09-10T09:12:40Z</time>
      </trkpt>
      <trkpt lat="45.89146" lon="4.64538">
        <ele>240.94763183594</ele>
        <time>2009-09-10T09:12:41Z</time>
      </trkpt>
      <trkpt lat="45.89115" lon="4.64523">
        <ele>240.94763183594</ele>
        <time>2009-09-10T09:12:45Z</time>
      </trkpt>
      <trkpt lat="45.89058" lon="4.64482">
        <ele>241.42822265625</ele>
        <time>2009-09-10T09:12:53Z</time>
      </trkpt>
      <trkpt lat="45.89028" lon="4.64457">
        <ele>239.50549316406</ele>
        <time>2009-09-10T09:12:57Z</time>
      </trkpt>
      <trkpt lat="45.88976" lon="4.64413">
        <ele>237.58288574219</ele>
        <time>2009-09-10T09:13:04Z</time>
      </trkpt>
      <trkpt lat="45.88924" lon="4.6437">
        <ele>237.10229492188</ele>
        <time>2009-09-10T09:13:12Z</time>
      </trkpt>
      <trkpt lat="45.88879" lon="4.64339">
        <ele>236.62170410156</ele>
        <time>2009-09-10T09:13:20Z</time>
      </trkpt>
      <trkpt lat="45.88838" lon="4.64328">
        <ele>236.14099121094</ele>
        <time>2009-09-10T09:13:26Z</time>
      </trkpt>
      <trkpt lat="45.88803" lon="4.64324">
        <ele>235.1796875</ele>
        <time>2009-09-10T09:13:31Z</time>
      </trkpt>
      <trkpt lat="45.88763" lon="4.64331">
        <ele>234.21838378906</ele>
        <time>2009-09-10T09:13:37Z</time>
      </trkpt>
      <trkpt lat="45.88757" lon="4.64333">
        <ele>234.69909667969</ele>
        <time>2009-09-10T09:13:38Z</time>
      </trkpt>
      <trkpt lat="45.8871" lon="4.64361">
        <ele>234.21838378906</ele>
        <time>2009-09-10T09:13:46Z</time>
      </trkpt>
      <trkpt lat="45.88699" lon="4.64368">
        <ele>234.21838378906</ele>
        <time>2009-09-10T09:13:48Z</time>
      </trkpt>
      <trkpt lat="45.88638" lon="4.64401">
        <ele>233.73767089844</ele>
        <time>2009-09-10T09:13:58Z</time>
      </trkpt>
      <trkpt lat="45.88588" lon="4.64428">
        <ele>232.77648925781</ele>
        <time>2009-09-10T09:14:06Z</time>
      </trkpt>
      <trkpt lat="45.8855" lon="4.64446">
        <ele>232.77648925781</ele>
        <time>2009-09-10T09:14:12Z</time>
      </trkpt>
      <trkpt lat="45.8849" lon="4.64451">
        <ele>232.29577636719</ele>
        <time>2009-09-10T09:14:21Z</time>
      </trkpt>
      <trkpt lat="45.88441" lon="4.64462">
        <ele>231.81494140625</ele>
        <time>2009-09-10T09:14:28Z</time>
      </trkpt>
      <trkpt lat="45.88388" lon="4.64486">
        <ele>230.85375976562</ele>
        <time>2009-09-10T09:14:35Z</time>
      </trkpt>
      <trkpt lat="45.88324" lon="4.64522">
        <ele>231.33435058594</ele>
        <time>2009-09-10T09:14:44Z</time>
      </trkpt>
      <trkpt lat="45.88254" lon="4.64554">
        <ele>230.373046875</ele>
        <time>2009-09-10T09:14:54Z</time>
      </trkpt>
      <trkpt lat="45.88211" lon="4.64581">
        <ele>229.41174316406</ele>
        <time>2009-09-10T09:15:00Z</time>
      </trkpt>
      <trkpt lat="45.8818" lon="4.64622">
        <ele>227.00854492188</ele>
        <time>2009-09-10T09:15:05Z</time>
      </trkpt>
      <trkpt lat="45.88168" lon="4.64642">
        <ele>226.52783203125</ele>
        <time>2009-09-10T09:15:07Z</time>
      </trkpt>
      <trkpt lat="45.88137" lon="4.64669">
        <ele>226.04711914062</ele>
        <time>2009-09-10T09:15:11Z</time>
      </trkpt>
      <trkpt lat="45.88071" lon="4.64692">
        <ele>224.12451171875</ele>
        <time>2009-09-10T09:15:19Z</time>
      </trkpt>
      <trkpt lat="45.8802" lon="4.64705">
        <ele>224.60522460938</ele>
        <time>2009-09-10T09:15:26Z</time>
      </trkpt>
      <trkpt lat="45.87989" lon="4.64714">
        <ele>223.64379882812</ele>
        <time>2009-09-10T09:15:31Z</time>
      </trkpt>
      <trkpt lat="45.87973" lon="4.64717">
        <ele>223.16320800781</ele>
        <time>2009-09-10T09:15:35Z</time>
      </trkpt>
      <trkpt lat="45.8798" lon="4.64719">
        <ele>223.16320800781</ele>
        <time>2009-09-10T09:15:38Z</time>
      </trkpt>
      <trkpt lat="45.87991" lon="4.64723">
        <ele>223.16320800781</ele>
        <time>2009-09-10T09:15:43Z</time>
      </trkpt>
      <trkpt lat="45.87992" lon="4.6473">
        <ele>223.16320800781</ele>
        <time>2009-09-10T09:15:47Z</time>
      </trkpt>
      <trkpt lat="45.87994" lon="4.64733">
        <ele>223.64379882812</ele>
        <time>2009-09-10T09:15:52Z</time>
      </trkpt>
      <trkpt lat="45.87992" lon="4.64722">
        <ele>223.64379882812</ele>
        <time>2009-09-10T09:15:57Z</time>
      </trkpt>
      <trkpt lat="45.87993" lon="4.64695">
        <ele>224.12451171875</ele>
        <time>2009-09-10T09:16:03Z</time>
      </trkpt>
      <trkpt lat="45.87982" lon="4.64673">
        <ele>225.0859375</ele>
        <time>2009-09-10T09:16:08Z</time>
      </trkpt>
      <trkpt lat="45.87966" lon="4.64666">
        <ele>226.04711914062</ele>
        <time>2009-09-10T09:16:13Z</time>
      </trkpt>
      <trkpt lat="45.87943" lon="4.64672">
        <ele>226.04711914062</ele>
        <time>2009-09-10T09:16:20Z</time>
      </trkpt>
      <trkpt lat="45.87928" lon="4.64682">
        <ele>225.0859375</ele>
        <time>2009-09-10T09:16:24Z</time>
      </trkpt>
      <trkpt lat="45.87901" lon="4.64687">
        <ele>224.12451171875</ele>
        <time>2009-09-10T09:16:29Z</time>
      </trkpt>
      <trkpt lat="45.87883" lon="4.64689">
        <ele>224.60522460938</ele>
        <time>2009-09-10T09:16:33Z</time>
      </trkpt>
      <trkpt lat="45.87868" lon="4.64686">
        <ele>224.12451171875</ele>
        <time>2009-09-10T09:16:36Z</time>
      </trkpt>
      <trkpt lat="45.87845" lon="4.64674">
        <ele>223.64379882812</ele>
        <time>2009-09-10T09:16:41Z</time>
      </trkpt>
      <trkpt lat="45.87831" lon="4.64655">
        <ele>224.60522460938</ele>
        <time>2009-09-10T09:16:46Z</time>
      </trkpt>
      <trkpt lat="45.87827" lon="4.64649">
        <ele>225.56652832031</ele>
        <time>2009-09-10T09:16:48Z</time>
      </trkpt>
      <trkpt lat="45.87808" lon="4.64629">
        <ele>228.93115234375</ele>
        <time>2009-09-10T09:16:56Z</time>
      </trkpt>
      <trkpt lat="45.87792" lon="4.64615">
        <ele>229.41174316406</ele>
        <time>2009-09-10T09:17:02Z</time>
      </trkpt>
      <trkpt lat="45.8778" lon="4.64595">
        <ele>229.89233398438</ele>
        <time>2009-09-10T09:17:08Z</time>
      </trkpt>
      <trkpt lat="45.87776" lon="4.64583">
        <ele>229.41174316406</ele>
        <time>2009-09-10T09:17:11Z</time>
      </trkpt>
      <trkpt lat="45.87774" lon="4.64573">
        <ele>228.93115234375</ele>
        <time>2009-09-10T09:17:15Z</time>
      </trkpt>
      <trkpt lat="45.87775" lon="4.6455">
        <ele>226.52783203125</ele>
        <time>2009-09-10T09:17:20Z</time>
      </trkpt>
      <trkpt lat="45.87763" lon="4.64538">
        <ele>224.60522460938</ele>
        <time>2009-09-10T09:17:25Z</time>
      </trkpt>
      <trkpt lat="45.87764" lon="4.64538">
        <ele>224.60522460938</ele>
        <time>2009-09-10T09:17:28Z</time>
      </trkpt>
      <trkpt lat="45.87764" lon="4.64538">
        <ele>224.60522460938</ele>
        <time>2009-09-10T09:17:29Z</time>
      </trkpt>
      <trkpt lat="45.87772" lon="4.64536">
        <ele>226.52783203125</ele>
        <time>2009-09-10T09:17:34Z</time>
      </trkpt>
      <trkpt lat="45.87775" lon="4.64527">
        <ele>225.0859375</ele>
        <time>2009-09-10T09:17:36Z</time>
      </trkpt>
      <trkpt lat="45.87783" lon="4.64515">
        <ele>223.64379882812</ele>
        <time>2009-09-10T09:17:39Z</time>
      </trkpt>
      <trkpt lat="45.87783" lon="4.64496">
        <ele>221.24060058594</ele>
        <time>2009-09-10T09:17:43Z</time>
      </trkpt>
      <trkpt lat="45.87782" lon="4.6449">
        <ele>221.24060058594</ele>
        <time>2009-09-10T09:17:44Z</time>
      </trkpt>
      <trkpt lat="45.8778" lon="4.64483">
        <ele>219.79858398438</ele>
        <time>2009-09-10T09:17:46Z</time>
      </trkpt>
      <trkpt lat="45.87769" lon="4.64468">
        <ele>220.27917480469</ele>
        <time>2009-09-10T09:17:52Z</time>
      </trkpt>
      <trkpt lat="45.8776" lon="4.64453">
        <ele>220.27917480469</ele>
        <time>2009-09-10T09:17:57Z</time>
      </trkpt>
      <trkpt lat="45.87756" lon="4.64449">
        <ele>219.79858398438</ele>
        <time>2009-09-10T09:17:58Z</time>
      </trkpt>
      <trkpt lat="45.87746" lon="4.64459">
        <ele>219.31799316406</ele>
        <time>2009-09-10T09:18:02Z</time>
      </trkpt>
      <trkpt lat="45.87735" lon="4.64477">
        <ele>218.83728027344</ele>
        <time>2009-09-10T09:18:07Z</time>
      </trkpt>
      <trkpt lat="45.87713" lon="4.64508">
        <ele>219.31799316406</ele>
        <time>2009-09-10T09:18:15Z</time>
      </trkpt>
      <trkpt lat="45.87711" lon="4.64511">
        <ele>219.31799316406</ele>
        <time>2009-09-10T09:18:16Z</time>
      </trkpt>
      <trkpt lat="45.87702" lon="4.64505">
        <ele>218.35656738281</ele>
        <time>2009-09-10T09:18:20Z</time>
      </trkpt>
      <trkpt lat="45.87695" lon="4.64497">
        <ele>218.35656738281</ele>
        <time>2009-09-10T09:18:26Z</time>
      </trkpt>
      <trkpt lat="45.8769" lon="4.64493">
        <ele>218.83728027344</ele>
        <time>2009-09-10T09:18:30Z</time>
      </trkpt>
      <trkpt lat="45.87571" lon="4.64398">
        <ele>220.27917480469</ele>
        <time>2009-09-10T09:20:57Z</time>
      </trkpt>
      <trkpt lat="45.87569" lon="4.64398">
        <ele>220.27917480469</ele>
        <time>2009-09-10T09:20:58Z</time>
      </trkpt>
      <trkpt lat="45.87567" lon="4.64397">
        <ele>220.27917480469</ele>
        <time>2009-09-10T09:20:59Z</time>
      </trkpt>
      <trkpt lat="45.87551" lon="4.64389">
        <ele>219.79858398438</ele>
        <time>2009-09-10T09:21:05Z</time>
      </trkpt>
      <trkpt lat="45.8754" lon="4.64384">
        <ele>219.79858398438</ele>
        <time>2009-09-10T09:21:09Z</time>
      </trkpt>
      <trkpt lat="45.87527" lon="4.64374">
        <ele>219.31799316406</ele>
        <time>2009-09-10T09:21:14Z</time>
      </trkpt>
      <trkpt lat="45.87521" lon="4.64372">
        <ele>218.83728027344</ele>
        <time>2009-09-10T09:21:16Z</time>
      </trkpt>
      <trkpt lat="45.87492" lon="4.64363">
        <ele>219.31799316406</ele>
        <time>2009-09-10T09:21:26Z</time>
      </trkpt>
      <trkpt lat="45.8747" lon="4.64354">
        <ele>220.75988769531</ele>
        <time>2009-09-10T09:21:34Z</time>
      </trkpt>
      <trkpt lat="45.87454" lon="4.64351">
        <ele>221.24060058594</ele>
        <time>2009-09-10T09:21:40Z</time>
      </trkpt>
      <trkpt lat="45.87443" lon="4.64346">
        <ele>221.72119140625</ele>
        <time>2009-09-10T09:21:46Z</time>
      </trkpt>
      <trkpt lat="45.87416" lon="4.64345">
        <ele>221.72119140625</ele>
        <time>2009-09-10T09:21:56Z</time>
      </trkpt>
      <trkpt lat="45.87393" lon="4.64348">
        <ele>220.27917480469</ele>
        <time>2009-09-10T09:22:01Z</time>
      </trkpt>
      <trkpt lat="45.87376" lon="4.64351">
        <ele>219.79858398438</ele>
        <time>2009-09-10T09:22:04Z</time>
      </trkpt>
      <trkpt lat="45.87353" lon="4.64369">
        <ele>218.83728027344</ele>
        <time>2009-09-10T09:22:09Z</time>
      </trkpt>
      <trkpt lat="45.87344" lon="4.64376">
        <ele>218.83728027344</ele>
        <time>2009-09-10T09:22:11Z</time>
      </trkpt>
      <trkpt lat="45.8733" lon="4.64384">
        <ele>218.35656738281</ele>
        <time>2009-09-10T09:22:14Z</time>
      </trkpt>
      <trkpt lat="45.87292" lon="4.64416">
        <ele>218.83728027344</ele>
        <time>2009-09-10T09:22:22Z</time>
      </trkpt>
      <trkpt lat="45.87254" lon="4.64447">
        <ele>219.31799316406</ele>
        <time>2009-09-10T09:22:31Z</time>
      </trkpt>
      <trkpt lat="45.87216" lon="4.64479">
        <ele>221.24060058594</ele>
        <time>2009-09-10T09:22:41Z</time>
      </trkpt>
      <trkpt lat="45.87194" lon="4.64498">
        <ele>223.16320800781</ele>
        <time>2009-09-10T09:22:48Z</time>
      </trkpt>
      <trkpt lat="45.87175" lon="4.64511">
        <ele>225.56652832031</ele>
        <time>2009-09-10T09:22:55Z</time>
      </trkpt>
      <trkpt lat="45.87156" lon="4.64523">
        <ele>228.45043945312</ele>
        <time>2009-09-10T09:23:02Z</time>
      </trkpt>
      <trkpt lat="45.87133" lon="4.64533">
        <ele>229.89233398438</ele>
        <time>2009-09-10T09:23:10Z</time>
      </trkpt>
      <trkpt lat="45.87106" lon="4.64541">
        <ele>231.33435058594</ele>
        <time>2009-09-10T09:23:19Z</time>
      </trkpt>
      <trkpt lat="45.87078" lon="4.6455">
        <ele>233.73767089844</ele>
        <time>2009-09-10T09:23:29Z</time>
      </trkpt>
      <trkpt lat="45.87062" lon="4.64558">
        <ele>234.69909667969</ele>
        <time>2009-09-10T09:23:36Z</time>
      </trkpt>
      <trkpt lat="45.87044" lon="4.64569">
        <ele>236.14099121094</ele>
        <time>2009-09-10T09:23:45Z</time>
      </trkpt>
      <trkpt lat="45.87025" lon="4.6458">
        <ele>239.50549316406</ele>
        <time>2009-09-10T09:23:55Z</time>
      </trkpt>
      <trkpt lat="45.87024" lon="4.64582">
        <ele>239.50549316406</ele>
        <time>2009-09-10T09:23:56Z</time>
      </trkpt>
      <trkpt lat="45.8701" lon="4.64589">
        <ele>241.90893554688</ele>
        <time>2009-09-10T09:24:03Z</time>
      </trkpt>
      <trkpt lat="45.86998" lon="4.64599">
        <ele>244.79284667969</ele>
        <time>2009-09-10T09:24:10Z</time>
      </trkpt>
      <trkpt lat="45.86992" lon="4.64603">
        <ele>246.23486328125</ele>
        <time>2009-09-10T09:24:13Z</time>
      </trkpt>
      <trkpt lat="45.8698" lon="4.64614">
        <ele>248.63818359375</ele>
        <time>2009-09-10T09:24:20Z</time>
      </trkpt>
      <trkpt lat="45.86965" lon="4.64628">
        <ele>251.52209472656</ele>
        <time>2009-09-10T09:24:29Z</time>
      </trkpt>
      <trkpt lat="45.86963" lon="4.6463">
        <ele>251.52209472656</ele>
        <time>2009-09-10T09:24:30Z</time>
      </trkpt>
      <trkpt lat="45.86952" lon="4.64639">
        <ele>253.92541503906</ele>
        <time>2009-09-10T09:24:36Z</time>
      </trkpt>
      <trkpt lat="45.86941" lon="4.6465">
        <ele>255.84802246094</ele>
        <time>2009-09-10T09:24:43Z</time>
      </trkpt>
      <trkpt lat="45.86929" lon="4.64661">
        <ele>256.80932617188</ele>
        <time>2009-09-10T09:24:50Z</time>
      </trkpt>
      <trkpt lat="45.86916" lon="4.64671">
        <ele>259.21264648438</ele>
        <time>2009-09-10T09:24:57Z</time>
      </trkpt>
      <trkpt lat="45.86898" lon="4.64682">
        <ele>260.17395019531</ele>
        <time>2009-09-10T09:25:05Z</time>
      </trkpt>
      <trkpt lat="45.8688" lon="4.64689">
        <ele>260.65454101562</ele>
        <time>2009-09-10T09:25:12Z</time>
      </trkpt>
      <trkpt lat="45.86856" lon="4.64697">
        <ele>261.13525390625</ele>
        <time>2009-09-10T09:25:21Z</time>
      </trkpt>
      <trkpt lat="45.86831" lon="4.6471">
        <ele>261.61596679688</ele>
        <time>2009-09-10T09:25:29Z</time>
      </trkpt>
      <trkpt lat="45.86804" lon="4.64731">
        <ele>262.5771484375</ele>
        <time>2009-09-10T09:25:37Z</time>
      </trkpt>
      <trkpt lat="45.86775" lon="4.64755">
        <ele>263.05786132812</ele>
        <time>2009-09-10T09:25:45Z</time>
      </trkpt>
      <trkpt lat="45.86747" lon="4.64774">
        <ele>263.53857421875</ele>
        <time>2009-09-10T09:25:52Z</time>
      </trkpt>
      <trkpt lat="45.86708" lon="4.64797">
        <ele>264.49987792969</ele>
        <time>2009-09-10T09:26:01Z</time>
      </trkpt>
      <trkpt lat="45.86687" lon="4.6481">
        <ele>264.98059082031</ele>
        <time>2009-09-10T09:26:06Z</time>
      </trkpt>
      <trkpt lat="45.86652" lon="4.64829">
        <ele>266.90319824219</ele>
        <time>2009-09-10T09:26:14Z</time>
      </trkpt>
      <trkpt lat="45.86626" lon="4.64843">
        <ele>266.90319824219</ele>
        <time>2009-09-10T09:26:20Z</time>
      </trkpt>
      <trkpt lat="45.86597" lon="4.64859">
        <ele>268.34509277344</ele>
        <time>2009-09-10T09:26:27Z</time>
      </trkpt>
      <trkpt lat="45.8656" lon="4.64879">
        <ele>270.26770019531</ele>
        <time>2009-09-10T09:26:36Z</time>
      </trkpt>
      <trkpt lat="45.86529" lon="4.649">
        <ele>272.1904296875</ele>
        <time>2009-09-10T09:26:44Z</time>
      </trkpt>
      <trkpt lat="45.86518" lon="4.64912">
        <ele>272.67114257812</ele>
        <time>2009-09-10T09:26:48Z</time>
      </trkpt>
      <trkpt lat="45.86502" lon="4.64935">
        <ele>274.11303710938</ele>
        <time>2009-09-10T09:26:54Z</time>
      </trkpt>
      <trkpt lat="45.86476" lon="4.64973">
        <ele>275.55505371094</ele>
        <time>2009-09-10T09:27:03Z</time>
      </trkpt>
      <trkpt lat="45.86473" lon="4.64977">
        <ele>276.03564453125</ele>
        <time>2009-09-10T09:27:04Z</time>
      </trkpt>
      <trkpt lat="45.8646" lon="4.64991">
        <ele>276.51635742188</ele>
        <time>2009-09-10T09:27:08Z</time>
      </trkpt>
      <trkpt lat="45.86431" lon="4.65039">
        <ele>277.47766113281</ele>
        <time>2009-09-10T09:27:18Z</time>
      </trkpt>
      <trkpt lat="45.86409" lon="4.65084">
        <ele>277.95825195312</ele>
        <time>2009-09-10T09:27:26Z</time>
      </trkpt>
      <trkpt lat="45.86395" lon="4.65123">
        <ele>275.55505371094</ele>
        <time>2009-09-10T09:27:31Z</time>
      </trkpt>
      <trkpt lat="45.8637" lon="4.65188">
        <ele>273.63244628906</ele>
        <time>2009-09-10T09:27:38Z</time>
      </trkpt>
      <trkpt lat="45.86352" lon="4.65253">
        <ele>272.67114257812</ele>
        <time>2009-09-10T09:27:44Z</time>
      </trkpt>
      <trkpt lat="45.86328" lon="4.65355">
        <ele>271.70971679688</ele>
        <time>2009-09-10T09:27:53Z</time>
      </trkpt>
      <trkpt lat="45.86306" lon="4.65451">
        <ele>272.1904296875</ele>
        <time>2009-09-10T09:28:02Z</time>
      </trkpt>
      <trkpt lat="45.86288" lon="4.65508">
        <ele>271.70971679688</ele>
        <time>2009-09-10T09:28:08Z</time>
      </trkpt>
      <trkpt lat="45.86263" lon="4.65587">
        <ele>270.74841308594</ele>
        <time>2009-09-10T09:28:16Z</time>
      </trkpt>
      <trkpt lat="45.86243" lon="4.65638">
        <ele>268.82580566406</ele>
        <time>2009-09-10T09:28:21Z</time>
      </trkpt>
      <trkpt lat="45.86204" lon="4.65727">
        <ele>267.86450195312</ele>
        <time>2009-09-10T09:28:29Z</time>
      </trkpt>
      <trkpt lat="45.86161" lon="4.65826">
        <ele>266.42248535156</ele>
        <time>2009-09-10T09:28:38Z</time>
      </trkpt>
      <trkpt lat="45.86124" lon="4.65911">
        <ele>265.46130371094</ele>
        <time>2009-09-10T09:28:46Z</time>
      </trkpt>
      <trkpt lat="45.86078" lon="4.66019">
        <ele>264.49987792969</ele>
        <time>2009-09-10T09:28:56Z</time>
      </trkpt>
      <trkpt lat="45.86071" lon="4.66038">
        <ele>265.46130371094</ele>
        <time>2009-09-10T09:28:58Z</time>
      </trkpt>
      <trkpt lat="45.8605" lon="4.6608">
        <ele>265.94189453125</ele>
        <time>2009-09-10T09:29:03Z</time>
      </trkpt>
      <trkpt lat="45.8602" lon="4.66108">
        <ele>266.90319824219</ele>
        <time>2009-09-10T09:29:08Z</time>
      </trkpt>
      <trkpt lat="45.85995" lon="4.66134">
        <ele>267.86450195312</ele>
        <time>2009-09-10T09:29:13Z</time>
      </trkpt>
      <trkpt lat="45.85965" lon="4.66185">
        <ele>267.86450195312</ele>
        <time>2009-09-10T09:29:21Z</time>
      </trkpt>
      <trkpt lat="45.85946" lon="4.66226">
        <ele>268.34509277344</ele>
        <time>2009-09-10T09:29:27Z</time>
      </trkpt>
      <trkpt lat="45.85917" lon="4.66275">
        <ele>267.86450195312</ele>
        <time>2009-09-10T09:29:35Z</time>
      </trkpt>
      <trkpt lat="45.85894" lon="4.66321">
        <ele>267.38391113281</ele>
        <time>2009-09-10T09:29:42Z</time>
      </trkpt>
      <trkpt lat="45.8588" lon="4.66361">
        <ele>265.46130371094</ele>
        <time>2009-09-10T09:29:47Z</time>
      </trkpt>
      <trkpt lat="45.85865" lon="4.66411">
        <ele>264.01928710938</ele>
        <time>2009-09-10T09:29:52Z</time>
      </trkpt>
      <trkpt lat="45.85855" lon="4.66462">
        <ele>260.65454101562</ele>
        <time>2009-09-10T09:29:56Z</time>
      </trkpt>
      <trkpt lat="45.85847" lon="4.66502">
        <ele>257.77075195312</ele>
        <time>2009-09-10T09:29:59Z</time>
      </trkpt>
      <trkpt lat="45.85842" lon="4.66526">
        <ele>256.32873535156</ele>
        <time>2009-09-10T09:30:01Z</time>
      </trkpt>
      <trkpt lat="45.85834" lon="4.66549">
        <ele>254.88659667969</ele>
        <time>2009-09-10T09:30:04Z</time>
      </trkpt>
      <trkpt lat="45.8582" lon="4.66561">
        <ele>253.92541503906</ele>
        <time>2009-09-10T09:30:07Z</time>
      </trkpt>
      <trkpt lat="45.85812" lon="4.66577">
        <ele>252.4833984375</ele>
        <time>2009-09-10T09:30:09Z</time>
      </trkpt>
      <trkpt lat="45.85815" lon="4.666">
        <ele>251.04138183594</ele>
        <time>2009-09-10T09:30:11Z</time>
      </trkpt>
      <trkpt lat="45.85832" lon="4.66634">
        <ele>247.19604492188</ele>
        <time>2009-09-10T09:30:14Z</time>
      </trkpt>
      <trkpt lat="45.85854" lon="4.66659">
        <ele>243.35083007812</ele>
        <time>2009-09-10T09:30:17Z</time>
      </trkpt>
      <trkpt lat="45.8587" lon="4.66674">
        <ele>240.94763183594</ele>
        <time>2009-09-10T09:30:20Z</time>
      </trkpt>
      <trkpt lat="45.85863" lon="4.66691">
        <ele>239.50549316406</ele>
        <time>2009-09-10T09:30:22Z</time>
      </trkpt>
      <trkpt lat="45.85847" lon="4.66699">
        <ele>238.06359863281</ele>
        <time>2009-09-10T09:30:24Z</time>
      </trkpt>
      <trkpt lat="45.85838" lon="4.66702">
        <ele>236.14099121094</ele>
        <time>2009-09-10T09:30:25Z</time>
      </trkpt>
      <trkpt lat="45.85801" lon="4.66727">
        <ele>231.81494140625</ele>
        <time>2009-09-10T09:30:29Z</time>
      </trkpt>
      <trkpt lat="45.85795" lon="4.66739">
        <ele>231.33435058594</ele>
        <time>2009-09-10T09:30:30Z</time>
      </trkpt>
      <trkpt lat="45.85791" lon="4.66752">
        <ele>230.373046875</ele>
        <time>2009-09-10T09:30:31Z</time>
      </trkpt>
      <trkpt lat="45.85764" lon="4.66832">
        <ele>226.52783203125</ele>
        <time>2009-09-10T09:30:37Z</time>
      </trkpt>
      <trkpt lat="45.85742" lon="4.66883">
        <ele>223.16320800781</ele>
        <time>2009-09-10T09:30:41Z</time>
      </trkpt>
      <trkpt lat="45.85719" lon="4.66909">
        <ele>218.35656738281</ele>
        <time>2009-09-10T09:30:44Z</time>
      </trkpt>
      <trkpt lat="45.85698" lon="4.66915">
        <ele>215.47265625</ele>
        <time>2009-09-10T09:30:47Z</time>
      </trkpt>
      <trkpt lat="45.8569" lon="4.66914">
        <ele>214.51123046875</ele>
        <time>2009-09-10T09:30:49Z</time>
      </trkpt>
      <trkpt lat="45.85686" lon="4.6691">
        <ele>214.99194335938</ele>
        <time>2009-09-10T09:30:53Z</time>
      </trkpt>
      <trkpt lat="45.85685" lon="4.66908">
        <ele>214.99194335938</ele>
        <time>2009-09-10T09:30:57Z</time>
      </trkpt>
      <trkpt lat="45.85685" lon="4.66909">
        <ele>214.99194335938</ele>
        <time>2009-09-10T09:30:58Z</time>
      </trkpt>
      <trkpt lat="45.85687" lon="4.66914">
        <ele>214.51123046875</ele>
        <time>2009-09-10T09:31:03Z</time>
      </trkpt>
      <trkpt lat="45.85685" lon="4.66914">
        <ele>214.51123046875</ele>
        <time>2009-09-10T09:31:04Z</time>
      </trkpt>
      <trkpt lat="45.85667" lon="4.66904">
        <ele>214.99194335938</ele>
        <time>2009-09-10T09:31:10Z</time>
      </trkpt>
      <trkpt lat="45.85649" lon="4.66894">
        <ele>215.47265625</ele>
        <time>2009-09-10T09:31:17Z</time>
      </trkpt>
      <trkpt lat="45.85637" lon="4.66876">
        <ele>215.95324707031</ele>
        <time>2009-09-10T09:31:22Z</time>
      </trkpt>
      <trkpt lat="45.85632" lon="4.66861">
        <ele>216.43395996094</ele>
        <time>2009-09-10T09:31:25Z</time>
      </trkpt>
      <trkpt lat="45.85629" lon="4.66867">
        <ele>216.91467285156</ele>
        <time>2009-09-10T09:31:28Z</time>
      </trkpt>
      <trkpt lat="45.85639" lon="4.66895">
        <ele>216.91467285156</ele>
        <time>2009-09-10T09:31:33Z</time>
      </trkpt>
      <trkpt lat="45.85655" lon="4.66909">
        <ele>216.43395996094</ele>
        <time>2009-09-10T09:31:37Z</time>
      </trkpt>
      <trkpt lat="45.85665" lon="4.66914">
        <ele>216.91467285156</ele>
        <time>2009-09-10T09:31:39Z</time>
      </trkpt>
      <trkpt lat="45.85666" lon="4.66921">
        <ele>214.99194335938</ele>
        <time>2009-09-10T09:31:42Z</time>
      </trkpt>
      <trkpt lat="45.85658" lon="4.66922">
        <ele>214.51123046875</ele>
        <time>2009-09-10T09:31:44Z</time>
      </trkpt>
      <trkpt lat="45.85646" lon="4.66924">
        <ele>214.03063964844</ele>
        <time>2009-09-10T09:31:46Z</time>
      </trkpt>
      <trkpt lat="45.85606" lon="4.6693">
        <ele>211.62744140625</ele>
        <time>2009-09-10T09:31:52Z</time>
      </trkpt>
      <trkpt lat="45.85558" lon="4.66942">
        <ele>213.0693359375</ele>
        <time>2009-09-10T09:31:59Z</time>
      </trkpt>
      <trkpt lat="45.85532" lon="4.66947">
        <ele>213.55004882812</ele>
        <time>2009-09-10T09:32:04Z</time>
      </trkpt>
      <trkpt lat="45.85527" lon="4.66948">
        <ele>213.0693359375</ele>
        <time>2009-09-10T09:32:07Z</time>
      </trkpt>
      <trkpt lat="45.85532" lon="4.66956">
        <ele>212.58862304688</ele>
        <time>2009-09-10T09:32:11Z</time>
      </trkpt>
      <trkpt lat="45.85534" lon="4.66961">
        <ele>213.0693359375</ele>
        <time>2009-09-10T09:32:12Z</time>
      </trkpt>
      <trkpt lat="45.85548" lon="4.67017">
        <ele>212.10803222656</ele>
        <time>2009-09-10T09:32:19Z</time>
      </trkpt>
      <trkpt lat="45.85566" lon="4.67074">
        <ele>212.10803222656</ele>
        <time>2009-09-10T09:32:26Z</time>
      </trkpt>
      <trkpt lat="45.85585" lon="4.67128">
        <ele>211.14672851562</ele>
        <time>2009-09-10T09:32:32Z</time>
      </trkpt>
      <trkpt lat="45.85608" lon="4.67182">
        <ele>211.62744140625</ele>
        <time>2009-09-10T09:32:39Z</time>
      </trkpt>
      <trkpt lat="45.85621" lon="4.67207">
        <ele>211.14672851562</ele>
        <time>2009-09-10T09:32:43Z</time>
      </trkpt>
      <trkpt lat="45.85654" lon="4.67238">
        <ele>210.666015625</ele>
        <time>2009-09-10T09:32:49Z</time>
      </trkpt>
      <trkpt lat="45.85689" lon="4.67259">
        <ele>208.74340820312</ele>
        <time>2009-09-10T09:32:54Z</time>
      </trkpt>
      <trkpt lat="45.85732" lon="4.67291">
        <ele>207.30139160156</ele>
        <time>2009-09-10T09:33:00Z</time>
      </trkpt>
      <trkpt lat="45.85756" lon="4.67314">
        <ele>206.82067871094</ele>
        <time>2009-09-10T09:33:04Z</time>
      </trkpt>
      <trkpt lat="45.85775" lon="4.67347">
        <ele>207.30139160156</ele>
        <time>2009-09-10T09:33:08Z</time>
      </trkpt>
      <trkpt lat="45.85775" lon="4.67363">
        <ele>207.30139160156</ele>
        <time>2009-09-10T09:33:11Z</time>
      </trkpt>
      <trkpt lat="45.85771" lon="4.67371">
        <ele>208.26281738281</ele>
        <time>2009-09-10T09:33:13Z</time>
      </trkpt>
      <trkpt lat="45.85749" lon="4.67412">
        <ele>208.74340820312</ele>
        <time>2009-09-10T09:33:21Z</time>
      </trkpt>
      <trkpt lat="45.85728" lon="4.67453">
        <ele>210.666015625</ele>
        <time>2009-09-10T09:33:29Z</time>
      </trkpt>
      <trkpt lat="45.85704" lon="4.67491">
        <ele>211.14672851562</ele>
        <time>2009-09-10T09:33:36Z</time>
      </trkpt>
      <trkpt lat="45.8567" lon="4.67535">
        <ele>211.14672851562</ele>
        <time>2009-09-10T09:33:44Z</time>
      </trkpt>
      <trkpt lat="45.8564" lon="4.67562">
        <ele>210.666015625</ele>
        <time>2009-09-10T09:33:50Z</time>
      </trkpt>
      <trkpt lat="45.85601" lon="4.67599">
        <ele>208.26281738281</ele>
        <time>2009-09-10T09:33:57Z</time>
      </trkpt>
      <trkpt lat="45.85595" lon="4.67605">
        <ele>208.26281738281</ele>
        <time>2009-09-10T09:33:58Z</time>
      </trkpt>
      <trkpt lat="45.8558" lon="4.67625">
        <ele>208.26281738281</ele>
        <time>2009-09-10T09:34:01Z</time>
      </trkpt>
      <trkpt lat="45.85536" lon="4.67672">
        <ele>208.26281738281</ele>
        <time>2009-09-10T09:34:09Z</time>
      </trkpt>
      <trkpt lat="45.8553" lon="4.67678">
        <ele>207.78210449219</ele>
        <time>2009-09-10T09:34:10Z</time>
      </trkpt>
      <trkpt lat="45.85499" lon="4.67735">
        <ele>206.82067871094</ele>
        <time>2009-09-10T09:34:17Z</time>
      </trkpt>
      <trkpt lat="45.85484" lon="4.67774">
        <ele>206.82067871094</ele>
        <time>2009-09-10T09:34:22Z</time>
      </trkpt>
      <trkpt lat="45.85484" lon="4.67808">
        <ele>206.82067871094</ele>
        <time>2009-09-10T09:34:26Z</time>
      </trkpt>
      <trkpt lat="45.85498" lon="4.67878">
        <ele>206.34008789062</ele>
        <time>2009-09-10T09:34:34Z</time>
      </trkpt>
      <trkpt lat="45.85504" lon="4.67902">
        <ele>206.82067871094</ele>
        <time>2009-09-10T09:34:37Z</time>
      </trkpt>
      <trkpt lat="45.85518" lon="4.67936">
        <ele>207.30139160156</ele>
        <time>2009-09-10T09:34:43Z</time>
      </trkpt>
      <trkpt lat="45.85526" lon="4.67957">
        <ele>207.30139160156</ele>
        <time>2009-09-10T09:34:48Z</time>
      </trkpt>
      <trkpt lat="45.85522" lon="4.67968">
        <ele>207.30139160156</ele>
        <time>2009-09-10T09:34:53Z</time>
      </trkpt>
      <trkpt lat="45.85515" lon="4.6798">
        <ele>207.30139160156</ele>
        <time>2009-09-10T09:34:58Z</time>
      </trkpt>
      <trkpt lat="45.85505" lon="4.68002">
        <ele>207.78210449219</ele>
        <time>2009-09-10T09:35:04Z</time>
      </trkpt>
      <trkpt lat="45.855" lon="4.68022">
        <ele>208.26281738281</ele>
        <time>2009-09-10T09:35:09Z</time>
      </trkpt>
      <trkpt lat="45.85487" lon="4.68037">
        <ele>208.74340820312</ele>
        <time>2009-09-10T09:35:14Z</time>
      </trkpt>
      <trkpt lat="45.85458" lon="4.68052">
        <ele>210.18542480469</ele>
        <time>2009-09-10T09:35:21Z</time>
      </trkpt>
      <trkpt lat="45.85445" lon="4.68062">
        <ele>211.62744140625</ele>
        <time>2009-09-10T09:35:26Z</time>
      </trkpt>
      <trkpt lat="45.85423" lon="4.68077">
        <ele>213.0693359375</ele>
        <time>2009-09-10T09:35:32Z</time>
      </trkpt>
      <trkpt lat="45.8539" lon="4.68103">
        <ele>214.51123046875</ele>
        <time>2009-09-10T09:35:41Z</time>
      </trkpt>
      <trkpt lat="45.85368" lon="4.68125">
        <ele>215.95324707031</ele>
        <time>2009-09-10T09:35:48Z</time>
      </trkpt>
      <trkpt lat="45.8534" lon="4.68156">
        <ele>217.39538574219</ele>
        <time>2009-09-10T09:35:56Z</time>
      </trkpt>
      <trkpt lat="45.85318" lon="4.68182">
        <ele>218.35656738281</ele>
        <time>2009-09-10T09:36:03Z</time>
      </trkpt>
      <trkpt lat="45.85309" lon="4.68203">
        <ele>219.31799316406</ele>
        <time>2009-09-10T09:36:08Z</time>
      </trkpt>
      <trkpt lat="45.85301" lon="4.68213">
        <ele>219.79858398438</ele>
        <time>2009-09-10T09:36:11Z</time>
      </trkpt>
      <trkpt lat="45.85282" lon="4.68242">
        <ele>221.72119140625</ele>
        <time>2009-09-10T09:36:20Z</time>
      </trkpt>
      <trkpt lat="45.85288" lon="4.68264">
        <ele>222.20178222656</ele>
        <time>2009-09-10T09:36:25Z</time>
      </trkpt>
      <trkpt lat="45.85295" lon="4.68278">
        <ele>222.20178222656</ele>
        <time>2009-09-10T09:36:28Z</time>
      </trkpt>
      <trkpt lat="45.85304" lon="4.68308">
        <ele>221.72119140625</ele>
        <time>2009-09-10T09:36:33Z</time>
      </trkpt>
      <trkpt lat="45.85328" lon="4.68363">
        <ele>220.27917480469</ele>
        <time>2009-09-10T09:36:41Z</time>
      </trkpt>
      <trkpt lat="45.8535" lon="4.68414">
        <ele>217.39538574219</ele>
        <time>2009-09-10T09:36:47Z</time>
      </trkpt>
      <trkpt lat="45.85363" lon="4.68445">
        <ele>215.47265625</ele>
        <time>2009-09-10T09:36:50Z</time>
      </trkpt>
      <trkpt lat="45.85382" lon="4.68488">
        <ele>211.62744140625</ele>
        <time>2009-09-10T09:36:54Z</time>
      </trkpt>
      <trkpt lat="45.85394" lon="4.68517">
        <ele>209.70483398438</ele>
        <time>2009-09-10T09:36:57Z</time>
      </trkpt>
      <trkpt lat="45.85405" lon="4.68562">
        <ele>208.26281738281</ele>
        <time>2009-09-10T09:37:03Z</time>
      </trkpt>
      <trkpt lat="45.85411" lon="4.68608">
        <ele>207.30139160156</ele>
        <time>2009-09-10T09:37:08Z</time>
      </trkpt>
      <trkpt lat="45.85417" lon="4.68684">
        <ele>205.85949707031</ele>
        <time>2009-09-10T09:37:15Z</time>
      </trkpt>
      <trkpt lat="45.85418" lon="4.68762">
        <ele>204.89807128906</ele>
        <time>2009-09-10T09:37:22Z</time>
      </trkpt>
      <trkpt lat="45.8541" lon="4.68813">
        <ele>203.93688964844</ele>
        <time>2009-09-10T09:37:27Z</time>
      </trkpt>
      <trkpt lat="45.85399" lon="4.68855">
        <ele>204.41748046875</ele>
        <time>2009-09-10T09:37:32Z</time>
      </trkpt>
      <trkpt lat="45.85384" lon="4.68917">
        <ele>204.89807128906</ele>
        <time>2009-09-10T09:37:39Z</time>
      </trkpt>
      <trkpt lat="45.85363" lon="4.68964">
        <ele>205.37878417969</ele>
        <time>2009-09-10T09:37:45Z</time>
      </trkpt>
      <trkpt lat="45.85324" lon="4.6904">
        <ele>205.85949707031</ele>
        <time>2009-09-10T09:37:55Z</time>
      </trkpt>
      <trkpt lat="45.85291" lon="4.69099">
        <ele>207.30139160156</ele>
        <time>2009-09-10T09:38:03Z</time>
      </trkpt>
      <trkpt lat="45.85263" lon="4.69144">
        <ele>206.82067871094</ele>
        <time>2009-09-10T09:38:10Z</time>
      </trkpt>
      <trkpt lat="45.8525" lon="4.69165">
        <ele>206.82067871094</ele>
        <time>2009-09-10T09:38:13Z</time>
      </trkpt>
      <trkpt lat="45.85223" lon="4.69183">
        <ele>207.30139160156</ele>
        <time>2009-09-10T09:38:18Z</time>
      </trkpt>
      <trkpt lat="45.85182" lon="4.69195">
        <ele>208.26281738281</ele>
        <time>2009-09-10T09:38:26Z</time>
      </trkpt>
      <trkpt lat="45.85172" lon="4.69213">
        <ele>207.78210449219</ele>
        <time>2009-09-10T09:38:30Z</time>
      </trkpt>
      <trkpt lat="45.85173" lon="4.69228">
        <ele>209.22412109375</ele>
        <time>2009-09-10T09:38:32Z</time>
      </trkpt>
      <trkpt lat="45.85175" lon="4.69255">
        <ele>208.74340820312</ele>
        <time>2009-09-10T09:38:36Z</time>
      </trkpt>
      <trkpt lat="45.85185" lon="4.6928">
        <ele>208.26281738281</ele>
        <time>2009-09-10T09:38:41Z</time>
      </trkpt>
      <trkpt lat="45.8519" lon="4.69285">
        <ele>207.30139160156</ele>
        <time>2009-09-10T09:38:42Z</time>
      </trkpt>
      <trkpt lat="45.85204" lon="4.69295">
        <ele>207.30139160156</ele>
        <time>2009-09-10T09:38:44Z</time>
      </trkpt>
      <trkpt lat="45.85212" lon="4.69315">
        <ele>206.82067871094</ele>
        <time>2009-09-10T09:38:47Z</time>
      </trkpt>
      <trkpt lat="45.85209" lon="4.69323">
        <ele>206.82067871094</ele>
        <time>2009-09-10T09:38:49Z</time>
      </trkpt>
      <trkpt lat="45.8519" lon="4.69374">
        <ele>206.34008789062</ele>
        <time>2009-09-10T09:38:58Z</time>
      </trkpt>
      <trkpt lat="45.85186" lon="4.69388">
        <ele>205.85949707031</ele>
        <time>2009-09-10T09:39:00Z</time>
      </trkpt>
      <trkpt lat="45.85173" lon="4.69434">
        <ele>207.78210449219</ele>
        <time>2009-09-10T09:39:07Z</time>
      </trkpt>
      <trkpt lat="45.8517" lon="4.69467">
        <ele>208.74340820312</ele>
        <time>2009-09-10T09:39:12Z</time>
      </trkpt>
      <trkpt lat="45.85165" lon="4.6953">
        <ele>209.22412109375</ele>
        <time>2009-09-10T09:39:21Z</time>
      </trkpt>
      <trkpt lat="45.8516" lon="4.69582">
        <ele>210.18542480469</ele>
        <time>2009-09-10T09:39:29Z</time>
      </trkpt>
      <trkpt lat="45.85159" lon="4.69625">
        <ele>211.14672851562</ele>
        <time>2009-09-10T09:39:37Z</time>
      </trkpt>
      <trkpt lat="45.85157" lon="4.69674">
        <ele>211.14672851562</ele>
        <time>2009-09-10T09:39:44Z</time>
      </trkpt>
      <trkpt lat="45.8516" lon="4.69691">
        <ele>210.666015625</ele>
        <time>2009-09-10T09:39:46Z</time>
      </trkpt>
      <trkpt lat="45.85178" lon="4.69742">
        <ele>209.22412109375</ele>
        <time>2009-09-10T09:39:52Z</time>
      </trkpt>
      <trkpt lat="45.85186" lon="4.69759">
        <ele>208.74340820312</ele>
        <time>2009-09-10T09:39:54Z</time>
      </trkpt>
      <trkpt lat="45.85203" lon="4.69778">
        <ele>207.78210449219</ele>
        <time>2009-09-10T09:39:57Z</time>
      </trkpt>
      <trkpt lat="45.85244" lon="4.69802">
        <ele>207.30139160156</ele>
        <time>2009-09-10T09:40:03Z</time>
      </trkpt>
      <trkpt lat="45.8525" lon="4.69807">
        <ele>207.30139160156</ele>
        <time>2009-09-10T09:40:04Z</time>
      </trkpt>
      <trkpt lat="45.85267" lon="4.69841">
        <ele>206.82067871094</ele>
        <time>2009-09-10T09:40:08Z</time>
      </trkpt>
      <trkpt lat="45.85271" lon="4.69862">
        <ele>206.82067871094</ele>
        <time>2009-09-10T09:40:10Z</time>
      </trkpt>
      <trkpt lat="45.85294" lon="4.69923">
        <ele>205.37878417969</ele>
        <time>2009-09-10T09:40:16Z</time>
      </trkpt>
      <trkpt lat="45.85319" lon="4.69982">
        <ele>203.93688964844</ele>
        <time>2009-09-10T09:40:22Z</time>
      </trkpt>
      <trkpt lat="45.85329" lon="4.70015">
        <ele>202.97546386719</ele>
        <time>2009-09-10T09:40:25Z</time>
      </trkpt>
      <trkpt lat="45.85342" lon="4.70091">
        <ele>202.01428222656</ele>
        <time>2009-09-10T09:40:32Z</time>
      </trkpt>
      <trkpt lat="45.85365" lon="4.70177">
        <ele>202.49487304688</ele>
        <time>2009-09-10T09:40:41Z</time>
      </trkpt>
      <trkpt lat="45.85374" lon="4.70213">
        <ele>202.01428222656</ele>
        <time>2009-09-10T09:40:45Z</time>
      </trkpt>
      <trkpt lat="45.8539" lon="4.70238">
        <ele>202.97546386719</ele>
        <time>2009-09-10T09:40:49Z</time>
      </trkpt>
      <trkpt lat="45.85395" lon="4.70242">
        <ele>203.45617675781</ele>
        <time>2009-09-10T09:40:50Z</time>
      </trkpt>
      <trkpt lat="45.85435" lon="4.70272">
        <ele>202.01428222656</ele>
        <time>2009-09-10T09:40:58Z</time>
      </trkpt>
      <trkpt lat="45.85451" lon="4.70285">
        <ele>201.05285644531</ele>
        <time>2009-09-10T09:41:01Z</time>
      </trkpt>
      <trkpt lat="45.85474" lon="4.70315">
        <ele>201.53356933594</ele>
        <time>2009-09-10T09:41:06Z</time>
      </trkpt>
      <trkpt lat="45.855" lon="4.70375">
        <ele>201.05285644531</ele>
        <time>2009-09-10T09:41:13Z</time>
      </trkpt>
      <trkpt lat="45.85517" lon="4.70425">
        <ele>201.53356933594</ele>
        <time>2009-09-10T09:41:19Z</time>
      </trkpt>
      <trkpt lat="45.85523" lon="4.70459">
        <ele>201.53356933594</ele>
        <time>2009-09-10T09:41:23Z</time>
      </trkpt>
      <trkpt lat="45.85538" lon="4.70539">
        <ele>202.01428222656</ele>
        <time>2009-09-10T09:41:32Z</time>
      </trkpt>
      <trkpt lat="45.8555" lon="4.70597">
        <ele>201.53356933594</ele>
        <time>2009-09-10T09:41:39Z</time>
      </trkpt>
      <trkpt lat="45.85553" lon="4.70619">
        <ele>202.01428222656</ele>
        <time>2009-09-10T09:41:42Z</time>
      </trkpt>
      <trkpt lat="45.85557" lon="4.70654">
        <ele>203.45617675781</ele>
        <time>2009-09-10T09:41:48Z</time>
      </trkpt>
      <trkpt lat="45.85546" lon="4.70662">
        <ele>204.41748046875</ele>
        <time>2009-09-10T09:41:52Z</time>
      </trkpt>
      <trkpt lat="45.85535" lon="4.70654">
        <ele>205.37878417969</ele>
        <time>2009-09-10T09:41:55Z</time>
      </trkpt>
      <trkpt lat="45.855" lon="4.70627">
        <ele>207.30139160156</ele>
        <time>2009-09-10T09:42:05Z</time>
      </trkpt>
      <trkpt lat="45.85474" lon="4.70614">
        <ele>208.26281738281</ele>
        <time>2009-09-10T09:42:12Z</time>
      </trkpt>
      <trkpt lat="45.85459" lon="4.70608">
        <ele>210.18542480469</ele>
        <time>2009-09-10T09:42:18Z</time>
      </trkpt>
      <trkpt lat="45.85443" lon="4.70605">
        <ele>212.10803222656</ele>
        <time>2009-09-10T09:42:25Z</time>
      </trkpt>
      <trkpt lat="45.85428" lon="4.7061">
        <ele>214.99194335938</ele>
        <time>2009-09-10T09:42:32Z</time>
      </trkpt>
      <trkpt lat="45.85421" lon="4.70623">
        <ele>215.95324707031</ele>
        <time>2009-09-10T09:42:37Z</time>
      </trkpt>
      <trkpt lat="45.85419" lon="4.70647">
        <ele>218.35656738281</ele>
        <time>2009-09-10T09:42:44Z</time>
      </trkpt>
      <trkpt lat="45.85426" lon="4.70673">
        <ele>219.79858398438</ele>
        <time>2009-09-10T09:42:51Z</time>
      </trkpt>
      <trkpt lat="45.85436" lon="4.70709">
        <ele>220.75988769531</ele>
        <time>2009-09-10T09:43:00Z</time>
      </trkpt>
      <trkpt lat="45.85447" lon="4.70752">
        <ele>222.68249511719</ele>
        <time>2009-09-10T09:43:10Z</time>
      </trkpt>
      <trkpt lat="45.85458" lon="4.70796">
        <ele>223.64379882812</ele>
        <time>2009-09-10T09:43:19Z</time>
      </trkpt>
      <trkpt lat="45.85466" lon="4.70834">
        <ele>224.12451171875</ele>
        <time>2009-09-10T09:43:26Z</time>
      </trkpt>
      <trkpt lat="45.85479" lon="4.70876">
        <ele>225.0859375</ele>
        <time>2009-09-10T09:43:34Z</time>
      </trkpt>
      <trkpt lat="45.85489" lon="4.70899">
        <ele>224.60522460938</ele>
        <time>2009-09-10T09:43:39Z</time>
      </trkpt>
      <trkpt lat="45.85489" lon="4.70913">
        <ele>224.60522460938</ele>
        <time>2009-09-10T09:43:43Z</time>
      </trkpt>
      <trkpt lat="45.85487" lon="4.70925">
        <ele>224.60522460938</ele>
        <time>2009-09-10T09:43:47Z</time>
      </trkpt>
      <trkpt lat="45.85487" lon="4.70926">
        <ele>224.60522460938</ele>
        <time>2009-09-10T09:43:48Z</time>
      </trkpt>
      <trkpt lat="45.8549" lon="4.70932">
        <ele>224.60522460938</ele>
        <time>2009-09-10T09:43:52Z</time>
      </trkpt>
      <trkpt lat="45.85496" lon="4.70933">
        <ele>224.12451171875</ele>
        <time>2009-09-10T09:43:55Z</time>
      </trkpt>
      <trkpt lat="45.85498" lon="4.7095">
        <ele>223.64379882812</ele>
        <time>2009-09-10T09:44:01Z</time>
      </trkpt>
      <trkpt lat="45.85497" lon="4.70969">
        <ele>223.64379882812</ele>
        <time>2009-09-10T09:44:06Z</time>
      </trkpt>
      <trkpt lat="45.85497" lon="4.70996">
        <ele>223.16320800781</ele>
        <time>2009-09-10T09:44:12Z</time>
      </trkpt>
      <trkpt lat="45.85504" lon="4.71019">
        <ele>222.20178222656</ele>
        <time>2009-09-10T09:44:18Z</time>
      </trkpt>
      <trkpt lat="45.85517" lon="4.71034">
        <ele>221.72119140625</ele>
        <time>2009-09-10T09:44:22Z</time>
      </trkpt>
      <trkpt lat="45.85521" lon="4.71059">
        <ele>220.75988769531</ele>
        <time>2009-09-10T09:44:26Z</time>
      </trkpt>
      <trkpt lat="45.85519" lon="4.71089">
        <ele>219.79858398438</ele>
        <time>2009-09-10T09:44:30Z</time>
      </trkpt>
      <trkpt lat="45.85518" lon="4.71114">
        <ele>218.83728027344</ele>
        <time>2009-09-10T09:44:33Z</time>
      </trkpt>
      <trkpt lat="45.85519" lon="4.71136">
        <ele>216.43395996094</ele>
        <time>2009-09-10T09:44:36Z</time>
      </trkpt>
      <trkpt lat="45.85509" lon="4.71161">
        <ele>214.51123046875</ele>
        <time>2009-09-10T09:44:41Z</time>
      </trkpt>
      <trkpt lat="45.85497" lon="4.71178">
        <ele>211.62744140625</ele>
        <time>2009-09-10T09:44:46Z</time>
      </trkpt>
      <trkpt lat="45.85487" lon="4.7119">
        <ele>208.74340820312</ele>
        <time>2009-09-10T09:44:50Z</time>
      </trkpt>
      <trkpt lat="45.85482" lon="4.71209">
        <ele>206.82067871094</ele>
        <time>2009-09-10T09:44:53Z</time>
      </trkpt>
      <trkpt lat="45.8548" lon="4.71243">
        <ele>204.41748046875</ele>
        <time>2009-09-10T09:44:59Z</time>
      </trkpt>
      <trkpt lat="45.8548" lon="4.71243">
        <ele>204.41748046875</ele>
        <time>2009-09-10T09:45:04Z</time>
      </trkpt>
      <trkpt lat="45.85482" lon="4.7125">
        <ele>204.41748046875</ele>
        <time>2009-09-10T09:45:11Z</time>
      </trkpt>
      <trkpt lat="45.85484" lon="4.71253">
        <ele>205.37878417969</ele>
        <time>2009-09-10T09:45:14Z</time>
      </trkpt>
      <trkpt lat="45.85491" lon="4.71255">
        <ele>204.89807128906</ele>
        <time>2009-09-10T09:45:20Z</time>
      </trkpt>
      <trkpt lat="45.85505" lon="4.71261">
        <ele>206.34008789062</ele>
        <time>2009-09-10T09:45:27Z</time>
      </trkpt>
      <trkpt lat="45.85522" lon="4.71267">
        <ele>209.70483398438</ele>
        <time>2009-09-10T09:45:35Z</time>
      </trkpt>
      <trkpt lat="45.85532" lon="4.71269">
        <ele>211.14672851562</ele>
        <time>2009-09-10T09:45:40Z</time>
      </trkpt>
      <trkpt lat="45.85551" lon="4.71275">
        <ele>213.55004882812</ele>
        <time>2009-09-10T09:45:48Z</time>
      </trkpt>
      <trkpt lat="45.85568" lon="4.7128">
        <ele>215.95324707031</ele>
        <time>2009-09-10T09:45:56Z</time>
      </trkpt>
      <trkpt lat="45.85575" lon="4.7128">
        <ele>217.39538574219</ele>
        <time>2009-09-10T09:45:59Z</time>
      </trkpt>
      <trkpt lat="45.85582" lon="4.71284">
        <ele>218.83728027344</ele>
        <time>2009-09-10T09:46:02Z</time>
      </trkpt>
      <trkpt lat="45.85599" lon="4.71288">
        <ele>220.27917480469</ele>
        <time>2009-09-10T09:46:09Z</time>
      </trkpt>
      <trkpt lat="45.85606" lon="4.71294">
        <ele>219.79858398438</ele>
        <time>2009-09-10T09:46:14Z</time>
      </trkpt>
      <trkpt lat="45.8561" lon="4.71292">
        <ele>219.79858398438</ele>
        <time>2009-09-10T09:46:20Z</time>
      </trkpt>
      <trkpt lat="45.85617" lon="4.71281">
        <ele>218.83728027344</ele>
        <time>2009-09-10T09:46:24Z</time>
      </trkpt>
      <trkpt lat="45.85619" lon="4.71276">
        <ele>217.8759765625</ele>
        <time>2009-09-10T09:46:25Z</time>
      </trkpt>
      <trkpt lat="45.8564" lon="4.7126">
        <ele>216.43395996094</ele>
        <time>2009-09-10T09:46:29Z</time>
      </trkpt>
      <trkpt lat="45.85661" lon="4.71267">
        <ele>214.51123046875</ele>
        <time>2009-09-10T09:46:32Z</time>
      </trkpt>
      <trkpt lat="45.85673" lon="4.71277">
        <ele>213.0693359375</ele>
        <time>2009-09-10T09:46:34Z</time>
      </trkpt>
      <trkpt lat="45.85707" lon="4.71291">
        <ele>209.70483398438</ele>
        <time>2009-09-10T09:46:39Z</time>
      </trkpt>
      <trkpt lat="45.85727" lon="4.71294">
        <ele>206.82067871094</ele>
        <time>2009-09-10T09:46:42Z</time>
      </trkpt>
      <trkpt lat="45.85732" lon="4.71296">
        <ele>205.37878417969</ele>
        <time>2009-09-10T09:46:43Z</time>
      </trkpt>
      <trkpt lat="45.85748" lon="4.71287">
        <ele>203.93688964844</ele>
        <time>2009-09-10T09:46:47Z</time>
      </trkpt>
      <trkpt lat="45.85762" lon="4.71249">
        <ele>203.93688964844</ele>
        <time>2009-09-10T09:46:55Z</time>
      </trkpt>
      <trkpt lat="45.8577" lon="4.71219">
        <ele>204.41748046875</ele>
        <time>2009-09-10T09:47:02Z</time>
      </trkpt>
      <trkpt lat="45.85774" lon="4.71205">
        <ele>203.93688964844</ele>
        <time>2009-09-10T09:47:07Z</time>
      </trkpt>
      <trkpt lat="45.85778" lon="4.71192">
        <ele>203.93688964844</ele>
        <time>2009-09-10T09:47:12Z</time>
      </trkpt>
      <trkpt lat="45.85778" lon="4.71183">
        <ele>203.93688964844</ele>
        <time>2009-09-10T09:47:15Z</time>
      </trkpt>
      <trkpt lat="45.85777" lon="4.71173">
        <ele>203.45617675781</ele>
        <time>2009-09-10T09:47:20Z</time>
      </trkpt>
      <trkpt lat="45.85781" lon="4.71168">
        <ele>203.45617675781</ele>
        <time>2009-09-10T09:47:23Z</time>
      </trkpt>
      <trkpt lat="45.85783" lon="4.71163">
        <ele>203.45617675781</ele>
        <time>2009-09-10T09:47:28Z</time>
      </trkpt>
      <trkpt lat="45.85784" lon="4.71162">
        <ele>202.97546386719</ele>
        <time>2009-09-10T09:47:32Z</time>
      </trkpt>
      <trkpt lat="45.85783" lon="4.7115">
        <ele>202.97546386719</ele>
        <time>2009-09-10T09:47:38Z</time>
      </trkpt>
      <trkpt lat="45.85599" lon="4.7131">
        <ele>223.64379882812</ele>
        <time>2009-09-10T10:05:28Z</time>
      </trkpt>
      <trkpt lat="45.85597" lon="4.71312">
        <ele>223.64379882812</ele>
        <time>2009-09-10T10:05:29Z</time>
      </trkpt>
      <trkpt lat="45.85595" lon="4.71314">
        <ele>223.64379882812</ele>
        <time>2009-09-10T10:05:30Z</time>
      </trkpt>
      <trkpt lat="45.85581" lon="4.71328">
        <ele>224.60522460938</ele>
        <time>2009-09-10T10:05:37Z</time>
      </trkpt>
      <trkpt lat="45.85568" lon="4.71333">
        <ele>225.56652832031</ele>
        <time>2009-09-10T10:05:44Z</time>
      </trkpt>
      <trkpt lat="45.85554" lon="4.71339">
        <ele>227.00854492188</ele>
        <time>2009-09-10T10:05:51Z</time>
      </trkpt>
      <trkpt lat="45.85538" lon="4.71345">
        <ele>228.45043945312</ele>
        <time>2009-09-10T10:05:58Z</time>
      </trkpt>
      <trkpt lat="45.85524" lon="4.71349">
        <ele>229.41174316406</ele>
        <time>2009-09-10T10:06:05Z</time>
      </trkpt>
      <trkpt lat="45.85512" lon="4.71352">
        <ele>231.33435058594</ele>
        <time>2009-09-10T10:06:11Z</time>
      </trkpt>
      <trkpt lat="45.85491" lon="4.71359">
        <ele>233.25708007812</ele>
        <time>2009-09-10T10:06:21Z</time>
      </trkpt>
      <trkpt lat="45.8548" lon="4.71364">
        <ele>234.69909667969</ele>
        <time>2009-09-10T10:06:27Z</time>
      </trkpt>
      <trkpt lat="45.85464" lon="4.71374">
        <ele>237.10229492188</ele>
        <time>2009-09-10T10:06:36Z</time>
      </trkpt>
      <trkpt lat="45.8545" lon="4.71385">
        <ele>238.06359863281</ele>
        <time>2009-09-10T10:06:44Z</time>
      </trkpt>
      <trkpt lat="45.85438" lon="4.71395">
        <ele>239.98620605469</ele>
        <time>2009-09-10T10:06:51Z</time>
      </trkpt>
      <trkpt lat="45.85426" lon="4.71407">
        <ele>240.94763183594</ele>
        <time>2009-09-10T10:06:58Z</time>
      </trkpt>
      <trkpt lat="45.8541" lon="4.71419">
        <ele>241.42822265625</ele>
        <time>2009-09-10T10:07:05Z</time>
      </trkpt>
      <trkpt lat="45.85394" lon="4.71434">
        <ele>241.90893554688</ele>
        <time>2009-09-10T10:07:12Z</time>
      </trkpt>
      <trkpt lat="45.85375" lon="4.71452">
        <ele>242.3896484375</ele>
        <time>2009-09-10T10:07:19Z</time>
      </trkpt>
      <trkpt lat="45.85352" lon="4.71471">
        <ele>243.35083007812</ele>
        <time>2009-09-10T10:07:27Z</time>
      </trkpt>
      <trkpt lat="45.85335" lon="4.71487">
        <ele>243.83154296875</ele>
        <time>2009-09-10T10:07:34Z</time>
      </trkpt>
      <trkpt lat="45.8531" lon="4.7151">
        <ele>244.79284667969</ele>
        <time>2009-09-10T10:07:42Z</time>
      </trkpt>
      <trkpt lat="45.85287" lon="4.71529">
        <ele>245.75415039062</ele>
        <time>2009-09-10T10:07:49Z</time>
      </trkpt>
      <trkpt lat="45.8526" lon="4.71546">
        <ele>246.23486328125</ele>
        <time>2009-09-10T10:07:56Z</time>
      </trkpt>
      <trkpt lat="45.85232" lon="4.71559">
        <ele>245.75415039062</ele>
        <time>2009-09-10T10:08:02Z</time>
      </trkpt>
      <trkpt lat="45.85192" lon="4.71577">
        <ele>244.79284667969</ele>
        <time>2009-09-10T10:08:09Z</time>
      </trkpt>
      <trkpt lat="45.85151" lon="4.71594">
        <ele>243.83154296875</ele>
        <time>2009-09-10T10:08:16Z</time>
      </trkpt>
      <trkpt lat="45.85124" lon="4.71593">
        <ele>244.79284667969</ele>
        <time>2009-09-10T10:08:21Z</time>
      </trkpt>
      <trkpt lat="45.85107" lon="4.71602">
        <ele>244.79284667969</ele>
        <time>2009-09-10T10:08:25Z</time>
      </trkpt>
      <trkpt lat="45.85085" lon="4.71619">
        <ele>244.79284667969</ele>
        <time>2009-09-10T10:08:32Z</time>
      </trkpt>
      <trkpt lat="45.85062" lon="4.71629">
        <ele>245.2734375</ele>
        <time>2009-09-10T10:08:38Z</time>
      </trkpt>
      <trkpt lat="45.85033" lon="4.71643">
        <ele>245.75415039062</ele>
        <time>2009-09-10T10:08:45Z</time>
      </trkpt>
      <trkpt lat="45.85006" lon="4.71656">
        <ele>247.6767578125</ele>
        <time>2009-09-10T10:08:53Z</time>
      </trkpt>
      <trkpt lat="45.8497" lon="4.71668">
        <ele>249.59948730469</ele>
        <time>2009-09-10T10:09:04Z</time>
      </trkpt>
      <trkpt lat="45.84943" lon="4.71664">
        <ele>251.04138183594</ele>
        <time>2009-09-10T10:09:12Z</time>
      </trkpt>
      <trkpt lat="45.84919" lon="4.71663">
        <ele>252.00280761719</ele>
        <time>2009-09-10T10:09:19Z</time>
      </trkpt>
      <trkpt lat="45.84887" lon="4.71669">
        <ele>252.96398925781</ele>
        <time>2009-09-10T10:09:28Z</time>
      </trkpt>
      <trkpt lat="45.84865" lon="4.71678">
        <ele>253.44470214844</ele>
        <time>2009-09-10T10:09:34Z</time>
      </trkpt>
      <trkpt lat="45.84844" lon="4.71692">
        <ele>253.44470214844</ele>
        <time>2009-09-10T10:09:40Z</time>
      </trkpt>
      <trkpt lat="45.84819" lon="4.71705">
        <ele>253.92541503906</ele>
        <time>2009-09-10T10:09:46Z</time>
      </trkpt>
      <trkpt lat="45.84792" lon="4.71724">
        <ele>253.92541503906</ele>
        <time>2009-09-10T10:09:53Z</time>
      </trkpt>
      <trkpt lat="45.84758" lon="4.71752">
        <ele>253.44470214844</ele>
        <time>2009-09-10T10:10:00Z</time>
      </trkpt>
      <trkpt lat="45.84737" lon="4.71763">
        <ele>252.4833984375</ele>
        <time>2009-09-10T10:10:04Z</time>
      </trkpt>
      <trkpt lat="45.84695" lon="4.7178">
        <ele>252.96398925781</ele>
        <time>2009-09-10T10:10:12Z</time>
      </trkpt>
      <trkpt lat="45.84656" lon="4.71803">
        <ele>253.92541503906</ele>
        <time>2009-09-10T10:10:20Z</time>
      </trkpt>
      <trkpt lat="45.84631" lon="4.71816">
        <ele>253.92541503906</ele>
        <time>2009-09-10T10:10:26Z</time>
      </trkpt>
      <trkpt lat="45.84605" lon="4.71831">
        <ele>254.40600585938</ele>
        <time>2009-09-10T10:10:33Z</time>
      </trkpt>
      <trkpt lat="45.84576" lon="4.7185">
        <ele>256.32873535156</ele>
        <time>2009-09-10T10:10:41Z</time>
      </trkpt>
      <trkpt lat="45.84555" lon="4.71864">
        <ele>256.32873535156</ele>
        <time>2009-09-10T10:10:47Z</time>
      </trkpt>
      <trkpt lat="45.84535" lon="4.71877">
        <ele>257.77075195312</ele>
        <time>2009-09-10T10:10:53Z</time>
      </trkpt>
      <trkpt lat="45.84514" lon="4.71896">
        <ele>258.25134277344</ele>
        <time>2009-09-10T10:11:00Z</time>
      </trkpt>
      <trkpt lat="45.84483" lon="4.7192">
        <ele>258.73193359375</ele>
        <time>2009-09-10T10:11:10Z</time>
      </trkpt>
      <trkpt lat="45.84458" lon="4.71932">
        <ele>259.693359375</ele>
        <time>2009-09-10T10:11:17Z</time>
      </trkpt>
      <trkpt lat="45.84432" lon="4.71939">
        <ele>260.65454101562</ele>
        <time>2009-09-10T10:11:24Z</time>
      </trkpt>
      <trkpt lat="45.84408" lon="4.71947">
        <ele>261.13525390625</ele>
        <time>2009-09-10T10:11:31Z</time>
      </trkpt>
      <trkpt lat="45.84381" lon="4.71956">
        <ele>262.5771484375</ele>
        <time>2009-09-10T10:11:39Z</time>
      </trkpt>
      <trkpt lat="45.84367" lon="4.7196">
        <ele>264.01928710938</ele>
        <time>2009-09-10T10:11:45Z</time>
      </trkpt>
      <trkpt lat="45.84346" lon="4.71967">
        <ele>264.49987792969</ele>
        <time>2009-09-10T10:11:52Z</time>
      </trkpt>
      <trkpt lat="45.84318" lon="4.7198">
        <ele>265.94189453125</ele>
        <time>2009-09-10T10:12:02Z</time>
      </trkpt>
      <trkpt lat="45.84285" lon="4.71998">
        <ele>267.38391113281</ele>
        <time>2009-09-10T10:12:15Z</time>
      </trkpt>
      <trkpt lat="45.84261" lon="4.7201">
        <ele>268.34509277344</ele>
        <time>2009-09-10T10:12:24Z</time>
      </trkpt>
      <trkpt lat="45.84246" lon="4.72019">
        <ele>270.26770019531</ele>
        <time>2009-09-10T10:12:31Z</time>
      </trkpt>
      <trkpt lat="45.84229" lon="4.72027">
        <ele>272.1904296875</ele>
        <time>2009-09-10T10:12:39Z</time>
      </trkpt>
      <trkpt lat="45.84212" lon="4.72039">
        <ele>272.67114257812</ele>
        <time>2009-09-10T10:12:47Z</time>
      </trkpt>
      <trkpt lat="45.8419" lon="4.72059">
        <ele>274.11303710938</ele>
        <time>2009-09-10T10:12:55Z</time>
      </trkpt>
      <trkpt lat="45.84158" lon="4.72091">
        <ele>275.07446289062</ele>
        <time>2009-09-10T10:13:07Z</time>
      </trkpt>
      <trkpt lat="45.84137" lon="4.7211">
        <ele>276.03564453125</ele>
        <time>2009-09-10T10:13:15Z</time>
      </trkpt>
      <trkpt lat="45.84111" lon="4.72129">
        <ele>276.03564453125</ele>
        <time>2009-09-10T10:13:23Z</time>
      </trkpt>
      <trkpt lat="45.84082" lon="4.72146">
        <ele>275.07446289062</ele>
        <time>2009-09-10T10:13:30Z</time>
      </trkpt>
      <trkpt lat="45.84053" lon="4.72164">
        <ele>275.07446289062</ele>
        <time>2009-09-10T10:13:37Z</time>
      </trkpt>
      <trkpt lat="45.84048" lon="4.72166">
        <ele>275.55505371094</ele>
        <time>2009-09-10T10:13:38Z</time>
      </trkpt>
      <trkpt lat="45.84033" lon="4.72168">
        <ele>274.59375</ele>
        <time>2009-09-10T10:13:41Z</time>
      </trkpt>
      <trkpt lat="45.84021" lon="4.72152">
        <ele>275.07446289062</ele>
        <time>2009-09-10T10:13:45Z</time>
      </trkpt>
      <trkpt lat="45.84021" lon="4.72132">
        <ele>273.63244628906</ele>
        <time>2009-09-10T10:13:48Z</time>
      </trkpt>
      <trkpt lat="45.84018" lon="4.72073">
        <ele>273.15185546875</ele>
        <time>2009-09-10T10:13:55Z</time>
      </trkpt>
      <trkpt lat="45.84015" lon="4.72036">
        <ele>273.63244628906</ele>
        <time>2009-09-10T10:14:00Z</time>
      </trkpt>
      <trkpt lat="45.84013" lon="4.72002">
        <ele>274.59375</ele>
        <time>2009-09-10T10:14:06Z</time>
      </trkpt>
      <trkpt lat="45.84011" lon="4.71968">
        <ele>275.07446289062</ele>
        <time>2009-09-10T10:14:13Z</time>
      </trkpt>
      <trkpt lat="45.84009" lon="4.7193">
        <ele>277.47766113281</ele>
        <time>2009-09-10T10:14:22Z</time>
      </trkpt>
      <trkpt lat="45.84005" lon="4.71891">
        <ele>279.40026855469</ele>
        <time>2009-09-10T10:14:32Z</time>
      </trkpt>
      <trkpt lat="45.83994" lon="4.71873">
        <ele>279.880859375</ele>
        <time>2009-09-10T10:14:37Z</time>
      </trkpt>
      <trkpt lat="45.83971" lon="4.7184">
        <ele>278.91967773438</ele>
        <time>2009-09-10T10:14:44Z</time>
      </trkpt>
      <trkpt lat="45.83957" lon="4.71819">
        <ele>278.91967773438</ele>
        <time>2009-09-10T10:14:48Z</time>
      </trkpt>
      <trkpt lat="45.83947" lon="4.71788">
        <ele>278.43896484375</ele>
        <time>2009-09-10T10:14:53Z</time>
      </trkpt>
      <trkpt lat="45.83942" lon="4.71774">
        <ele>277.95825195312</ele>
        <time>2009-09-10T10:14:55Z</time>
      </trkpt>
      <trkpt lat="45.83927" lon="4.71754">
        <ele>277.47766113281</ele>
        <time>2009-09-10T10:14:59Z</time>
      </trkpt>
      <trkpt lat="45.83923" lon="4.71752">
        <ele>277.47766113281</ele>
        <time>2009-09-10T10:15:00Z</time>
      </trkpt>
      <trkpt lat="45.83887" lon="4.71734">
        <ele>275.55505371094</ele>
        <time>2009-09-10T10:15:07Z</time>
      </trkpt>
      <trkpt lat="45.83855" lon="4.71722">
        <ele>274.11303710938</ele>
        <time>2009-09-10T10:15:12Z</time>
      </trkpt>
      <trkpt lat="45.83832" lon="4.71715">
        <ele>273.63244628906</ele>
        <time>2009-09-10T10:15:16Z</time>
      </trkpt>
      <trkpt lat="45.83805" lon="4.71705">
        <ele>272.1904296875</ele>
        <time>2009-09-10T10:15:21Z</time>
      </trkpt>
      <trkpt lat="45.83794" lon="4.71702">
        <ele>271.22912597656</ele>
        <time>2009-09-10T10:15:23Z</time>
      </trkpt>
      <trkpt lat="45.83784" lon="4.71698">
        <ele>269.787109375</ele>
        <time>2009-09-10T10:15:25Z</time>
      </trkpt>
      <trkpt lat="45.83774" lon="4.71693">
        <ele>268.34509277344</ele>
        <time>2009-09-10T10:15:27Z</time>
      </trkpt>
      <trkpt lat="45.83743" lon="4.71688">
        <ele>263.05786132812</ele>
        <time>2009-09-10T10:15:33Z</time>
      </trkpt>
      <trkpt lat="45.83731" lon="4.71689">
        <ele>262.09655761719</ele>
        <time>2009-09-10T10:15:35Z</time>
      </trkpt>
      <trkpt lat="45.83725" lon="4.71689">
        <ele>261.61596679688</ele>
        <time>2009-09-10T10:15:37Z</time>
      </trkpt>
      <trkpt lat="45.8372" lon="4.71701">
        <ele>261.61596679688</ele>
        <time>2009-09-10T10:15:42Z</time>
      </trkpt>
      <trkpt lat="45.83704" lon="4.71725">
        <ele>262.5771484375</ele>
        <time>2009-09-10T10:15:51Z</time>
      </trkpt>
      <trkpt lat="45.83698" lon="4.71734">
        <ele>263.05786132812</ele>
        <time>2009-09-10T10:15:55Z</time>
      </trkpt>
      <trkpt lat="45.83687" lon="4.71748">
        <ele>264.49987792969</ele>
        <time>2009-09-10T10:16:01Z</time>
      </trkpt>
      <trkpt lat="45.83677" lon="4.71756">
        <ele>265.94189453125</ele>
        <time>2009-09-10T10:16:06Z</time>
      </trkpt>
      <trkpt lat="45.83675" lon="4.71757">
        <ele>265.94189453125</ele>
        <time>2009-09-10T10:16:07Z</time>
      </trkpt>
      <trkpt lat="45.83669" lon="4.71764">
        <ele>267.86450195312</ele>
        <time>2009-09-10T10:16:11Z</time>
      </trkpt>
      <trkpt lat="45.83662" lon="4.71775">
        <ele>269.30651855469</ele>
        <time>2009-09-10T10:16:17Z</time>
      </trkpt>
      <trkpt lat="45.83654" lon="4.71787">
        <ele>270.74841308594</ele>
        <time>2009-09-10T10:16:24Z</time>
      </trkpt>
      <trkpt lat="45.83653" lon="4.71788">
        <ele>271.22912597656</ele>
        <time>2009-09-10T10:16:25Z</time>
      </trkpt>
      <trkpt lat="45.83645" lon="4.7179">
        <ele>273.15185546875</ele>
        <time>2009-09-10T10:16:30Z</time>
      </trkpt>
      <trkpt lat="45.83635" lon="4.7179">
        <ele>276.03564453125</ele>
        <time>2009-09-10T10:16:36Z</time>
      </trkpt>
      <trkpt lat="45.83626" lon="4.71794">
        <ele>278.43896484375</ele>
        <time>2009-09-10T10:16:44Z</time>
      </trkpt>
      <trkpt lat="45.83617" lon="4.71792">
        <ele>278.91967773438</ele>
        <time>2009-09-10T10:16:51Z</time>
      </trkpt>
      <trkpt lat="45.83611" lon="4.71792">
        <ele>279.40026855469</ele>
        <time>2009-09-10T10:16:55Z</time>
      </trkpt>
      <trkpt lat="45.83604" lon="4.71788">
        <ele>279.40026855469</ele>
        <time>2009-09-10T10:16:59Z</time>
      </trkpt>
      <trkpt lat="45.83587" lon="4.71765">
        <ele>279.880859375</ele>
        <time>2009-09-10T10:17:07Z</time>
      </trkpt>
      <trkpt lat="45.83573" lon="4.71742">
        <ele>280.84240722656</ele>
        <time>2009-09-10T10:17:14Z</time>
      </trkpt>
      <trkpt lat="45.83561" lon="4.71728">
        <ele>281.32299804688</ele>
        <time>2009-09-10T10:17:20Z</time>
      </trkpt>
      <trkpt lat="45.83551" lon="4.71725">
        <ele>279.880859375</ele>
        <time>2009-09-10T10:17:23Z</time>
      </trkpt>
      <trkpt lat="45.83547" lon="4.71724">
        <ele>279.40026855469</ele>
        <time>2009-09-10T10:17:24Z</time>
      </trkpt>
      <trkpt lat="45.83519" lon="4.71724">
        <ele>275.07446289062</ele>
        <time>2009-09-10T10:17:31Z</time>
      </trkpt>
      <trkpt lat="45.83515" lon="4.71726">
        <ele>274.59375</ele>
        <time>2009-09-10T10:17:32Z</time>
      </trkpt>
      <trkpt lat="45.83501" lon="4.71726">
        <ele>272.1904296875</ele>
        <time>2009-09-10T10:17:35Z</time>
      </trkpt>
      <trkpt lat="45.83492" lon="4.71728">
        <ele>271.22912597656</ele>
        <time>2009-09-10T10:17:37Z</time>
      </trkpt>
      <trkpt lat="45.83481" lon="4.7173">
        <ele>269.30651855469</ele>
        <time>2009-09-10T10:17:40Z</time>
      </trkpt>
      <trkpt lat="45.83472" lon="4.7174">
        <ele>269.787109375</ele>
        <time>2009-09-10T10:17:44Z</time>
      </trkpt>
      <trkpt lat="45.83461" lon="4.71743">
        <ele>270.26770019531</ele>
        <time>2009-09-10T10:17:48Z</time>
      </trkpt>
      <trkpt lat="45.8344" lon="4.71747">
        <ele>270.26770019531</ele>
        <time>2009-09-10T10:17:55Z</time>
      </trkpt>
      <trkpt lat="45.83429" lon="4.71729">
        <ele>270.26770019531</ele>
        <time>2009-09-10T10:18:01Z</time>
      </trkpt>
      <trkpt lat="45.83422" lon="4.71706">
        <ele>271.22912597656</ele>
        <time>2009-09-10T10:18:07Z</time>
      </trkpt>
      <trkpt lat="45.83418" lon="4.71696">
        <ele>271.22912597656</ele>
        <time>2009-09-10T10:18:10Z</time>
      </trkpt>
      <trkpt lat="45.83411" lon="4.71699">
        <ele>271.22912597656</ele>
        <time>2009-09-10T10:18:14Z</time>
      </trkpt>
      <trkpt lat="45.83413" lon="4.71716">
        <ele>270.74841308594</ele>
        <time>2009-09-10T10:18:18Z</time>
      </trkpt>
      <trkpt lat="45.83414" lon="4.71719">
        <ele>270.26770019531</ele>
        <time>2009-09-10T10:18:19Z</time>
      </trkpt>
      <trkpt lat="45.83415" lon="4.71729">
        <ele>268.34509277344</ele>
        <time>2009-09-10T10:18:24Z</time>
      </trkpt>
      <trkpt lat="45.83414" lon="4.71744">
        <ele>267.38391113281</ele>
        <time>2009-09-10T10:18:30Z</time>
      </trkpt>
      <trkpt lat="45.83406" lon="4.71745">
        <ele>268.82580566406</ele>
        <time>2009-09-10T10:18:35Z</time>
      </trkpt>
      <trkpt lat="45.83406" lon="4.71746">
        <ele>268.34509277344</ele>
        <time>2009-09-10T10:18:39Z</time>
      </trkpt>
      <trkpt lat="45.83405" lon="4.71747">
        <ele>269.30651855469</ele>
        <time>2009-09-10T10:18:49Z</time>
      </trkpt>
      <trkpt lat="45.83408" lon="4.71748">
        <ele>268.34509277344</ele>
        <time>2009-09-10T10:18:54Z</time>
      </trkpt>
      <trkpt lat="45.83411" lon="4.71749">
        <ele>267.86450195312</ele>
        <time>2009-09-10T10:18:59Z</time>
      </trkpt>
      <trkpt lat="45.83411" lon="4.71748">
        <ele>267.86450195312</ele>
        <time>2009-09-10T10:19:06Z</time>
      </trkpt>
      <trkpt lat="45.83405" lon="4.71747">
        <ele>269.30651855469</ele>
        <time>2009-09-10T10:19:10Z</time>
      </trkpt>
      <trkpt lat="45.83393" lon="4.71743">
        <ele>269.30651855469</ele>
        <time>2009-09-10T10:19:15Z</time>
      </trkpt>
      <trkpt lat="45.83383" lon="4.71743">
        <ele>270.74841308594</ele>
        <time>2009-09-10T10:19:20Z</time>
      </trkpt>
      <trkpt lat="45.83382" lon="4.71744">
        <ele>271.22912597656</ele>
        <time>2009-09-10T10:19:25Z</time>
      </trkpt>
      <trkpt lat="45.83382" lon="4.71745">
        <ele>270.74841308594</ele>
        <time>2009-09-10T10:19:38Z</time>
      </trkpt>
      <trkpt lat="45.83373" lon="4.71747">
        <ele>272.1904296875</ele>
        <time>2009-09-10T10:19:44Z</time>
      </trkpt>
      <trkpt lat="45.83371" lon="4.71747">
        <ele>273.15185546875</ele>
        <time>2009-09-10T10:19:46Z</time>
      </trkpt>
      <trkpt lat="45.83361" lon="4.71751">
        <ele>275.55505371094</ele>
        <time>2009-09-10T10:19:53Z</time>
      </trkpt>
      <trkpt lat="45.83356" lon="4.71755">
        <ele>276.9970703125</ele>
        <time>2009-09-10T10:19:57Z</time>
      </trkpt>
      <trkpt lat="45.83352" lon="4.71759">
        <ele>278.43896484375</ele>
        <time>2009-09-10T10:20:02Z</time>
      </trkpt>
      <trkpt lat="45.83341" lon="4.7176">
        <ele>277.95825195312</ele>
        <time>2009-09-10T10:20:07Z</time>
      </trkpt>
      <trkpt lat="45.83328" lon="4.71758">
        <ele>279.880859375</ele>
        <time>2009-09-10T10:20:15Z</time>
      </trkpt>
      <trkpt lat="45.83315" lon="4.71755">
        <ele>280.36169433594</ele>
        <time>2009-09-10T10:20:21Z</time>
      </trkpt>
      <trkpt lat="45.83305" lon="4.71748">
        <ele>279.880859375</ele>
        <time>2009-09-10T10:20:26Z</time>
      </trkpt>
      <trkpt lat="45.83301" lon="4.71747">
        <ele>280.36169433594</ele>
        <time>2009-09-10T10:20:30Z</time>
      </trkpt>
      <trkpt lat="45.83297" lon="4.71745">
        <ele>280.84240722656</ele>
        <time>2009-09-10T10:20:39Z</time>
      </trkpt>
      <trkpt lat="45.83286" lon="4.71739">
        <ele>280.84240722656</ele>
        <time>2009-09-10T10:20:44Z</time>
      </trkpt>
      <trkpt lat="45.83274" lon="4.71732">
        <ele>280.84240722656</ele>
        <time>2009-09-10T10:20:49Z</time>
      </trkpt>
      <trkpt lat="45.83266" lon="4.71728">
        <ele>279.880859375</ele>
        <time>2009-09-10T10:20:54Z</time>
      </trkpt>
      <trkpt lat="45.83263" lon="4.71727">
        <ele>279.880859375</ele>
        <time>2009-09-10T10:20:56Z</time>
      </trkpt>
      <trkpt lat="45.8326" lon="4.7173">
        <ele>281.32299804688</ele>
        <time>2009-09-10T10:20:59Z</time>
      </trkpt>
      <trkpt lat="45.83258" lon="4.71731">
        <ele>281.80358886719</ele>
        <time>2009-09-10T10:21:00Z</time>
      </trkpt>
      <trkpt lat="45.83248" lon="4.71729">
        <ele>282.76501464844</ele>
        <time>2009-09-10T10:21:07Z</time>
      </trkpt>
      <trkpt lat="45.83244" lon="4.71732">
        <ele>283.24560546875</ele>
        <time>2009-09-10T10:21:10Z</time>
      </trkpt>
      <trkpt lat="45.83232" lon="4.71731">
        <ele>283.72619628906</ele>
        <time>2009-09-10T10:21:17Z</time>
      </trkpt>
      <trkpt lat="45.83231" lon="4.71733">
        <ele>283.72619628906</ele>
        <time>2009-09-10T10:21:24Z</time>
      </trkpt>
      <trkpt lat="45.83225" lon="4.71732">
        <ele>284.20690917969</ele>
        <time>2009-09-10T10:21:30Z</time>
      </trkpt>
      <trkpt lat="45.83213" lon="4.71727">
        <ele>284.68762207031</ele>
        <time>2009-09-10T10:21:35Z</time>
      </trkpt>
      <trkpt lat="45.83198" lon="4.71721">
        <ele>285.16821289062</ele>
        <time>2009-09-10T10:21:41Z</time>
      </trkpt>
      <trkpt lat="45.83183" lon="4.71715">
        <ele>285.16821289062</ele>
        <time>2009-09-10T10:21:47Z</time>
      </trkpt>
      <trkpt lat="45.83179" lon="4.71708">
        <ele>284.68762207031</ele>
        <time>2009-09-10T10:21:49Z</time>
      </trkpt>
      <trkpt lat="45.83173" lon="4.71696">
        <ele>284.20690917969</ele>
        <time>2009-09-10T10:21:51Z</time>
      </trkpt>
      <trkpt lat="45.83148" lon="4.71668">
        <ele>281.32299804688</ele>
        <time>2009-09-10T10:21:56Z</time>
      </trkpt>
      <trkpt lat="45.83142" lon="4.71663">
        <ele>280.84240722656</ele>
        <time>2009-09-10T10:21:57Z</time>
      </trkpt>
      <trkpt lat="45.83118" lon="4.71634">
        <ele>278.43896484375</ele>
        <time>2009-09-10T10:22:02Z</time>
      </trkpt>
      <trkpt lat="45.83114" lon="4.71627">
        <ele>277.95825195312</ele>
        <time>2009-09-10T10:22:03Z</time>
      </trkpt>
      <trkpt lat="45.83114" lon="4.71613">
        <ele>277.95825195312</ele>
        <time>2009-09-10T10:22:06Z</time>
      </trkpt>
      <trkpt lat="45.83117" lon="4.7161">
        <ele>277.47766113281</ele>
        <time>2009-09-10T10:22:07Z</time>
      </trkpt>
      <trkpt lat="45.83127" lon="4.71605">
        <ele>276.9970703125</ele>
        <time>2009-09-10T10:22:09Z</time>
      </trkpt>
      <trkpt lat="45.83141" lon="4.71578">
        <ele>277.95825195312</ele>
        <time>2009-09-10T10:22:14Z</time>
      </trkpt>
      <trkpt lat="45.83133" lon="4.71572">
        <ele>278.43896484375</ele>
        <time>2009-09-10T10:22:18Z</time>
      </trkpt>
      <trkpt lat="45.83127" lon="4.71565">
        <ele>279.40026855469</ele>
        <time>2009-09-10T10:22:21Z</time>
      </trkpt>
      <trkpt lat="45.83118" lon="4.71557">
        <ele>279.880859375</ele>
        <time>2009-09-10T10:22:27Z</time>
      </trkpt>
      <trkpt lat="45.83116" lon="4.71553">
        <ele>280.84240722656</ele>
        <time>2009-09-10T10:22:37Z</time>
      </trkpt>
      <trkpt lat="45.83105" lon="4.71545">
        <ele>281.32299804688</ele>
        <time>2009-09-10T10:22:42Z</time>
      </trkpt>
      <trkpt lat="45.83094" lon="4.71532">
        <ele>282.76501464844</ele>
        <time>2009-09-10T10:22:48Z</time>
      </trkpt>
      <trkpt lat="45.83079" lon="4.71517">
        <ele>282.76501464844</ele>
        <time>2009-09-10T10:22:53Z</time>
      </trkpt>
      <trkpt lat="45.83053" lon="4.71493">
        <ele>282.76501464844</ele>
        <time>2009-09-10T10:23:00Z</time>
      </trkpt>
      <trkpt lat="45.83033" lon="4.71482">
        <ele>281.32299804688</ele>
        <time>2009-09-10T10:23:04Z</time>
      </trkpt>
      <trkpt lat="45.83001" lon="4.71478">
        <ele>280.36169433594</ele>
        <time>2009-09-10T10:23:10Z</time>
      </trkpt>
      <trkpt lat="45.8299" lon="4.7148">
        <ele>280.36169433594</ele>
        <time>2009-09-10T10:23:12Z</time>
      </trkpt>
      <trkpt lat="45.82956" lon="4.715">
        <ele>281.32299804688</ele>
        <time>2009-09-10T10:23:19Z</time>
      </trkpt>
      <trkpt lat="45.82927" lon="4.71522">
        <ele>281.80358886719</ele>
        <time>2009-09-10T10:23:26Z</time>
      </trkpt>
      <trkpt lat="45.82904" lon="4.71547">
        <ele>283.24560546875</ele>
        <time>2009-09-10T10:23:32Z</time>
      </trkpt>
      <trkpt lat="45.82878" lon="4.71581">
        <ele>284.20690917969</ele>
        <time>2009-09-10T10:23:40Z</time>
      </trkpt>
      <trkpt lat="45.82875" lon="4.71585">
        <ele>284.20690917969</ele>
        <time>2009-09-10T10:23:41Z</time>
      </trkpt>
      <trkpt lat="45.82856" lon="4.71628">
        <ele>286.12951660156</ele>
        <time>2009-09-10T10:23:50Z</time>
      </trkpt>
      <trkpt lat="45.82839" lon="4.71664">
        <ele>288.53295898438</ele>
        <time>2009-09-10T10:23:58Z</time>
      </trkpt>
      <trkpt lat="45.82827" lon="4.71692">
        <ele>289.494140625</ele>
        <time>2009-09-10T10:24:05Z</time>
      </trkpt>
      <trkpt lat="45.82825" lon="4.71701">
        <ele>289.97485351562</ele>
        <time>2009-09-10T10:24:08Z</time>
      </trkpt>
      <trkpt lat="45.82817" lon="4.71699">
        <ele>290.45556640625</ele>
        <time>2009-09-10T10:24:12Z</time>
      </trkpt>
      <trkpt lat="45.828" lon="4.71699">
        <ele>290.45556640625</ele>
        <time>2009-09-10T10:24:17Z</time>
      </trkpt>
      <trkpt lat="45.82792" lon="4.71703">
        <ele>290.93615722656</ele>
        <time>2009-09-10T10:24:19Z</time>
      </trkpt>
      <trkpt lat="45.82761" lon="4.7172">
        <ele>292.85876464844</ele>
        <time>2009-09-10T10:24:28Z</time>
      </trkpt>
      <trkpt lat="45.82734" lon="4.71736">
        <ele>295.26196289062</ele>
        <time>2009-09-10T10:24:36Z</time>
      </trkpt>
      <trkpt lat="45.82711" lon="4.7175">
        <ele>296.22351074219</ele>
        <time>2009-09-10T10:24:43Z</time>
      </trkpt>
      <trkpt lat="45.82692" lon="4.71766">
        <ele>296.7041015625</ele>
        <time>2009-09-10T10:24:49Z</time>
      </trkpt>
      <trkpt lat="45.82663" lon="4.71794">
        <ele>297.66540527344</ele>
        <time>2009-09-10T10:24:58Z</time>
      </trkpt>
      <trkpt lat="45.82639" lon="4.71813">
        <ele>298.14611816406</ele>
        <time>2009-09-10T10:25:05Z</time>
      </trkpt>
      <trkpt lat="45.82614" lon="4.71814">
        <ele>300.06872558594</ele>
        <time>2009-09-10T10:25:12Z</time>
      </trkpt>
      <trkpt lat="45.82573" lon="4.71811">
        <ele>300.54931640625</ele>
        <time>2009-09-10T10:25:23Z</time>
      </trkpt>
      <trkpt lat="45.82545" lon="4.71807">
        <ele>301.51062011719</ele>
        <time>2009-09-10T10:25:31Z</time>
      </trkpt>
      <trkpt lat="45.82505" lon="4.71799">
        <ele>302.95251464844</ele>
        <time>2009-09-10T10:25:42Z</time>
      </trkpt>
      <trkpt lat="45.82471" lon="4.71792">
        <ele>303.43322753906</ele>
        <time>2009-09-10T10:25:52Z</time>
      </trkpt>
      <trkpt lat="45.82434" lon="4.71781">
        <ele>306.31726074219</ele>
        <time>2009-09-10T10:26:03Z</time>
      </trkpt>
      <trkpt lat="45.82404" lon="4.71772">
        <ele>307.75927734375</ele>
        <time>2009-09-10T10:26:12Z</time>
      </trkpt>
      <trkpt lat="45.82376" lon="4.71764">
        <ele>309.201171875</ele>
        <time>2009-09-10T10:26:20Z</time>
      </trkpt>
      <trkpt lat="45.82342" lon="4.71754">
        <ele>309.68188476562</ele>
        <time>2009-09-10T10:26:30Z</time>
      </trkpt>
      <trkpt lat="45.82309" lon="4.71743">
        <ele>311.6044921875</ele>
        <time>2009-09-10T10:26:40Z</time>
      </trkpt>
      <trkpt lat="45.8227" lon="4.71731">
        <ele>312.08520507812</ele>
        <time>2009-09-10T10:26:51Z</time>
      </trkpt>
      <trkpt lat="45.82235" lon="4.71722">
        <ele>313.04650878906</ele>
        <time>2009-09-10T10:27:01Z</time>
      </trkpt>
      <trkpt lat="45.82199" lon="4.71718">
        <ele>314.0078125</ele>
        <time>2009-09-10T10:27:11Z</time>
      </trkpt>
      <trkpt lat="45.82169" lon="4.71715">
        <ele>314.96911621094</ele>
        <time>2009-09-10T10:27:20Z</time>
      </trkpt>
      <trkpt lat="45.82146" lon="4.71713">
        <ele>315.93041992188</ele>
        <time>2009-09-10T10:27:28Z</time>
      </trkpt>
      <trkpt lat="45.82128" lon="4.71713">
        <ele>317.85302734375</ele>
        <time>2009-09-10T10:27:36Z</time>
      </trkpt>
      <trkpt lat="45.82117" lon="4.71703">
        <ele>320.25634765625</ele>
        <time>2009-09-10T10:27:42Z</time>
      </trkpt>
      <trkpt lat="45.82108" lon="4.71691">
        <ele>322.65966796875</ele>
        <time>2009-09-10T10:27:48Z</time>
      </trkpt>
      <trkpt lat="45.82104" lon="4.71687">
        <ele>322.17895507812</ele>
        <time>2009-09-10T10:27:50Z</time>
      </trkpt>
      <trkpt lat="45.8209" lon="4.71689">
        <ele>323.14038085938</ele>
        <time>2009-09-10T10:27:56Z</time>
      </trkpt>
      <trkpt lat="45.82077" lon="4.71697">
        <ele>324.1015625</ele>
        <time>2009-09-10T10:28:02Z</time>
      </trkpt>
      <trkpt lat="45.82058" lon="4.71703">
        <ele>326.5048828125</ele>
        <time>2009-09-10T10:28:10Z</time>
      </trkpt>
      <trkpt lat="45.82035" lon="4.71708">
        <ele>327.94677734375</ele>
        <time>2009-09-10T10:28:19Z</time>
      </trkpt>
      <trkpt lat="45.82006" lon="4.71715">
        <ele>328.90832519531</ele>
        <time>2009-09-10T10:28:30Z</time>
      </trkpt>
      <trkpt lat="45.81989" lon="4.71721">
        <ele>328.90832519531</ele>
        <time>2009-09-10T10:28:36Z</time>
      </trkpt>
      <trkpt lat="45.81967" lon="4.71724">
        <ele>329.86950683594</ele>
        <time>2009-09-10T10:28:42Z</time>
      </trkpt>
      <trkpt lat="45.81936" lon="4.71727">
        <ele>330.35021972656</ele>
        <time>2009-09-10T10:28:50Z</time>
      </trkpt>
      <trkpt lat="45.81902" lon="4.71729">
        <ele>331.79211425781</ele>
        <time>2009-09-10T10:29:00Z</time>
      </trkpt>
      <trkpt lat="45.81874" lon="4.7173">
        <ele>333.71472167969</ele>
        <time>2009-09-10T10:29:09Z</time>
      </trkpt>
      <trkpt lat="45.81842" lon="4.71731">
        <ele>335.63732910156</ele>
        <time>2009-09-10T10:29:19Z</time>
      </trkpt>
      <trkpt lat="45.81817" lon="4.71728">
        <ele>338.04077148438</ele>
        <time>2009-09-10T10:29:27Z</time>
      </trkpt>
      <trkpt lat="45.81804" lon="4.71727">
        <ele>339.48266601562</ele>
        <time>2009-09-10T10:29:31Z</time>
      </trkpt>
      <trkpt lat="45.81779" lon="4.71723">
        <ele>340.92468261719</ele>
        <time>2009-09-10T10:29:39Z</time>
      </trkpt>
      <trkpt lat="45.81745" lon="4.71717">
        <ele>344.28942871094</ele>
        <time>2009-09-10T10:29:51Z</time>
      </trkpt>
      <trkpt lat="45.81742" lon="4.71716">
        <ele>344.28942871094</ele>
        <time>2009-09-10T10:29:52Z</time>
      </trkpt>
      <trkpt lat="45.8173" lon="4.71709">
        <ele>345.73132324219</ele>
        <time>2009-09-10T10:29:57Z</time>
      </trkpt>
      <trkpt lat="45.81705" lon="4.71706">
        <ele>347.65393066406</ele>
        <time>2009-09-10T10:30:06Z</time>
      </trkpt>
      <trkpt lat="45.81693" lon="4.71705">
        <ele>349.57653808594</ele>
        <time>2009-09-10T10:30:11Z</time>
      </trkpt>
      <trkpt lat="45.81668" lon="4.71702">
        <ele>350.05725097656</ele>
        <time>2009-09-10T10:30:20Z</time>
      </trkpt>
      <trkpt lat="45.81654" lon="4.71692">
        <ele>351.97985839844</ele>
        <time>2009-09-10T10:30:26Z</time>
      </trkpt>
      <trkpt lat="45.81652" lon="4.7169">
        <ele>351.97985839844</ele>
        <time>2009-09-10T10:30:27Z</time>
      </trkpt>
      <trkpt lat="45.81639" lon="4.71699">
        <ele>352.46057128906</ele>
        <time>2009-09-10T10:30:33Z</time>
      </trkpt>
      <trkpt lat="45.81625" lon="4.71707">
        <ele>352.46057128906</ele>
        <time>2009-09-10T10:30:38Z</time>
      </trkpt>
      <trkpt lat="45.81599" lon="4.71711">
        <ele>353.421875</ele>
        <time>2009-09-10T10:30:47Z</time>
      </trkpt>
      <trkpt lat="45.81568" lon="4.71715">
        <ele>353.90258789062</ele>
        <time>2009-09-10T10:30:56Z</time>
      </trkpt>
      <trkpt lat="45.8156" lon="4.71715">
        <ele>354.38317871094</ele>
        <time>2009-09-10T10:30:59Z</time>
      </trkpt>
      <trkpt lat="45.81557" lon="4.71711">
        <ele>354.38317871094</ele>
        <time>2009-09-10T10:31:03Z</time>
      </trkpt>
      <trkpt lat="45.81553" lon="4.71711">
        <ele>353.90258789062</ele>
        <time>2009-09-10T10:31:09Z</time>
      </trkpt>
      <trkpt lat="45.81551" lon="4.71712">
        <ele>353.90258789062</ele>
        <time>2009-09-10T10:31:17Z</time>
      </trkpt>
      <trkpt lat="45.81551" lon="4.71712">
        <ele>354.38317871094</ele>
        <time>2009-09-10T10:31:28Z</time>
      </trkpt>
      <trkpt lat="45.81554" lon="4.71715">
        <ele>353.90258789062</ele>
        <time>2009-09-10T10:31:35Z</time>
      </trkpt>
      <trkpt lat="45.81479" lon="4.71922">
        <ele>350.05725097656</ele>
        <time>2009-09-10T10:35:15Z</time>
      </trkpt>
      <trkpt lat="45.81471" lon="4.7192">
        <ele>349.57653808594</ele>
        <time>2009-09-10T10:35:16Z</time>
      </trkpt>
      <trkpt lat="45.81454" lon="4.71916">
        <ele>347.65393066406</ele>
        <time>2009-09-10T10:35:19Z</time>
      </trkpt>
      <trkpt lat="45.81422" lon="4.71908">
        <ele>345.73132324219</ele>
        <time>2009-09-10T10:35:23Z</time>
      </trkpt>
      <trkpt lat="45.8136" lon="4.71882">
        <ele>342.84729003906</ele>
        <time>2009-09-10T10:35:30Z</time>
      </trkpt>
      <trkpt lat="45.81326" lon="4.71886">
        <ele>340.44409179688</ele>
        <time>2009-09-10T10:35:34Z</time>
      </trkpt>
      <trkpt lat="45.81298" lon="4.71909">
        <ele>337.07946777344</ele>
        <time>2009-09-10T10:35:37Z</time>
      </trkpt>
      <trkpt lat="45.8129" lon="4.7192">
        <ele>335.15673828125</ele>
        <time>2009-09-10T10:35:38Z</time>
      </trkpt>
      <trkpt lat="45.81268" lon="4.71948">
        <ele>331.79211425781</ele>
        <time>2009-09-10T10:35:41Z</time>
      </trkpt>
      <trkpt lat="45.81257" lon="4.71957">
        <ele>330.35021972656</ele>
        <time>2009-09-10T10:35:43Z</time>
      </trkpt>
      <trkpt lat="45.81247" lon="4.71953">
        <ele>330.35021972656</ele>
        <time>2009-09-10T10:35:45Z</time>
      </trkpt>
      <trkpt lat="45.81244" lon="4.71948">
        <ele>330.83093261719</ele>
        <time>2009-09-10T10:35:46Z</time>
      </trkpt>
      <trkpt lat="45.81217" lon="4.71904">
        <ele>331.79211425781</ele>
        <time>2009-09-10T10:35:54Z</time>
      </trkpt>
      <trkpt lat="45.81199" lon="4.71899">
        <ele>331.3115234375</ele>
        <time>2009-09-10T10:35:58Z</time>
      </trkpt>
      <trkpt lat="45.81164" lon="4.719">
        <ele>328.90832519531</ele>
        <time>2009-09-10T10:36:03Z</time>
      </trkpt>
      <trkpt lat="45.81113" lon="4.719">
        <ele>327.94677734375</ele>
        <time>2009-09-10T10:36:09Z</time>
      </trkpt>
      <trkpt lat="45.81056" lon="4.71901">
        <ele>326.02416992188</ele>
        <time>2009-09-10T10:36:16Z</time>
      </trkpt>
      <trkpt lat="45.81032" lon="4.71897">
        <ele>326.5048828125</ele>
        <time>2009-09-10T10:36:20Z</time>
      </trkpt>
      <trkpt lat="45.80995" lon="4.71906">
        <ele>325.06298828125</ele>
        <time>2009-09-10T10:36:26Z</time>
      </trkpt>
      <trkpt lat="45.80983" lon="4.7191">
        <ele>325.06298828125</ele>
        <time>2009-09-10T10:36:28Z</time>
      </trkpt>
      <trkpt lat="45.80946" lon="4.71913">
        <ele>323.62097167969</ele>
        <time>2009-09-10T10:36:33Z</time>
      </trkpt>
      <trkpt lat="45.80938" lon="4.71913">
        <ele>323.62097167969</ele>
        <time>2009-09-10T10:36:34Z</time>
      </trkpt>
      <trkpt lat="45.80885" lon="4.7192">
        <ele>320.73706054688</ele>
        <time>2009-09-10T10:36:40Z</time>
      </trkpt>
      <trkpt lat="45.80822" lon="4.71934">
        <ele>319.29504394531</ele>
        <time>2009-09-10T10:36:47Z</time>
      </trkpt>
      <trkpt lat="45.80806" lon="4.71938">
        <ele>317.85302734375</ele>
        <time>2009-09-10T10:36:49Z</time>
      </trkpt>
      <trkpt lat="45.80795" lon="4.71943">
        <ele>316.41101074219</ele>
        <time>2009-09-10T10:36:51Z</time>
      </trkpt>
      <trkpt lat="45.80779" lon="4.71946">
        <ele>316.41101074219</ele>
        <time>2009-09-10T10:36:54Z</time>
      </trkpt>
      <trkpt lat="45.80735" lon="4.71956">
        <ele>315.93041992188</ele>
        <time>2009-09-10T10:37:00Z</time>
      </trkpt>
      <trkpt lat="45.80686" lon="4.71969">
        <ele>315.44982910156</ele>
        <time>2009-09-10T10:37:06Z</time>
      </trkpt>
      <trkpt lat="45.80647" lon="4.71979">
        <ele>314.48840332031</ele>
        <time>2009-09-10T10:37:11Z</time>
      </trkpt>
      <trkpt lat="45.80603" lon="4.71994">
        <ele>313.52722167969</ele>
        <time>2009-09-10T10:37:17Z</time>
      </trkpt>
      <trkpt lat="45.80597" lon="4.71997">
        <ele>313.52722167969</ele>
        <time>2009-09-10T10:37:18Z</time>
      </trkpt>
      <trkpt lat="45.80569" lon="4.72005">
        <ele>313.52722167969</ele>
        <time>2009-09-10T10:37:23Z</time>
      </trkpt>
      <trkpt lat="45.80551" lon="4.72021">
        <ele>312.08520507812</ele>
        <time>2009-09-10T10:37:27Z</time>
      </trkpt>
      <trkpt lat="45.80548" lon="4.72032">
        <ele>312.08520507812</ele>
        <time>2009-09-10T10:37:29Z</time>
      </trkpt>
      <trkpt lat="45.80555" lon="4.72044">
        <ele>311.12377929688</ele>
        <time>2009-09-10T10:37:33Z</time>
      </trkpt>
      <trkpt lat="45.80546" lon="4.72061">
        <ele>311.12377929688</ele>
        <time>2009-09-10T10:37:36Z</time>
      </trkpt>
      <trkpt lat="45.8054" lon="4.72084">
        <ele>311.12377929688</ele>
        <time>2009-09-10T10:37:39Z</time>
      </trkpt>
      <trkpt lat="45.80541" lon="4.721">
        <ele>311.12377929688</ele>
        <time>2009-09-10T10:37:41Z</time>
      </trkpt>
      <trkpt lat="45.80544" lon="4.72117">
        <ele>311.12377929688</ele>
        <time>2009-09-10T10:37:43Z</time>
      </trkpt>
      <trkpt lat="45.8055" lon="4.72142">
        <ele>311.12377929688</ele>
        <time>2009-09-10T10:37:46Z</time>
      </trkpt>
      <trkpt lat="45.8056" lon="4.72175">
        <ele>309.201171875</ele>
        <time>2009-09-10T10:37:50Z</time>
      </trkpt>
      <trkpt lat="45.80549" lon="4.72186">
        <ele>309.201171875</ele>
        <time>2009-09-10T10:37:52Z</time>
      </trkpt>
      <trkpt lat="45.8053" lon="4.72198">
        <ele>308.23986816406</ele>
        <time>2009-09-10T10:37:55Z</time>
      </trkpt>
      <trkpt lat="45.80518" lon="4.72209">
        <ele>306.7978515625</ele>
        <time>2009-09-10T10:37:57Z</time>
      </trkpt>
      <trkpt lat="45.80502" lon="4.72231">
        <ele>305.83666992188</ele>
        <time>2009-09-10T10:38:00Z</time>
      </trkpt>
      <trkpt lat="45.80468" lon="4.72278">
        <ele>305.35595703125</ele>
        <time>2009-09-10T10:38:06Z</time>
      </trkpt>
      <trkpt lat="45.80462" lon="4.72285">
        <ele>304.87524414062</ele>
        <time>2009-09-10T10:38:07Z</time>
      </trkpt>
      <trkpt lat="45.80434" lon="4.72307">
        <ele>304.87524414062</ele>
        <time>2009-09-10T10:38:11Z</time>
      </trkpt>
      <trkpt lat="45.80376" lon="4.72336">
        <ele>303.91394042969</ele>
        <time>2009-09-10T10:38:18Z</time>
      </trkpt>
      <trkpt lat="45.80311" lon="4.72369">
        <ele>303.43322753906</ele>
        <time>2009-09-10T10:38:26Z</time>
      </trkpt>
      <trkpt lat="45.80265" lon="4.7239">
        <ele>301.51062011719</ele>
        <time>2009-09-10T10:38:32Z</time>
      </trkpt>
      <trkpt lat="45.8025" lon="4.72397">
        <ele>301.51062011719</ele>
        <time>2009-09-10T10:38:34Z</time>
      </trkpt>
      <trkpt lat="45.80227" lon="4.724">
        <ele>301.02990722656</ele>
        <time>2009-09-10T10:38:37Z</time>
      </trkpt>
      <trkpt lat="45.80191" lon="4.72414">
        <ele>301.02990722656</ele>
        <time>2009-09-10T10:38:42Z</time>
      </trkpt>
      <trkpt lat="45.8014" lon="4.72441">
        <ele>301.99133300781</ele>
        <time>2009-09-10T10:38:49Z</time>
      </trkpt>
      <trkpt lat="45.80088" lon="4.72464">
        <ele>301.51062011719</ele>
        <time>2009-09-10T10:38:56Z</time>
      </trkpt>
      <trkpt lat="45.80043" lon="4.72486">
        <ele>301.02990722656</ele>
        <time>2009-09-10T10:39:03Z</time>
      </trkpt>
      <trkpt lat="45.80023" lon="4.72498">
        <ele>301.02990722656</ele>
        <time>2009-09-10T10:39:07Z</time>
      </trkpt>
      <trkpt lat="45.79997" lon="4.72508">
        <ele>301.51062011719</ele>
        <time>2009-09-10T10:39:13Z</time>
      </trkpt>
      <trkpt lat="45.79994" lon="4.72509">
        <ele>301.51062011719</ele>
        <time>2009-09-10T10:39:14Z</time>
      </trkpt>
      <trkpt lat="45.79979" lon="4.72508">
        <ele>303.91394042969</ele>
        <time>2009-09-10T10:48:39Z</time>
      </trkpt>
      <trkpt lat="45.79981" lon="4.72491">
        <ele>301.99133300781</ele>
        <time>2009-09-10T10:48:44Z</time>
      </trkpt>
      <trkpt lat="45.7998" lon="4.72491">
        <ele>302.47192382812</ele>
        <time>2009-09-10T10:48:45Z</time>
      </trkpt>
      <trkpt lat="45.79975" lon="4.72501">
        <ele>301.02990722656</ele>
        <time>2009-09-10T10:48:51Z</time>
      </trkpt>
      <trkpt lat="45.79977" lon="4.72518">
        <ele>300.54931640625</ele>
        <time>2009-09-10T10:48:56Z</time>
      </trkpt>
      <trkpt lat="45.79975" lon="4.72521">
        <ele>300.54931640625</ele>
        <time>2009-09-10T10:49:00Z</time>
      </trkpt>
      <trkpt lat="45.79973" lon="4.72521">
        <ele>301.02990722656</ele>
        <time>2009-09-10T10:49:09Z</time>
      </trkpt>
      <trkpt lat="45.79974" lon="4.72502">
        <ele>301.51062011719</ele>
        <time>2009-09-10T10:49:14Z</time>
      </trkpt>
      <trkpt lat="45.79971" lon="4.72494">
        <ele>302.47192382812</ele>
        <time>2009-09-10T10:49:19Z</time>
      </trkpt>
      <trkpt lat="45.79969" lon="4.72499">
        <ele>303.91394042969</ele>
        <time>2009-09-10T10:49:23Z</time>
      </trkpt>
      <trkpt lat="45.7997" lon="4.72503">
        <ele>303.91394042969</ele>
        <time>2009-09-10T10:49:25Z</time>
      </trkpt>
      <trkpt lat="45.79977" lon="4.72518">
        <ele>304.39465332031</ele>
        <time>2009-09-10T10:49:31Z</time>
      </trkpt>
      <trkpt lat="45.79979" lon="4.72527">
        <ele>304.39465332031</ele>
        <time>2009-09-10T10:49:34Z</time>
      </trkpt>
      <trkpt lat="45.79979" lon="4.72531">
        <ele>304.87524414062</ele>
        <time>2009-09-10T10:49:40Z</time>
      </trkpt>
      <trkpt lat="45.79981" lon="4.72533">
        <ele>304.87524414062</ele>
        <time>2009-09-10T10:49:44Z</time>
      </trkpt>
      <trkpt lat="45.7999" lon="4.72539">
        <ele>303.43322753906</ele>
        <time>2009-09-10T10:49:48Z</time>
      </trkpt>
      <trkpt lat="45.79999" lon="4.72545">
        <ele>301.02990722656</ele>
        <time>2009-09-10T10:49:52Z</time>
      </trkpt>
      <trkpt lat="45.79999" lon="4.72547">
        <ele>301.02990722656</ele>
        <time>2009-09-10T10:49:53Z</time>
      </trkpt>
      <trkpt lat="45.79995" lon="4.72553">
        <ele>301.02990722656</ele>
        <time>2009-09-10T10:49:58Z</time>
      </trkpt>
      <trkpt lat="45.79993" lon="4.72552">
        <ele>301.02990722656</ele>
        <time>2009-09-10T10:49:59Z</time>
      </trkpt>
      <trkpt lat="45.79984" lon="4.72552">
        <ele>300.54931640625</ele>
        <time>2009-09-10T10:50:06Z</time>
      </trkpt>
      <trkpt lat="45.79975" lon="4.72557">
        <ele>300.06872558594</ele>
        <time>2009-09-10T10:50:10Z</time>
      </trkpt>
      <trkpt lat="45.79958" lon="4.72552">
        <ele>300.06872558594</ele>
        <time>2009-09-10T10:50:16Z</time>
      </trkpt>
      <trkpt lat="45.79943" lon="4.72537">
        <ele>301.02990722656</ele>
        <time>2009-09-10T10:50:21Z</time>
      </trkpt>
      <trkpt lat="45.79924" lon="4.72535">
        <ele>300.54931640625</ele>
        <time>2009-09-10T10:50:26Z</time>
      </trkpt>
      <trkpt lat="45.79895" lon="4.72541">
        <ele>300.54931640625</ele>
        <time>2009-09-10T10:50:31Z</time>
      </trkpt>
      <trkpt lat="45.79867" lon="4.72546">
        <ele>301.51062011719</ele>
        <time>2009-09-10T10:50:36Z</time>
      </trkpt>
      <trkpt lat="45.79842" lon="4.72549">
        <ele>301.99133300781</ele>
        <time>2009-09-10T10:50:41Z</time>
      </trkpt>
      <trkpt lat="45.79821" lon="4.72551">
        <ele>302.47192382812</ele>
        <time>2009-09-10T10:50:46Z</time>
      </trkpt>
      <trkpt lat="45.79811" lon="4.72549">
        <ele>301.99133300781</ele>
        <time>2009-09-10T10:50:49Z</time>
      </trkpt>
      <trkpt lat="45.79803" lon="4.72562">
        <ele>301.51062011719</ele>
        <time>2009-09-10T10:50:54Z</time>
      </trkpt>
      <trkpt lat="45.79802" lon="4.72568">
        <ele>301.02990722656</ele>
        <time>2009-09-10T10:50:55Z</time>
      </trkpt>
      <trkpt lat="45.798" lon="4.72601">
        <ele>299.58801269531</ele>
        <time>2009-09-10T10:51:01Z</time>
      </trkpt>
      <trkpt lat="45.79802" lon="4.72631">
        <ele>299.10729980469</ele>
        <time>2009-09-10T10:51:06Z</time>
      </trkpt>
      <trkpt lat="45.79801" lon="4.72663">
        <ele>297.66540527344</ele>
        <time>2009-09-10T10:51:11Z</time>
      </trkpt>
      <trkpt lat="45.798" lon="4.72694">
        <ele>296.7041015625</ele>
        <time>2009-09-10T10:51:15Z</time>
      </trkpt>
      <trkpt lat="45.79788" lon="4.72728">
        <ele>296.7041015625</ele>
        <time>2009-09-10T10:51:20Z</time>
      </trkpt>
      <trkpt lat="45.79775" lon="4.72752">
        <ele>296.7041015625</ele>
        <time>2009-09-10T10:51:24Z</time>
      </trkpt>
      <trkpt lat="45.79762" lon="4.72784">
        <ele>296.22351074219</ele>
        <time>2009-09-10T10:51:29Z</time>
      </trkpt>
      <trkpt lat="45.79758" lon="4.72804">
        <ele>295.26196289062</ele>
        <time>2009-09-10T10:51:33Z</time>
      </trkpt>
      <trkpt lat="45.79757" lon="4.72809">
        <ele>294.78137207031</ele>
        <time>2009-09-10T10:51:34Z</time>
      </trkpt>
      <trkpt lat="45.79751" lon="4.7283">
        <ele>293.82006835938</ele>
        <time>2009-09-10T10:51:38Z</time>
      </trkpt>
      <trkpt lat="45.79743" lon="4.72842">
        <ele>294.30078125</ele>
        <time>2009-09-10T10:51:42Z</time>
      </trkpt>
      <trkpt lat="45.79734" lon="4.72853">
        <ele>294.30078125</ele>
        <time>2009-09-10T10:51:47Z</time>
      </trkpt>
      <trkpt lat="45.79733" lon="4.72858">
        <ele>293.82006835938</ele>
        <time>2009-09-10T10:51:57Z</time>
      </trkpt>
      <trkpt lat="45.79733" lon="4.72864">
        <ele>294.30078125</ele>
        <time>2009-09-10T10:52:03Z</time>
      </trkpt>
      <trkpt lat="45.79726" lon="4.72871">
        <ele>294.78137207031</ele>
        <time>2009-09-10T10:52:07Z</time>
      </trkpt>
      <trkpt lat="45.79713" lon="4.72887">
        <ele>293.82006835938</ele>
        <time>2009-09-10T10:52:12Z</time>
      </trkpt>
      <trkpt lat="45.79707" lon="4.72898">
        <ele>291.8974609375</ele>
        <time>2009-09-10T10:52:16Z</time>
      </trkpt>
      <trkpt lat="45.79704" lon="4.72914">
        <ele>289.01354980469</ele>
        <time>2009-09-10T10:52:20Z</time>
      </trkpt>
      <trkpt lat="45.79697" lon="4.72929">
        <ele>286.12951660156</ele>
        <time>2009-09-10T10:52:26Z</time>
      </trkpt>
      <trkpt lat="45.79698" lon="4.72935">
        <ele>283.72619628906</ele>
        <time>2009-09-10T10:52:30Z</time>
      </trkpt>
      <trkpt lat="45.797" lon="4.72935">
        <ele>281.80358886719</ele>
        <time>2009-09-10T10:52:33Z</time>
      </trkpt>
      <trkpt lat="45.79701" lon="4.72936">
        <ele>281.32299804688</ele>
        <time>2009-09-10T10:52:34Z</time>
      </trkpt>
      <trkpt lat="45.79701" lon="4.72945">
        <ele>276.9970703125</ele>
        <time>2009-09-10T10:52:38Z</time>
      </trkpt>
      <trkpt lat="45.79702" lon="4.72958">
        <ele>273.15185546875</ele>
        <time>2009-09-10T10:52:42Z</time>
      </trkpt>
      <trkpt lat="45.79702" lon="4.72962">
        <ele>271.70971679688</ele>
        <time>2009-09-10T10:52:43Z</time>
      </trkpt>
      <trkpt lat="45.79701" lon="4.72981">
        <ele>269.30651855469</ele>
        <time>2009-09-10T10:52:48Z</time>
      </trkpt>
      <trkpt lat="45.797" lon="4.7299">
        <ele>268.82580566406</ele>
        <time>2009-09-10T10:52:54Z</time>
      </trkpt>
      <trkpt lat="45.79697" lon="4.72993">
        <ele>266.90319824219</ele>
        <time>2009-09-10T10:52:59Z</time>
      </trkpt>
      <trkpt lat="45.79695" lon="4.72996">
        <ele>266.90319824219</ele>
        <time>2009-09-10T10:53:01Z</time>
      </trkpt>
      <trkpt lat="45.79695" lon="4.73004">
        <ele>269.30651855469</ele>
        <time>2009-09-10T10:53:05Z</time>
      </trkpt>
      <trkpt lat="45.79694" lon="4.73018">
        <ele>269.787109375</ele>
        <time>2009-09-10T10:53:10Z</time>
      </trkpt>
      <trkpt lat="45.79689" lon="4.73044">
        <ele>267.86450195312</ele>
        <time>2009-09-10T10:53:16Z</time>
      </trkpt>
      <trkpt lat="45.79676" lon="4.73071">
        <ele>266.90319824219</ele>
        <time>2009-09-10T10:53:21Z</time>
      </trkpt>
      <trkpt lat="45.79659" lon="4.73088">
        <ele>265.46130371094</ele>
        <time>2009-09-10T10:53:26Z</time>
      </trkpt>
      <trkpt lat="45.79654" lon="4.73088">
        <ele>264.01928710938</ele>
        <time>2009-09-10T10:53:28Z</time>
      </trkpt>
      <trkpt lat="45.79647" lon="4.73091">
        <ele>263.53857421875</ele>
        <time>2009-09-10T10:53:30Z</time>
      </trkpt>
      <trkpt lat="45.79637" lon="4.73092">
        <ele>263.53857421875</ele>
        <time>2009-09-10T10:53:33Z</time>
      </trkpt>
      <trkpt lat="45.79623" lon="4.7309">
        <ele>264.49987792969</ele>
        <time>2009-09-10T10:53:38Z</time>
      </trkpt>
      <trkpt lat="45.7961" lon="4.73095">
        <ele>264.49987792969</ele>
        <time>2009-09-10T10:53:42Z</time>
      </trkpt>
      <trkpt lat="45.79595" lon="4.73099">
        <ele>264.01928710938</ele>
        <time>2009-09-10T10:53:45Z</time>
      </trkpt>
      <trkpt lat="45.79576" lon="4.73105">
        <ele>264.49987792969</ele>
        <time>2009-09-10T10:53:49Z</time>
      </trkpt>
      <trkpt lat="45.79558" lon="4.7312">
        <ele>263.53857421875</ele>
        <time>2009-09-10T10:53:53Z</time>
      </trkpt>
      <trkpt lat="45.79538" lon="4.7314">
        <ele>262.09655761719</ele>
        <time>2009-09-10T10:53:57Z</time>
      </trkpt>
      <trkpt lat="45.79513" lon="4.73171">
        <ele>261.61596679688</ele>
        <time>2009-09-10T10:54:02Z</time>
      </trkpt>
      <trkpt lat="45.79501" lon="4.73185">
        <ele>262.5771484375</ele>
        <time>2009-09-10T10:54:06Z</time>
      </trkpt>
      <trkpt lat="45.79499" lon="4.73187">
        <ele>262.5771484375</ele>
        <time>2009-09-10T10:54:07Z</time>
      </trkpt>
      <trkpt lat="45.79483" lon="4.73197">
        <ele>262.5771484375</ele>
        <time>2009-09-10T10:54:12Z</time>
      </trkpt>
      <trkpt lat="45.7947" lon="4.73204">
        <ele>262.5771484375</ele>
        <time>2009-09-10T10:54:16Z</time>
      </trkpt>
      <trkpt lat="45.79459" lon="4.73214">
        <ele>262.5771484375</ele>
        <time>2009-09-10T10:54:21Z</time>
      </trkpt>
      <trkpt lat="45.79457" lon="4.73224">
        <ele>264.01928710938</ele>
        <time>2009-09-10T10:54:26Z</time>
      </trkpt>
      <trkpt lat="45.79455" lon="4.73227">
        <ele>264.01928710938</ele>
        <time>2009-09-10T10:54:28Z</time>
      </trkpt>
      <trkpt lat="45.79456" lon="4.73233">
        <ele>265.46130371094</ele>
        <time>2009-09-10T10:54:32Z</time>
      </trkpt>
      <trkpt lat="45.79452" lon="4.73245">
        <ele>266.42248535156</ele>
        <time>2009-09-10T10:54:38Z</time>
      </trkpt>
      <trkpt lat="45.79452" lon="4.73247">
        <ele>266.42248535156</ele>
        <time>2009-09-10T10:54:39Z</time>
      </trkpt>
      <trkpt lat="45.7945" lon="4.7326">
        <ele>268.34509277344</ele>
        <time>2009-09-10T10:54:46Z</time>
      </trkpt>
      <trkpt lat="45.79453" lon="4.73269">
        <ele>270.26770019531</ele>
        <time>2009-09-10T10:54:51Z</time>
      </trkpt>
      <trkpt lat="45.79456" lon="4.73281">
        <ele>272.67114257812</ele>
        <time>2009-09-10T10:54:58Z</time>
      </trkpt>
      <trkpt lat="45.79456" lon="4.73291">
        <ele>274.11303710938</ele>
        <time>2009-09-10T10:55:04Z</time>
      </trkpt>
      <trkpt lat="45.79458" lon="4.733">
        <ele>276.51635742188</ele>
        <time>2009-09-10T10:55:10Z</time>
      </trkpt>
      <trkpt lat="45.79457" lon="4.73302">
        <ele>276.9970703125</ele>
        <time>2009-09-10T10:55:11Z</time>
      </trkpt>
      <trkpt lat="45.79451" lon="4.73315">
        <ele>278.43896484375</ele>
        <time>2009-09-10T10:55:17Z</time>
      </trkpt>
      <trkpt lat="45.79448" lon="4.73323">
        <ele>278.91967773438</ele>
        <time>2009-09-10T10:55:22Z</time>
      </trkpt>
      <trkpt lat="45.79445" lon="4.73327">
        <ele>280.36169433594</ele>
        <time>2009-09-10T10:55:25Z</time>
      </trkpt>
      <trkpt lat="45.79428" lon="4.73331">
        <ele>279.880859375</ele>
        <time>2009-09-10T10:55:32Z</time>
      </trkpt>
      <trkpt lat="45.79419" lon="4.73335">
        <ele>280.36169433594</ele>
        <time>2009-09-10T10:55:37Z</time>
      </trkpt>
      <trkpt lat="45.79406" lon="4.73336">
        <ele>282.28430175781</ele>
        <time>2009-09-10T10:55:43Z</time>
      </trkpt>
      <trkpt lat="45.79395" lon="4.73339">
        <ele>283.24560546875</ele>
        <time>2009-09-10T10:55:49Z</time>
      </trkpt>
      <trkpt lat="45.79377" lon="4.73342">
        <ele>282.76501464844</ele>
        <time>2009-09-10T10:55:56Z</time>
      </trkpt>
      <trkpt lat="45.79359" lon="4.73347">
        <ele>282.76501464844</ele>
        <time>2009-09-10T10:56:03Z</time>
      </trkpt>
      <trkpt lat="45.7934" lon="4.7335">
        <ele>280.36169433594</ele>
        <time>2009-09-10T10:56:08Z</time>
      </trkpt>
      <trkpt lat="45.7933" lon="4.7335">
        <ele>279.880859375</ele>
        <time>2009-09-10T10:56:10Z</time>
      </trkpt>
      <trkpt lat="45.79306" lon="4.73353">
        <ele>279.880859375</ele>
        <time>2009-09-10T10:56:15Z</time>
      </trkpt>
      <trkpt lat="45.79274" lon="4.73353">
        <ele>279.40026855469</ele>
        <time>2009-09-10T10:56:22Z</time>
      </trkpt>
      <trkpt lat="45.79254" lon="4.73354">
        <ele>276.9970703125</ele>
        <time>2009-09-10T10:56:25Z</time>
      </trkpt>
      <trkpt lat="45.79242" lon="4.73355">
        <ele>276.9970703125</ele>
        <time>2009-09-10T10:56:27Z</time>
      </trkpt>
      <trkpt lat="45.7923" lon="4.73357">
        <ele>276.9970703125</ele>
        <time>2009-09-10T10:56:29Z</time>
      </trkpt>
      <trkpt lat="45.79214" lon="4.73363">
        <ele>276.51635742188</ele>
        <time>2009-09-10T10:56:32Z</time>
      </trkpt>
      <trkpt lat="45.79194" lon="4.73378">
        <ele>276.51635742188</ele>
        <time>2009-09-10T10:56:37Z</time>
      </trkpt>
      <trkpt lat="45.7918" lon="4.73387">
        <ele>277.95825195312</ele>
        <time>2009-09-10T10:56:42Z</time>
      </trkpt>
      <trkpt lat="45.79168" lon="4.73397">
        <ele>277.95825195312</ele>
        <time>2009-09-10T10:56:49Z</time>
      </trkpt>
      <trkpt lat="45.79167" lon="4.73398">
        <ele>277.95825195312</ele>
        <time>2009-09-10T10:56:50Z</time>
      </trkpt>
      <trkpt lat="45.79159" lon="4.73396">
        <ele>277.95825195312</ele>
        <time>2009-09-10T10:56:55Z</time>
      </trkpt>
      <trkpt lat="45.79152" lon="4.73398">
        <ele>277.95825195312</ele>
        <time>2009-09-10T10:56:58Z</time>
      </trkpt>
      <trkpt lat="45.7915" lon="4.73403">
        <ele>276.9970703125</ele>
        <time>2009-09-10T10:57:01Z</time>
      </trkpt>
      <trkpt lat="45.79155" lon="4.73412">
        <ele>275.55505371094</ele>
        <time>2009-09-10T10:57:06Z</time>
      </trkpt>
      <trkpt lat="45.79158" lon="4.73417">
        <ele>274.11303710938</ele>
        <time>2009-09-10T10:57:08Z</time>
      </trkpt>
      <trkpt lat="45.79167" lon="4.73428">
        <ele>272.67114257812</ele>
        <time>2009-09-10T10:57:12Z</time>
      </trkpt>
      <trkpt lat="45.79171" lon="4.73432">
        <ele>273.15185546875</ele>
        <time>2009-09-10T10:57:13Z</time>
      </trkpt>
      <trkpt lat="45.79182" lon="4.7344">
        <ele>272.67114257812</ele>
        <time>2009-09-10T10:57:15Z</time>
      </trkpt>
      <trkpt lat="45.79206" lon="4.73464">
        <ele>271.22912597656</ele>
        <time>2009-09-10T10:57:21Z</time>
      </trkpt>
      <trkpt lat="45.79222" lon="4.73478">
        <ele>269.30651855469</ele>
        <time>2009-09-10T10:57:25Z</time>
      </trkpt>
      <trkpt lat="45.7923" lon="4.73483">
        <ele>268.34509277344</ele>
        <time>2009-09-10T10:57:27Z</time>
      </trkpt>
      <trkpt lat="45.79233" lon="4.73498">
        <ele>268.82580566406</ele>
        <time>2009-09-10T10:57:32Z</time>
      </trkpt>
      <trkpt lat="45.79235" lon="4.73511">
        <ele>269.30651855469</ele>
        <time>2009-09-10T10:57:36Z</time>
      </trkpt>
      <trkpt lat="45.79237" lon="4.73515">
        <ele>269.787109375</ele>
        <time>2009-09-10T10:57:38Z</time>
      </trkpt>
      <trkpt lat="45.79239" lon="4.73526">
        <ele>269.787109375</ele>
        <time>2009-09-10T10:57:44Z</time>
      </trkpt>
      <trkpt lat="45.79245" lon="4.73532">
        <ele>270.74841308594</ele>
        <time>2009-09-10T10:57:49Z</time>
      </trkpt>
      <trkpt lat="45.79248" lon="4.73536">
        <ele>271.70971679688</ele>
        <time>2009-09-10T10:57:53Z</time>
      </trkpt>
      <trkpt lat="45.79257" lon="4.73542">
        <ele>272.1904296875</ele>
        <time>2009-09-10T10:57:58Z</time>
      </trkpt>
      <trkpt lat="45.79264" lon="4.7355">
        <ele>273.15185546875</ele>
        <time>2009-09-10T10:58:03Z</time>
      </trkpt>
      <trkpt lat="45.79268" lon="4.7356">
        <ele>274.59375</ele>
        <time>2009-09-10T10:58:09Z</time>
      </trkpt>
      <trkpt lat="45.79274" lon="4.73571">
        <ele>276.51635742188</ele>
        <time>2009-09-10T10:58:17Z</time>
      </trkpt>
      <trkpt lat="45.79278" lon="4.73582">
        <ele>277.47766113281</ele>
        <time>2009-09-10T10:58:23Z</time>
      </trkpt>
      <trkpt lat="45.79281" lon="4.73591">
        <ele>279.40026855469</ele>
        <time>2009-09-10T10:58:29Z</time>
      </trkpt>
      <trkpt lat="45.79283" lon="4.73604">
        <ele>280.36169433594</ele>
        <time>2009-09-10T10:58:37Z</time>
      </trkpt>
      <trkpt lat="45.79285" lon="4.73614">
        <ele>281.80358886719</ele>
        <time>2009-09-10T10:58:43Z</time>
      </trkpt>
      <trkpt lat="45.79284" lon="4.73622">
        <ele>283.24560546875</ele>
        <time>2009-09-10T10:58:48Z</time>
      </trkpt>
      <trkpt lat="45.79282" lon="4.73634">
        <ele>284.68762207031</ele>
        <time>2009-09-10T10:58:54Z</time>
      </trkpt>
      <trkpt lat="45.79287" lon="4.73647">
        <ele>284.68762207031</ele>
        <time>2009-09-10T10:59:00Z</time>
      </trkpt>
      <trkpt lat="45.79297" lon="4.73664">
        <ele>285.64880371094</ele>
        <time>2009-09-10T10:59:07Z</time>
      </trkpt>
      <trkpt lat="45.79309" lon="4.73682">
        <ele>287.0908203125</ele>
        <time>2009-09-10T10:59:15Z</time>
      </trkpt>
      <trkpt lat="45.79321" lon="4.737">
        <ele>288.05224609375</ele>
        <time>2009-09-10T10:59:23Z</time>
      </trkpt>
      <trkpt lat="45.79327" lon="4.7371">
        <ele>288.53295898438</ele>
        <time>2009-09-10T10:59:27Z</time>
      </trkpt>
      <trkpt lat="45.79324" lon="4.73719">
        <ele>289.97485351562</ele>
        <time>2009-09-10T10:59:31Z</time>
      </trkpt>
      <trkpt lat="45.79318" lon="4.7372">
        <ele>290.93615722656</ele>
        <time>2009-09-10T10:59:34Z</time>
      </trkpt>
      <trkpt lat="45.79299" lon="4.7372">
        <ele>291.41674804688</ele>
        <time>2009-09-10T10:59:42Z</time>
      </trkpt>
      <trkpt lat="45.79275" lon="4.73725">
        <ele>292.37817382812</ele>
        <time>2009-09-10T10:59:50Z</time>
      </trkpt>
      <trkpt lat="45.7927" lon="4.73742">
        <ele>292.85876464844</ele>
        <time>2009-09-10T10:59:54Z</time>
      </trkpt>
      <trkpt lat="45.79255" lon="4.73753">
        <ele>292.85876464844</ele>
        <time>2009-09-10T10:59:59Z</time>
      </trkpt>
      <trkpt lat="45.79249" lon="4.73766">
        <ele>293.82006835938</ele>
        <time>2009-09-10T11:00:02Z</time>
      </trkpt>
      <trkpt lat="45.79245" lon="4.73819">
        <ele>294.78137207031</ele>
        <time>2009-09-10T11:00:12Z</time>
      </trkpt>
      <trkpt lat="45.79244" lon="4.73861">
        <ele>295.74267578125</ele>
        <time>2009-09-10T11:00:21Z</time>
      </trkpt>
      <trkpt lat="45.79245" lon="4.7391">
        <ele>298.14611816406</ele>
        <time>2009-09-10T11:00:32Z</time>
      </trkpt>
      <trkpt lat="45.79245" lon="4.73932">
        <ele>298.62670898438</ele>
        <time>2009-09-10T11:00:37Z</time>
      </trkpt>
      <trkpt lat="45.79244" lon="4.73972">
        <ele>300.06872558594</ele>
        <time>2009-09-10T11:00:46Z</time>
      </trkpt>
      <trkpt lat="45.79245" lon="4.73998">
        <ele>301.02990722656</ele>
        <time>2009-09-10T11:00:52Z</time>
      </trkpt>
      <trkpt lat="45.79248" lon="4.74024">
        <ele>301.99133300781</ele>
        <time>2009-09-10T11:00:58Z</time>
      </trkpt>
      <trkpt lat="45.79253" lon="4.74047">
        <ele>302.47192382812</ele>
        <time>2009-09-10T11:01:04Z</time>
      </trkpt>
      <trkpt lat="45.79263" lon="4.74076">
        <ele>304.87524414062</ele>
        <time>2009-09-10T11:01:12Z</time>
      </trkpt>
      <trkpt lat="45.79277" lon="4.74116">
        <ele>306.7978515625</ele>
        <time>2009-09-10T11:01:22Z</time>
      </trkpt>
      <trkpt lat="45.79285" lon="4.74142">
        <ele>306.31726074219</ele>
        <time>2009-09-10T11:01:28Z</time>
      </trkpt>
      <trkpt lat="45.7928" lon="4.7415">
        <ele>305.83666992188</ele>
        <time>2009-09-10T11:01:32Z</time>
      </trkpt>
      <trkpt lat="45.79268" lon="4.74155">
        <ele>305.83666992188</ele>
        <time>2009-09-10T11:01:37Z</time>
      </trkpt>
      <trkpt lat="45.79262" lon="4.74166">
        <ele>305.83666992188</ele>
        <time>2009-09-10T11:01:42Z</time>
      </trkpt>
      <trkpt lat="45.79261" lon="4.74169">
        <ele>305.35595703125</ele>
        <time>2009-09-10T11:01:45Z</time>
      </trkpt>
      <trkpt lat="45.79252" lon="4.7418">
        <ele>305.35595703125</ele>
        <time>2009-09-10T11:01:50Z</time>
      </trkpt>
      <trkpt lat="45.79252" lon="4.74201">
        <ele>305.35595703125</ele>
        <time>2009-09-10T11:01:54Z</time>
      </trkpt>
      <trkpt lat="45.79254" lon="4.74221">
        <ele>305.35595703125</ele>
        <time>2009-09-10T11:01:58Z</time>
      </trkpt>
      <trkpt lat="45.79242" lon="4.74234">
        <ele>305.35595703125</ele>
        <time>2009-09-10T11:02:02Z</time>
      </trkpt>
      <trkpt lat="45.79206" lon="4.74245">
        <ele>305.35595703125</ele>
        <time>2009-09-10T11:02:11Z</time>
      </trkpt>
      <trkpt lat="45.79181" lon="4.74255">
        <ele>305.35595703125</ele>
        <time>2009-09-10T11:02:17Z</time>
      </trkpt>
      <trkpt lat="45.79177" lon="4.74271">
        <ele>305.35595703125</ele>
        <time>2009-09-10T11:02:21Z</time>
      </trkpt>
      <trkpt lat="45.79186" lon="4.74286">
        <ele>305.35595703125</ele>
        <time>2009-09-10T11:02:25Z</time>
      </trkpt>
      <trkpt lat="45.792" lon="4.74332">
        <ele>304.87524414062</ele>
        <time>2009-09-10T11:02:34Z</time>
      </trkpt>
      <trkpt lat="45.79213" lon="4.7437">
        <ele>303.43322753906</ele>
        <time>2009-09-10T11:02:41Z</time>
      </trkpt>
      <trkpt lat="45.79235" lon="4.74422">
        <ele>302.47192382812</ele>
        <time>2009-09-10T11:02:49Z</time>
      </trkpt>
      <trkpt lat="45.7924" lon="4.74436">
        <ele>301.51062011719</ele>
        <time>2009-09-10T11:02:51Z</time>
      </trkpt>
      <trkpt lat="45.7925" lon="4.74462">
        <ele>299.10729980469</ele>
        <time>2009-09-10T11:02:54Z</time>
      </trkpt>
      <trkpt lat="45.79274" lon="4.74476">
        <ele>296.7041015625</ele>
        <time>2009-09-10T11:02:58Z</time>
      </trkpt>
      <trkpt lat="45.79306" lon="4.74479">
        <ele>292.37817382812</ele>
        <time>2009-09-10T11:03:02Z</time>
      </trkpt>
      <trkpt lat="45.79314" lon="4.7448">
        <ele>292.37817382812</ele>
        <time>2009-09-10T11:03:03Z</time>
      </trkpt>
      <trkpt lat="45.79329" lon="4.74485">
        <ele>289.97485351562</ele>
        <time>2009-09-10T11:03:05Z</time>
      </trkpt>
      <trkpt lat="45.79343" lon="4.74501">
        <ele>288.05224609375</ele>
        <time>2009-09-10T11:03:08Z</time>
      </trkpt>
      <trkpt lat="45.79344" lon="4.74508">
        <ele>288.05224609375</ele>
        <time>2009-09-10T11:03:09Z</time>
      </trkpt>
      <trkpt lat="45.79341" lon="4.74514">
        <ele>287.57141113281</ele>
        <time>2009-09-10T11:03:10Z</time>
      </trkpt>
      <trkpt lat="45.7933" lon="4.74538">
        <ele>284.20690917969</ele>
        <time>2009-09-10T11:03:13Z</time>
      </trkpt>
      <trkpt lat="45.79329" lon="4.74582">
        <ele>280.84240722656</ele>
        <time>2009-09-10T11:03:18Z</time>
      </trkpt>
      <trkpt lat="45.79323" lon="4.74645">
        <ele>278.43896484375</ele>
        <time>2009-09-10T11:03:23Z</time>
      </trkpt>
      <trkpt lat="45.7932" lon="4.74656">
        <ele>277.95825195312</ele>
        <time>2009-09-10T11:03:24Z</time>
      </trkpt>
      <trkpt lat="45.79301" lon="4.7469">
        <ele>277.47766113281</ele>
        <time>2009-09-10T11:03:28Z</time>
      </trkpt>
      <trkpt lat="45.79275" lon="4.74729">
        <ele>276.9970703125</ele>
        <time>2009-09-10T11:03:33Z</time>
      </trkpt>
      <trkpt lat="45.79264" lon="4.74744">
        <ele>275.55505371094</ele>
        <time>2009-09-10T11:03:35Z</time>
      </trkpt>
      <trkpt lat="45.79229" lon="4.74782">
        <ele>272.1904296875</ele>
        <time>2009-09-10T11:03:40Z</time>
      </trkpt>
      <trkpt lat="45.79218" lon="4.74802">
        <ele>271.22912597656</ele>
        <time>2009-09-10T11:03:42Z</time>
      </trkpt>
      <trkpt lat="45.79202" lon="4.74834">
        <ele>269.30651855469</ele>
        <time>2009-09-10T11:03:45Z</time>
      </trkpt>
      <trkpt lat="45.79171" lon="4.74894">
        <ele>265.46130371094</ele>
        <time>2009-09-10T11:03:50Z</time>
      </trkpt>
      <trkpt lat="45.79164" lon="4.74918">
        <ele>264.98059082031</ele>
        <time>2009-09-10T11:03:52Z</time>
      </trkpt>
      <trkpt lat="45.79157" lon="4.74955">
        <ele>263.05786132812</ele>
        <time>2009-09-10T11:03:56Z</time>
      </trkpt>
      <trkpt lat="45.79155" lon="4.74972">
        <ele>262.5771484375</ele>
        <time>2009-09-10T11:03:58Z</time>
      </trkpt>
      <trkpt lat="45.79156" lon="4.74999">
        <ele>261.61596679688</ele>
        <time>2009-09-10T11:04:01Z</time>
      </trkpt>
      <trkpt lat="45.79151" lon="4.75035">
        <ele>261.13525390625</ele>
        <time>2009-09-10T11:04:05Z</time>
      </trkpt>
      <trkpt lat="45.7915" lon="4.75069">
        <ele>258.73193359375</ele>
        <time>2009-09-10T11:04:09Z</time>
      </trkpt>
      <trkpt lat="45.79155" lon="4.75093">
        <ele>258.25134277344</ele>
        <time>2009-09-10T11:04:13Z</time>
      </trkpt>
      <trkpt lat="45.79155" lon="4.75115">
        <ele>257.77075195312</ele>
        <time>2009-09-10T11:04:17Z</time>
      </trkpt>
      <trkpt lat="45.79148" lon="4.75137">
        <ele>257.77075195312</ele>
        <time>2009-09-10T11:04:20Z</time>
      </trkpt>
      <trkpt lat="45.79134" lon="4.75157">
        <ele>257.2900390625</ele>
        <time>2009-09-10T11:04:24Z</time>
      </trkpt>
      <trkpt lat="45.79121" lon="4.75177">
        <ele>258.73193359375</ele>
        <time>2009-09-10T11:04:29Z</time>
      </trkpt>
      <trkpt lat="45.79107" lon="4.75192">
        <ele>257.2900390625</ele>
        <time>2009-09-10T11:04:34Z</time>
      </trkpt>
      <trkpt lat="45.791" lon="4.75201">
        <ele>257.2900390625</ele>
        <time>2009-09-10T11:04:38Z</time>
      </trkpt>
      <trkpt lat="45.79087" lon="4.75207">
        <ele>256.80932617188</ele>
        <time>2009-09-10T11:04:43Z</time>
      </trkpt>
      <trkpt lat="45.79079" lon="4.75215">
        <ele>257.2900390625</ele>
        <time>2009-09-10T11:04:47Z</time>
      </trkpt>
      <trkpt lat="45.79064" lon="4.75233">
        <ele>256.80932617188</ele>
        <time>2009-09-10T11:04:53Z</time>
      </trkpt>
      <trkpt lat="45.79049" lon="4.75244">
        <ele>257.2900390625</ele>
        <time>2009-09-10T11:04:57Z</time>
      </trkpt>
      <trkpt lat="45.79028" lon="4.7525">
        <ele>256.80932617188</ele>
        <time>2009-09-10T11:05:02Z</time>
      </trkpt>
      <trkpt lat="45.7901" lon="4.75262">
        <ele>256.32873535156</ele>
        <time>2009-09-10T11:05:06Z</time>
      </trkpt>
      <trkpt lat="45.78982" lon="4.75274">
        <ele>255.84802246094</ele>
        <time>2009-09-10T11:05:12Z</time>
      </trkpt>
      <trkpt lat="45.78959" lon="4.75278">
        <ele>255.84802246094</ele>
        <time>2009-09-10T11:05:17Z</time>
      </trkpt>
      <trkpt lat="45.78951" lon="4.75282">
        <ele>256.32873535156</ele>
        <time>2009-09-10T11:05:19Z</time>
      </trkpt>
      <trkpt lat="45.78924" lon="4.75292">
        <ele>255.84802246094</ele>
        <time>2009-09-10T11:05:25Z</time>
      </trkpt>
      <trkpt lat="45.78913" lon="4.75297">
        <ele>256.32873535156</ele>
        <time>2009-09-10T11:05:27Z</time>
      </trkpt>
      <trkpt lat="45.78886" lon="4.7531">
        <ele>256.32873535156</ele>
        <time>2009-09-10T11:05:33Z</time>
      </trkpt>
      <trkpt lat="45.78883" lon="4.75311">
        <ele>256.32873535156</ele>
        <time>2009-09-10T11:05:34Z</time>
      </trkpt>
      <trkpt lat="45.78872" lon="4.75313">
        <ele>256.32873535156</ele>
        <time>2009-09-10T11:05:36Z</time>
      </trkpt>
      <trkpt lat="45.78851" lon="4.75321">
        <ele>255.36730957031</ele>
        <time>2009-09-10T11:05:40Z</time>
      </trkpt>
      <trkpt lat="45.78841" lon="4.75324">
        <ele>255.36730957031</ele>
        <time>2009-09-10T11:05:42Z</time>
      </trkpt>
      <trkpt lat="45.78821" lon="4.75329">
        <ele>255.84802246094</ele>
        <time>2009-09-10T11:05:46Z</time>
      </trkpt>
      <trkpt lat="45.78807" lon="4.75335">
        <ele>256.32873535156</ele>
        <time>2009-09-10T11:05:49Z</time>
      </trkpt>
      <trkpt lat="45.78785" lon="4.75344">
        <ele>256.80932617188</ele>
        <time>2009-09-10T11:05:54Z</time>
      </trkpt>
      <trkpt lat="45.78757" lon="4.75354">
        <ele>257.2900390625</ele>
        <time>2009-09-10T11:06:00Z</time>
      </trkpt>
      <trkpt lat="45.78741" lon="4.75368">
        <ele>257.2900390625</ele>
        <time>2009-09-10T11:06:05Z</time>
      </trkpt>
      <trkpt lat="45.78731" lon="4.75384">
        <ele>257.77075195312</ele>
        <time>2009-09-10T11:06:09Z</time>
      </trkpt>
      <trkpt lat="45.78728" lon="4.75395">
        <ele>258.25134277344</ele>
        <time>2009-09-10T11:06:13Z</time>
      </trkpt>
      <trkpt lat="45.78716" lon="4.75399">
        <ele>258.73193359375</ele>
        <time>2009-09-10T11:06:17Z</time>
      </trkpt>
      <trkpt lat="45.787" lon="4.7541">
        <ele>259.21264648438</ele>
        <time>2009-09-10T11:06:23Z</time>
      </trkpt>
      <trkpt lat="45.78679" lon="4.75426">
        <ele>260.17395019531</ele>
        <time>2009-09-10T11:06:30Z</time>
      </trkpt>
      <trkpt lat="45.7867" lon="4.75435">
        <ele>261.13525390625</ele>
        <time>2009-09-10T11:06:34Z</time>
      </trkpt>
      <trkpt lat="45.7866" lon="4.75445">
        <ele>261.61596679688</ele>
        <time>2009-09-10T11:06:39Z</time>
      </trkpt>
      <trkpt lat="45.78651" lon="4.75459">
        <ele>262.5771484375</ele>
        <time>2009-09-10T11:06:45Z</time>
      </trkpt>
      <trkpt lat="45.78644" lon="4.7547">
        <ele>264.01928710938</ele>
        <time>2009-09-10T11:06:50Z</time>
      </trkpt>
      <trkpt lat="45.78639" lon="4.7548">
        <ele>265.46130371094</ele>
        <time>2009-09-10T11:06:55Z</time>
      </trkpt>
      <trkpt lat="45.78636" lon="4.75488">
        <ele>266.42248535156</ele>
        <time>2009-09-10T11:07:00Z</time>
      </trkpt>
      <trkpt lat="45.78635" lon="4.75492">
        <ele>266.90319824219</ele>
        <time>2009-09-10T11:07:04Z</time>
      </trkpt>
      <trkpt lat="45.78625" lon="4.75496">
        <ele>265.94189453125</ele>
        <time>2009-09-10T11:07:09Z</time>
      </trkpt>
      <trkpt lat="45.78617" lon="4.75498">
        <ele>264.98059082031</ele>
        <time>2009-09-10T11:07:11Z</time>
      </trkpt>
      <trkpt lat="45.78604" lon="4.75505">
        <ele>264.49987792969</ele>
        <time>2009-09-10T11:07:14Z</time>
      </trkpt>
      <trkpt lat="45.78572" lon="4.7552">
        <ele>263.53857421875</ele>
        <time>2009-09-10T11:07:20Z</time>
      </trkpt>
      <trkpt lat="45.78554" lon="4.75525">
        <ele>261.13525390625</ele>
        <time>2009-09-10T11:07:25Z</time>
      </trkpt>
      <trkpt lat="45.7854" lon="4.75524">
        <ele>260.17395019531</ele>
        <time>2009-09-10T11:07:29Z</time>
      </trkpt>
      <trkpt lat="45.78514" lon="4.75516">
        <ele>259.21264648438</ele>
        <time>2009-09-10T11:07:35Z</time>
      </trkpt>
      <trkpt lat="45.78504" lon="4.75512">
        <ele>257.77075195312</ele>
        <time>2009-09-10T11:07:37Z</time>
      </trkpt>
      <trkpt lat="45.78496" lon="4.7551">
        <ele>256.32873535156</ele>
        <time>2009-09-10T11:07:39Z</time>
      </trkpt>
      <trkpt lat="45.78479" lon="4.75509">
        <ele>255.36730957031</ele>
        <time>2009-09-10T11:07:42Z</time>
      </trkpt>
      <trkpt lat="45.78455" lon="4.75514">
        <ele>253.44470214844</ele>
        <time>2009-09-10T11:07:46Z</time>
      </trkpt>
      <trkpt lat="45.78445" lon="4.75515">
        <ele>252.96398925781</ele>
        <time>2009-09-10T11:07:48Z</time>
      </trkpt>
      <trkpt lat="45.78428" lon="4.75521">
        <ele>252.4833984375</ele>
        <time>2009-09-10T11:07:52Z</time>
      </trkpt>
      <trkpt lat="45.7841" lon="4.75526">
        <ele>251.52209472656</ele>
        <time>2009-09-10T11:07:56Z</time>
      </trkpt>
      <trkpt lat="45.78385" lon="4.75525">
        <ele>251.52209472656</ele>
        <time>2009-09-10T11:08:01Z</time>
      </trkpt>
      <trkpt lat="45.78361" lon="4.75525">
        <ele>251.04138183594</ele>
        <time>2009-09-10T11:08:06Z</time>
      </trkpt>
      <trkpt lat="45.78354" lon="4.75532">
        <ele>251.04138183594</ele>
        <time>2009-09-10T11:08:08Z</time>
      </trkpt>
      <trkpt lat="45.78346" lon="4.75529">
        <ele>252.00280761719</ele>
        <time>2009-09-10T11:08:13Z</time>
      </trkpt>
      <trkpt lat="45.78347" lon="4.75503">
        <ele>252.4833984375</ele>
        <time>2009-09-10T11:08:18Z</time>
      </trkpt>
      <trkpt lat="45.7835" lon="4.75478">
        <ele>252.4833984375</ele>
        <time>2009-09-10T11:08:23Z</time>
      </trkpt>
      <trkpt lat="45.78343" lon="4.75469">
        <ele>252.96398925781</ele>
        <time>2009-09-10T11:08:27Z</time>
      </trkpt>
      <trkpt lat="45.78341" lon="4.75469">
        <ele>252.96398925781</ele>
        <time>2009-09-10T11:08:28Z</time>
      </trkpt>
      <trkpt lat="45.78331" lon="4.75463">
        <ele>255.84802246094</ele>
        <time>2009-09-10T11:08:37Z</time>
      </trkpt>
      <trkpt lat="45.78331" lon="4.75462">
        <ele>256.32873535156</ele>
        <time>2009-09-10T11:08:38Z</time>
      </trkpt>
      <trkpt lat="45.78329" lon="4.75458">
        <ele>257.2900390625</ele>
        <time>2009-09-10T11:08:42Z</time>
      </trkpt>
      <trkpt lat="45.78325" lon="4.75458">
        <ele>257.77075195312</ele>
        <time>2009-09-10T11:08:46Z</time>
      </trkpt>
      <trkpt lat="45.78315" lon="4.75459">
        <ele>258.73193359375</ele>
        <time>2009-09-10T11:08:53Z</time>
      </trkpt>
      <trkpt lat="45.78312" lon="4.7546">
        <ele>258.73193359375</ele>
        <time>2009-09-10T11:08:59Z</time>
      </trkpt>
      <trkpt lat="45.7831" lon="4.75461">
        <ele>258.73193359375</ele>
        <time>2009-09-10T11:09:05Z</time>
      </trkpt>
      <trkpt lat="45.78303" lon="4.75463">
        <ele>259.693359375</ele>
        <time>2009-09-10T11:09:11Z</time>
      </trkpt>
      <trkpt lat="45.78291" lon="4.75469">
        <ele>259.693359375</ele>
        <time>2009-09-10T11:09:16Z</time>
      </trkpt>
      <trkpt lat="45.78273" lon="4.75477">
        <ele>260.17395019531</ele>
        <time>2009-09-10T11:09:22Z</time>
      </trkpt>
      <trkpt lat="45.78263" lon="4.75482">
        <ele>260.65454101562</ele>
        <time>2009-09-10T11:09:26Z</time>
      </trkpt>
      <trkpt lat="45.7825" lon="4.75488">
        <ele>261.61596679688</ele>
        <time>2009-09-10T11:09:31Z</time>
      </trkpt>
      <trkpt lat="45.78239" lon="4.75495">
        <ele>261.61596679688</ele>
        <time>2009-09-10T11:09:36Z</time>
      </trkpt>
      <trkpt lat="45.78226" lon="4.75508">
        <ele>261.13525390625</ele>
        <time>2009-09-10T11:09:40Z</time>
      </trkpt>
      <trkpt lat="45.78222" lon="4.75512">
        <ele>260.17395019531</ele>
        <time>2009-09-10T11:09:41Z</time>
      </trkpt>
      <trkpt lat="45.78205" lon="4.75527">
        <ele>257.77075195312</ele>
        <time>2009-09-10T11:09:46Z</time>
      </trkpt>
      <trkpt lat="45.78201" lon="4.75533">
        <ele>255.84802246094</ele>
        <time>2009-09-10T11:09:48Z</time>
      </trkpt>
      <trkpt lat="45.78196" lon="4.75534">
        <ele>254.40600585938</ele>
        <time>2009-09-10T11:09:50Z</time>
      </trkpt>
      <trkpt lat="45.78185" lon="4.75545">
        <ele>251.52209472656</ele>
        <time>2009-09-10T11:09:55Z</time>
      </trkpt>
      <trkpt lat="45.7818" lon="4.75551">
        <ele>250.56079101562</ele>
        <time>2009-09-10T11:09:57Z</time>
      </trkpt>
      <trkpt lat="45.78176" lon="4.75554">
        <ele>249.59948730469</ele>
        <time>2009-09-10T11:09:58Z</time>
      </trkpt>
      <trkpt lat="45.78146" lon="4.7555">
        <ele>249.11877441406</ele>
        <time>2009-09-10T11:10:04Z</time>
      </trkpt>
      <trkpt lat="45.78126" lon="4.75553">
        <ele>248.15759277344</ele>
        <time>2009-09-10T11:10:08Z</time>
      </trkpt>
      <trkpt lat="45.78117" lon="4.75555">
        <ele>248.15759277344</ele>
        <time>2009-09-10T11:10:10Z</time>
      </trkpt>
      <trkpt lat="45.78103" lon="4.75556">
        <ele>248.15759277344</ele>
        <time>2009-09-10T11:10:14Z</time>
      </trkpt>
      <trkpt lat="45.78101" lon="4.75558">
        <ele>247.19604492188</ele>
        <time>2009-09-10T11:10:16Z</time>
      </trkpt>
      <trkpt lat="45.78087" lon="4.75563">
        <ele>246.71545410156</ele>
        <time>2009-09-10T11:10:21Z</time>
      </trkpt>
      <trkpt lat="45.78063" lon="4.75565">
        <ele>246.71545410156</ele>
        <time>2009-09-10T11:10:27Z</time>
      </trkpt>
      <trkpt lat="45.78053" lon="4.75563">
        <ele>246.71545410156</ele>
        <time>2009-09-10T11:10:31Z</time>
      </trkpt>
      <trkpt lat="45.78051" lon="4.75562">
        <ele>246.71545410156</ele>
        <time>2009-09-10T11:10:37Z</time>
      </trkpt>
      <trkpt lat="45.78053" lon="4.75562">
        <ele>246.71545410156</ele>
        <time>2009-09-10T11:10:41Z</time>
      </trkpt>
      <trkpt lat="45.78051" lon="4.75563">
        <ele>247.19604492188</ele>
        <time>2009-09-10T11:10:46Z</time>
      </trkpt>
      <trkpt lat="45.78048" lon="4.75563">
        <ele>247.19604492188</ele>
        <time>2009-09-10T11:10:52Z</time>
      </trkpt>
      <trkpt lat="45.78047" lon="4.75563">
        <ele>247.19604492188</ele>
        <time>2009-09-10T11:10:59Z</time>
      </trkpt>
      <trkpt lat="45.78038" lon="4.75561">
        <ele>246.71545410156</ele>
        <time>2009-09-10T11:11:03Z</time>
      </trkpt>
      <trkpt lat="45.78022" lon="4.75554">
        <ele>246.71545410156</ele>
        <time>2009-09-10T11:11:07Z</time>
      </trkpt>
      <trkpt lat="45.78" lon="4.75541">
        <ele>247.19604492188</ele>
        <time>2009-09-10T11:11:13Z</time>
      </trkpt>
      <trkpt lat="45.77988" lon="4.75535">
        <ele>247.19604492188</ele>
        <time>2009-09-10T11:11:16Z</time>
      </trkpt>
      <trkpt lat="45.77962" lon="4.75522">
        <ele>247.6767578125</ele>
        <time>2009-09-10T11:11:23Z</time>
      </trkpt>
      <trkpt lat="45.7794" lon="4.75509">
        <ele>248.63818359375</ele>
        <time>2009-09-10T11:11:29Z</time>
      </trkpt>
      <trkpt lat="45.77927" lon="4.75501">
        <ele>250.08020019531</ele>
        <time>2009-09-10T11:11:34Z</time>
      </trkpt>
      <trkpt lat="45.77917" lon="4.75499">
        <ele>249.11877441406</ele>
        <time>2009-09-10T11:11:37Z</time>
      </trkpt>
      <trkpt lat="45.77899" lon="4.75503">
        <ele>246.71545410156</ele>
        <time>2009-09-10T11:11:41Z</time>
      </trkpt>
      <trkpt lat="45.77883" lon="4.75506">
        <ele>245.75415039062</ele>
        <time>2009-09-10T11:11:45Z</time>
      </trkpt>
      <trkpt lat="45.77879" lon="4.75508">
        <ele>245.2734375</ele>
        <time>2009-09-10T11:11:46Z</time>
      </trkpt>
      <trkpt lat="45.77864" lon="4.75523">
        <ele>244.79284667969</ele>
        <time>2009-09-10T11:11:50Z</time>
      </trkpt>
      <trkpt lat="45.77867" lon="4.75531">
        <ele>243.35083007812</ele>
        <time>2009-09-10T11:11:53Z</time>
      </trkpt>
      <trkpt lat="45.77864" lon="4.75547">
        <ele>242.87023925781</ele>
        <time>2009-09-10T11:11:57Z</time>
      </trkpt>
      <trkpt lat="45.77863" lon="4.75551">
        <ele>242.87023925781</ele>
        <time>2009-09-10T11:11:58Z</time>
      </trkpt>
      <trkpt lat="45.77863" lon="4.75564">
        <ele>242.87023925781</ele>
        <time>2009-09-10T11:12:01Z</time>
      </trkpt>
      <trkpt lat="45.77872" lon="4.75586">
        <ele>242.87023925781</ele>
        <time>2009-09-10T11:12:07Z</time>
      </trkpt>
      <trkpt lat="45.77873" lon="4.75588">
        <ele>242.3896484375</ele>
        <time>2009-09-10T11:12:08Z</time>
      </trkpt>
      <trkpt lat="45.77878" lon="4.75592">
        <ele>242.87023925781</ele>
        <time>2009-09-10T11:12:13Z</time>
      </trkpt>
      <trkpt lat="45.77879" lon="4.75589">
        <ele>242.87023925781</ele>
        <time>2009-09-10T11:12:16Z</time>
      </trkpt>
      <trkpt lat="45.77874" lon="4.75589">
        <ele>242.3896484375</ele>
        <time>2009-09-10T11:12:19Z</time>
      </trkpt>
      <trkpt lat="45.7786" lon="4.75591">
        <ele>241.90893554688</ele>
        <time>2009-09-10T11:12:25Z</time>
      </trkpt>
      <trkpt lat="45.77848" lon="4.7559">
        <ele>241.90893554688</ele>
        <time>2009-09-10T11:12:29Z</time>
      </trkpt>
      <trkpt lat="45.77833" lon="4.7559">
        <ele>241.90893554688</ele>
        <time>2009-09-10T11:12:33Z</time>
      </trkpt>
      <trkpt lat="45.77819" lon="4.75586">
        <ele>240.94763183594</ele>
        <time>2009-09-10T11:12:36Z</time>
      </trkpt>
      <trkpt lat="45.77807" lon="4.75582">
        <ele>240.94763183594</ele>
        <time>2009-09-10T11:12:38Z</time>
      </trkpt>
      <trkpt lat="45.77782" lon="4.75574">
        <ele>241.90893554688</ele>
        <time>2009-09-10T11:12:43Z</time>
      </trkpt>
      <trkpt lat="45.77776" lon="4.75574">
        <ele>241.42822265625</ele>
        <time>2009-09-10T11:12:44Z</time>
      </trkpt>
      <trkpt lat="45.77748" lon="4.75571">
        <ele>240.94763183594</ele>
        <time>2009-09-10T11:12:49Z</time>
      </trkpt>
      <trkpt lat="45.77736" lon="4.75572">
        <ele>240.94763183594</ele>
        <time>2009-09-10T11:12:51Z</time>
      </trkpt>
      <trkpt lat="45.77718" lon="4.75566">
        <ele>240.94763183594</ele>
        <time>2009-09-10T11:12:55Z</time>
      </trkpt>
      <trkpt lat="45.77704" lon="4.75563">
        <ele>240.46704101562</ele>
        <time>2009-09-10T11:12:59Z</time>
      </trkpt>
      <trkpt lat="45.77697" lon="4.75548">
        <ele>239.50549316406</ele>
        <time>2009-09-10T11:13:03Z</time>
      </trkpt>
      <trkpt lat="45.77701" lon="4.7554">
        <ele>239.50549316406</ele>
        <time>2009-09-10T11:13:06Z</time>
      </trkpt>
      <trkpt lat="45.77699" lon="4.75529">
        <ele>239.02490234375</ele>
        <time>2009-09-10T11:13:10Z</time>
      </trkpt>
      <trkpt lat="45.77686" lon="4.75526">
        <ele>239.02490234375</ele>
        <time>2009-09-10T11:13:13Z</time>
      </trkpt>
      <trkpt lat="45.77672" lon="4.75532">
        <ele>239.50549316406</ele>
        <time>2009-09-10T11:13:17Z</time>
      </trkpt>
      <trkpt lat="45.77665" lon="4.75532">
        <ele>239.02490234375</ele>
        <time>2009-09-10T11:13:19Z</time>
      </trkpt>
      <trkpt lat="45.77652" lon="4.75525">
        <ele>239.02490234375</ele>
        <time>2009-09-10T11:13:22Z</time>
      </trkpt>
      <trkpt lat="45.77636" lon="4.7552">
        <ele>237.58288574219</ele>
        <time>2009-09-10T11:13:25Z</time>
      </trkpt>
      <trkpt lat="45.7761" lon="4.75515">
        <ele>238.06359863281</ele>
        <time>2009-09-10T11:13:30Z</time>
      </trkpt>
      <trkpt lat="45.77604" lon="4.75509">
        <ele>238.06359863281</ele>
        <time>2009-09-10T11:13:32Z</time>
      </trkpt>
      <trkpt lat="45.77584" lon="4.75502">
        <ele>237.10229492188</ele>
        <time>2009-09-10T11:13:37Z</time>
      </trkpt>
      <trkpt lat="45.77574" lon="4.75507">
        <ele>237.58288574219</ele>
        <time>2009-09-10T11:13:39Z</time>
      </trkpt>
      <trkpt lat="45.77539" lon="4.75514">
        <ele>237.10229492188</ele>
        <time>2009-09-10T11:13:45Z</time>
      </trkpt>
      <trkpt lat="45.77522" lon="4.75508">
        <ele>237.10229492188</ele>
        <time>2009-09-10T11:13:48Z</time>
      </trkpt>
      <trkpt lat="45.77506" lon="4.75505">
        <ele>237.10229492188</ele>
        <time>2009-09-10T11:13:51Z</time>
      </trkpt>
      <trkpt lat="45.77486" lon="4.75515">
        <ele>237.10229492188</ele>
        <time>2009-09-10T11:13:55Z</time>
      </trkpt>
      <trkpt lat="45.77465" lon="4.75526">
        <ele>237.10229492188</ele>
        <time>2009-09-10T11:13:59Z</time>
      </trkpt>
      <trkpt lat="45.77448" lon="4.75537">
        <ele>236.14099121094</ele>
        <time>2009-09-10T11:14:02Z</time>
      </trkpt>
      <trkpt lat="45.77411" lon="4.75567">
        <ele>235.1796875</ele>
        <time>2009-09-10T11:14:09Z</time>
      </trkpt>
      <trkpt lat="45.77384" lon="4.75585">
        <ele>234.69909667969</ele>
        <time>2009-09-10T11:14:14Z</time>
      </trkpt>
      <trkpt lat="45.77363" lon="4.75601">
        <ele>234.21838378906</ele>
        <time>2009-09-10T11:14:18Z</time>
      </trkpt>
      <trkpt lat="45.77349" lon="4.75615">
        <ele>233.73767089844</ele>
        <time>2009-09-10T11:14:21Z</time>
      </trkpt>
      <trkpt lat="45.77333" lon="4.75636">
        <ele>234.21838378906</ele>
        <time>2009-09-10T11:14:25Z</time>
      </trkpt>
      <trkpt lat="45.77309" lon="4.75663">
        <ele>233.73767089844</ele>
        <time>2009-09-10T11:14:30Z</time>
      </trkpt>
      <trkpt lat="45.77315" lon="4.7568">
        <ele>233.73767089844</ele>
        <time>2009-09-10T11:14:33Z</time>
      </trkpt>
      <trkpt lat="45.77327" lon="4.75706">
        <ele>235.1796875</ele>
        <time>2009-09-10T11:14:37Z</time>
      </trkpt>
      <trkpt lat="45.77334" lon="4.75715">
        <ele>236.62170410156</ele>
        <time>2009-09-10T11:14:41Z</time>
      </trkpt>
      <trkpt lat="45.7734" lon="4.75722">
        <ele>238.54431152344</ele>
        <time>2009-09-10T11:14:45Z</time>
      </trkpt>
      <trkpt lat="45.77343" lon="4.75729">
        <ele>239.98620605469</ele>
        <time>2009-09-10T11:14:48Z</time>
      </trkpt>
      <trkpt lat="45.77331" lon="4.7574">
        <ele>239.98620605469</ele>
        <time>2009-09-10T11:14:53Z</time>
      </trkpt>
      <trkpt lat="45.77317" lon="4.75759">
        <ele>239.98620605469</ele>
        <time>2009-09-10T11:14:58Z</time>
      </trkpt>
      <trkpt lat="45.77299" lon="4.75785">
        <ele>239.98620605469</ele>
        <time>2009-09-10T11:15:04Z</time>
      </trkpt>
      <trkpt lat="45.7729" lon="4.75802">
        <ele>240.94763183594</ele>
        <time>2009-09-10T11:15:08Z</time>
      </trkpt>
      <trkpt lat="45.77286" lon="4.75814">
        <ele>241.42822265625</ele>
        <time>2009-09-10T11:15:11Z</time>
      </trkpt>
      <trkpt lat="45.77279" lon="4.75831">
        <ele>242.3896484375</ele>
        <time>2009-09-10T11:15:16Z</time>
      </trkpt>
      <trkpt lat="45.77274" lon="4.75841">
        <ele>243.35083007812</ele>
        <time>2009-09-10T11:15:19Z</time>
      </trkpt>
      <trkpt lat="45.77267" lon="4.75858">
        <ele>243.83154296875</ele>
        <time>2009-09-10T11:15:24Z</time>
      </trkpt>
      <trkpt lat="45.77267" lon="4.75861">
        <ele>244.31225585938</ele>
        <time>2009-09-10T11:15:25Z</time>
      </trkpt>
      <trkpt lat="45.77267" lon="4.7588">
        <ele>245.2734375</ele>
        <time>2009-09-10T11:15:32Z</time>
      </trkpt>
      <trkpt lat="45.77267" lon="4.75883">
        <ele>245.2734375</ele>
        <time>2009-09-10T11:15:33Z</time>
      </trkpt>
      <trkpt lat="45.77266" lon="4.75897">
        <ele>246.23486328125</ele>
        <time>2009-09-10T11:15:40Z</time>
      </trkpt>
      <trkpt lat="45.77263" lon="4.75912">
        <ele>247.19604492188</ele>
        <time>2009-09-10T11:15:45Z</time>
      </trkpt>
      <trkpt lat="45.77262" lon="4.75915">
        <ele>247.19604492188</ele>
        <time>2009-09-10T11:15:46Z</time>
      </trkpt>
      <trkpt lat="45.7726" lon="4.75931">
        <ele>248.63818359375</ele>
        <time>2009-09-10T11:15:52Z</time>
      </trkpt>
      <trkpt lat="45.77258" lon="4.75943">
        <ele>249.11877441406</ele>
        <time>2009-09-10T11:15:57Z</time>
      </trkpt>
      <trkpt lat="45.77253" lon="4.75962">
        <ele>250.08020019531</ele>
        <time>2009-09-10T11:16:05Z</time>
      </trkpt>
      <trkpt lat="45.77254" lon="4.75966">
        <ele>250.56079101562</ele>
        <time>2009-09-10T11:16:09Z</time>
      </trkpt>
      <trkpt lat="45.77257" lon="4.75965">
        <ele>250.08020019531</ele>
        <time>2009-09-10T11:16:12Z</time>
      </trkpt>
      <trkpt lat="45.77258" lon="4.75953">
        <ele>249.11877441406</ele>
        <time>2009-09-10T11:16:16Z</time>
      </trkpt>
      <trkpt lat="45.77259" lon="4.75942">
        <ele>249.11877441406</ele>
        <time>2009-09-10T11:16:18Z</time>
      </trkpt>
      <trkpt lat="45.77259" lon="4.75922">
        <ele>247.6767578125</ele>
        <time>2009-09-10T11:16:21Z</time>
      </trkpt>
      <trkpt lat="45.77264" lon="4.75897">
        <ele>246.71545410156</ele>
        <time>2009-09-10T11:16:24Z</time>
      </trkpt>
      <trkpt lat="45.77267" lon="4.75874">
        <ele>244.31225585938</ele>
        <time>2009-09-10T11:16:28Z</time>
      </trkpt>
      <trkpt lat="45.77262" lon="4.75883">
        <ele>243.35083007812</ele>
        <time>2009-09-10T11:16:33Z</time>
      </trkpt>
      <trkpt lat="45.77257" lon="4.75902">
        <ele>242.3896484375</ele>
        <time>2009-09-10T11:16:38Z</time>
      </trkpt>
      <trkpt lat="45.77251" lon="4.75916">
        <ele>240.94763183594</ele>
        <time>2009-09-10T11:16:41Z</time>
      </trkpt>
      <trkpt lat="45.77241" lon="4.75936">
        <ele>240.94763183594</ele>
        <time>2009-09-10T11:16:45Z</time>
      </trkpt>
      <trkpt lat="45.77227" lon="4.75959">
        <ele>240.94763183594</ele>
        <time>2009-09-10T11:16:51Z</time>
      </trkpt>
      <trkpt lat="45.77215" lon="4.75975">
        <ele>240.94763183594</ele>
        <time>2009-09-10T11:16:56Z</time>
      </trkpt>
      <trkpt lat="45.77205" lon="4.75988">
        <ele>240.94763183594</ele>
        <time>2009-09-10T11:17:01Z</time>
      </trkpt>
      <trkpt lat="45.77198" lon="4.75996">
        <ele>240.94763183594</ele>
        <time>2009-09-10T11:17:04Z</time>
      </trkpt>
      <trkpt lat="45.77196" lon="4.75998">
        <ele>239.50549316406</ele>
        <time>2009-09-10T11:17:06Z</time>
      </trkpt>
      <trkpt lat="45.7719" lon="4.76">
        <ele>238.06359863281</ele>
        <time>2009-09-10T11:17:10Z</time>
      </trkpt>
      <trkpt lat="45.77185" lon="4.76014">
        <ele>239.02490234375</ele>
        <time>2009-09-10T11:17:14Z</time>
      </trkpt>
      <trkpt lat="45.77177" lon="4.76033">
        <ele>238.54431152344</ele>
        <time>2009-09-10T11:17:18Z</time>
      </trkpt>
      <trkpt lat="45.77178" lon="4.76049">
        <ele>240.46704101562</ele>
        <time>2009-09-10T11:17:22Z</time>
      </trkpt>
      <trkpt lat="45.77171" lon="4.76062">
        <ele>241.42822265625</ele>
        <time>2009-09-10T11:17:26Z</time>
      </trkpt>
      <trkpt lat="45.77167" lon="4.76068">
        <ele>240.46704101562</ele>
        <time>2009-09-10T11:17:28Z</time>
      </trkpt>
      <trkpt lat="45.77157" lon="4.7608">
        <ele>240.94763183594</ele>
        <time>2009-09-10T11:17:33Z</time>
      </trkpt>
      <trkpt lat="45.77157" lon="4.76082">
        <ele>240.94763183594</ele>
        <time>2009-09-10T11:17:36Z</time>
      </trkpt>
      <trkpt lat="45.77161" lon="4.76085">
        <ele>240.94763183594</ele>
        <time>2009-09-10T11:17:47Z</time>
      </trkpt>
      <trkpt lat="45.7716" lon="4.76088">
        <ele>241.42822265625</ele>
        <time>2009-09-10T11:17:57Z</time>
      </trkpt>
      <trkpt lat="45.77158" lon="4.76091">
        <ele>241.42822265625</ele>
        <time>2009-09-10T11:18:05Z</time>
      </trkpt>
      <trkpt lat="45.7716" lon="4.76095">
        <ele>242.3896484375</ele>
        <time>2009-09-10T11:18:07Z</time>
      </trkpt>
      <trkpt lat="45.77158" lon="4.76098">
        <ele>242.87023925781</ele>
        <time>2009-09-10T11:18:09Z</time>
      </trkpt>
      <trkpt lat="45.77147" lon="4.76106">
        <ele>243.83154296875</ele>
        <time>2009-09-10T11:18:14Z</time>
      </trkpt>
      <trkpt lat="45.77132" lon="4.7612">
        <ele>244.31225585938</ele>
        <time>2009-09-10T11:18:19Z</time>
      </trkpt>
      <trkpt lat="45.77116" lon="4.76135">
        <ele>243.83154296875</ele>
        <time>2009-09-10T11:18:24Z</time>
      </trkpt>
      <trkpt lat="45.77105" lon="4.76148">
        <ele>243.35083007812</ele>
        <time>2009-09-10T11:18:28Z</time>
      </trkpt>
      <trkpt lat="45.77101" lon="4.76149">
        <ele>242.87023925781</ele>
        <time>2009-09-10T11:18:32Z</time>
      </trkpt>
      <trkpt lat="45.77102" lon="4.7616">
        <ele>242.3896484375</ele>
        <time>2009-09-10T11:18:42Z</time>
      </trkpt>
      <trkpt lat="45.77098" lon="4.76184">
        <ele>241.42822265625</ele>
        <time>2009-09-10T11:18:47Z</time>
      </trkpt>
      <trkpt lat="45.771" lon="4.76207">
        <ele>240.94763183594</ele>
        <time>2009-09-10T11:18:51Z</time>
      </trkpt>
      <trkpt lat="45.77102" lon="4.7623">
        <ele>240.46704101562</ele>
        <time>2009-09-10T11:18:55Z</time>
      </trkpt>
      <trkpt lat="45.77106" lon="4.76258">
        <ele>240.46704101562</ele>
        <time>2009-09-10T11:19:00Z</time>
      </trkpt>
      <trkpt lat="45.77109" lon="4.76275">
        <ele>240.46704101562</ele>
        <time>2009-09-10T11:19:03Z</time>
      </trkpt>
      <trkpt lat="45.77112" lon="4.76296">
        <ele>241.90893554688</ele>
        <time>2009-09-10T11:19:07Z</time>
      </trkpt>
      <trkpt lat="45.77118" lon="4.76323">
        <ele>242.3896484375</ele>
        <time>2009-09-10T11:19:13Z</time>
      </trkpt>
      <trkpt lat="45.77127" lon="4.76343">
        <ele>242.87023925781</ele>
        <time>2009-09-10T11:19:18Z</time>
      </trkpt>
      <trkpt lat="45.77132" lon="4.76351">
        <ele>243.35083007812</ele>
        <time>2009-09-10T11:19:21Z</time>
      </trkpt>
      <trkpt lat="45.77139" lon="4.7636">
        <ele>243.83154296875</ele>
        <time>2009-09-10T11:19:25Z</time>
      </trkpt>
      <trkpt lat="45.77157" lon="4.76373">
        <ele>243.83154296875</ele>
        <time>2009-09-10T11:19:32Z</time>
      </trkpt>
      <trkpt lat="45.77168" lon="4.76381">
        <ele>242.87023925781</ele>
        <time>2009-09-10T11:19:37Z</time>
      </trkpt>
      <trkpt lat="45.77183" lon="4.76396">
        <ele>241.90893554688</ele>
        <time>2009-09-10T11:19:42Z</time>
      </trkpt>
      <trkpt lat="45.77193" lon="4.76416">
        <ele>241.42822265625</ele>
        <time>2009-09-10T11:19:46Z</time>
      </trkpt>
      <trkpt lat="45.77197" lon="4.76423">
        <ele>241.42822265625</ele>
        <time>2009-09-10T11:19:50Z</time>
      </trkpt>
      <trkpt lat="45.77197" lon="4.76425">
        <ele>240.94763183594</ele>
        <time>2009-09-10T11:19:51Z</time>
      </trkpt>
      <trkpt lat="45.77202" lon="4.76437">
        <ele>241.42822265625</ele>
        <time>2009-09-10T11:19:56Z</time>
      </trkpt>
      <trkpt lat="45.77203" lon="4.76443">
        <ele>240.94763183594</ele>
        <time>2009-09-10T11:19:58Z</time>
      </trkpt>
      <trkpt lat="45.77206" lon="4.76448">
        <ele>240.94763183594</ele>
        <time>2009-09-10T11:20:00Z</time>
      </trkpt>
      <trkpt lat="45.77215" lon="4.76454">
        <ele>241.42822265625</ele>
        <time>2009-09-10T11:20:07Z</time>
      </trkpt>
      <trkpt lat="45.77217" lon="4.76454">
        <ele>241.42822265625</ele>
        <time>2009-09-10T11:20:09Z</time>
      </trkpt>
      <trkpt lat="45.77228" lon="4.76449">
        <ele>240.94763183594</ele>
        <time>2009-09-10T11:20:15Z</time>
      </trkpt>
      <trkpt lat="45.77233" lon="4.76453">
        <ele>240.94763183594</ele>
        <time>2009-09-10T11:20:21Z</time>
      </trkpt>
      <trkpt lat="45.7723" lon="4.76458">
        <ele>241.42822265625</ele>
        <time>2009-09-10T11:20:26Z</time>
      </trkpt>
      <trkpt lat="45.77226" lon="4.7646">
        <ele>241.90893554688</ele>
        <time>2009-09-10T11:20:31Z</time>
      </trkpt>
      <trkpt lat="45.77223" lon="4.76462">
        <ele>242.3896484375</ele>
        <time>2009-09-10T11:20:36Z</time>
      </trkpt>
      <trkpt lat="45.77222" lon="4.76461">
        <ele>242.87023925781</ele>
        <time>2009-09-10T11:20:38Z</time>
      </trkpt>
      <trkpt lat="45.77219" lon="4.7646">
        <ele>241.90893554688</ele>
        <time>2009-09-10T11:20:42Z</time>
      </trkpt>
      <trkpt lat="45.77212" lon="4.76458">
        <ele>241.90893554688</ele>
        <time>2009-09-10T11:20:48Z</time>
      </trkpt>
      <trkpt lat="45.77211" lon="4.76461">
        <ele>241.90893554688</ele>
        <time>2009-09-10T11:20:51Z</time>
      </trkpt>
      <trkpt lat="45.77211" lon="4.76469">
        <ele>242.87023925781</ele>
        <time>2009-09-10T11:20:55Z</time>
      </trkpt>
      <trkpt lat="45.77228" lon="4.76477">
        <ele>243.35083007812</ele>
        <time>2009-09-10T11:21:03Z</time>
      </trkpt>
      <trkpt lat="45.77243" lon="4.76479">
        <ele>244.31225585938</ele>
        <time>2009-09-10T11:21:09Z</time>
      </trkpt>
      <trkpt lat="45.77255" lon="4.7648">
        <ele>244.79284667969</ele>
        <time>2009-09-10T11:21:14Z</time>
      </trkpt>
      <trkpt lat="45.77264" lon="4.7648">
        <ele>245.2734375</ele>
        <time>2009-09-10T11:21:18Z</time>
      </trkpt>
      <trkpt lat="45.77279" lon="4.76483">
        <ele>246.23486328125</ele>
        <time>2009-09-10T11:21:23Z</time>
      </trkpt>
      <trkpt lat="45.77296" lon="4.76483">
        <ele>246.23486328125</ele>
        <time>2009-09-10T11:21:29Z</time>
      </trkpt>
      <trkpt lat="45.77311" lon="4.76484">
        <ele>247.6767578125</ele>
        <time>2009-09-10T11:21:35Z</time>
      </trkpt>
      <trkpt lat="45.77329" lon="4.76485">
        <ele>247.6767578125</ele>
        <time>2009-09-10T11:21:41Z</time>
      </trkpt>
      <trkpt lat="45.77356" lon="4.76484">
        <ele>249.11877441406</ele>
        <time>2009-09-10T11:21:49Z</time>
      </trkpt>
      <trkpt lat="45.77383" lon="4.76487">
        <ele>249.59948730469</ele>
        <time>2009-09-10T11:21:57Z</time>
      </trkpt>
      <trkpt lat="45.77407" lon="4.76491">
        <ele>251.04138183594</ele>
        <time>2009-09-10T11:22:05Z</time>
      </trkpt>
      <trkpt lat="45.77431" lon="4.76496">
        <ele>252.4833984375</ele>
        <time>2009-09-10T11:22:13Z</time>
      </trkpt>
      <trkpt lat="45.7745" lon="4.76498">
        <ele>253.44470214844</ele>
        <time>2009-09-10T11:22:20Z</time>
      </trkpt>
      <trkpt lat="45.77473" lon="4.76502">
        <ele>254.88659667969</ele>
        <time>2009-09-10T11:22:28Z</time>
      </trkpt>
      <trkpt lat="45.77488" lon="4.76507">
        <ele>256.32873535156</ele>
        <time>2009-09-10T11:22:34Z</time>
      </trkpt>
      <trkpt lat="45.77506" lon="4.76515">
        <ele>258.25134277344</ele>
        <time>2009-09-10T11:22:41Z</time>
      </trkpt>
      <trkpt lat="45.77521" lon="4.76522">
        <ele>260.17395019531</ele>
        <time>2009-09-10T11:22:47Z</time>
      </trkpt>
      <trkpt lat="45.77536" lon="4.76531">
        <ele>260.17395019531</ele>
        <time>2009-09-10T11:22:54Z</time>
      </trkpt>
      <trkpt lat="45.77539" lon="4.76532">
        <ele>260.65454101562</ele>
        <time>2009-09-10T11:22:56Z</time>
      </trkpt>
      <trkpt lat="45.7755" lon="4.76538">
        <ele>261.13525390625</ele>
        <time>2009-09-10T11:23:03Z</time>
      </trkpt>
      <trkpt lat="45.77552" lon="4.76538">
        <ele>260.65454101562</ele>
        <time>2009-09-10T11:23:08Z</time>
      </trkpt>
      <trkpt lat="45.77554" lon="4.76539">
        <ele>260.65454101562</ele>
        <time>2009-09-10T11:23:12Z</time>
      </trkpt>
      <trkpt lat="45.77567" lon="4.76548">
        <ele>261.13525390625</ele>
        <time>2009-09-10T11:23:18Z</time>
      </trkpt>
      <trkpt lat="45.77589" lon="4.76562">
        <ele>262.5771484375</ele>
        <time>2009-09-10T11:23:26Z</time>
      </trkpt>
      <trkpt lat="45.77607" lon="4.76574">
        <ele>263.53857421875</ele>
        <time>2009-09-10T11:23:33Z</time>
      </trkpt>
      <trkpt lat="45.77626" lon="4.76586">
        <ele>264.49987792969</ele>
        <time>2009-09-10T11:23:40Z</time>
      </trkpt>
      <trkpt lat="45.77645" lon="4.76598">
        <ele>264.49987792969</ele>
        <time>2009-09-10T11:23:47Z</time>
      </trkpt>
      <trkpt lat="45.77668" lon="4.76609">
        <ele>265.46130371094</ele>
        <time>2009-09-10T11:23:55Z</time>
      </trkpt>
      <trkpt lat="45.77689" lon="4.76619">
        <ele>265.94189453125</ele>
        <time>2009-09-10T11:24:02Z</time>
      </trkpt>
      <trkpt lat="45.77696" lon="4.76629">
        <ele>267.38391113281</ele>
        <time>2009-09-10T11:24:06Z</time>
      </trkpt>
      <trkpt lat="45.77697" lon="4.76631">
        <ele>267.38391113281</ele>
        <time>2009-09-10T11:24:07Z</time>
      </trkpt>
      <trkpt lat="45.77705" lon="4.76641">
        <ele>268.34509277344</ele>
        <time>2009-09-10T11:24:12Z</time>
      </trkpt>
      <trkpt lat="45.77713" lon="4.76651">
        <ele>268.82580566406</ele>
        <time>2009-09-10T11:24:17Z</time>
      </trkpt>
      <trkpt lat="45.77726" lon="4.76667">
        <ele>268.82580566406</ele>
        <time>2009-09-10T11:24:23Z</time>
      </trkpt>
      <trkpt lat="45.77731" lon="4.76672">
        <ele>267.86450195312</ele>
        <time>2009-09-10T11:24:25Z</time>
      </trkpt>
      <trkpt lat="45.77734" lon="4.76678">
        <ele>267.86450195312</ele>
        <time>2009-09-10T11:24:27Z</time>
      </trkpt>
      <trkpt lat="45.77731" lon="4.76689">
        <ele>267.86450195312</ele>
        <time>2009-09-10T11:24:32Z</time>
      </trkpt>
      <trkpt lat="45.77719" lon="4.76698">
        <ele>267.38391113281</ele>
        <time>2009-09-10T11:24:36Z</time>
      </trkpt>
      <trkpt lat="45.77721" lon="4.76715">
        <ele>268.34509277344</ele>
        <time>2009-09-10T11:24:39Z</time>
      </trkpt>
      <trkpt lat="45.77723" lon="4.76725">
        <ele>268.82580566406</ele>
        <time>2009-09-10T11:24:41Z</time>
      </trkpt>
      <trkpt lat="45.77733" lon="4.76755">
        <ele>268.82580566406</ele>
        <time>2009-09-10T11:24:48Z</time>
      </trkpt>
      <trkpt lat="45.77728" lon="4.76771">
        <ele>268.82580566406</ele>
        <time>2009-09-10T11:24:52Z</time>
      </trkpt>
      <trkpt lat="45.77716" lon="4.76791">
        <ele>266.90319824219</ele>
        <time>2009-09-10T11:24:56Z</time>
      </trkpt>
      <trkpt lat="45.77713" lon="4.76796">
        <ele>267.38391113281</ele>
        <time>2009-09-10T11:24:57Z</time>
      </trkpt>
      <trkpt lat="45.77682" lon="4.76828">
        <ele>265.94189453125</ele>
        <time>2009-09-10T11:25:04Z</time>
      </trkpt>
      <trkpt lat="45.77677" lon="4.76833">
        <ele>265.46130371094</ele>
        <time>2009-09-10T11:25:05Z</time>
      </trkpt>
      <trkpt lat="45.77639" lon="4.76869">
        <ele>264.01928710938</ele>
        <time>2009-09-10T11:25:12Z</time>
      </trkpt>
      <trkpt lat="45.77612" lon="4.76906">
        <ele>262.09655761719</ele>
        <time>2009-09-10T11:25:17Z</time>
      </trkpt>
      <trkpt lat="45.77601" lon="4.76924">
        <ele>261.13525390625</ele>
        <time>2009-09-10T11:25:19Z</time>
      </trkpt>
      <trkpt lat="45.77575" lon="4.76951">
        <ele>259.693359375</ele>
        <time>2009-09-10T11:25:23Z</time>
      </trkpt>
      <trkpt lat="45.77554" lon="4.76983">
        <ele>258.73193359375</ele>
        <time>2009-09-10T11:25:27Z</time>
      </trkpt>
      <trkpt lat="45.77551" lon="4.76992">
        <ele>258.73193359375</ele>
        <time>2009-09-10T11:25:28Z</time>
      </trkpt>
      <trkpt lat="45.77545" lon="4.77009">
        <ele>258.25134277344</ele>
        <time>2009-09-10T11:25:30Z</time>
      </trkpt>
      <trkpt lat="45.77533" lon="4.77026">
        <ele>257.77075195312</ele>
        <time>2009-09-10T11:25:34Z</time>
      </trkpt>
      <trkpt lat="45.77529" lon="4.7703">
        <ele>257.2900390625</ele>
        <time>2009-09-10T11:25:35Z</time>
      </trkpt>
      <trkpt lat="45.77524" lon="4.7705">
        <ele>257.2900390625</ele>
        <time>2009-09-10T11:25:39Z</time>
      </trkpt>
      <trkpt lat="45.77525" lon="4.77065">
        <ele>257.2900390625</ele>
        <time>2009-09-10T11:25:43Z</time>
      </trkpt>
      <trkpt lat="45.77522" lon="4.77077">
        <ele>256.80932617188</ele>
        <time>2009-09-10T11:25:46Z</time>
      </trkpt>
      <trkpt lat="45.77511" lon="4.77083">
        <ele>255.84802246094</ele>
        <time>2009-09-10T11:25:50Z</time>
      </trkpt>
      <trkpt lat="45.77496" lon="4.77075">
        <ele>254.40600585938</ele>
        <time>2009-09-10T11:25:54Z</time>
      </trkpt>
      <trkpt lat="45.77486" lon="4.77078">
        <ele>253.44470214844</ele>
        <time>2009-09-10T11:25:56Z</time>
      </trkpt>
      <trkpt lat="45.77473" lon="4.7709">
        <ele>252.00280761719</ele>
        <time>2009-09-10T11:25:59Z</time>
      </trkpt>
      <trkpt lat="45.77456" lon="4.77124">
        <ele>250.08020019531</ele>
        <time>2009-09-10T11:26:04Z</time>
      </trkpt>
      <trkpt lat="45.7742" lon="4.77174">
        <ele>247.6767578125</ele>
        <time>2009-09-10T11:26:11Z</time>
      </trkpt>
      <trkpt lat="45.77416" lon="4.77181">
        <ele>247.6767578125</ele>
        <time>2009-09-10T11:26:12Z</time>
      </trkpt>
      <trkpt lat="45.77398" lon="4.77221">
        <ele>248.63818359375</ele>
        <time>2009-09-10T11:26:18Z</time>
      </trkpt>
      <trkpt lat="45.77394" lon="4.7725">
        <ele>249.59948730469</ele>
        <time>2009-09-10T11:26:23Z</time>
      </trkpt>
      <trkpt lat="45.77401" lon="4.77264">
        <ele>249.11877441406</ele>
        <time>2009-09-10T11:26:27Z</time>
      </trkpt>
      <trkpt lat="45.77399" lon="4.77272">
        <ele>248.63818359375</ele>
        <time>2009-09-10T11:26:30Z</time>
      </trkpt>
      <trkpt lat="45.77393" lon="4.77281">
        <ele>248.63818359375</ele>
        <time>2009-09-10T11:26:34Z</time>
      </trkpt>
      <trkpt lat="45.77391" lon="4.7728">
        <ele>249.11877441406</ele>
        <time>2009-09-10T11:26:35Z</time>
      </trkpt>
      <trkpt lat="45.77383" lon="4.77275">
        <ele>249.59948730469</ele>
        <time>2009-09-10T11:26:38Z</time>
      </trkpt>
      <trkpt lat="45.77372" lon="4.77282">
        <ele>249.59948730469</ele>
        <time>2009-09-10T11:26:42Z</time>
      </trkpt>
      <trkpt lat="45.7737" lon="4.77286">
        <ele>249.11877441406</ele>
        <time>2009-09-10T11:26:43Z</time>
      </trkpt>
      <trkpt lat="45.77358" lon="4.77314">
        <ele>252.00280761719</ele>
        <time>2009-09-10T11:26:51Z</time>
      </trkpt>
      <trkpt lat="45.77345" lon="4.77342">
        <ele>252.96398925781</ele>
        <time>2009-09-10T11:26:58Z</time>
      </trkpt>
      <trkpt lat="45.77337" lon="4.77361">
        <ele>254.40600585938</ele>
        <time>2009-09-10T11:27:03Z</time>
      </trkpt>
      <trkpt lat="45.77331" lon="4.77377">
        <ele>255.36730957031</ele>
        <time>2009-09-10T11:27:08Z</time>
      </trkpt>
      <trkpt lat="45.77323" lon="4.77395">
        <ele>256.32873535156</ele>
        <time>2009-09-10T11:27:13Z</time>
      </trkpt>
      <trkpt lat="45.77313" lon="4.77417">
        <ele>256.32873535156</ele>
        <time>2009-09-10T11:27:19Z</time>
      </trkpt>
      <trkpt lat="45.77305" lon="4.77434">
        <ele>256.32873535156</ele>
        <time>2009-09-10T11:27:23Z</time>
      </trkpt>
      <trkpt lat="45.773" lon="4.77455">
        <ele>257.2900390625</ele>
        <time>2009-09-10T11:27:28Z</time>
      </trkpt>
      <trkpt lat="45.77296" lon="4.77463">
        <ele>257.77075195312</ele>
        <time>2009-09-10T11:27:30Z</time>
      </trkpt>
      <trkpt lat="45.77305" lon="4.77476">
        <ele>256.80932617188</ele>
        <time>2009-09-10T11:27:34Z</time>
      </trkpt>
      <trkpt lat="45.77331" lon="4.77495">
        <ele>256.80932617188</ele>
        <time>2009-09-10T11:27:41Z</time>
      </trkpt>
      <trkpt lat="45.77363" lon="4.77517">
        <ele>257.2900390625</ele>
        <time>2009-09-10T11:27:49Z</time>
      </trkpt>
      <trkpt lat="45.7737" lon="4.77536">
        <ele>257.77075195312</ele>
        <time>2009-09-10T11:27:53Z</time>
      </trkpt>
      <trkpt lat="45.77376" lon="4.77549">
        <ele>257.77075195312</ele>
        <time>2009-09-10T11:27:56Z</time>
      </trkpt>
      <trkpt lat="45.77369" lon="4.77573">
        <ele>258.25134277344</ele>
        <time>2009-09-10T11:28:00Z</time>
      </trkpt>
      <trkpt lat="45.77355" lon="4.77605">
        <ele>258.73193359375</ele>
        <time>2009-09-10T11:28:05Z</time>
      </trkpt>
      <trkpt lat="45.77343" lon="4.77638">
        <ele>258.25134277344</ele>
        <time>2009-09-10T11:28:10Z</time>
      </trkpt>
      <trkpt lat="45.77339" lon="4.77651">
        <ele>258.25134277344</ele>
        <time>2009-09-10T11:28:12Z</time>
      </trkpt>
      <trkpt lat="45.77333" lon="4.77679">
        <ele>258.73193359375</ele>
        <time>2009-09-10T11:28:16Z</time>
      </trkpt>
      <trkpt lat="45.77314" lon="4.77727">
        <ele>258.25134277344</ele>
        <time>2009-09-10T11:28:24Z</time>
      </trkpt>
      <trkpt lat="45.77302" lon="4.77763">
        <ele>258.25134277344</ele>
        <time>2009-09-10T11:28:30Z</time>
      </trkpt>
      <trkpt lat="45.77298" lon="4.77773">
        <ele>258.25134277344</ele>
        <time>2009-09-10T11:28:32Z</time>
      </trkpt>
      <trkpt lat="45.77286" lon="4.77779">
        <ele>258.25134277344</ele>
        <time>2009-09-10T11:28:36Z</time>
      </trkpt>
      <trkpt lat="45.77278" lon="4.77789">
        <ele>258.25134277344</ele>
        <time>2009-09-10T11:28:40Z</time>
      </trkpt>
      <trkpt lat="45.77277" lon="4.77792">
        <ele>258.25134277344</ele>
        <time>2009-09-10T11:28:42Z</time>
      </trkpt>
      <trkpt lat="45.77269" lon="4.77791">
        <ele>257.77075195312</ele>
        <time>2009-09-10T11:28:47Z</time>
      </trkpt>
      <trkpt lat="45.77257" lon="4.77792">
        <ele>257.2900390625</ele>
        <time>2009-09-10T11:28:51Z</time>
      </trkpt>
      <trkpt lat="45.77251" lon="4.77807">
        <ele>257.2900390625</ele>
        <time>2009-09-10T11:28:54Z</time>
      </trkpt>
      <trkpt lat="45.77245" lon="4.77833">
        <ele>256.80932617188</ele>
        <time>2009-09-10T11:28:58Z</time>
      </trkpt>
      <trkpt lat="45.77228" lon="4.77897">
        <ele>256.80932617188</ele>
        <time>2009-09-10T11:29:06Z</time>
      </trkpt>
      <trkpt lat="45.77212" lon="4.77959">
        <ele>255.84802246094</ele>
        <time>2009-09-10T11:29:14Z</time>
      </trkpt>
      <trkpt lat="45.77204" lon="4.7799">
        <ele>255.36730957031</ele>
        <time>2009-09-10T11:29:18Z</time>
      </trkpt>
      <trkpt lat="45.77199" lon="4.78005">
        <ele>254.88659667969</ele>
        <time>2009-09-10T11:29:20Z</time>
      </trkpt>
      <trkpt lat="45.77194" lon="4.78024">
        <ele>253.92541503906</ele>
        <time>2009-09-10T11:29:23Z</time>
      </trkpt>
      <trkpt lat="45.77203" lon="4.78041">
        <ele>253.44470214844</ele>
        <time>2009-09-10T11:29:27Z</time>
      </trkpt>
      <trkpt lat="45.77211" lon="4.78046">
        <ele>252.96398925781</ele>
        <time>2009-09-10T11:29:29Z</time>
      </trkpt>
      <trkpt lat="45.77218" lon="4.78053">
        <ele>252.96398925781</ele>
        <time>2009-09-10T11:29:31Z</time>
      </trkpt>
      <trkpt lat="45.77246" lon="4.78069">
        <ele>251.52209472656</ele>
        <time>2009-09-10T11:29:37Z</time>
      </trkpt>
      <trkpt lat="45.77257" lon="4.78074">
        <ele>251.04138183594</ele>
        <time>2009-09-10T11:29:39Z</time>
      </trkpt>
      <trkpt lat="45.77272" lon="4.78101">
        <ele>249.59948730469</ele>
        <time>2009-09-10T11:29:43Z</time>
      </trkpt>
      <trkpt lat="45.77274" lon="4.78119">
        <ele>249.11877441406</ele>
        <time>2009-09-10T11:29:45Z</time>
      </trkpt>
      <trkpt lat="45.77278" lon="4.78146">
        <ele>248.15759277344</ele>
        <time>2009-09-10T11:29:48Z</time>
      </trkpt>
      <trkpt lat="45.77279" lon="4.78201">
        <ele>246.23486328125</ele>
        <time>2009-09-10T11:29:54Z</time>
      </trkpt>
      <trkpt lat="45.77287" lon="4.78237">
        <ele>245.75415039062</ele>
        <time>2009-09-10T11:29:58Z</time>
      </trkpt>
      <trkpt lat="45.77302" lon="4.78263">
        <ele>245.2734375</ele>
        <time>2009-09-10T11:30:02Z</time>
      </trkpt>
      <trkpt lat="45.77335" lon="4.78285">
        <ele>245.2734375</ele>
        <time>2009-09-10T11:30:10Z</time>
      </trkpt>
      <trkpt lat="45.7734" lon="4.78289">
        <ele>245.2734375</ele>
        <time>2009-09-10T11:30:12Z</time>
      </trkpt>
      <trkpt lat="45.77338" lon="4.78305">
        <ele>244.79284667969</ele>
        <time>2009-09-10T11:30:15Z</time>
      </trkpt>
      <trkpt lat="45.77335" lon="4.78311">
        <ele>244.79284667969</ele>
        <time>2009-09-10T11:30:16Z</time>
      </trkpt>
      <trkpt lat="45.77314" lon="4.78326">
        <ele>243.35083007812</ele>
        <time>2009-09-10T11:30:20Z</time>
      </trkpt>
      <trkpt lat="45.77298" lon="4.78331">
        <ele>242.3896484375</ele>
        <time>2009-09-10T11:30:23Z</time>
      </trkpt>
      <trkpt lat="45.77303" lon="4.78337">
        <ele>242.3896484375</ele>
        <time>2009-09-10T11:30:27Z</time>
      </trkpt>
      <trkpt lat="45.77312" lon="4.78337">
        <ele>242.87023925781</ele>
        <time>2009-09-10T11:30:29Z</time>
      </trkpt>
      <trkpt lat="45.7733" lon="4.78331">
        <ele>243.83154296875</ele>
        <time>2009-09-10T11:30:34Z</time>
      </trkpt>
      <trkpt lat="45.77341" lon="4.78318">
        <ele>244.79284667969</ele>
        <time>2009-09-10T11:30:38Z</time>
      </trkpt>
      <trkpt lat="45.77346" lon="4.78325">
        <ele>244.31225585938</ele>
        <time>2009-09-10T11:30:42Z</time>
      </trkpt>
      <trkpt lat="45.77344" lon="4.78337">
        <ele>243.35083007812</ele>
        <time>2009-09-10T11:30:44Z</time>
      </trkpt>
      <trkpt lat="45.77342" lon="4.78353">
        <ele>242.87023925781</ele>
        <time>2009-09-10T11:30:46Z</time>
      </trkpt>
      <trkpt lat="45.77331" lon="4.78403">
        <ele>240.46704101562</ele>
        <time>2009-09-10T11:30:51Z</time>
      </trkpt>
      <trkpt lat="45.77322" lon="4.78447">
        <ele>237.58288574219</ele>
        <time>2009-09-10T11:30:55Z</time>
      </trkpt>
      <trkpt lat="45.77319" lon="4.78466">
        <ele>236.14099121094</ele>
        <time>2009-09-10T11:30:57Z</time>
      </trkpt>
      <trkpt lat="45.77313" lon="4.78485">
        <ele>235.1796875</ele>
        <time>2009-09-10T11:31:00Z</time>
      </trkpt>
      <trkpt lat="45.77317" lon="4.78496">
        <ele>234.69909667969</ele>
        <time>2009-09-10T11:31:04Z</time>
      </trkpt>
      <trkpt lat="45.77328" lon="4.78501">
        <ele>233.25708007812</ele>
        <time>2009-09-10T11:31:08Z</time>
      </trkpt>
      <trkpt lat="45.77348" lon="4.78501">
        <ele>232.77648925781</ele>
        <time>2009-09-10T11:31:12Z</time>
      </trkpt>
      <trkpt lat="45.77361" lon="4.78499">
        <ele>231.81494140625</ele>
        <time>2009-09-10T11:31:14Z</time>
      </trkpt>
      <trkpt lat="45.77407" lon="4.78495">
        <ele>229.89233398438</ele>
        <time>2009-09-10T11:31:21Z</time>
      </trkpt>
      <trkpt lat="45.7743" lon="4.785">
        <ele>229.89233398438</ele>
        <time>2009-09-10T11:31:25Z</time>
      </trkpt>
      <trkpt lat="45.77452" lon="4.78515">
        <ele>228.93115234375</ele>
        <time>2009-09-10T11:31:30Z</time>
      </trkpt>
      <trkpt lat="45.77464" lon="4.78517">
        <ele>229.41174316406</ele>
        <time>2009-09-10T11:31:35Z</time>
      </trkpt>
      <trkpt lat="45.7746" lon="4.7853">
        <ele>228.45043945312</ele>
        <time>2009-09-10T11:31:38Z</time>
      </trkpt>
      <trkpt lat="45.77465" lon="4.78553">
        <ele>227.48913574219</ele>
        <time>2009-09-10T11:31:41Z</time>
      </trkpt>
      <trkpt lat="45.77475" lon="4.78577">
        <ele>227.00854492188</ele>
        <time>2009-09-10T11:31:44Z</time>
      </trkpt>
      <trkpt lat="45.77485" lon="4.78605">
        <ele>224.60522460938</ele>
        <time>2009-09-10T11:31:49Z</time>
      </trkpt>
      <trkpt lat="45.77492" lon="4.78606">
        <ele>225.0859375</ele>
        <time>2009-09-10T11:31:52Z</time>
      </trkpt>
      <trkpt lat="45.77492" lon="4.78596">
        <ele>225.0859375</ele>
        <time>2009-09-10T11:31:55Z</time>
      </trkpt>
      <trkpt lat="45.77488" lon="4.7859">
        <ele>225.56652832031</ele>
        <time>2009-09-10T11:31:57Z</time>
      </trkpt>
      <trkpt lat="45.77478" lon="4.78558">
        <ele>227.00854492188</ele>
        <time>2009-09-10T11:32:05Z</time>
      </trkpt>
      <trkpt lat="45.77472" lon="4.78541">
        <ele>227.48913574219</ele>
        <time>2009-09-10T11:32:09Z</time>
      </trkpt>
      <trkpt lat="45.7748" lon="4.78514">
        <ele>228.45043945312</ele>
        <time>2009-09-10T11:32:16Z</time>
      </trkpt>
      <trkpt lat="45.77495" lon="4.78497">
        <ele>230.373046875</ele>
        <time>2009-09-10T11:32:23Z</time>
      </trkpt>
      <trkpt lat="45.77511" lon="4.78491">
        <ele>230.85375976562</ele>
        <time>2009-09-10T11:32:30Z</time>
      </trkpt>
      <trkpt lat="45.7753" lon="4.78497">
        <ele>233.25708007812</ele>
        <time>2009-09-10T11:32:38Z</time>
      </trkpt>
      <trkpt lat="45.77546" lon="4.78513">
        <ele>234.69909667969</ele>
        <time>2009-09-10T11:32:46Z</time>
      </trkpt>
      <trkpt lat="45.77559" lon="4.78535">
        <ele>235.66027832031</ele>
        <time>2009-09-10T11:32:54Z</time>
      </trkpt>
      <trkpt lat="45.77567" lon="4.78559">
        <ele>237.10229492188</ele>
        <time>2009-09-10T11:33:01Z</time>
      </trkpt>
      <trkpt lat="45.77568" lon="4.78587">
        <ele>238.06359863281</ele>
        <time>2009-09-10T11:33:08Z</time>
      </trkpt>
      <trkpt lat="45.77564" lon="4.78613">
        <ele>239.02490234375</ele>
        <time>2009-09-10T11:33:14Z</time>
      </trkpt>
      <trkpt lat="45.77562" lon="4.78646">
        <ele>240.46704101562</ele>
        <time>2009-09-10T11:33:22Z</time>
      </trkpt>
      <trkpt lat="45.77562" lon="4.78653">
        <ele>240.94763183594</ele>
        <time>2009-09-10T11:33:24Z</time>
      </trkpt>
      <trkpt lat="45.7757" lon="4.78677">
        <ele>241.42822265625</ele>
        <time>2009-09-10T11:33:31Z</time>
      </trkpt>
      <trkpt lat="45.77584" lon="4.78692">
        <ele>242.3896484375</ele>
        <time>2009-09-10T11:33:38Z</time>
      </trkpt>
      <trkpt lat="45.77602" lon="4.78697">
        <ele>243.35083007812</ele>
        <time>2009-09-10T11:33:45Z</time>
      </trkpt>
      <trkpt lat="45.77619" lon="4.7869">
        <ele>244.79284667969</ele>
        <time>2009-09-10T11:33:52Z</time>
      </trkpt>
      <trkpt lat="45.77621" lon="4.78699">
        <ele>245.2734375</ele>
        <time>2009-09-10T11:33:56Z</time>
      </trkpt>
      <trkpt lat="45.77615" lon="4.78726">
        <ele>246.23486328125</ele>
        <time>2009-09-10T11:34:02Z</time>
      </trkpt>
      <trkpt lat="45.77621" lon="4.78751">
        <ele>245.75415039062</ele>
        <time>2009-09-10T11:34:07Z</time>
      </trkpt>
      <trkpt lat="45.77624" lon="4.78757">
        <ele>245.75415039062</ele>
        <time>2009-09-10T11:34:08Z</time>
      </trkpt>
      <trkpt lat="45.77636" lon="4.78796">
        <ele>245.75415039062</ele>
        <time>2009-09-10T11:34:15Z</time>
      </trkpt>
      <trkpt lat="45.77647" lon="4.78799">
        <ele>245.75415039062</ele>
        <time>2009-09-10T11:34:19Z</time>
      </trkpt>
      <trkpt lat="45.77684" lon="4.78793">
        <ele>247.19604492188</ele>
        <time>2009-09-10T11:34:31Z</time>
      </trkpt>
      <trkpt lat="45.77709" lon="4.78788">
        <ele>248.15759277344</ele>
        <time>2009-09-10T11:34:40Z</time>
      </trkpt>
      <trkpt lat="45.77733" lon="4.78783">
        <ele>249.59948730469</ele>
        <time>2009-09-10T11:34:48Z</time>
      </trkpt>
      <trkpt lat="45.77757" lon="4.78777">
        <ele>250.08020019531</ele>
        <time>2009-09-10T11:34:56Z</time>
      </trkpt>
      <trkpt lat="45.77768" lon="4.78775">
        <ele>249.59948730469</ele>
        <time>2009-09-10T11:35:00Z</time>
      </trkpt>
      <trkpt lat="45.77773" lon="4.78787">
        <ele>249.11877441406</ele>
        <time>2009-09-10T11:35:04Z</time>
      </trkpt>
      <trkpt lat="45.77772" lon="4.78792">
        <ele>248.63818359375</ele>
        <time>2009-09-10T11:35:05Z</time>
      </trkpt>
      <trkpt lat="45.77758" lon="4.78832">
        <ele>247.6767578125</ele>
        <time>2009-09-10T11:35:12Z</time>
      </trkpt>
      <trkpt lat="45.7775" lon="4.78861">
        <ele>247.19604492188</ele>
        <time>2009-09-10T11:35:16Z</time>
      </trkpt>
      <trkpt lat="45.77742" lon="4.78909">
        <ele>245.75415039062</ele>
        <time>2009-09-10T11:35:22Z</time>
      </trkpt>
      <trkpt lat="45.77747" lon="4.78957">
        <ele>244.79284667969</ele>
        <time>2009-09-10T11:35:28Z</time>
      </trkpt>
      <trkpt lat="45.77758" lon="4.78999">
        <ele>243.35083007812</ele>
        <time>2009-09-10T11:35:33Z</time>
      </trkpt>
      <trkpt lat="45.77766" lon="4.79028">
        <ele>243.83154296875</ele>
        <time>2009-09-10T11:35:36Z</time>
      </trkpt>
      <trkpt lat="45.77771" lon="4.7908">
        <ele>241.90893554688</ele>
        <time>2009-09-10T11:35:41Z</time>
      </trkpt>
      <trkpt lat="45.77769" lon="4.79091">
        <ele>241.42822265625</ele>
        <time>2009-09-10T11:35:42Z</time>
      </trkpt>
      <trkpt lat="45.7775" lon="4.79159">
        <ele>240.46704101562</ele>
        <time>2009-09-10T11:35:48Z</time>
      </trkpt>
      <trkpt lat="45.77738" lon="4.79183">
        <ele>238.54431152344</ele>
        <time>2009-09-10T11:35:51Z</time>
      </trkpt>
      <trkpt lat="45.77737" lon="4.7921">
        <ele>238.54431152344</ele>
        <time>2009-09-10T11:35:54Z</time>
      </trkpt>
      <trkpt lat="45.77747" lon="4.79223">
        <ele>237.58288574219</ele>
        <time>2009-09-10T11:35:56Z</time>
      </trkpt>
      <trkpt lat="45.77759" lon="4.79237">
        <ele>237.10229492188</ele>
        <time>2009-09-10T11:35:58Z</time>
      </trkpt>
      <trkpt lat="45.77774" lon="4.79271">
        <ele>235.1796875</ele>
        <time>2009-09-10T11:36:02Z</time>
      </trkpt>
      <trkpt lat="45.7777" lon="4.79291">
        <ele>233.73767089844</ele>
        <time>2009-09-10T11:36:05Z</time>
      </trkpt>
      <trkpt lat="45.7776" lon="4.79308">
        <ele>233.25708007812</ele>
        <time>2009-09-10T11:36:08Z</time>
      </trkpt>
      <trkpt lat="45.77747" lon="4.79329">
        <ele>230.373046875</ele>
        <time>2009-09-10T11:36:11Z</time>
      </trkpt>
      <trkpt lat="45.77742" lon="4.79345">
        <ele>228.93115234375</ele>
        <time>2009-09-10T11:36:14Z</time>
      </trkpt>
      <trkpt lat="45.7774" lon="4.7935">
        <ele>227.9697265625</ele>
        <time>2009-09-10T11:36:16Z</time>
      </trkpt>
      <trkpt lat="45.77731" lon="4.79371">
        <ele>225.56652832031</ele>
        <time>2009-09-10T11:36:21Z</time>
      </trkpt>
      <trkpt lat="45.77723" lon="4.79383">
        <ele>224.12451171875</ele>
        <time>2009-09-10T11:36:25Z</time>
      </trkpt>
      <trkpt lat="45.77712" lon="4.79404">
        <ele>222.20178222656</ele>
        <time>2009-09-10T11:36:28Z</time>
      </trkpt>
      <trkpt lat="45.77692" lon="4.79414">
        <ele>219.31799316406</ele>
        <time>2009-09-10T11:36:32Z</time>
      </trkpt>
      <trkpt lat="45.77666" lon="4.79416">
        <ele>216.43395996094</ele>
        <time>2009-09-10T11:36:36Z</time>
      </trkpt>
      <trkpt lat="45.77643" lon="4.79405">
        <ele>211.14672851562</ele>
        <time>2009-09-10T11:36:40Z</time>
      </trkpt>
      <trkpt lat="45.77628" lon="4.79395">
        <ele>208.26281738281</ele>
        <time>2009-09-10T11:36:43Z</time>
      </trkpt>
      <trkpt lat="45.7761" lon="4.79389">
        <ele>204.89807128906</ele>
        <time>2009-09-10T11:36:47Z</time>
      </trkpt>
      <trkpt lat="45.77607" lon="4.79389">
        <ele>204.41748046875</ele>
        <time>2009-09-10T11:36:48Z</time>
      </trkpt>
      <trkpt lat="45.77599" lon="4.79391">
        <ele>203.45617675781</ele>
        <time>2009-09-10T11:36:50Z</time>
      </trkpt>
      <trkpt lat="45.77587" lon="4.79405">
        <ele>200.572265625</ele>
        <time>2009-09-10T11:36:54Z</time>
      </trkpt>
      <trkpt lat="45.77585" lon="4.79423">
        <ele>198.64953613281</ele>
        <time>2009-09-10T11:36:57Z</time>
      </trkpt>
      <trkpt lat="45.77585" lon="4.79432">
        <ele>197.20751953125</ele>
        <time>2009-09-10T11:36:59Z</time>
      </trkpt>
      <trkpt lat="45.77587" lon="4.79446">
        <ele>196.72692871094</ele>
        <time>2009-09-10T11:37:04Z</time>
      </trkpt>
      <trkpt lat="45.77584" lon="4.79456">
        <ele>196.24633789062</ele>
        <time>2009-09-10T11:37:08Z</time>
      </trkpt>
      <trkpt lat="45.77578" lon="4.79456">
        <ele>195.765625</ele>
        <time>2009-09-10T11:37:11Z</time>
      </trkpt>
      <trkpt lat="45.77567" lon="4.79459">
        <ele>194.32373046875</ele>
        <time>2009-09-10T11:37:14Z</time>
      </trkpt>
      <trkpt lat="45.77562" lon="4.79476">
        <ele>193.84301757812</ele>
        <time>2009-09-10T11:37:17Z</time>
      </trkpt>
      <trkpt lat="45.77565" lon="4.79488">
        <ele>192.40112304688</ele>
        <time>2009-09-10T11:37:21Z</time>
      </trkpt>
      <trkpt lat="45.77565" lon="4.79506">
        <ele>192.88171386719</ele>
        <time>2009-09-10T11:37:25Z</time>
      </trkpt>
      <trkpt lat="45.77571" lon="4.79516">
        <ele>192.40112304688</ele>
        <time>2009-09-10T11:37:27Z</time>
      </trkpt>
      <trkpt lat="45.77584" lon="4.79547">
        <ele>190.958984375</ele>
        <time>2009-09-10T11:37:32Z</time>
      </trkpt>
      <trkpt lat="45.77578" lon="4.79585">
        <ele>190.958984375</ele>
        <time>2009-09-10T11:37:36Z</time>
      </trkpt>
      <trkpt lat="45.77563" lon="4.79647">
        <ele>189.51696777344</ele>
        <time>2009-09-10T11:37:43Z</time>
      </trkpt>
      <trkpt lat="45.7754" lon="4.79719">
        <ele>188.07507324219</ele>
        <time>2009-09-10T11:37:52Z</time>
      </trkpt>
      <trkpt lat="45.7753" lon="4.79782">
        <ele>188.07507324219</ele>
        <time>2009-09-10T11:38:00Z</time>
      </trkpt>
      <trkpt lat="45.77515" lon="4.79842">
        <ele>187.11376953125</ele>
        <time>2009-09-10T11:38:08Z</time>
      </trkpt>
      <trkpt lat="45.77501" lon="4.79881">
        <ele>186.15246582031</ele>
        <time>2009-09-10T11:38:14Z</time>
      </trkpt>
      <trkpt lat="45.77487" lon="4.79953">
        <ele>186.15246582031</ele>
        <time>2009-09-10T11:38:21Z</time>
      </trkpt>
      <trkpt lat="45.77482" lon="4.80006">
        <ele>186.15246582031</ele>
        <time>2009-09-10T11:38:27Z</time>
      </trkpt>
      <trkpt lat="45.77464" lon="4.8006">
        <ele>186.63317871094</ele>
        <time>2009-09-10T11:38:34Z</time>
      </trkpt>
      <trkpt lat="45.77454" lon="4.80107">
        <ele>186.15246582031</ele>
        <time>2009-09-10T11:38:40Z</time>
      </trkpt>
      <trkpt lat="45.77444" lon="4.80143">
        <ele>185.67175292969</ele>
        <time>2009-09-10T11:38:45Z</time>
      </trkpt>
      <trkpt lat="45.77441" lon="4.80163">
        <ele>184.71057128906</ele>
        <time>2009-09-10T11:38:49Z</time>
      </trkpt>
      <trkpt lat="45.77441" lon="4.80164">
        <ele>184.71057128906</ele>
        <time>2009-09-10T11:38:51Z</time>
      </trkpt>
      <trkpt lat="45.77437" lon="4.80183">
        <ele>184.71057128906</ele>
        <time>2009-09-10T11:38:56Z</time>
      </trkpt>
      <trkpt lat="45.77437" lon="4.80206">
        <ele>184.71057128906</ele>
        <time>2009-09-10T11:39:00Z</time>
      </trkpt>
      <trkpt lat="45.77437" lon="4.8022">
        <ele>185.19116210938</ele>
        <time>2009-09-10T11:39:02Z</time>
      </trkpt>
      <trkpt lat="45.77425" lon="4.80285">
        <ele>184.71057128906</ele>
        <time>2009-09-10T11:39:11Z</time>
      </trkpt>
      <trkpt lat="45.77414" lon="4.80351">
        <ele>184.71057128906</ele>
        <time>2009-09-10T11:39:20Z</time>
      </trkpt>
      <trkpt lat="45.77414" lon="4.80374">
        <ele>184.22985839844</ele>
        <time>2009-09-10T11:39:23Z</time>
      </trkpt>
      <trkpt lat="45.77419" lon="4.80408">
        <ele>183.7490234375</ele>
        <time>2009-09-10T11:39:29Z</time>
      </trkpt>
      <trkpt lat="45.77425" lon="4.80433">
        <ele>184.22985839844</ele>
        <time>2009-09-10T11:39:34Z</time>
      </trkpt>
      <trkpt lat="45.77436" lon="4.80481">
        <ele>184.22985839844</ele>
        <time>2009-09-10T11:39:41Z</time>
      </trkpt>
      <trkpt lat="45.77437" lon="4.80499">
        <ele>184.22985839844</ele>
        <time>2009-09-10T11:39:43Z</time>
      </trkpt>
      <trkpt lat="45.77436" lon="4.80527">
        <ele>184.71057128906</ele>
        <time>2009-09-10T11:39:47Z</time>
      </trkpt>
      <trkpt lat="45.77432" lon="4.8054">
        <ele>184.22985839844</ele>
        <time>2009-09-10T11:39:50Z</time>
      </trkpt>
      <trkpt lat="45.7742" lon="4.80543">
        <ele>185.19116210938</ele>
        <time>2009-09-10T11:39:54Z</time>
      </trkpt>
      <trkpt lat="45.77414" lon="4.80541">
        <ele>184.71057128906</ele>
        <time>2009-09-10T11:39:56Z</time>
      </trkpt>
      <trkpt lat="45.77403" lon="4.80533">
        <ele>185.19116210938</ele>
        <time>2009-09-10T11:40:02Z</time>
      </trkpt>
      <trkpt lat="45.77403" lon="4.80529">
        <ele>185.19116210938</ele>
        <time>2009-09-10T11:40:05Z</time>
      </trkpt>
      <trkpt lat="45.774" lon="4.80529">
        <ele>185.19116210938</ele>
        <time>2009-09-10T11:40:08Z</time>
      </trkpt>
      <trkpt lat="45.77401" lon="4.80543">
        <ele>184.71057128906</ele>
        <time>2009-09-10T11:40:13Z</time>
      </trkpt>
      <trkpt lat="45.77407" lon="4.80555">
        <ele>185.19116210938</ele>
        <time>2009-09-10T11:40:16Z</time>
      </trkpt>
      <trkpt lat="45.77418" lon="4.80587">
        <ele>184.71057128906</ele>
        <time>2009-09-10T11:40:22Z</time>
      </trkpt>
      <trkpt lat="45.77411" lon="4.80623">
        <ele>184.71057128906</ele>
        <time>2009-09-10T11:40:27Z</time>
      </trkpt>
      <trkpt lat="45.77405" lon="4.80641">
        <ele>184.22985839844</ele>
        <time>2009-09-10T11:40:30Z</time>
      </trkpt>
      <trkpt lat="45.77389" lon="4.80674">
        <ele>184.71057128906</ele>
        <time>2009-09-10T11:40:36Z</time>
      </trkpt>
      <trkpt lat="45.77361" lon="4.80699">
        <ele>184.22985839844</ele>
        <time>2009-09-10T11:40:42Z</time>
      </trkpt>
      <trkpt lat="45.7734" lon="4.80725">
        <ele>184.22985839844</ele>
        <time>2009-09-10T11:40:46Z</time>
      </trkpt>
      <trkpt lat="45.77324" lon="4.80749">
        <ele>185.19116210938</ele>
        <time>2009-09-10T11:40:51Z</time>
      </trkpt>
      <trkpt lat="45.77324" lon="4.80763">
        <ele>184.71057128906</ele>
        <time>2009-09-10T11:40:57Z</time>
      </trkpt>
      <trkpt lat="45.77334" lon="4.80781">
        <ele>184.71057128906</ele>
        <time>2009-09-10T11:41:04Z</time>
      </trkpt>
      <trkpt lat="45.7734" lon="4.80791">
        <ele>185.19116210938</ele>
        <time>2009-09-10T11:41:09Z</time>
      </trkpt>
      <trkpt lat="45.77343" lon="4.80796">
        <ele>185.19116210938</ele>
        <time>2009-09-10T11:41:11Z</time>
      </trkpt>
      <trkpt lat="45.77344" lon="4.80805">
        <ele>185.19116210938</ele>
        <time>2009-09-10T11:41:15Z</time>
      </trkpt>
      <trkpt lat="45.77345" lon="4.80814">
        <ele>185.19116210938</ele>
        <time>2009-09-10T11:41:17Z</time>
      </trkpt>
      <trkpt lat="45.77355" lon="4.80832">
        <ele>184.22985839844</ele>
        <time>2009-09-10T11:41:23Z</time>
      </trkpt>
      <trkpt lat="45.77368" lon="4.80856">
        <ele>184.71057128906</ele>
        <time>2009-09-10T11:41:28Z</time>
      </trkpt>
      <trkpt lat="45.77372" lon="4.80878">
        <ele>184.71057128906</ele>
        <time>2009-09-10T11:41:32Z</time>
      </trkpt>
      <trkpt lat="45.7736" lon="4.80898">
        <ele>185.19116210938</ele>
        <time>2009-09-10T11:41:37Z</time>
      </trkpt>
      <trkpt lat="45.77349" lon="4.80921">
        <ele>185.19116210938</ele>
        <time>2009-09-10T11:41:42Z</time>
      </trkpt>
      <trkpt lat="45.7734" lon="4.80937">
        <ele>185.19116210938</ele>
        <time>2009-09-10T11:41:46Z</time>
      </trkpt>
      <trkpt lat="45.7733" lon="4.80964">
        <ele>185.67175292969</ele>
        <time>2009-09-10T11:41:52Z</time>
      </trkpt>
      <trkpt lat="45.7733" lon="4.80968">
        <ele>186.15246582031</ele>
        <time>2009-09-10T11:41:53Z</time>
      </trkpt>
      <trkpt lat="45.77318" lon="4.80993">
        <ele>186.63317871094</ele>
        <time>2009-09-10T11:41:58Z</time>
      </trkpt>
      <trkpt lat="45.77285" lon="4.81033">
        <ele>185.67175292969</ele>
        <time>2009-09-10T11:42:06Z</time>
      </trkpt>
      <trkpt lat="45.77277" lon="4.81044">
        <ele>185.67175292969</ele>
        <time>2009-09-10T11:42:08Z</time>
      </trkpt>
      <trkpt lat="45.77244" lon="4.81081">
        <ele>185.67175292969</ele>
        <time>2009-09-10T11:42:15Z</time>
      </trkpt>
      <trkpt lat="45.7721" lon="4.81119">
        <ele>185.67175292969</ele>
        <time>2009-09-10T11:42:21Z</time>
      </trkpt>
      <trkpt lat="45.77175" lon="4.81153">
        <ele>185.19116210938</ele>
        <time>2009-09-10T11:42:27Z</time>
      </trkpt>
      <trkpt lat="45.77132" lon="4.81186">
        <ele>185.19116210938</ele>
        <time>2009-09-10T11:42:34Z</time>
      </trkpt>
      <trkpt lat="45.77126" lon="4.81191">
        <ele>184.71057128906</ele>
        <time>2009-09-10T11:42:35Z</time>
      </trkpt>
      <trkpt lat="45.7709" lon="4.81202">
        <ele>184.71057128906</ele>
        <time>2009-09-10T11:42:41Z</time>
      </trkpt>
      <trkpt lat="45.77058" lon="4.81226">
        <ele>185.67175292969</ele>
        <time>2009-09-10T11:42:47Z</time>
      </trkpt>
      <trkpt lat="45.7704" lon="4.81231">
        <ele>185.19116210938</ele>
        <time>2009-09-10T11:42:50Z</time>
      </trkpt>
      <trkpt lat="45.77003" lon="4.8125">
        <ele>185.19116210938</ele>
        <time>2009-09-10T11:42:58Z</time>
      </trkpt>
      <trkpt lat="45.77" lon="4.81253">
        <ele>185.19116210938</ele>
        <time>2009-09-10T11:42:59Z</time>
      </trkpt>
      <trkpt lat="45.76996" lon="4.81265">
        <ele>185.67175292969</ele>
        <time>2009-09-10T11:43:02Z</time>
      </trkpt>
      <trkpt lat="45.76981" lon="4.81273">
        <ele>186.63317871094</ele>
        <time>2009-09-10T11:43:06Z</time>
      </trkpt>
      <trkpt lat="45.76976" lon="4.81273">
        <ele>186.63317871094</ele>
        <time>2009-09-10T11:43:07Z</time>
      </trkpt>
      <trkpt lat="45.76933" lon="4.81279">
        <ele>185.67175292969</ele>
        <time>2009-09-10T11:43:15Z</time>
      </trkpt>
      <trkpt lat="45.76881" lon="4.81286">
        <ele>184.22985839844</ele>
        <time>2009-09-10T11:43:23Z</time>
      </trkpt>
      <trkpt lat="45.76837" lon="4.81299">
        <ele>183.7490234375</ele>
        <time>2009-09-10T11:43:30Z</time>
      </trkpt>
      <trkpt lat="45.76813" lon="4.81315">
        <ele>183.7490234375</ele>
        <time>2009-09-10T11:43:34Z</time>
      </trkpt>
      <trkpt lat="45.76781" lon="4.81349">
        <ele>182.78784179688</ele>
        <time>2009-09-10T11:43:40Z</time>
      </trkpt>
      <trkpt lat="45.76765" lon="4.81376">
        <ele>184.71057128906</ele>
        <time>2009-09-10T11:43:44Z</time>
      </trkpt>
      <trkpt lat="45.76741" lon="4.81438">
        <ele>183.26843261719</ele>
        <time>2009-09-10T11:43:52Z</time>
      </trkpt>
      <trkpt lat="45.76718" lon="4.81507">
        <ele>183.7490234375</ele>
        <time>2009-09-10T11:44:01Z</time>
      </trkpt>
      <trkpt lat="45.7671" lon="4.81529">
        <ele>183.7490234375</ele>
        <time>2009-09-10T11:44:04Z</time>
      </trkpt>
      <trkpt lat="45.76703" lon="4.81543">
        <ele>183.26843261719</ele>
        <time>2009-09-10T11:44:06Z</time>
      </trkpt>
      <trkpt lat="45.7668" lon="4.81613">
        <ele>183.26843261719</ele>
        <time>2009-09-10T11:44:15Z</time>
      </trkpt>
      <trkpt lat="45.76669" lon="4.81674">
        <ele>183.7490234375</ele>
        <time>2009-09-10T11:44:22Z</time>
      </trkpt>
      <trkpt lat="45.76654" lon="4.8176">
        <ele>185.19116210938</ele>
        <time>2009-09-10T11:44:32Z</time>
      </trkpt>
      <trkpt lat="45.76646" lon="4.81818">
        <ele>184.71057128906</ele>
        <time>2009-09-10T11:44:39Z</time>
      </trkpt>
      <trkpt lat="45.76645" lon="4.8188">
        <ele>185.19116210938</ele>
        <time>2009-09-10T11:44:46Z</time>
      </trkpt>
      <trkpt lat="45.76648" lon="4.81907">
        <ele>183.7490234375</ele>
        <time>2009-09-10T11:44:49Z</time>
      </trkpt>
      <trkpt lat="45.76662" lon="4.81974">
        <ele>183.7490234375</ele>
        <time>2009-09-10T11:44:57Z</time>
      </trkpt>
      <trkpt lat="45.76674" lon="4.82014">
        <ele>182.78784179688</ele>
        <time>2009-09-10T11:45:02Z</time>
      </trkpt>
      <trkpt lat="45.76682" lon="4.82056">
        <ele>184.22985839844</ele>
        <time>2009-09-10T11:45:07Z</time>
      </trkpt>
      <trkpt lat="45.76682" lon="4.82064">
        <ele>183.7490234375</ele>
        <time>2009-09-10T11:45:08Z</time>
      </trkpt>
      <trkpt lat="45.76695" lon="4.82106">
        <ele>184.22985839844</ele>
        <time>2009-09-10T11:45:13Z</time>
      </trkpt>
      <trkpt lat="45.76711" lon="4.82178">
        <ele>183.7490234375</ele>
        <time>2009-09-10T11:45:21Z</time>
      </trkpt>
      <trkpt lat="45.76733" lon="4.82256">
        <ele>183.7490234375</ele>
        <time>2009-09-10T11:45:30Z</time>
      </trkpt>
      <trkpt lat="45.76735" lon="4.82265">
        <ele>182.78784179688</ele>
        <time>2009-09-10T11:45:31Z</time>
      </trkpt>
      <trkpt lat="45.76736" lon="4.82303">
        <ele>183.26843261719</ele>
        <time>2009-09-10T11:45:35Z</time>
      </trkpt>
      <trkpt lat="45.76738" lon="4.82332">
        <ele>183.7490234375</ele>
        <time>2009-09-10T11:45:38Z</time>
      </trkpt>
      <trkpt lat="45.76739" lon="4.82368">
        <ele>184.22985839844</ele>
        <time>2009-09-10T11:45:42Z</time>
      </trkpt>
      <trkpt lat="45.76738" lon="4.82427">
        <ele>184.22985839844</ele>
        <time>2009-09-10T11:45:49Z</time>
      </trkpt>
      <trkpt lat="45.76741" lon="4.82491">
        <ele>183.7490234375</ele>
        <time>2009-09-10T11:45:58Z</time>
      </trkpt>
      <trkpt lat="45.76743" lon="4.82549">
        <ele>182.78784179688</ele>
        <time>2009-09-10T11:46:06Z</time>
      </trkpt>
      <trkpt lat="45.76745" lon="4.82614">
        <ele>182.78784179688</ele>
        <time>2009-09-10T11:46:14Z</time>
      </trkpt>
      <trkpt lat="45.76737" lon="4.82672">
        <ele>182.78784179688</ele>
        <time>2009-09-10T11:46:21Z</time>
      </trkpt>
      <trkpt lat="45.76726" lon="4.82722">
        <ele>183.26843261719</ele>
        <time>2009-09-10T11:46:28Z</time>
      </trkpt>
      <trkpt lat="45.76707" lon="4.82766">
        <ele>183.26843261719</ele>
        <time>2009-09-10T11:46:34Z</time>
      </trkpt>
      <trkpt lat="45.76681" lon="4.82805">
        <ele>183.26843261719</ele>
        <time>2009-09-10T11:46:40Z</time>
      </trkpt>
      <trkpt lat="45.76663" lon="4.82835">
        <ele>183.26843261719</ele>
        <time>2009-09-10T11:46:45Z</time>
      </trkpt>
      <trkpt lat="45.76639" lon="4.82868">
        <ele>183.7490234375</ele>
        <time>2009-09-10T11:46:52Z</time>
      </trkpt>
      <trkpt lat="45.76635" lon="4.82894">
        <ele>185.19116210938</ele>
        <time>2009-09-10T11:46:57Z</time>
      </trkpt>
      <trkpt lat="45.76636" lon="4.82899">
        <ele>186.15246582031</ele>
        <time>2009-09-10T11:46:58Z</time>
      </trkpt>
      <trkpt lat="45.76649" lon="4.82938">
        <ele>186.63317871094</ele>
        <time>2009-09-10T11:47:06Z</time>
      </trkpt>
      <trkpt lat="45.76667" lon="4.82982">
        <ele>185.67175292969</ele>
        <time>2009-09-10T11:47:14Z</time>
      </trkpt>
      <trkpt lat="45.7667" lon="4.82991">
        <ele>186.15246582031</ele>
        <time>2009-09-10T11:47:16Z</time>
      </trkpt>
      <trkpt lat="45.76677" lon="4.82995">
        <ele>185.19116210938</ele>
        <time>2009-09-10T11:47:20Z</time>
      </trkpt>
      <trkpt lat="45.76676" lon="4.82996">
        <ele>186.15246582031</ele>
        <time>2009-09-10T11:47:23Z</time>
      </trkpt>
      <trkpt lat="45.76673" lon="4.83005">
        <ele>184.71057128906</ele>
        <time>2009-09-10T11:47:26Z</time>
      </trkpt>
      <trkpt lat="45.76672" lon="4.83019">
        <ele>184.22985839844</ele>
        <time>2009-09-10T11:47:29Z</time>
      </trkpt>
      <trkpt lat="45.76666" lon="4.83031">
        <ele>183.7490234375</ele>
        <time>2009-09-10T11:47:32Z</time>
      </trkpt>
      <trkpt lat="45.76664" lon="4.83049">
        <ele>183.26843261719</ele>
        <time>2009-09-10T11:47:35Z</time>
      </trkpt>
      <trkpt lat="45.76676" lon="4.83095">
        <ele>183.7490234375</ele>
        <time>2009-09-10T11:47:41Z</time>
      </trkpt>
      <trkpt lat="45.76693" lon="4.8313">
        <ele>183.7490234375</ele>
        <time>2009-09-10T11:47:45Z</time>
      </trkpt>
      <trkpt lat="45.76698" lon="4.83161">
        <ele>184.22985839844</ele>
        <time>2009-09-10T11:47:51Z</time>
      </trkpt>
      <trkpt lat="45.76701" lon="4.83167">
        <ele>184.71057128906</ele>
        <time>2009-09-10T11:47:53Z</time>
      </trkpt>
      <trkpt lat="45.76702" lon="4.83183">
        <ele>185.19116210938</ele>
        <time>2009-09-10T11:47:58Z</time>
      </trkpt>
      <trkpt lat="45.76704" lon="4.83189">
        <ele>184.71057128906</ele>
        <time>2009-09-10T11:47:59Z</time>
      </trkpt>
      <trkpt lat="45.7671" lon="4.83217">
        <ele>184.71057128906</ele>
        <time>2009-09-10T11:48:03Z</time>
      </trkpt>
      <trkpt lat="45.76714" lon="4.83242">
        <ele>184.71057128906</ele>
        <time>2009-09-10T11:48:07Z</time>
      </trkpt>
      <trkpt lat="45.76717" lon="4.83261">
        <ele>185.19116210938</ele>
        <time>2009-09-10T11:48:10Z</time>
      </trkpt>
      <trkpt lat="45.76722" lon="4.83272">
        <ele>185.67175292969</ele>
        <time>2009-09-10T11:48:12Z</time>
      </trkpt>
      <trkpt lat="45.76741" lon="4.83298">
        <ele>185.67175292969</ele>
        <time>2009-09-10T11:48:17Z</time>
      </trkpt>
      <trkpt lat="45.76762" lon="4.83321">
        <ele>184.71057128906</ele>
        <time>2009-09-10T11:48:22Z</time>
      </trkpt>
      <trkpt lat="45.76777" lon="4.83337">
        <ele>185.19116210938</ele>
        <time>2009-09-10T11:48:27Z</time>
      </trkpt>
      <trkpt lat="45.76776" lon="4.83357">
        <ele>185.19116210938</ele>
        <time>2009-09-10T11:48:32Z</time>
      </trkpt>
      <trkpt lat="45.76762" lon="4.83385">
        <ele>184.71057128906</ele>
        <time>2009-09-10T11:48:37Z</time>
      </trkpt>
      <trkpt lat="45.76755" lon="4.83407">
        <ele>185.67175292969</ele>
        <time>2009-09-10T11:48:41Z</time>
      </trkpt>
      <trkpt lat="45.76735" lon="4.83451">
        <ele>184.71057128906</ele>
        <time>2009-09-10T11:48:45Z</time>
      </trkpt>
      <trkpt lat="45.76733" lon="4.8346">
        <ele>183.7490234375</ele>
        <time>2009-09-10T11:48:46Z</time>
      </trkpt>
      <trkpt lat="45.76743" lon="4.83537">
        <ele>184.71057128906</ele>
        <time>2009-09-10T11:48:54Z</time>
      </trkpt>
      <trkpt lat="45.76754" lon="4.83587">
        <ele>184.22985839844</ele>
        <time>2009-09-10T11:49:00Z</time>
      </trkpt>
      <trkpt lat="45.76758" lon="4.83598">
        <ele>184.71057128906</ele>
        <time>2009-09-10T11:49:02Z</time>
      </trkpt>
      <trkpt lat="45.76746" lon="4.83603">
        <ele>184.22985839844</ele>
        <time>2009-09-10T11:49:05Z</time>
      </trkpt>
      <trkpt lat="45.76725" lon="4.83601">
        <ele>184.22985839844</ele>
        <time>2009-09-10T11:49:09Z</time>
      </trkpt>
      <trkpt lat="45.76699" lon="4.83602">
        <ele>184.22985839844</ele>
        <time>2009-09-10T11:49:13Z</time>
      </trkpt>
      <trkpt lat="45.76673" lon="4.83601">
        <ele>183.7490234375</ele>
        <time>2009-09-10T11:49:17Z</time>
      </trkpt>
      <trkpt lat="45.7664" lon="4.83606">
        <ele>184.22985839844</ele>
        <time>2009-09-10T11:49:21Z</time>
      </trkpt>
      <trkpt lat="45.76609" lon="4.83601">
        <ele>183.7490234375</ele>
        <time>2009-09-10T11:49:25Z</time>
      </trkpt>
      <trkpt lat="45.76598" lon="4.83602">
        <ele>183.7490234375</ele>
        <time>2009-09-10T11:49:26Z</time>
      </trkpt>
      <trkpt lat="45.76573" lon="4.83596">
        <ele>183.7490234375</ele>
        <time>2009-09-10T11:49:30Z</time>
      </trkpt>
      <trkpt lat="45.76568" lon="4.83604">
        <ele>184.22985839844</ele>
        <time>2009-09-10T11:49:31Z</time>
      </trkpt>
      <trkpt lat="45.76536" lon="4.83599">
        <ele>184.22985839844</ele>
        <time>2009-09-10T11:49:34Z</time>
      </trkpt>
      <trkpt lat="45.76505" lon="4.83597">
        <ele>184.22985839844</ele>
        <time>2009-09-10T11:49:39Z</time>
      </trkpt>
      <trkpt lat="45.76482" lon="4.83595">
        <ele>184.22985839844</ele>
        <time>2009-09-10T11:49:43Z</time>
      </trkpt>
      <trkpt lat="45.76453" lon="4.83597">
        <ele>184.71057128906</ele>
        <time>2009-09-10T11:49:46Z</time>
      </trkpt>
      <trkpt lat="45.76433" lon="4.83599">
        <ele>184.71057128906</ele>
        <time>2009-09-10T11:49:50Z</time>
      </trkpt>
      <trkpt lat="45.76419" lon="4.83582">
        <ele>184.71057128906</ele>
        <time>2009-09-10T11:49:53Z</time>
      </trkpt>
      <trkpt lat="45.76397" lon="4.83577">
        <ele>184.71057128906</ele>
        <time>2009-09-10T11:49:56Z</time>
      </trkpt>
      <trkpt lat="45.76357" lon="4.83591">
        <ele>184.71057128906</ele>
        <time>2009-09-10T11:50:00Z</time>
      </trkpt>
      <trkpt lat="45.76345" lon="4.83602">
        <ele>184.71057128906</ele>
        <time>2009-09-10T11:50:04Z</time>
      </trkpt>
      <trkpt lat="45.76345" lon="4.83648">
        <ele>185.19116210938</ele>
        <time>2009-09-10T11:50:11Z</time>
      </trkpt>
      <trkpt lat="45.76349" lon="4.837">
        <ele>185.19116210938</ele>
        <time>2009-09-10T11:50:19Z</time>
      </trkpt>
      <trkpt lat="45.76353" lon="4.83712">
        <ele>185.67175292969</ele>
        <time>2009-09-10T11:50:21Z</time>
      </trkpt>
      <trkpt lat="45.76357" lon="4.83758">
        <ele>185.67175292969</ele>
        <time>2009-09-10T11:50:28Z</time>
      </trkpt>
      <trkpt lat="45.76358" lon="4.83777">
        <ele>185.19116210938</ele>
        <time>2009-09-10T11:50:32Z</time>
      </trkpt>
      <trkpt lat="45.76355" lon="4.83787">
        <ele>185.67175292969</ele>
        <time>2009-09-10T11:50:35Z</time>
      </trkpt>
      <trkpt lat="45.76353" lon="4.83793">
        <ele>185.19116210938</ele>
        <time>2009-09-10T11:50:38Z</time>
      </trkpt>
      <trkpt lat="45.76348" lon="4.83791">
        <ele>185.19116210938</ele>
        <time>2009-09-10T11:50:42Z</time>
      </trkpt>
      <trkpt lat="45.7635" lon="4.83783">
        <ele>185.19116210938</ele>
        <time>2009-09-10T11:50:48Z</time>
      </trkpt>
      <trkpt lat="45.76352" lon="4.83779">
        <ele>184.71057128906</ele>
        <time>2009-09-10T11:50:57Z</time>
      </trkpt>
      <trkpt lat="45.7635" lon="4.83782">
        <ele>185.19116210938</ele>
        <time>2009-09-10T11:51:03Z</time>
      </trkpt>
      <trkpt lat="45.7635" lon="4.83784">
        <ele>184.71057128906</ele>
        <time>2009-09-10T11:51:09Z</time>
      </trkpt>
      <trkpt lat="45.76348" lon="4.83786">
        <ele>185.19116210938</ele>
        <time>2009-09-10T11:51:17Z</time>
      </trkpt>
      <trkpt lat="45.76348" lon="4.83791">
        <ele>184.71057128906</ele>
        <time>2009-09-10T11:51:22Z</time>
      </trkpt>
      <trkpt lat="45.76348" lon="4.83802">
        <ele>185.67175292969</ele>
        <time>2009-09-10T11:51:26Z</time>
      </trkpt>
      <trkpt lat="45.76348" lon="4.8383">
        <ele>185.67175292969</ele>
        <time>2009-09-10T11:51:30Z</time>
      </trkpt>
      <trkpt lat="45.7635" lon="4.83896">
        <ele>186.63317871094</ele>
        <time>2009-09-10T11:51:38Z</time>
      </trkpt>
      <trkpt lat="45.7635" lon="4.83962">
        <ele>187.59436035156</ele>
        <time>2009-09-10T11:51:47Z</time>
      </trkpt>
      <trkpt lat="45.7635" lon="4.84024">
        <ele>187.59436035156</ele>
        <time>2009-09-10T11:51:55Z</time>
      </trkpt>
      <trkpt lat="45.7635" lon="4.84099">
        <ele>186.15246582031</ele>
        <time>2009-09-10T11:52:04Z</time>
      </trkpt>
      <trkpt lat="45.7635" lon="4.84106">
        <ele>186.15246582031</ele>
        <time>2009-09-10T11:52:05Z</time>
      </trkpt>
      <trkpt lat="45.76342" lon="4.8413">
        <ele>185.19116210938</ele>
        <time>2009-09-10T11:52:09Z</time>
      </trkpt>
      <trkpt lat="45.76328" lon="4.84131">
        <ele>185.19116210938</ele>
        <time>2009-09-10T11:52:13Z</time>
      </trkpt>
      <trkpt lat="45.76323" lon="4.84131">
        <ele>184.71057128906</ele>
        <time>2009-09-10T11:52:14Z</time>
      </trkpt>
      <trkpt lat="45.76296" lon="4.84126">
        <ele>185.19116210938</ele>
        <time>2009-09-10T11:52:19Z</time>
      </trkpt>
      <trkpt lat="45.76257" lon="4.8412">
        <ele>185.19116210938</ele>
        <time>2009-09-10T11:52:25Z</time>
      </trkpt>
      <trkpt lat="45.76212" lon="4.84114">
        <ele>184.22985839844</ele>
        <time>2009-09-10T11:52:32Z</time>
      </trkpt>
      <trkpt lat="45.76179" lon="4.84108">
        <ele>184.22985839844</ele>
        <time>2009-09-10T11:52:38Z</time>
      </trkpt>
      <trkpt lat="45.76162" lon="4.84096">
        <ele>183.7490234375</ele>
        <time>2009-09-10T11:52:42Z</time>
      </trkpt>
      <trkpt lat="45.76134" lon="4.84089">
        <ele>181.82641601562</ele>
        <time>2009-09-10T11:52:46Z</time>
      </trkpt>
      <trkpt lat="45.76068" lon="4.84072">
        <ele>180.865234375</ele>
        <time>2009-09-10T11:52:54Z</time>
      </trkpt>
      <trkpt lat="45.76021" lon="4.84068">
        <ele>180.865234375</ele>
        <time>2009-09-10T11:53:00Z</time>
      </trkpt>
      <trkpt lat="45.75999" lon="4.84067">
        <ele>180.38452148438</ele>
        <time>2009-09-10T11:53:03Z</time>
      </trkpt>
      <trkpt lat="45.75967" lon="4.84064">
        <ele>180.865234375</ele>
        <time>2009-09-10T11:53:07Z</time>
      </trkpt>
      <trkpt lat="45.75923" lon="4.84063">
        <ele>180.865234375</ele>
        <time>2009-09-10T11:53:13Z</time>
      </trkpt>
      <trkpt lat="45.75874" lon="4.8406">
        <ele>182.30712890625</ele>
        <time>2009-09-10T11:53:20Z</time>
      </trkpt>
      <trkpt lat="45.75846" lon="4.8406">
        <ele>184.22985839844</ele>
        <time>2009-09-10T11:53:26Z</time>
      </trkpt>
      <trkpt lat="45.75845" lon="4.84067">
        <ele>184.22985839844</ele>
        <time>2009-09-10T11:53:30Z</time>
      </trkpt>
      <trkpt lat="45.75857" lon="4.84074">
        <ele>184.22985839844</ele>
        <time>2009-09-10T11:53:34Z</time>
      </trkpt>
      <trkpt lat="45.75892" lon="4.8408">
        <ele>184.22985839844</ele>
        <time>2009-09-10T11:53:42Z</time>
      </trkpt>
      <trkpt lat="45.75912" lon="4.84081">
        <ele>184.71057128906</ele>
        <time>2009-09-10T11:53:48Z</time>
      </trkpt>
      <trkpt lat="45.75916" lon="4.84085">
        <ele>184.71057128906</ele>
        <time>2009-09-10T11:53:52Z</time>
      </trkpt>
      <trkpt lat="45.75917" lon="4.84086">
        <ele>184.71057128906</ele>
        <time>2009-09-10T11:53:59Z</time>
      </trkpt>
      <trkpt lat="45.75917" lon="4.84086">
        <ele>184.22985839844</ele>
        <time>2009-09-10T11:54:01Z</time>
      </trkpt>
      <trkpt lat="45.75916" lon="4.841">
        <ele>184.22985839844</ele>
        <time>2009-09-10T11:54:06Z</time>
      </trkpt>
      <trkpt lat="45.75916" lon="4.84108">
        <ele>183.7490234375</ele>
        <time>2009-09-10T11:54:08Z</time>
      </trkpt>
      <trkpt lat="45.75914" lon="4.84122">
        <ele>184.22985839844</ele>
        <time>2009-09-10T11:54:11Z</time>
      </trkpt>
      <trkpt lat="45.7592" lon="4.84177">
        <ele>183.7490234375</ele>
        <time>2009-09-10T11:54:19Z</time>
      </trkpt>
      <trkpt lat="45.75921" lon="4.84184">
        <ele>183.7490234375</ele>
        <time>2009-09-10T11:54:20Z</time>
      </trkpt>
      <trkpt lat="45.75923" lon="4.84225">
        <ele>183.26843261719</ele>
        <time>2009-09-10T11:54:26Z</time>
      </trkpt>
      <trkpt lat="45.75923" lon="4.84237">
        <ele>183.26843261719</ele>
        <time>2009-09-10T11:54:30Z</time>
      </trkpt>
      <trkpt lat="45.75924" lon="4.8424">
        <ele>182.78784179688</ele>
        <time>2009-09-10T11:54:31Z</time>
      </trkpt>
      <trkpt lat="45.75928" lon="4.84265">
        <ele>182.78784179688</ele>
        <time>2009-09-10T11:54:35Z</time>
      </trkpt>
      <trkpt lat="45.75936" lon="4.84302">
        <ele>182.30712890625</ele>
        <time>2009-09-10T11:54:40Z</time>
      </trkpt>
      <trkpt lat="45.7594" lon="4.84325">
        <ele>182.78784179688</ele>
        <time>2009-09-10T11:54:43Z</time>
      </trkpt>
      <trkpt lat="45.7594" lon="4.84349">
        <ele>182.78784179688</ele>
        <time>2009-09-10T11:54:46Z</time>
      </trkpt>
      <trkpt lat="45.75944" lon="4.84387">
        <ele>182.78784179688</ele>
        <time>2009-09-10T11:54:51Z</time>
      </trkpt>
      <trkpt lat="45.75943" lon="4.84453">
        <ele>181.82641601562</ele>
        <time>2009-09-10T11:54:58Z</time>
      </trkpt>
      <trkpt lat="45.75948" lon="4.84478">
        <ele>181.82641601562</ele>
        <time>2009-09-10T11:55:01Z</time>
      </trkpt>
      <trkpt lat="45.7595" lon="4.84519">
        <ele>181.34582519531</ele>
        <time>2009-09-10T11:55:06Z</time>
      </trkpt>
      <trkpt lat="45.75953" lon="4.84539">
        <ele>181.34582519531</ele>
        <time>2009-09-10T11:55:09Z</time>
      </trkpt>
      <trkpt lat="45.75951" lon="4.84565">
        <ele>181.34582519531</ele>
        <time>2009-09-10T11:55:14Z</time>
      </trkpt>
      <trkpt lat="45.75947" lon="4.84568">
        <ele>181.82641601562</ele>
        <time>2009-09-10T11:55:19Z</time>
      </trkpt>
      <trkpt lat="45.75946" lon="4.84572">
        <ele>181.82641601562</ele>
        <time>2009-09-10T11:55:22Z</time>
      </trkpt>
      <trkpt lat="45.75947" lon="4.84577">
        <ele>181.82641601562</ele>
        <time>2009-09-10T11:55:25Z</time>
      </trkpt>
      <trkpt lat="45.7595" lon="4.84591">
        <ele>181.82641601562</ele>
        <time>2009-09-10T11:55:29Z</time>
      </trkpt>
      <trkpt lat="45.75954" lon="4.84629">
        <ele>181.34582519531</ele>
        <time>2009-09-10T11:55:33Z</time>
      </trkpt>
      <trkpt lat="45.75954" lon="4.84684">
        <ele>182.30712890625</ele>
        <time>2009-09-10T11:55:39Z</time>
      </trkpt>
      <trkpt lat="45.75957" lon="4.8474">
        <ele>182.30712890625</ele>
        <time>2009-09-10T11:55:46Z</time>
      </trkpt>
      <trkpt lat="45.75964" lon="4.84804">
        <ele>182.30712890625</ele>
        <time>2009-09-10T11:55:54Z</time>
      </trkpt>
      <trkpt lat="45.75967" lon="4.84855">
        <ele>182.30712890625</ele>
        <time>2009-09-10T11:56:00Z</time>
      </trkpt>
      <trkpt lat="45.75972" lon="4.8489">
        <ele>181.82641601562</ele>
        <time>2009-09-10T11:56:04Z</time>
      </trkpt>
      <trkpt lat="45.75977" lon="4.84928">
        <ele>181.82641601562</ele>
        <time>2009-09-10T11:56:09Z</time>
      </trkpt>
      <trkpt lat="45.7598" lon="4.84944">
        <ele>181.82641601562</ele>
        <time>2009-09-10T11:56:11Z</time>
      </trkpt>
      <trkpt lat="45.75984" lon="4.84969">
        <ele>182.30712890625</ele>
        <time>2009-09-10T11:56:14Z</time>
      </trkpt>
      <trkpt lat="45.75987" lon="4.85001">
        <ele>182.78784179688</ele>
        <time>2009-09-10T11:56:18Z</time>
      </trkpt>
      <trkpt lat="45.75987" lon="4.85026">
        <ele>182.78784179688</ele>
        <time>2009-09-10T11:56:21Z</time>
      </trkpt>
      <trkpt lat="45.75987" lon="4.85091">
        <ele>182.78784179688</ele>
        <time>2009-09-10T11:56:29Z</time>
      </trkpt>
      <trkpt lat="45.75999" lon="4.85121">
        <ele>182.78784179688</ele>
        <time>2009-09-10T11:56:33Z</time>
      </trkpt>
      <trkpt lat="45.76003" lon="4.85152">
        <ele>182.78784179688</ele>
        <time>2009-09-10T11:56:36Z</time>
      </trkpt>
      <trkpt lat="45.76003" lon="4.85195">
        <ele>182.30712890625</ele>
        <time>2009-09-10T11:56:41Z</time>
      </trkpt>
      <trkpt lat="45.75986" lon="4.85205">
        <ele>182.78784179688</ele>
        <time>2009-09-10T11:56:44Z</time>
      </trkpt>
      <trkpt lat="45.75946" lon="4.85214">
        <ele>182.30712890625</ele>
        <time>2009-09-10T11:56:52Z</time>
      </trkpt>
      <trkpt lat="45.75937" lon="4.85217">
        <ele>182.30712890625</ele>
        <time>2009-09-10T11:56:54Z</time>
      </trkpt>
      <trkpt lat="45.75933" lon="4.85233">
        <ele>181.82641601562</ele>
        <time>2009-09-10T11:56:59Z</time>
      </trkpt>
      <trkpt lat="45.75933" lon="4.85262">
        <ele>182.78784179688</ele>
        <time>2009-09-10T11:57:05Z</time>
      </trkpt>
      <trkpt lat="45.75934" lon="4.85285">
        <ele>182.78784179688</ele>
        <time>2009-09-10T11:57:09Z</time>
      </trkpt>
      <trkpt lat="45.75939" lon="4.85345">
        <ele>182.78784179688</ele>
        <time>2009-09-10T11:57:17Z</time>
      </trkpt>
      <trkpt lat="45.75943" lon="4.85411">
        <ele>183.26843261719</ele>
        <time>2009-09-10T11:57:25Z</time>
      </trkpt>
      <trkpt lat="45.75944" lon="4.85434">
        <ele>182.78784179688</ele>
        <time>2009-09-10T11:57:28Z</time>
      </trkpt>
      <trkpt lat="45.75941" lon="4.8547">
        <ele>183.26843261719</ele>
        <time>2009-09-10T11:57:32Z</time>
      </trkpt>
      <trkpt lat="45.75938" lon="4.85494">
        <ele>182.30712890625</ele>
        <time>2009-09-10T11:57:35Z</time>
      </trkpt>
      <trkpt lat="45.75934" lon="4.85522">
        <ele>182.78784179688</ele>
        <time>2009-09-10T11:57:39Z</time>
      </trkpt>
      <trkpt lat="45.75935" lon="4.85534">
        <ele>182.78784179688</ele>
        <time>2009-09-10T11:57:41Z</time>
      </trkpt>
      <trkpt lat="45.75936" lon="4.85545">
        <ele>182.30712890625</ele>
        <time>2009-09-10T11:57:43Z</time>
      </trkpt>
      <trkpt lat="45.75953" lon="4.85572">
        <ele>182.78784179688</ele>
        <time>2009-09-10T11:57:48Z</time>
      </trkpt>
      <trkpt lat="45.75958" lon="4.85586">
        <ele>182.78784179688</ele>
        <time>2009-09-10T11:57:50Z</time>
      </trkpt>
      <trkpt lat="45.75967" lon="4.85605">
        <ele>182.78784179688</ele>
        <time>2009-09-10T11:57:53Z</time>
      </trkpt>
      <trkpt lat="45.75978" lon="4.85625">
        <ele>183.26843261719</ele>
        <time>2009-09-10T11:57:57Z</time>
      </trkpt>
      <trkpt lat="45.75983" lon="4.85642">
        <ele>183.26843261719</ele>
        <time>2009-09-10T11:58:00Z</time>
      </trkpt>
      <trkpt lat="45.75986" lon="4.857">
        <ele>182.30712890625</ele>
        <time>2009-09-10T11:58:09Z</time>
      </trkpt>
      <trkpt lat="45.75988" lon="4.85716">
        <ele>182.78784179688</ele>
        <time>2009-09-10T11:58:12Z</time>
      </trkpt>
      <trkpt lat="45.75991" lon="4.85766">
        <ele>183.26843261719</ele>
        <time>2009-09-10T11:58:19Z</time>
      </trkpt>
      <trkpt lat="45.75996" lon="4.85824">
        <ele>182.78784179688</ele>
        <time>2009-09-10T11:58:27Z</time>
      </trkpt>
      <trkpt lat="45.75998" lon="4.85837">
        <ele>183.26843261719</ele>
        <time>2009-09-10T11:58:29Z</time>
      </trkpt>
      <trkpt lat="45.75991" lon="4.85844">
        <ele>182.78784179688</ele>
        <time>2009-09-10T11:58:33Z</time>
      </trkpt>
      <trkpt lat="45.75974" lon="4.85842">
        <ele>182.30712890625</ele>
        <time>2009-09-10T11:58:38Z</time>
      </trkpt>
      <trkpt lat="45.75953" lon="4.85845">
        <ele>182.30712890625</ele>
        <time>2009-09-10T11:58:43Z</time>
      </trkpt>
      <trkpt lat="45.75933" lon="4.85849">
        <ele>182.30712890625</ele>
        <time>2009-09-10T11:58:47Z</time>
      </trkpt>
      <trkpt lat="45.75912" lon="4.85855">
        <ele>182.30712890625</ele>
        <time>2009-09-10T11:58:52Z</time>
      </trkpt>
      <trkpt lat="45.75898" lon="4.85854">
        <ele>182.78784179688</ele>
        <time>2009-09-10T11:58:55Z</time>
      </trkpt>
      <trkpt lat="45.75882" lon="4.85861">
        <ele>182.30712890625</ele>
        <time>2009-09-10T11:58:59Z</time>
      </trkpt>
      <trkpt lat="45.75872" lon="4.85885">
        <ele>182.30712890625</ele>
        <time>2009-09-10T11:59:03Z</time>
      </trkpt>
      <trkpt lat="45.75874" lon="4.85894">
        <ele>182.30712890625</ele>
        <time>2009-09-10T11:59:04Z</time>
      </trkpt>
      <trkpt lat="45.75875" lon="4.85921">
        <ele>182.30712890625</ele>
        <time>2009-09-10T11:59:07Z</time>
      </trkpt>
      <trkpt lat="45.75886" lon="4.85936">
        <ele>181.82641601562</ele>
        <time>2009-09-10T11:59:12Z</time>
      </trkpt>
      <trkpt lat="45.75884" lon="4.85932">
        <ele>181.82641601562</ele>
        <time>2009-09-10T11:59:15Z</time>
      </trkpt>
      <trkpt lat="45.75878" lon="4.8593">
        <ele>181.34582519531</ele>
        <time>2009-09-10T11:59:18Z</time>
      </trkpt>
      <trkpt lat="45.75856" lon="4.85945">
        <ele>181.82641601562</ele>
        <time>2009-09-10T11:59:22Z</time>
      </trkpt>
      <trkpt lat="45.75873" lon="4.86036">
        <ele>181.82641601562</ele>
        <time>2009-09-10T11:59:25Z</time>
      </trkpt>
      <trkpt lat="45.75875" lon="4.86117">
        <ele>181.34582519531</ele>
        <time>2009-09-10T11:59:29Z</time>
      </trkpt>
      <trkpt lat="45.75877" lon="4.86124">
        <ele>181.34582519531</ele>
        <time>2009-09-10T11:59:30Z</time>
      </trkpt>
      <trkpt lat="45.75882" lon="4.86146">
        <ele>181.82641601562</ele>
        <time>2009-09-10T11:59:33Z</time>
      </trkpt>
      <trkpt lat="45.75888" lon="4.86168">
        <ele>182.30712890625</ele>
        <time>2009-09-10T11:59:37Z</time>
      </trkpt>
      <trkpt lat="45.75869" lon="4.86172">
        <ele>182.78784179688</ele>
        <time>2009-09-10T11:59:40Z</time>
      </trkpt>
      <trkpt lat="45.75861" lon="4.8617">
        <ele>182.78784179688</ele>
        <time>2009-09-10T11:59:41Z</time>
      </trkpt>
      <trkpt lat="45.75807" lon="4.86166">
        <ele>182.78784179688</ele>
        <time>2009-09-10T11:59:48Z</time>
      </trkpt>
      <trkpt lat="45.7576" lon="4.86154">
        <ele>182.30712890625</ele>
        <time>2009-09-10T11:59:54Z</time>
      </trkpt>
      <trkpt lat="45.75725" lon="4.86155">
        <ele>182.30712890625</ele>
        <time>2009-09-10T11:59:59Z</time>
      </trkpt>
      <trkpt lat="45.75711" lon="4.86152">
        <ele>182.30712890625</ele>
        <time>2009-09-10T12:00:01Z</time>
      </trkpt>
      <trkpt lat="45.75699" lon="4.86145">
        <ele>181.82641601562</ele>
        <time>2009-09-10T12:00:05Z</time>
      </trkpt>
      <trkpt lat="45.75702" lon="4.86142">
        <ele>182.30712890625</ele>
        <time>2009-09-10T12:00:09Z</time>
      </trkpt>
      <trkpt lat="45.75698" lon="4.86141">
        <ele>182.78784179688</ele>
        <time>2009-09-10T12:00:11Z</time>
      </trkpt>
      <trkpt lat="45.75678" lon="4.86128">
        <ele>182.78784179688</ele>
        <time>2009-09-10T12:00:15Z</time>
      </trkpt>
      <trkpt lat="45.75645" lon="4.86109">
        <ele>182.30712890625</ele>
        <time>2009-09-10T12:00:20Z</time>
      </trkpt>
      <trkpt lat="45.75592" lon="4.86123">
        <ele>182.78784179688</ele>
        <time>2009-09-10T12:00:28Z</time>
      </trkpt>
      <trkpt lat="45.75545" lon="4.86145">
        <ele>183.26843261719</ele>
        <time>2009-09-10T12:00:35Z</time>
      </trkpt>
      <trkpt lat="45.75532" lon="4.86154">
        <ele>182.78784179688</ele>
        <time>2009-09-10T12:00:37Z</time>
      </trkpt>
      <trkpt lat="45.755" lon="4.86197">
        <ele>183.26843261719</ele>
        <time>2009-09-10T12:00:43Z</time>
      </trkpt>
      <trkpt lat="45.75468" lon="4.86256">
        <ele>183.7490234375</ele>
        <time>2009-09-10T12:00:50Z</time>
      </trkpt>
      <trkpt lat="45.75447" lon="4.86299">
        <ele>183.26843261719</ele>
        <time>2009-09-10T12:00:56Z</time>
      </trkpt>
      <trkpt lat="45.75424" lon="4.8634">
        <ele>184.22985839844</ele>
        <time>2009-09-10T12:01:02Z</time>
      </trkpt>
      <trkpt lat="45.75411" lon="4.86365">
        <ele>184.71057128906</ele>
        <time>2009-09-10T12:01:05Z</time>
      </trkpt>
      <trkpt lat="45.75395" lon="4.86406">
        <ele>184.71057128906</ele>
        <time>2009-09-10T12:01:10Z</time>
      </trkpt>
      <trkpt lat="45.75376" lon="4.86435">
        <ele>184.22985839844</ele>
        <time>2009-09-10T12:01:14Z</time>
      </trkpt>
      <trkpt lat="45.75373" lon="4.86443">
        <ele>184.22985839844</ele>
        <time>2009-09-10T12:01:15Z</time>
      </trkpt>
      <trkpt lat="45.75348" lon="4.86515">
        <ele>184.71057128906</ele>
        <time>2009-09-10T12:01:23Z</time>
      </trkpt>
      <trkpt lat="45.7533" lon="4.86597">
        <ele>184.71057128906</ele>
        <time>2009-09-10T12:01:31Z</time>
      </trkpt>
      <trkpt lat="45.75325" lon="4.86643">
        <ele>186.15246582031</ele>
        <time>2009-09-10T12:01:35Z</time>
      </trkpt>
      <trkpt lat="45.75325" lon="4.86664">
        <ele>185.19116210938</ele>
        <time>2009-09-10T12:01:37Z</time>
      </trkpt>
      <trkpt lat="45.75315" lon="4.8676">
        <ele>184.71057128906</ele>
        <time>2009-09-10T12:01:46Z</time>
      </trkpt>
      <trkpt lat="45.75309" lon="4.86803">
        <ele>184.71057128906</ele>
        <time>2009-09-10T12:01:51Z</time>
      </trkpt>
      <trkpt lat="45.75306" lon="4.86834">
        <ele>184.71057128906</ele>
        <time>2009-09-10T12:01:55Z</time>
      </trkpt>
      <trkpt lat="45.75296" lon="4.86846">
        <ele>184.71057128906</ele>
        <time>2009-09-10T12:01:58Z</time>
      </trkpt>
      <trkpt lat="45.75292" lon="4.86847">
        <ele>185.67175292969</ele>
        <time>2009-09-10T12:01:59Z</time>
      </trkpt>
      <trkpt lat="45.75287" lon="4.86869">
        <ele>184.71057128906</ele>
        <time>2009-09-10T12:02:03Z</time>
      </trkpt>
      <trkpt lat="45.75277" lon="4.86881">
        <ele>185.19116210938</ele>
        <time>2009-09-10T12:02:07Z</time>
      </trkpt>
      <trkpt lat="45.75273" lon="4.8688">
        <ele>185.19116210938</ele>
        <time>2009-09-10T12:02:08Z</time>
      </trkpt>
      <trkpt lat="45.75251" lon="4.86875">
        <ele>184.71057128906</ele>
        <time>2009-09-10T12:02:12Z</time>
      </trkpt>
      <trkpt lat="45.75214" lon="4.86868">
        <ele>185.19116210938</ele>
        <time>2009-09-10T12:02:18Z</time>
      </trkpt>
      <trkpt lat="45.75195" lon="4.86867">
        <ele>185.19116210938</ele>
        <time>2009-09-10T12:02:20Z</time>
      </trkpt>
      <trkpt lat="45.75145" lon="4.86858">
        <ele>186.63317871094</ele>
        <time>2009-09-10T12:02:26Z</time>
      </trkpt>
      <trkpt lat="45.75099" lon="4.86859">
        <ele>185.67175292969</ele>
        <time>2009-09-10T12:02:32Z</time>
      </trkpt>
      <trkpt lat="45.75061" lon="4.86849">
        <ele>185.67175292969</ele>
        <time>2009-09-10T12:02:37Z</time>
      </trkpt>
      <trkpt lat="45.75044" lon="4.86849">
        <ele>186.15246582031</ele>
        <time>2009-09-10T12:02:40Z</time>
      </trkpt>
      <trkpt lat="45.75013" lon="4.86849">
        <ele>185.67175292969</ele>
        <time>2009-09-10T12:02:47Z</time>
      </trkpt>
      <trkpt lat="45.74995" lon="4.86847">
        <ele>186.15246582031</ele>
        <time>2009-09-10T12:02:53Z</time>
      </trkpt>
      <trkpt lat="45.74977" lon="4.86845">
        <ele>187.11376953125</ele>
        <time>2009-09-10T12:02:57Z</time>
      </trkpt>
      <trkpt lat="45.7494" lon="4.86836">
        <ele>186.63317871094</ele>
        <time>2009-09-10T12:03:03Z</time>
      </trkpt>
      <trkpt lat="45.74904" lon="4.86812">
        <ele>186.15246582031</ele>
        <time>2009-09-10T12:03:09Z</time>
      </trkpt>
      <trkpt lat="45.74869" lon="4.86795">
        <ele>186.63317871094</ele>
        <time>2009-09-10T12:03:14Z</time>
      </trkpt>
      <trkpt lat="45.74831" lon="4.86764">
        <ele>186.63317871094</ele>
        <time>2009-09-10T12:03:20Z</time>
      </trkpt>
      <trkpt lat="45.74796" lon="4.86755">
        <ele>185.67175292969</ele>
        <time>2009-09-10T12:03:26Z</time>
      </trkpt>
      <trkpt lat="45.74792" lon="4.86744">
        <ele>186.15246582031</ele>
        <time>2009-09-10T12:03:30Z</time>
      </trkpt>
      <trkpt lat="45.74796" lon="4.86726">
        <ele>185.67175292969</ele>
        <time>2009-09-10T12:03:33Z</time>
      </trkpt>
      <trkpt lat="45.74798" lon="4.8672">
        <ele>185.67175292969</ele>
        <time>2009-09-10T12:03:34Z</time>
      </trkpt>
      <trkpt lat="45.74818" lon="4.86654">
        <ele>186.15246582031</ele>
        <time>2009-09-10T12:03:43Z</time>
      </trkpt>
      <trkpt lat="45.74826" lon="4.8663">
        <ele>186.15246582031</ele>
        <time>2009-09-10T12:03:47Z</time>
      </trkpt>
      <trkpt lat="45.74826" lon="4.86626">
        <ele>185.67175292969</ele>
        <time>2009-09-10T12:03:51Z</time>
      </trkpt>
      <trkpt lat="45.74829" lon="4.86628">
        <ele>185.67175292969</ele>
        <time>2009-09-10T12:03:53Z</time>
      </trkpt>
    </trkseg>
  </trk>
</gpx>